<?xml version="1.0" encoding="UTF-8"?>
<gpx creator="StravaGPX" version="1.1" xmlns="http://www.topografix.com/GPX/1/1" xmlns:xsi="http://www.w3.org/2001/XMLSchema-instance" xsi:schemaLocation="http://www.topografix.com/GPX/1/1 http://www.topografix.com/GPX/1/1/gpx.xsd">
 <metadata>
  <time>2026-01-08T11:27:31Z</time>
 </metadata>
 <trk>
  <name>Afternoon Run</name>
  <type>running</type>
  <trkseg>
   <trkpt lat="59.1380230" lon="9.6438530">
    <ele>3.2</ele>
    <time>2026-01-08T11:27:31Z</time>
   </trkpt>
   <trkpt lat="59.1380200" lon="9.6438480">
    <ele>3.2</ele>
    <time>2026-01-08T11:27:32Z</time>
   </trkpt>
   <trkpt lat="59.1380200" lon="9.6438410">
    <ele>3.2</ele>
    <time>2026-01-08T11:27:34Z</time>
   </trkpt>
   <trkpt lat="59.1380210" lon="9.6438350">
    <ele>3.2</ele>
    <time>2026-01-08T11:27:35Z</time>
   </trkpt>
   <trkpt lat="59.1380220" lon="9.6438280">
    <ele>3.2</ele>
    <time>2026-01-08T11:27:36Z</time>
   </trkpt>
   <trkpt lat="59.1380230" lon="9.6438220">
    <ele>3.2</ele>
    <time>2026-01-08T11:27:37Z</time>
   </trkpt>
   <trkpt lat="59.1380230" lon="9.6438150">
    <ele>3.2</ele>
    <time>2026-01-08T11:27:38Z</time>
   </trkpt>
   <trkpt lat="59.1380240" lon="9.6438090">
    <ele>3.2</ele>
    <time>2026-01-08T11:27:39Z</time>
   </trkpt>
   <trkpt lat="59.1380250" lon="9.6438020">
    <ele>3.2</ele>
    <time>2026-01-08T11:27:40Z</time>
   </trkpt>
   <trkpt lat="59.1380260" lon="9.6437960">
    <ele>3.2</ele>
    <time>2026-01-08T11:27:41Z</time>
   </trkpt>
   <trkpt lat="59.1380260" lon="9.6437890">
    <ele>3.2</ele>
    <time>2026-01-08T11:27:42Z</time>
   </trkpt>
   <trkpt lat="59.1380270" lon="9.6437830">
    <ele>3.2</ele>
    <time>2026-01-08T11:27:43Z</time>
   </trkpt>
   <trkpt lat="59.1380280" lon="9.6437760">
    <ele>3.2</ele>
    <time>2026-01-08T11:27:44Z</time>
   </trkpt>
   <trkpt lat="59.1380290" lon="9.6437700">
    <ele>3.1</ele>
    <time>2026-01-08T11:27:45Z</time>
   </trkpt>
   <trkpt lat="59.1380290" lon="9.6437630">
    <ele>3.1</ele>
    <time>2026-01-08T11:27:46Z</time>
   </trkpt>
   <trkpt lat="59.1380300" lon="9.6437570">
    <ele>3.1</ele>
    <time>2026-01-08T11:27:47Z</time>
   </trkpt>
   <trkpt lat="59.1380070" lon="9.6436900">
    <ele>3.1</ele>
    <time>2026-01-08T11:27:48Z</time>
   </trkpt>
   <trkpt lat="59.1379950" lon="9.6436510">
    <ele>3.1</ele>
    <time>2026-01-08T11:27:49Z</time>
   </trkpt>
   <trkpt lat="59.1380010" lon="9.6436470">
    <ele>3.1</ele>
    <time>2026-01-08T11:27:50Z</time>
   </trkpt>
   <trkpt lat="59.1379990" lon="9.6436320">
    <ele>3.1</ele>
    <time>2026-01-08T11:27:51Z</time>
   </trkpt>
   <trkpt lat="59.1379990" lon="9.6436120">
    <ele>3.1</ele>
    <time>2026-01-08T11:27:52Z</time>
   </trkpt>
   <trkpt lat="59.1379980" lon="9.6436010">
    <ele>3.1</ele>
    <time>2026-01-08T11:27:53Z</time>
   </trkpt>
   <trkpt lat="59.1379970" lon="9.6435910">
    <ele>3.1</ele>
    <time>2026-01-08T11:27:54Z</time>
   </trkpt>
   <trkpt lat="59.1379960" lon="9.6435810">
    <ele>3.1</ele>
    <time>2026-01-08T11:27:55Z</time>
   </trkpt>
   <trkpt lat="59.1379950" lon="9.6435700">
    <ele>3.1</ele>
    <time>2026-01-08T11:27:56Z</time>
   </trkpt>
   <trkpt lat="59.1379940" lon="9.6435600">
    <ele>3.1</ele>
    <time>2026-01-08T11:27:57Z</time>
   </trkpt>
   <trkpt lat="59.1379700" lon="9.6435250">
    <ele>3.1</ele>
    <time>2026-01-08T11:27:58Z</time>
   </trkpt>
   <trkpt lat="59.1379330" lon="9.6434720">
    <ele>3.0</ele>
    <time>2026-01-08T11:27:59Z</time>
   </trkpt>
   <trkpt lat="59.1379150" lon="9.6434470">
    <ele>3.0</ele>
    <time>2026-01-08T11:28:00Z</time>
   </trkpt>
   <trkpt lat="59.1378980" lon="9.6434160">
    <ele>2.9</ele>
    <time>2026-01-08T11:28:01Z</time>
   </trkpt>
   <trkpt lat="59.1378940" lon="9.6434000">
    <ele>2.9</ele>
    <time>2026-01-08T11:28:02Z</time>
   </trkpt>
   <trkpt lat="59.1378870" lon="9.6433850">
    <ele>2.9</ele>
    <time>2026-01-08T11:28:03Z</time>
   </trkpt>
   <trkpt lat="59.1378920" lon="9.6433670">
    <ele>2.8</ele>
    <time>2026-01-08T11:28:04Z</time>
   </trkpt>
   <trkpt lat="59.1378860" lon="9.6433410">
    <ele>2.8</ele>
    <time>2026-01-08T11:28:05Z</time>
   </trkpt>
   <trkpt lat="59.1378700" lon="9.6432990">
    <ele>2.8</ele>
    <time>2026-01-08T11:28:06Z</time>
   </trkpt>
   <trkpt lat="59.1378610" lon="9.6432740">
    <ele>2.8</ele>
    <time>2026-01-08T11:28:07Z</time>
   </trkpt>
   <trkpt lat="59.1378580" lon="9.6432410">
    <ele>2.8</ele>
    <time>2026-01-08T11:28:08Z</time>
   </trkpt>
   <trkpt lat="59.1378450" lon="9.6432020">
    <ele>2.8</ele>
    <time>2026-01-08T11:28:09Z</time>
   </trkpt>
   <trkpt lat="59.1378420" lon="9.6431890">
    <ele>2.8</ele>
    <time>2026-01-08T11:28:10Z</time>
   </trkpt>
   <trkpt lat="59.1378400" lon="9.6431750">
    <ele>2.8</ele>
    <time>2026-01-08T11:28:11Z</time>
   </trkpt>
   <trkpt lat="59.1378320" lon="9.6431630">
    <ele>2.8</ele>
    <time>2026-01-08T11:28:12Z</time>
   </trkpt>
   <trkpt lat="59.1378200" lon="9.6431370">
    <ele>2.8</ele>
    <time>2026-01-08T11:28:13Z</time>
   </trkpt>
   <trkpt lat="59.1378050" lon="9.6431030">
    <ele>2.7</ele>
    <time>2026-01-08T11:28:14Z</time>
   </trkpt>
   <trkpt lat="59.1378010" lon="9.6430850">
    <ele>2.7</ele>
    <time>2026-01-08T11:28:15Z</time>
   </trkpt>
   <trkpt lat="59.1377970" lon="9.6430680">
    <ele>2.7</ele>
    <time>2026-01-08T11:28:16Z</time>
   </trkpt>
   <trkpt lat="59.1377900" lon="9.6430360">
    <ele>2.7</ele>
    <time>2026-01-08T11:28:17Z</time>
   </trkpt>
   <trkpt lat="59.1377830" lon="9.6430100">
    <ele>2.7</ele>
    <time>2026-01-08T11:28:18Z</time>
   </trkpt>
   <trkpt lat="59.1377790" lon="9.6429860">
    <ele>2.7</ele>
    <time>2026-01-08T11:28:19Z</time>
   </trkpt>
   <trkpt lat="59.1377680" lon="9.6429640">
    <ele>2.7</ele>
    <time>2026-01-08T11:28:20Z</time>
   </trkpt>
   <trkpt lat="59.1377510" lon="9.6429390">
    <ele>2.6</ele>
    <time>2026-01-08T11:28:21Z</time>
   </trkpt>
   <trkpt lat="59.1377500" lon="9.6429180">
    <ele>2.6</ele>
    <time>2026-01-08T11:28:22Z</time>
   </trkpt>
   <trkpt lat="59.1377340" lon="9.6428710">
    <ele>2.6</ele>
    <time>2026-01-08T11:28:23Z</time>
   </trkpt>
   <trkpt lat="59.1377280" lon="9.6428570">
    <ele>2.6</ele>
    <time>2026-01-08T11:28:24Z</time>
   </trkpt>
   <trkpt lat="59.1377220" lon="9.6428340">
    <ele>2.6</ele>
    <time>2026-01-08T11:28:25Z</time>
   </trkpt>
   <trkpt lat="59.1377090" lon="9.6428120">
    <ele>2.6</ele>
    <time>2026-01-08T11:28:26Z</time>
   </trkpt>
   <trkpt lat="59.1376900" lon="9.6427790">
    <ele>2.6</ele>
    <time>2026-01-08T11:28:27Z</time>
   </trkpt>
   <trkpt lat="59.1376860" lon="9.6427640">
    <ele>2.6</ele>
    <time>2026-01-08T11:28:28Z</time>
   </trkpt>
   <trkpt lat="59.1376830" lon="9.6427500">
    <ele>2.6</ele>
    <time>2026-01-08T11:28:29Z</time>
   </trkpt>
   <trkpt lat="59.1376760" lon="9.6427240">
    <ele>2.6</ele>
    <time>2026-01-08T11:28:30Z</time>
   </trkpt>
   <trkpt lat="59.1376690" lon="9.6426960">
    <ele>2.6</ele>
    <time>2026-01-08T11:28:31Z</time>
   </trkpt>
   <trkpt lat="59.1376530" lon="9.6426600">
    <ele>2.6</ele>
    <time>2026-01-08T11:28:32Z</time>
   </trkpt>
   <trkpt lat="59.1376450" lon="9.6426470">
    <ele>2.6</ele>
    <time>2026-01-08T11:28:33Z</time>
   </trkpt>
   <trkpt lat="59.1376380" lon="9.6426330">
    <ele>2.6</ele>
    <time>2026-01-08T11:28:34Z</time>
   </trkpt>
   <trkpt lat="59.1376180" lon="9.6425950">
    <ele>2.6</ele>
    <time>2026-01-08T11:28:35Z</time>
   </trkpt>
   <trkpt lat="59.1376090" lon="9.6425800">
    <ele>2.6</ele>
    <time>2026-01-08T11:28:36Z</time>
   </trkpt>
   <trkpt lat="59.1375980" lon="9.6425590">
    <ele>2.6</ele>
    <time>2026-01-08T11:28:37Z</time>
   </trkpt>
   <trkpt lat="59.1375890" lon="9.6425340">
    <ele>2.6</ele>
    <time>2026-01-08T11:28:38Z</time>
   </trkpt>
   <trkpt lat="59.1375800" lon="9.6425090">
    <ele>2.6</ele>
    <time>2026-01-08T11:28:39Z</time>
   </trkpt>
   <trkpt lat="59.1375760" lon="9.6424740">
    <ele>2.6</ele>
    <time>2026-01-08T11:28:40Z</time>
   </trkpt>
   <trkpt lat="59.1375710" lon="9.6424540">
    <ele>2.6</ele>
    <time>2026-01-08T11:28:41Z</time>
   </trkpt>
   <trkpt lat="59.1375570" lon="9.6424250">
    <ele>2.6</ele>
    <time>2026-01-08T11:28:42Z</time>
   </trkpt>
   <trkpt lat="59.1375470" lon="9.6423910">
    <ele>2.6</ele>
    <time>2026-01-08T11:28:43Z</time>
   </trkpt>
   <trkpt lat="59.1375410" lon="9.6423710">
    <ele>2.6</ele>
    <time>2026-01-08T11:28:44Z</time>
   </trkpt>
   <trkpt lat="59.1375350" lon="9.6423520">
    <ele>2.6</ele>
    <time>2026-01-08T11:28:45Z</time>
   </trkpt>
   <trkpt lat="59.1375210" lon="9.6423310">
    <ele>2.6</ele>
    <time>2026-01-08T11:28:46Z</time>
   </trkpt>
   <trkpt lat="59.1375090" lon="9.6423050">
    <ele>2.6</ele>
    <time>2026-01-08T11:28:47Z</time>
   </trkpt>
   <trkpt lat="59.1374970" lon="9.6422790">
    <ele>2.6</ele>
    <time>2026-01-08T11:28:48Z</time>
   </trkpt>
   <trkpt lat="59.1374900" lon="9.6422500">
    <ele>2.6</ele>
    <time>2026-01-08T11:28:49Z</time>
   </trkpt>
   <trkpt lat="59.1374780" lon="9.6422290">
    <ele>2.6</ele>
    <time>2026-01-08T11:28:50Z</time>
   </trkpt>
   <trkpt lat="59.1374710" lon="9.6422070">
    <ele>2.6</ele>
    <time>2026-01-08T11:28:51Z</time>
   </trkpt>
   <trkpt lat="59.1374680" lon="9.6421850">
    <ele>2.6</ele>
    <time>2026-01-08T11:28:52Z</time>
   </trkpt>
   <trkpt lat="59.1374570" lon="9.6421570">
    <ele>2.6</ele>
    <time>2026-01-08T11:28:53Z</time>
   </trkpt>
   <trkpt lat="59.1374520" lon="9.6421360">
    <ele>2.6</ele>
    <time>2026-01-08T11:28:54Z</time>
   </trkpt>
   <trkpt lat="59.1374450" lon="9.6421080">
    <ele>2.5</ele>
    <time>2026-01-08T11:28:55Z</time>
   </trkpt>
   <trkpt lat="59.1374330" lon="9.6420760">
    <ele>2.5</ele>
    <time>2026-01-08T11:28:56Z</time>
   </trkpt>
   <trkpt lat="59.1374270" lon="9.6420590">
    <ele>2.5</ele>
    <time>2026-01-08T11:28:57Z</time>
   </trkpt>
   <trkpt lat="59.1374210" lon="9.6420430">
    <ele>2.5</ele>
    <time>2026-01-08T11:28:58Z</time>
   </trkpt>
   <trkpt lat="59.1374100" lon="9.6420240">
    <ele>2.5</ele>
    <time>2026-01-08T11:28:59Z</time>
   </trkpt>
   <trkpt lat="59.1374000" lon="9.6420000">
    <ele>2.5</ele>
    <time>2026-01-08T11:29:00Z</time>
   </trkpt>
   <trkpt lat="59.1373900" lon="9.6419770">
    <ele>2.5</ele>
    <time>2026-01-08T11:29:01Z</time>
   </trkpt>
   <trkpt lat="59.1373850" lon="9.6419490">
    <ele>2.5</ele>
    <time>2026-01-08T11:29:02Z</time>
   </trkpt>
   <trkpt lat="59.1373780" lon="9.6419300">
    <ele>2.5</ele>
    <time>2026-01-08T11:29:03Z</time>
   </trkpt>
   <trkpt lat="59.1373720" lon="9.6419010">
    <ele>2.5</ele>
    <time>2026-01-08T11:29:04Z</time>
   </trkpt>
   <trkpt lat="59.1373620" lon="9.6418770">
    <ele>2.5</ele>
    <time>2026-01-08T11:29:05Z</time>
   </trkpt>
   <trkpt lat="59.1373520" lon="9.6418500">
    <ele>2.5</ele>
    <time>2026-01-08T11:29:06Z</time>
   </trkpt>
   <trkpt lat="59.1373460" lon="9.6418260">
    <ele>2.5</ele>
    <time>2026-01-08T11:29:07Z</time>
   </trkpt>
   <trkpt lat="59.1373360" lon="9.6418020">
    <ele>2.5</ele>
    <time>2026-01-08T11:29:08Z</time>
   </trkpt>
   <trkpt lat="59.1373170" lon="9.6417590">
    <ele>2.5</ele>
    <time>2026-01-08T11:29:09Z</time>
   </trkpt>
   <trkpt lat="59.1373110" lon="9.6417470">
    <ele>2.5</ele>
    <time>2026-01-08T11:29:10Z</time>
   </trkpt>
   <trkpt lat="59.1372950" lon="9.6417050">
    <ele>2.5</ele>
    <time>2026-01-08T11:29:11Z</time>
   </trkpt>
   <trkpt lat="59.1372880" lon="9.6416890">
    <ele>2.5</ele>
    <time>2026-01-08T11:29:12Z</time>
   </trkpt>
   <trkpt lat="59.1372750" lon="9.6416640">
    <ele>2.5</ele>
    <time>2026-01-08T11:29:13Z</time>
   </trkpt>
   <trkpt lat="59.1372640" lon="9.6416400">
    <ele>2.4</ele>
    <time>2026-01-08T11:29:14Z</time>
   </trkpt>
   <trkpt lat="59.1372590" lon="9.6416150">
    <ele>2.4</ele>
    <time>2026-01-08T11:29:15Z</time>
   </trkpt>
   <trkpt lat="59.1372480" lon="9.6415880">
    <ele>2.4</ele>
    <time>2026-01-08T11:29:16Z</time>
   </trkpt>
   <trkpt lat="59.1372400" lon="9.6415630">
    <ele>2.4</ele>
    <time>2026-01-08T11:29:17Z</time>
   </trkpt>
   <trkpt lat="59.1372250" lon="9.6415430">
    <ele>2.4</ele>
    <time>2026-01-08T11:29:18Z</time>
   </trkpt>
   <trkpt lat="59.1372180" lon="9.6415110">
    <ele>2.4</ele>
    <time>2026-01-08T11:29:19Z</time>
   </trkpt>
   <trkpt lat="59.1372120" lon="9.6414900">
    <ele>2.4</ele>
    <time>2026-01-08T11:29:20Z</time>
   </trkpt>
   <trkpt lat="59.1372050" lon="9.6414670">
    <ele>2.4</ele>
    <time>2026-01-08T11:29:21Z</time>
   </trkpt>
   <trkpt lat="59.1371980" lon="9.6414410">
    <ele>2.4</ele>
    <time>2026-01-08T11:29:22Z</time>
   </trkpt>
   <trkpt lat="59.1371900" lon="9.6414140">
    <ele>2.4</ele>
    <time>2026-01-08T11:29:23Z</time>
   </trkpt>
   <trkpt lat="59.1371840" lon="9.6413930">
    <ele>2.4</ele>
    <time>2026-01-08T11:29:24Z</time>
   </trkpt>
   <trkpt lat="59.1371770" lon="9.6413700">
    <ele>2.4</ele>
    <time>2026-01-08T11:29:25Z</time>
   </trkpt>
   <trkpt lat="59.1371690" lon="9.6413420">
    <ele>2.4</ele>
    <time>2026-01-08T11:29:26Z</time>
   </trkpt>
   <trkpt lat="59.1371630" lon="9.6413170">
    <ele>2.4</ele>
    <time>2026-01-08T11:29:27Z</time>
   </trkpt>
   <trkpt lat="59.1371480" lon="9.6412920">
    <ele>2.4</ele>
    <time>2026-01-08T11:29:28Z</time>
   </trkpt>
   <trkpt lat="59.1371340" lon="9.6412680">
    <ele>2.4</ele>
    <time>2026-01-08T11:29:29Z</time>
   </trkpt>
   <trkpt lat="59.1371270" lon="9.6412470">
    <ele>2.4</ele>
    <time>2026-01-08T11:29:30Z</time>
   </trkpt>
   <trkpt lat="59.1371220" lon="9.6412240">
    <ele>2.4</ele>
    <time>2026-01-08T11:29:31Z</time>
   </trkpt>
   <trkpt lat="59.1371150" lon="9.6411990">
    <ele>2.4</ele>
    <time>2026-01-08T11:29:32Z</time>
   </trkpt>
   <trkpt lat="59.1371070" lon="9.6411800">
    <ele>2.4</ele>
    <time>2026-01-08T11:29:33Z</time>
   </trkpt>
   <trkpt lat="59.1371000" lon="9.6411550">
    <ele>2.4</ele>
    <time>2026-01-08T11:29:34Z</time>
   </trkpt>
   <trkpt lat="59.1370870" lon="9.6411110">
    <ele>2.4</ele>
    <time>2026-01-08T11:29:35Z</time>
   </trkpt>
   <trkpt lat="59.1370800" lon="9.6410910">
    <ele>2.4</ele>
    <time>2026-01-08T11:29:36Z</time>
   </trkpt>
   <trkpt lat="59.1370680" lon="9.6410710">
    <ele>2.4</ele>
    <time>2026-01-08T11:29:37Z</time>
   </trkpt>
   <trkpt lat="59.1370560" lon="9.6410440">
    <ele>2.4</ele>
    <time>2026-01-08T11:29:38Z</time>
   </trkpt>
   <trkpt lat="59.1370470" lon="9.6410190">
    <ele>2.4</ele>
    <time>2026-01-08T11:29:40Z</time>
   </trkpt>
   <trkpt lat="59.1370350" lon="9.6409970">
    <ele>2.4</ele>
    <time>2026-01-08T11:29:41Z</time>
   </trkpt>
   <trkpt lat="59.1370220" lon="9.6409710">
    <ele>2.4</ele>
    <time>2026-01-08T11:29:42Z</time>
   </trkpt>
   <trkpt lat="59.1370130" lon="9.6409470">
    <ele>2.4</ele>
    <time>2026-01-08T11:29:43Z</time>
   </trkpt>
   <trkpt lat="59.1370080" lon="9.6409230">
    <ele>2.4</ele>
    <time>2026-01-08T11:29:44Z</time>
   </trkpt>
   <trkpt lat="59.1369980" lon="9.6408960">
    <ele>2.4</ele>
    <time>2026-01-08T11:29:45Z</time>
   </trkpt>
   <trkpt lat="59.1369900" lon="9.6408750">
    <ele>2.4</ele>
    <time>2026-01-08T11:29:46Z</time>
   </trkpt>
   <trkpt lat="59.1369820" lon="9.6408530">
    <ele>2.4</ele>
    <time>2026-01-08T11:29:47Z</time>
   </trkpt>
   <trkpt lat="59.1369750" lon="9.6408320">
    <ele>2.4</ele>
    <time>2026-01-08T11:29:48Z</time>
   </trkpt>
   <trkpt lat="59.1369680" lon="9.6408050">
    <ele>2.4</ele>
    <time>2026-01-08T11:29:49Z</time>
   </trkpt>
   <trkpt lat="59.1369630" lon="9.6407850">
    <ele>2.4</ele>
    <time>2026-01-08T11:29:50Z</time>
   </trkpt>
   <trkpt lat="59.1369540" lon="9.6407590">
    <ele>2.4</ele>
    <time>2026-01-08T11:29:51Z</time>
   </trkpt>
   <trkpt lat="59.1369480" lon="9.6407380">
    <ele>2.4</ele>
    <time>2026-01-08T11:29:52Z</time>
   </trkpt>
   <trkpt lat="59.1369360" lon="9.6407090">
    <ele>2.4</ele>
    <time>2026-01-08T11:29:53Z</time>
   </trkpt>
   <trkpt lat="59.1369280" lon="9.6406900">
    <ele>2.4</ele>
    <time>2026-01-08T11:29:54Z</time>
   </trkpt>
   <trkpt lat="59.1369150" lon="9.6406390">
    <ele>2.4</ele>
    <time>2026-01-08T11:29:55Z</time>
   </trkpt>
   <trkpt lat="59.1369050" lon="9.6406160">
    <ele>2.4</ele>
    <time>2026-01-08T11:29:56Z</time>
   </trkpt>
   <trkpt lat="59.1368970" lon="9.6405950">
    <ele>2.4</ele>
    <time>2026-01-08T11:29:57Z</time>
   </trkpt>
   <trkpt lat="59.1368830" lon="9.6405680">
    <ele>2.4</ele>
    <time>2026-01-08T11:29:58Z</time>
   </trkpt>
   <trkpt lat="59.1368750" lon="9.6405490">
    <ele>2.4</ele>
    <time>2026-01-08T11:29:59Z</time>
   </trkpt>
   <trkpt lat="59.1368720" lon="9.6405350">
    <ele>2.4</ele>
    <time>2026-01-08T11:30:00Z</time>
   </trkpt>
   <trkpt lat="59.1368620" lon="9.6405190">
    <ele>2.4</ele>
    <time>2026-01-08T11:30:01Z</time>
   </trkpt>
   <trkpt lat="59.1368530" lon="9.6404960">
    <ele>2.4</ele>
    <time>2026-01-08T11:30:02Z</time>
   </trkpt>
   <trkpt lat="59.1368390" lon="9.6404740">
    <ele>2.4</ele>
    <time>2026-01-08T11:30:03Z</time>
   </trkpt>
   <trkpt lat="59.1368220" lon="9.6404450">
    <ele>2.4</ele>
    <time>2026-01-08T11:30:04Z</time>
   </trkpt>
   <trkpt lat="59.1368140" lon="9.6404310">
    <ele>2.4</ele>
    <time>2026-01-08T11:30:05Z</time>
   </trkpt>
   <trkpt lat="59.1368070" lon="9.6404180">
    <ele>2.4</ele>
    <time>2026-01-08T11:30:06Z</time>
   </trkpt>
   <trkpt lat="59.1367920" lon="9.6403780">
    <ele>2.4</ele>
    <time>2026-01-08T11:30:07Z</time>
   </trkpt>
   <trkpt lat="59.1367840" lon="9.6403540">
    <ele>2.3</ele>
    <time>2026-01-08T11:30:08Z</time>
   </trkpt>
   <trkpt lat="59.1367770" lon="9.6403290">
    <ele>2.3</ele>
    <time>2026-01-08T11:30:09Z</time>
   </trkpt>
   <trkpt lat="59.1367740" lon="9.6403250">
    <ele>2.3</ele>
    <time>2026-01-08T11:30:10Z</time>
   </trkpt>
   <trkpt lat="59.1367670" lon="9.6403130">
    <ele>2.3</ele>
    <time>2026-01-08T11:30:11Z</time>
   </trkpt>
   <trkpt lat="59.1367650" lon="9.6403090">
    <ele>2.3</ele>
    <time>2026-01-08T11:30:12Z</time>
   </trkpt>
   <trkpt lat="59.1367540" lon="9.6402800">
    <ele>2.3</ele>
    <time>2026-01-08T11:30:13Z</time>
   </trkpt>
   <trkpt lat="59.1367430" lon="9.6402650">
    <ele>2.3</ele>
    <time>2026-01-08T11:30:14Z</time>
   </trkpt>
   <trkpt lat="59.1367300" lon="9.6402410">
    <ele>2.3</ele>
    <time>2026-01-08T11:30:15Z</time>
   </trkpt>
   <trkpt lat="59.1367100" lon="9.6402090">
    <ele>2.3</ele>
    <time>2026-01-08T11:30:16Z</time>
   </trkpt>
   <trkpt lat="59.1367010" lon="9.6401960">
    <ele>2.3</ele>
    <time>2026-01-08T11:30:17Z</time>
   </trkpt>
   <trkpt lat="59.1366770" lon="9.6401580">
    <ele>2.3</ele>
    <time>2026-01-08T11:30:18Z</time>
   </trkpt>
   <trkpt lat="59.1366690" lon="9.6401440">
    <ele>2.3</ele>
    <time>2026-01-08T11:30:19Z</time>
   </trkpt>
   <trkpt lat="59.1366560" lon="9.6401230">
    <ele>2.3</ele>
    <time>2026-01-08T11:30:20Z</time>
   </trkpt>
   <trkpt lat="59.1366430" lon="9.6401020">
    <ele>2.3</ele>
    <time>2026-01-08T11:30:21Z</time>
   </trkpt>
   <trkpt lat="59.1366340" lon="9.6400820">
    <ele>2.3</ele>
    <time>2026-01-08T11:30:22Z</time>
   </trkpt>
   <trkpt lat="59.1366230" lon="9.6400610">
    <ele>2.3</ele>
    <time>2026-01-08T11:30:23Z</time>
   </trkpt>
   <trkpt lat="59.1366130" lon="9.6400430">
    <ele>2.3</ele>
    <time>2026-01-08T11:30:24Z</time>
   </trkpt>
   <trkpt lat="59.1366020" lon="9.6400130">
    <ele>2.3</ele>
    <time>2026-01-08T11:30:25Z</time>
   </trkpt>
   <trkpt lat="59.1365890" lon="9.6399860">
    <ele>2.3</ele>
    <time>2026-01-08T11:30:26Z</time>
   </trkpt>
   <trkpt lat="59.1365830" lon="9.6399730">
    <ele>2.3</ele>
    <time>2026-01-08T11:30:27Z</time>
   </trkpt>
   <trkpt lat="59.1365770" lon="9.6399600">
    <ele>2.3</ele>
    <time>2026-01-08T11:30:28Z</time>
   </trkpt>
   <trkpt lat="59.1365700" lon="9.6399440">
    <ele>2.3</ele>
    <time>2026-01-08T11:30:29Z</time>
   </trkpt>
   <trkpt lat="59.1365570" lon="9.6399220">
    <ele>2.3</ele>
    <time>2026-01-08T11:30:30Z</time>
   </trkpt>
   <trkpt lat="59.1365460" lon="9.6398900">
    <ele>2.3</ele>
    <time>2026-01-08T11:30:31Z</time>
   </trkpt>
   <trkpt lat="59.1365350" lon="9.6398750">
    <ele>2.3</ele>
    <time>2026-01-08T11:30:32Z</time>
   </trkpt>
   <trkpt lat="59.1365250" lon="9.6398610">
    <ele>2.3</ele>
    <time>2026-01-08T11:30:33Z</time>
   </trkpt>
   <trkpt lat="59.1365190" lon="9.6398600">
    <ele>2.3</ele>
    <time>2026-01-08T11:30:34Z</time>
   </trkpt>
   <trkpt lat="59.1365060" lon="9.6398430">
    <ele>2.3</ele>
    <time>2026-01-08T11:30:35Z</time>
   </trkpt>
   <trkpt lat="59.1364970" lon="9.6398240">
    <ele>2.3</ele>
    <time>2026-01-08T11:30:36Z</time>
   </trkpt>
   <trkpt lat="59.1364770" lon="9.6397910">
    <ele>2.3</ele>
    <time>2026-01-08T11:30:37Z</time>
   </trkpt>
   <trkpt lat="59.1364720" lon="9.6397790">
    <ele>2.3</ele>
    <time>2026-01-08T11:30:38Z</time>
   </trkpt>
   <trkpt lat="59.1364660" lon="9.6397680">
    <ele>2.3</ele>
    <time>2026-01-08T11:30:39Z</time>
   </trkpt>
   <trkpt lat="59.1364540" lon="9.6397500">
    <ele>2.3</ele>
    <time>2026-01-08T11:30:40Z</time>
   </trkpt>
   <trkpt lat="59.1364450" lon="9.6397280">
    <ele>2.3</ele>
    <time>2026-01-08T11:30:41Z</time>
   </trkpt>
   <trkpt lat="59.1364330" lon="9.6397180">
    <ele>2.3</ele>
    <time>2026-01-08T11:30:42Z</time>
   </trkpt>
   <trkpt lat="59.1364220" lon="9.6396970">
    <ele>2.2</ele>
    <time>2026-01-08T11:30:43Z</time>
   </trkpt>
   <trkpt lat="59.1364090" lon="9.6396710">
    <ele>2.2</ele>
    <time>2026-01-08T11:30:44Z</time>
   </trkpt>
   <trkpt lat="59.1363990" lon="9.6396530">
    <ele>2.2</ele>
    <time>2026-01-08T11:30:45Z</time>
   </trkpt>
   <trkpt lat="59.1363870" lon="9.6396410">
    <ele>2.2</ele>
    <time>2026-01-08T11:30:46Z</time>
   </trkpt>
   <trkpt lat="59.1363770" lon="9.6396140">
    <ele>2.2</ele>
    <time>2026-01-08T11:30:47Z</time>
   </trkpt>
   <trkpt lat="59.1363710" lon="9.6395990">
    <ele>2.2</ele>
    <time>2026-01-08T11:30:48Z</time>
   </trkpt>
   <trkpt lat="59.1363580" lon="9.6395740">
    <ele>2.2</ele>
    <time>2026-01-08T11:30:49Z</time>
   </trkpt>
   <trkpt lat="59.1363530" lon="9.6395470">
    <ele>2.2</ele>
    <time>2026-01-08T11:30:50Z</time>
   </trkpt>
   <trkpt lat="59.1363440" lon="9.6395270">
    <ele>2.2</ele>
    <time>2026-01-08T11:30:51Z</time>
   </trkpt>
   <trkpt lat="59.1363370" lon="9.6395090">
    <ele>2.2</ele>
    <time>2026-01-08T11:30:52Z</time>
   </trkpt>
   <trkpt lat="59.1363230" lon="9.6394910">
    <ele>2.2</ele>
    <time>2026-01-08T11:30:53Z</time>
   </trkpt>
   <trkpt lat="59.1363130" lon="9.6394630">
    <ele>2.2</ele>
    <time>2026-01-08T11:30:54Z</time>
   </trkpt>
   <trkpt lat="59.1363060" lon="9.6394470">
    <ele>2.2</ele>
    <time>2026-01-08T11:30:55Z</time>
   </trkpt>
   <trkpt lat="59.1363060" lon="9.6394390">
    <ele>2.2</ele>
    <time>2026-01-08T11:30:56Z</time>
   </trkpt>
   <trkpt lat="59.1363050" lon="9.6394210">
    <ele>2.2</ele>
    <time>2026-01-08T11:30:57Z</time>
   </trkpt>
   <trkpt lat="59.1362970" lon="9.6394030">
    <ele>2.2</ele>
    <time>2026-01-08T11:30:58Z</time>
   </trkpt>
   <trkpt lat="59.1362950" lon="9.6393860">
    <ele>2.2</ele>
    <time>2026-01-08T11:30:59Z</time>
   </trkpt>
   <trkpt lat="59.1362740" lon="9.6393490">
    <ele>2.2</ele>
    <time>2026-01-08T11:31:00Z</time>
   </trkpt>
   <trkpt lat="59.1362680" lon="9.6393350">
    <ele>2.2</ele>
    <time>2026-01-08T11:31:01Z</time>
   </trkpt>
   <trkpt lat="59.1362400" lon="9.6393020">
    <ele>2.2</ele>
    <time>2026-01-08T11:31:02Z</time>
   </trkpt>
   <trkpt lat="59.1362310" lon="9.6392910">
    <ele>2.2</ele>
    <time>2026-01-08T11:31:03Z</time>
   </trkpt>
   <trkpt lat="59.1362060" lon="9.6392640">
    <ele>2.2</ele>
    <time>2026-01-08T11:31:04Z</time>
   </trkpt>
   <trkpt lat="59.1361990" lon="9.6392550">
    <ele>2.2</ele>
    <time>2026-01-08T11:31:05Z</time>
   </trkpt>
   <trkpt lat="59.1361810" lon="9.6392360">
    <ele>2.2</ele>
    <time>2026-01-08T11:31:06Z</time>
   </trkpt>
   <trkpt lat="59.1361740" lon="9.6392170">
    <ele>2.2</ele>
    <time>2026-01-08T11:31:07Z</time>
   </trkpt>
   <trkpt lat="59.1361590" lon="9.6391960">
    <ele>2.2</ele>
    <time>2026-01-08T11:31:08Z</time>
   </trkpt>
   <trkpt lat="59.1361530" lon="9.6391820">
    <ele>2.2</ele>
    <time>2026-01-08T11:31:09Z</time>
   </trkpt>
   <trkpt lat="59.1361420" lon="9.6391610">
    <ele>2.2</ele>
    <time>2026-01-08T11:31:10Z</time>
   </trkpt>
   <trkpt lat="59.1361330" lon="9.6391440">
    <ele>2.2</ele>
    <time>2026-01-08T11:31:11Z</time>
   </trkpt>
   <trkpt lat="59.1361190" lon="9.6391230">
    <ele>2.2</ele>
    <time>2026-01-08T11:31:12Z</time>
   </trkpt>
   <trkpt lat="59.1361090" lon="9.6391110">
    <ele>2.2</ele>
    <time>2026-01-08T11:31:13Z</time>
   </trkpt>
   <trkpt lat="59.1360970" lon="9.6390860">
    <ele>2.2</ele>
    <time>2026-01-08T11:31:14Z</time>
   </trkpt>
   <trkpt lat="59.1360880" lon="9.6390720">
    <ele>2.2</ele>
    <time>2026-01-08T11:31:15Z</time>
   </trkpt>
   <trkpt lat="59.1360790" lon="9.6390520">
    <ele>2.2</ele>
    <time>2026-01-08T11:31:16Z</time>
   </trkpt>
   <trkpt lat="59.1360690" lon="9.6390340">
    <ele>2.2</ele>
    <time>2026-01-08T11:31:17Z</time>
   </trkpt>
   <trkpt lat="59.1360610" lon="9.6390140">
    <ele>2.2</ele>
    <time>2026-01-08T11:31:18Z</time>
   </trkpt>
   <trkpt lat="59.1360480" lon="9.6389920">
    <ele>2.2</ele>
    <time>2026-01-08T11:31:19Z</time>
   </trkpt>
   <trkpt lat="59.1360420" lon="9.6389770">
    <ele>2.2</ele>
    <time>2026-01-08T11:31:20Z</time>
   </trkpt>
   <trkpt lat="59.1360230" lon="9.6389560">
    <ele>2.2</ele>
    <time>2026-01-08T11:31:21Z</time>
   </trkpt>
   <trkpt lat="59.1360150" lon="9.6389320">
    <ele>2.2</ele>
    <time>2026-01-08T11:31:22Z</time>
   </trkpt>
   <trkpt lat="59.1360030" lon="9.6389150">
    <ele>2.2</ele>
    <time>2026-01-08T11:31:23Z</time>
   </trkpt>
   <trkpt lat="59.1359910" lon="9.6388850">
    <ele>2.2</ele>
    <time>2026-01-08T11:31:24Z</time>
   </trkpt>
   <trkpt lat="59.1359830" lon="9.6388730">
    <ele>2.2</ele>
    <time>2026-01-08T11:31:25Z</time>
   </trkpt>
   <trkpt lat="59.1359760" lon="9.6388620">
    <ele>2.2</ele>
    <time>2026-01-08T11:31:26Z</time>
   </trkpt>
   <trkpt lat="59.1359640" lon="9.6388440">
    <ele>2.2</ele>
    <time>2026-01-08T11:31:27Z</time>
   </trkpt>
   <trkpt lat="59.1359540" lon="9.6388200">
    <ele>2.2</ele>
    <time>2026-01-08T11:31:28Z</time>
   </trkpt>
   <trkpt lat="59.1359380" lon="9.6387910">
    <ele>2.2</ele>
    <time>2026-01-08T11:31:29Z</time>
   </trkpt>
   <trkpt lat="59.1359300" lon="9.6387770">
    <ele>2.2</ele>
    <time>2026-01-08T11:31:30Z</time>
   </trkpt>
   <trkpt lat="59.1359210" lon="9.6387640">
    <ele>2.2</ele>
    <time>2026-01-08T11:31:31Z</time>
   </trkpt>
   <trkpt lat="59.1359120" lon="9.6387470">
    <ele>2.2</ele>
    <time>2026-01-08T11:31:32Z</time>
   </trkpt>
   <trkpt lat="59.1358980" lon="9.6387260">
    <ele>2.2</ele>
    <time>2026-01-08T11:31:33Z</time>
   </trkpt>
   <trkpt lat="59.1358760" lon="9.6386940">
    <ele>2.2</ele>
    <time>2026-01-08T11:31:34Z</time>
   </trkpt>
   <trkpt lat="59.1358680" lon="9.6386790">
    <ele>2.2</ele>
    <time>2026-01-08T11:31:35Z</time>
   </trkpt>
   <trkpt lat="59.1358580" lon="9.6386640">
    <ele>2.2</ele>
    <time>2026-01-08T11:31:36Z</time>
   </trkpt>
   <trkpt lat="59.1358470" lon="9.6386380">
    <ele>2.2</ele>
    <time>2026-01-08T11:31:37Z</time>
   </trkpt>
   <trkpt lat="59.1358360" lon="9.6386270">
    <ele>2.2</ele>
    <time>2026-01-08T11:31:38Z</time>
   </trkpt>
   <trkpt lat="59.1358220" lon="9.6386040">
    <ele>2.2</ele>
    <time>2026-01-08T11:31:39Z</time>
   </trkpt>
   <trkpt lat="59.1358150" lon="9.6385910">
    <ele>2.2</ele>
    <time>2026-01-08T11:31:40Z</time>
   </trkpt>
   <trkpt lat="59.1358020" lon="9.6385620">
    <ele>2.2</ele>
    <time>2026-01-08T11:31:41Z</time>
   </trkpt>
   <trkpt lat="59.1357920" lon="9.6385440">
    <ele>2.2</ele>
    <time>2026-01-08T11:31:42Z</time>
   </trkpt>
   <trkpt lat="59.1357800" lon="9.6385170">
    <ele>2.2</ele>
    <time>2026-01-08T11:31:43Z</time>
   </trkpt>
   <trkpt lat="59.1357660" lon="9.6384980">
    <ele>2.2</ele>
    <time>2026-01-08T11:31:44Z</time>
   </trkpt>
   <trkpt lat="59.1357550" lon="9.6384740">
    <ele>2.2</ele>
    <time>2026-01-08T11:31:45Z</time>
   </trkpt>
   <trkpt lat="59.1357430" lon="9.6384550">
    <ele>2.2</ele>
    <time>2026-01-08T11:31:46Z</time>
   </trkpt>
   <trkpt lat="59.1357290" lon="9.6384340">
    <ele>2.2</ele>
    <time>2026-01-08T11:31:47Z</time>
   </trkpt>
   <trkpt lat="59.1357170" lon="9.6384040">
    <ele>2.2</ele>
    <time>2026-01-08T11:31:48Z</time>
   </trkpt>
   <trkpt lat="59.1357110" lon="9.6383900">
    <ele>2.2</ele>
    <time>2026-01-08T11:31:49Z</time>
   </trkpt>
   <trkpt lat="59.1357060" lon="9.6383770">
    <ele>2.2</ele>
    <time>2026-01-08T11:31:50Z</time>
   </trkpt>
   <trkpt lat="59.1356920" lon="9.6383450">
    <ele>2.2</ele>
    <time>2026-01-08T11:31:51Z</time>
   </trkpt>
   <trkpt lat="59.1356870" lon="9.6383310">
    <ele>2.2</ele>
    <time>2026-01-08T11:31:52Z</time>
   </trkpt>
   <trkpt lat="59.1356810" lon="9.6383170">
    <ele>2.2</ele>
    <time>2026-01-08T11:31:53Z</time>
   </trkpt>
   <trkpt lat="59.1356700" lon="9.6383000">
    <ele>2.2</ele>
    <time>2026-01-08T11:31:54Z</time>
   </trkpt>
   <trkpt lat="59.1356560" lon="9.6382710">
    <ele>2.2</ele>
    <time>2026-01-08T11:31:55Z</time>
   </trkpt>
   <trkpt lat="59.1356470" lon="9.6382580">
    <ele>2.2</ele>
    <time>2026-01-08T11:31:56Z</time>
   </trkpt>
   <trkpt lat="59.1356370" lon="9.6382320">
    <ele>2.2</ele>
    <time>2026-01-08T11:31:57Z</time>
   </trkpt>
   <trkpt lat="59.1356270" lon="9.6382150">
    <ele>2.2</ele>
    <time>2026-01-08T11:31:58Z</time>
   </trkpt>
   <trkpt lat="59.1356120" lon="9.6381900">
    <ele>2.2</ele>
    <time>2026-01-08T11:31:59Z</time>
   </trkpt>
   <trkpt lat="59.1356060" lon="9.6381720">
    <ele>2.2</ele>
    <time>2026-01-08T11:32:00Z</time>
   </trkpt>
   <trkpt lat="59.1355940" lon="9.6381450">
    <ele>2.2</ele>
    <time>2026-01-08T11:32:01Z</time>
   </trkpt>
   <trkpt lat="59.1355880" lon="9.6381070">
    <ele>2.2</ele>
    <time>2026-01-08T11:32:02Z</time>
   </trkpt>
   <trkpt lat="59.1355840" lon="9.6380890">
    <ele>2.2</ele>
    <time>2026-01-08T11:32:03Z</time>
   </trkpt>
   <trkpt lat="59.1355800" lon="9.6380710">
    <ele>2.2</ele>
    <time>2026-01-08T11:32:04Z</time>
   </trkpt>
   <trkpt lat="59.1355760" lon="9.6380460">
    <ele>2.2</ele>
    <time>2026-01-08T11:32:05Z</time>
   </trkpt>
   <trkpt lat="59.1355690" lon="9.6380100">
    <ele>2.3</ele>
    <time>2026-01-08T11:32:06Z</time>
   </trkpt>
   <trkpt lat="59.1355770" lon="9.6379850">
    <ele>2.3</ele>
    <time>2026-01-08T11:32:07Z</time>
   </trkpt>
   <trkpt lat="59.1355720" lon="9.6379570">
    <ele>2.3</ele>
    <time>2026-01-08T11:32:08Z</time>
   </trkpt>
   <trkpt lat="59.1355710" lon="9.6379300">
    <ele>2.3</ele>
    <time>2026-01-08T11:32:09Z</time>
   </trkpt>
   <trkpt lat="59.1355670" lon="9.6378930">
    <ele>2.3</ele>
    <time>2026-01-08T11:32:10Z</time>
   </trkpt>
   <trkpt lat="59.1355670" lon="9.6378690">
    <ele>2.3</ele>
    <time>2026-01-08T11:32:11Z</time>
   </trkpt>
   <trkpt lat="59.1355630" lon="9.6378410">
    <ele>2.3</ele>
    <time>2026-01-08T11:32:12Z</time>
   </trkpt>
   <trkpt lat="59.1355580" lon="9.6378170">
    <ele>2.3</ele>
    <time>2026-01-08T11:32:13Z</time>
   </trkpt>
   <trkpt lat="59.1355520" lon="9.6377990">
    <ele>2.3</ele>
    <time>2026-01-08T11:32:14Z</time>
   </trkpt>
   <trkpt lat="59.1355450" lon="9.6377790">
    <ele>2.3</ele>
    <time>2026-01-08T11:32:15Z</time>
   </trkpt>
   <trkpt lat="59.1355380" lon="9.6377480">
    <ele>2.3</ele>
    <time>2026-01-08T11:32:16Z</time>
   </trkpt>
   <trkpt lat="59.1355290" lon="9.6377310">
    <ele>2.3</ele>
    <time>2026-01-08T11:32:17Z</time>
   </trkpt>
   <trkpt lat="59.1355190" lon="9.6377130">
    <ele>2.3</ele>
    <time>2026-01-08T11:32:18Z</time>
   </trkpt>
   <trkpt lat="59.1355070" lon="9.6376920">
    <ele>2.3</ele>
    <time>2026-01-08T11:32:19Z</time>
   </trkpt>
   <trkpt lat="59.1354910" lon="9.6376600">
    <ele>2.3</ele>
    <time>2026-01-08T11:32:20Z</time>
   </trkpt>
   <trkpt lat="59.1354840" lon="9.6376480">
    <ele>2.3</ele>
    <time>2026-01-08T11:32:21Z</time>
   </trkpt>
   <trkpt lat="59.1354770" lon="9.6376360">
    <ele>2.3</ele>
    <time>2026-01-08T11:32:22Z</time>
   </trkpt>
   <trkpt lat="59.1354540" lon="9.6376070">
    <ele>2.2</ele>
    <time>2026-01-08T11:32:23Z</time>
   </trkpt>
   <trkpt lat="59.1354450" lon="9.6375990">
    <ele>2.2</ele>
    <time>2026-01-08T11:32:24Z</time>
   </trkpt>
   <trkpt lat="59.1354190" lon="9.6375800">
    <ele>2.2</ele>
    <time>2026-01-08T11:32:25Z</time>
   </trkpt>
   <trkpt lat="59.1354110" lon="9.6375710">
    <ele>2.2</ele>
    <time>2026-01-08T11:32:26Z</time>
   </trkpt>
   <trkpt lat="59.1353910" lon="9.6375700">
    <ele>2.2</ele>
    <time>2026-01-08T11:32:27Z</time>
   </trkpt>
   <trkpt lat="59.1353820" lon="9.6375680">
    <ele>2.2</ele>
    <time>2026-01-08T11:32:28Z</time>
   </trkpt>
   <trkpt lat="59.1353730" lon="9.6375650">
    <ele>2.2</ele>
    <time>2026-01-08T11:32:29Z</time>
   </trkpt>
   <trkpt lat="59.1353540" lon="9.6375610">
    <ele>2.2</ele>
    <time>2026-01-08T11:32:30Z</time>
   </trkpt>
   <trkpt lat="59.1353450" lon="9.6375580">
    <ele>2.1</ele>
    <time>2026-01-08T11:32:31Z</time>
   </trkpt>
   <trkpt lat="59.1353290" lon="9.6375500">
    <ele>2.1</ele>
    <time>2026-01-08T11:32:32Z</time>
   </trkpt>
   <trkpt lat="59.1353170" lon="9.6375450">
    <ele>2.1</ele>
    <time>2026-01-08T11:32:33Z</time>
   </trkpt>
   <trkpt lat="59.1353000" lon="9.6375340">
    <ele>2.1</ele>
    <time>2026-01-08T11:32:34Z</time>
   </trkpt>
   <trkpt lat="59.1352890" lon="9.6375280">
    <ele>2.1</ele>
    <time>2026-01-08T11:32:35Z</time>
   </trkpt>
   <trkpt lat="59.1352680" lon="9.6375050">
    <ele>2.1</ele>
    <time>2026-01-08T11:32:36Z</time>
   </trkpt>
   <trkpt lat="59.1352600" lon="9.6374950">
    <ele>2.1</ele>
    <time>2026-01-08T11:32:37Z</time>
   </trkpt>
   <trkpt lat="59.1352530" lon="9.6374850">
    <ele>2.1</ele>
    <time>2026-01-08T11:32:38Z</time>
   </trkpt>
   <trkpt lat="59.1352340" lon="9.6374570">
    <ele>2.0</ele>
    <time>2026-01-08T11:32:39Z</time>
   </trkpt>
   <trkpt lat="59.1352290" lon="9.6374430">
    <ele>2.0</ele>
    <time>2026-01-08T11:32:40Z</time>
   </trkpt>
   <trkpt lat="59.1352230" lon="9.6374300">
    <ele>2.0</ele>
    <time>2026-01-08T11:32:41Z</time>
   </trkpt>
   <trkpt lat="59.1352090" lon="9.6374020">
    <ele>2.0</ele>
    <time>2026-01-08T11:32:42Z</time>
   </trkpt>
   <trkpt lat="59.1352010" lon="9.6373860">
    <ele>2.0</ele>
    <time>2026-01-08T11:32:43Z</time>
   </trkpt>
   <trkpt lat="59.1351940" lon="9.6373710">
    <ele>2.0</ele>
    <time>2026-01-08T11:32:44Z</time>
   </trkpt>
   <trkpt lat="59.1351860" lon="9.6373580">
    <ele>2.0</ele>
    <time>2026-01-08T11:32:45Z</time>
   </trkpt>
   <trkpt lat="59.1351720" lon="9.6373320">
    <ele>2.0</ele>
    <time>2026-01-08T11:32:46Z</time>
   </trkpt>
   <trkpt lat="59.1351640" lon="9.6373180">
    <ele>2.0</ele>
    <time>2026-01-08T11:32:47Z</time>
   </trkpt>
   <trkpt lat="59.1351550" lon="9.6372910">
    <ele>2.0</ele>
    <time>2026-01-08T11:32:48Z</time>
   </trkpt>
   <trkpt lat="59.1351470" lon="9.6372780">
    <ele>2.0</ele>
    <time>2026-01-08T11:32:49Z</time>
   </trkpt>
   <trkpt lat="59.1351340" lon="9.6372570">
    <ele>2.0</ele>
    <time>2026-01-08T11:32:50Z</time>
   </trkpt>
   <trkpt lat="59.1351210" lon="9.6372290">
    <ele>2.0</ele>
    <time>2026-01-08T11:32:51Z</time>
   </trkpt>
   <trkpt lat="59.1351140" lon="9.6372160">
    <ele>2.0</ele>
    <time>2026-01-08T11:32:52Z</time>
   </trkpt>
   <trkpt lat="59.1351080" lon="9.6372030">
    <ele>2.0</ele>
    <time>2026-01-08T11:32:53Z</time>
   </trkpt>
   <trkpt lat="59.1350910" lon="9.6371810">
    <ele>2.0</ele>
    <time>2026-01-08T11:32:54Z</time>
   </trkpt>
   <trkpt lat="59.1350820" lon="9.6371660">
    <ele>2.0</ele>
    <time>2026-01-08T11:32:55Z</time>
   </trkpt>
   <trkpt lat="59.1350720" lon="9.6371410">
    <ele>2.0</ele>
    <time>2026-01-08T11:32:56Z</time>
   </trkpt>
   <trkpt lat="59.1350590" lon="9.6371250">
    <ele>2.0</ele>
    <time>2026-01-08T11:32:57Z</time>
   </trkpt>
   <trkpt lat="59.1350460" lon="9.6370950">
    <ele>2.0</ele>
    <time>2026-01-08T11:32:58Z</time>
   </trkpt>
   <trkpt lat="59.1350370" lon="9.6370830">
    <ele>2.0</ele>
    <time>2026-01-08T11:32:59Z</time>
   </trkpt>
   <trkpt lat="59.1350180" lon="9.6370500">
    <ele>2.0</ele>
    <time>2026-01-08T11:33:00Z</time>
   </trkpt>
   <trkpt lat="59.1350120" lon="9.6370370">
    <ele>2.0</ele>
    <time>2026-01-08T11:33:01Z</time>
   </trkpt>
   <trkpt lat="59.1350050" lon="9.6370240">
    <ele>2.0</ele>
    <time>2026-01-08T11:33:02Z</time>
   </trkpt>
   <trkpt lat="59.1350000" lon="9.6370130">
    <ele>2.0</ele>
    <time>2026-01-08T11:33:03Z</time>
   </trkpt>
   <trkpt lat="59.1349890" lon="9.6369900">
    <ele>2.0</ele>
    <time>2026-01-08T11:33:04Z</time>
   </trkpt>
   <trkpt lat="59.1349870" lon="9.6369680">
    <ele>2.0</ele>
    <time>2026-01-08T11:33:05Z</time>
   </trkpt>
   <trkpt lat="59.1349780" lon="9.6369430">
    <ele>2.0</ele>
    <time>2026-01-08T11:33:06Z</time>
   </trkpt>
   <trkpt lat="59.1349660" lon="9.6369230">
    <ele>2.0</ele>
    <time>2026-01-08T11:33:07Z</time>
   </trkpt>
   <trkpt lat="59.1349550" lon="9.6369020">
    <ele>2.0</ele>
    <time>2026-01-08T11:33:08Z</time>
   </trkpt>
   <trkpt lat="59.1349420" lon="9.6368810">
    <ele>2.0</ele>
    <time>2026-01-08T11:33:09Z</time>
   </trkpt>
   <trkpt lat="59.1349310" lon="9.6368710">
    <ele>2.0</ele>
    <time>2026-01-08T11:33:10Z</time>
   </trkpt>
   <trkpt lat="59.1349180" lon="9.6368510">
    <ele>2.0</ele>
    <time>2026-01-08T11:33:11Z</time>
   </trkpt>
   <trkpt lat="59.1349090" lon="9.6368320">
    <ele>2.0</ele>
    <time>2026-01-08T11:33:12Z</time>
   </trkpt>
   <trkpt lat="59.1348950" lon="9.6368140">
    <ele>2.0</ele>
    <time>2026-01-08T11:33:13Z</time>
   </trkpt>
   <trkpt lat="59.1348840" lon="9.6367890">
    <ele>2.0</ele>
    <time>2026-01-08T11:33:14Z</time>
   </trkpt>
   <trkpt lat="59.1348730" lon="9.6367730">
    <ele>2.0</ele>
    <time>2026-01-08T11:33:15Z</time>
   </trkpt>
   <trkpt lat="59.1348640" lon="9.6367480">
    <ele>2.0</ele>
    <time>2026-01-08T11:33:16Z</time>
   </trkpt>
   <trkpt lat="59.1348540" lon="9.6367310">
    <ele>2.0</ele>
    <time>2026-01-08T11:33:17Z</time>
   </trkpt>
   <trkpt lat="59.1348410" lon="9.6367080">
    <ele>2.0</ele>
    <time>2026-01-08T11:33:18Z</time>
   </trkpt>
   <trkpt lat="59.1348300" lon="9.6366930">
    <ele>2.0</ele>
    <time>2026-01-08T11:33:19Z</time>
   </trkpt>
   <trkpt lat="59.1348160" lon="9.6366680">
    <ele>2.0</ele>
    <time>2026-01-08T11:33:20Z</time>
   </trkpt>
   <trkpt lat="59.1348140" lon="9.6366500">
    <ele>2.0</ele>
    <time>2026-01-08T11:33:21Z</time>
   </trkpt>
   <trkpt lat="59.1347990" lon="9.6366270">
    <ele>2.0</ele>
    <time>2026-01-08T11:33:22Z</time>
   </trkpt>
   <trkpt lat="59.1347910" lon="9.6366110">
    <ele>2.0</ele>
    <time>2026-01-08T11:33:23Z</time>
   </trkpt>
   <trkpt lat="59.1347780" lon="9.6365880">
    <ele>2.0</ele>
    <time>2026-01-08T11:33:24Z</time>
   </trkpt>
   <trkpt lat="59.1347700" lon="9.6365730">
    <ele>2.0</ele>
    <time>2026-01-08T11:33:25Z</time>
   </trkpt>
   <trkpt lat="59.1347570" lon="9.6365450">
    <ele>2.0</ele>
    <time>2026-01-08T11:33:26Z</time>
   </trkpt>
   <trkpt lat="59.1347500" lon="9.6365340">
    <ele>2.0</ele>
    <time>2026-01-08T11:33:27Z</time>
   </trkpt>
   <trkpt lat="59.1347380" lon="9.6365130">
    <ele>2.0</ele>
    <time>2026-01-08T11:33:28Z</time>
   </trkpt>
   <trkpt lat="59.1347290" lon="9.6364950">
    <ele>2.0</ele>
    <time>2026-01-08T11:33:29Z</time>
   </trkpt>
   <trkpt lat="59.1347170" lon="9.6364690">
    <ele>2.0</ele>
    <time>2026-01-08T11:33:30Z</time>
   </trkpt>
   <trkpt lat="59.1347080" lon="9.6364510">
    <ele>2.0</ele>
    <time>2026-01-08T11:33:31Z</time>
   </trkpt>
   <trkpt lat="59.1346980" lon="9.6364280">
    <ele>2.0</ele>
    <time>2026-01-08T11:33:32Z</time>
   </trkpt>
   <trkpt lat="59.1346870" lon="9.6364130">
    <ele>2.0</ele>
    <time>2026-01-08T11:33:33Z</time>
   </trkpt>
   <trkpt lat="59.1346760" lon="9.6363850">
    <ele>2.0</ele>
    <time>2026-01-08T11:33:34Z</time>
   </trkpt>
   <trkpt lat="59.1346670" lon="9.6363760">
    <ele>2.0</ele>
    <time>2026-01-08T11:33:35Z</time>
   </trkpt>
   <trkpt lat="59.1346530" lon="9.6363470">
    <ele>2.0</ele>
    <time>2026-01-08T11:33:36Z</time>
   </trkpt>
   <trkpt lat="59.1346480" lon="9.6363340">
    <ele>2.0</ele>
    <time>2026-01-08T11:33:37Z</time>
   </trkpt>
   <trkpt lat="59.1346350" lon="9.6363060">
    <ele>2.0</ele>
    <time>2026-01-08T11:33:38Z</time>
   </trkpt>
   <trkpt lat="59.1346310" lon="9.6362920">
    <ele>2.0</ele>
    <time>2026-01-08T11:33:39Z</time>
   </trkpt>
   <trkpt lat="59.1346190" lon="9.6362690">
    <ele>2.0</ele>
    <time>2026-01-08T11:33:40Z</time>
   </trkpt>
   <trkpt lat="59.1346110" lon="9.6362510">
    <ele>2.0</ele>
    <time>2026-01-08T11:33:41Z</time>
   </trkpt>
   <trkpt lat="59.1345980" lon="9.6362320">
    <ele>2.0</ele>
    <time>2026-01-08T11:33:42Z</time>
   </trkpt>
   <trkpt lat="59.1345880" lon="9.6362130">
    <ele>2.0</ele>
    <time>2026-01-08T11:33:43Z</time>
   </trkpt>
   <trkpt lat="59.1345780" lon="9.6361870">
    <ele>2.0</ele>
    <time>2026-01-08T11:33:44Z</time>
   </trkpt>
   <trkpt lat="59.1345700" lon="9.6361660">
    <ele>2.0</ele>
    <time>2026-01-08T11:33:45Z</time>
   </trkpt>
   <trkpt lat="59.1345610" lon="9.6361480">
    <ele>2.0</ele>
    <time>2026-01-08T11:33:46Z</time>
   </trkpt>
   <trkpt lat="59.1345520" lon="9.6361260">
    <ele>2.0</ele>
    <time>2026-01-08T11:33:47Z</time>
   </trkpt>
   <trkpt lat="59.1345360" lon="9.6360980">
    <ele>2.0</ele>
    <time>2026-01-08T11:33:48Z</time>
   </trkpt>
   <trkpt lat="59.1345280" lon="9.6360880">
    <ele>2.0</ele>
    <time>2026-01-08T11:33:49Z</time>
   </trkpt>
   <trkpt lat="59.1345210" lon="9.6360600">
    <ele>2.0</ele>
    <time>2026-01-08T11:33:50Z</time>
   </trkpt>
   <trkpt lat="59.1345120" lon="9.6360370">
    <ele>2.0</ele>
    <time>2026-01-08T11:33:51Z</time>
   </trkpt>
   <trkpt lat="59.1344970" lon="9.6360110">
    <ele>2.0</ele>
    <time>2026-01-08T11:33:52Z</time>
   </trkpt>
   <trkpt lat="59.1344860" lon="9.6360000">
    <ele>2.0</ele>
    <time>2026-01-08T11:33:53Z</time>
   </trkpt>
   <trkpt lat="59.1344770" lon="9.6359730">
    <ele>2.0</ele>
    <time>2026-01-08T11:33:54Z</time>
   </trkpt>
   <trkpt lat="59.1344660" lon="9.6359590">
    <ele>2.0</ele>
    <time>2026-01-08T11:33:55Z</time>
   </trkpt>
   <trkpt lat="59.1344490" lon="9.6359340">
    <ele>1.9</ele>
    <time>2026-01-08T11:33:56Z</time>
   </trkpt>
   <trkpt lat="59.1344420" lon="9.6359190">
    <ele>1.9</ele>
    <time>2026-01-08T11:33:57Z</time>
   </trkpt>
   <trkpt lat="59.1344280" lon="9.6358850">
    <ele>1.9</ele>
    <time>2026-01-08T11:33:58Z</time>
   </trkpt>
   <trkpt lat="59.1344220" lon="9.6358750">
    <ele>1.9</ele>
    <time>2026-01-08T11:33:59Z</time>
   </trkpt>
   <trkpt lat="59.1344100" lon="9.6358490">
    <ele>1.9</ele>
    <time>2026-01-08T11:34:00Z</time>
   </trkpt>
   <trkpt lat="59.1344020" lon="9.6358330">
    <ele>1.9</ele>
    <time>2026-01-08T11:34:01Z</time>
   </trkpt>
   <trkpt lat="59.1343890" lon="9.6358110">
    <ele>1.9</ele>
    <time>2026-01-08T11:34:02Z</time>
   </trkpt>
   <trkpt lat="59.1343810" lon="9.6357940">
    <ele>1.9</ele>
    <time>2026-01-08T11:34:03Z</time>
   </trkpt>
   <trkpt lat="59.1343760" lon="9.6357600">
    <ele>1.9</ele>
    <time>2026-01-08T11:34:04Z</time>
   </trkpt>
   <trkpt lat="59.1343690" lon="9.6357430">
    <ele>1.9</ele>
    <time>2026-01-08T11:34:05Z</time>
   </trkpt>
   <trkpt lat="59.1343470" lon="9.6357120">
    <ele>1.9</ele>
    <time>2026-01-08T11:34:06Z</time>
   </trkpt>
   <trkpt lat="59.1343390" lon="9.6356970">
    <ele>1.9</ele>
    <time>2026-01-08T11:34:07Z</time>
   </trkpt>
   <trkpt lat="59.1343320" lon="9.6356880">
    <ele>1.9</ele>
    <time>2026-01-08T11:34:08Z</time>
   </trkpt>
   <trkpt lat="59.1343180" lon="9.6356640">
    <ele>1.9</ele>
    <time>2026-01-08T11:34:09Z</time>
   </trkpt>
   <trkpt lat="59.1343140" lon="9.6356390">
    <ele>1.9</ele>
    <time>2026-01-08T11:34:10Z</time>
   </trkpt>
   <trkpt lat="59.1343000" lon="9.6356200">
    <ele>1.9</ele>
    <time>2026-01-08T11:34:11Z</time>
   </trkpt>
   <trkpt lat="59.1342860" lon="9.6355960">
    <ele>1.9</ele>
    <time>2026-01-08T11:34:12Z</time>
   </trkpt>
   <trkpt lat="59.1342780" lon="9.6355850">
    <ele>1.9</ele>
    <time>2026-01-08T11:34:13Z</time>
   </trkpt>
   <trkpt lat="59.1342710" lon="9.6355740">
    <ele>1.9</ele>
    <time>2026-01-08T11:34:14Z</time>
   </trkpt>
   <trkpt lat="59.1342570" lon="9.6355420">
    <ele>1.9</ele>
    <time>2026-01-08T11:34:15Z</time>
   </trkpt>
   <trkpt lat="59.1342510" lon="9.6355310">
    <ele>1.9</ele>
    <time>2026-01-08T11:34:16Z</time>
   </trkpt>
   <trkpt lat="59.1342330" lon="9.6355020">
    <ele>2.0</ele>
    <time>2026-01-08T11:34:17Z</time>
   </trkpt>
   <trkpt lat="59.1342280" lon="9.6354900">
    <ele>2.0</ele>
    <time>2026-01-08T11:34:18Z</time>
   </trkpt>
   <trkpt lat="59.1342220" lon="9.6354790">
    <ele>2.0</ele>
    <time>2026-01-08T11:34:19Z</time>
   </trkpt>
   <trkpt lat="59.1342020" lon="9.6354590">
    <ele>2.0</ele>
    <time>2026-01-08T11:34:20Z</time>
   </trkpt>
   <trkpt lat="59.1341950" lon="9.6354480">
    <ele>2.0</ele>
    <time>2026-01-08T11:34:21Z</time>
   </trkpt>
   <trkpt lat="59.1341770" lon="9.6354160">
    <ele>2.0</ele>
    <time>2026-01-08T11:34:22Z</time>
   </trkpt>
   <trkpt lat="59.1341690" lon="9.6354040">
    <ele>2.0</ele>
    <time>2026-01-08T11:34:23Z</time>
   </trkpt>
   <trkpt lat="59.1341620" lon="9.6353910">
    <ele>2.0</ele>
    <time>2026-01-08T11:34:24Z</time>
   </trkpt>
   <trkpt lat="59.1341430" lon="9.6353550">
    <ele>2.0</ele>
    <time>2026-01-08T11:34:25Z</time>
   </trkpt>
   <trkpt lat="59.1341340" lon="9.6353420">
    <ele>2.0</ele>
    <time>2026-01-08T11:34:26Z</time>
   </trkpt>
   <trkpt lat="59.1341190" lon="9.6353180">
    <ele>2.0</ele>
    <time>2026-01-08T11:34:27Z</time>
   </trkpt>
   <trkpt lat="59.1341120" lon="9.6353060">
    <ele>2.0</ele>
    <time>2026-01-08T11:34:28Z</time>
   </trkpt>
   <trkpt lat="59.1341040" lon="9.6352950">
    <ele>2.0</ele>
    <time>2026-01-08T11:34:29Z</time>
   </trkpt>
   <trkpt lat="59.1340890" lon="9.6352650">
    <ele>2.0</ele>
    <time>2026-01-08T11:34:30Z</time>
   </trkpt>
   <trkpt lat="59.1340820" lon="9.6352520">
    <ele>2.0</ele>
    <time>2026-01-08T11:34:31Z</time>
   </trkpt>
   <trkpt lat="59.1340750" lon="9.6352390">
    <ele>2.0</ele>
    <time>2026-01-08T11:34:32Z</time>
   </trkpt>
   <trkpt lat="59.1340670" lon="9.6352230">
    <ele>2.0</ele>
    <time>2026-01-08T11:34:33Z</time>
   </trkpt>
   <trkpt lat="59.1340520" lon="9.6351970">
    <ele>2.0</ele>
    <time>2026-01-08T11:34:34Z</time>
   </trkpt>
   <trkpt lat="59.1340410" lon="9.6351680">
    <ele>2.0</ele>
    <time>2026-01-08T11:34:35Z</time>
   </trkpt>
   <trkpt lat="59.1340360" lon="9.6351520">
    <ele>2.0</ele>
    <time>2026-01-08T11:34:36Z</time>
   </trkpt>
   <trkpt lat="59.1340320" lon="9.6351350">
    <ele>2.0</ele>
    <time>2026-01-08T11:34:37Z</time>
   </trkpt>
   <trkpt lat="59.1340160" lon="9.6351130">
    <ele>2.0</ele>
    <time>2026-01-08T11:34:38Z</time>
   </trkpt>
   <trkpt lat="59.1340070" lon="9.6351010">
    <ele>2.0</ele>
    <time>2026-01-08T11:34:39Z</time>
   </trkpt>
   <trkpt lat="59.1339890" lon="9.6350680">
    <ele>2.0</ele>
    <time>2026-01-08T11:34:40Z</time>
   </trkpt>
   <trkpt lat="59.1339840" lon="9.6350560">
    <ele>2.0</ele>
    <time>2026-01-08T11:34:41Z</time>
   </trkpt>
   <trkpt lat="59.1339780" lon="9.6350450">
    <ele>2.0</ele>
    <time>2026-01-08T11:34:42Z</time>
   </trkpt>
   <trkpt lat="59.1339610" lon="9.6350100">
    <ele>2.0</ele>
    <time>2026-01-08T11:34:43Z</time>
   </trkpt>
   <trkpt lat="59.1339550" lon="9.6349960">
    <ele>2.0</ele>
    <time>2026-01-08T11:34:44Z</time>
   </trkpt>
   <trkpt lat="59.1339490" lon="9.6349820">
    <ele>2.0</ele>
    <time>2026-01-08T11:34:45Z</time>
   </trkpt>
   <trkpt lat="59.1339390" lon="9.6349620">
    <ele>2.0</ele>
    <time>2026-01-08T11:34:46Z</time>
   </trkpt>
   <trkpt lat="59.1339280" lon="9.6349390">
    <ele>2.0</ele>
    <time>2026-01-08T11:34:47Z</time>
   </trkpt>
   <trkpt lat="59.1339120" lon="9.6349080">
    <ele>2.0</ele>
    <time>2026-01-08T11:34:48Z</time>
   </trkpt>
   <trkpt lat="59.1339100" lon="9.6348960">
    <ele>2.0</ele>
    <time>2026-01-08T11:34:49Z</time>
   </trkpt>
   <trkpt lat="59.1338960" lon="9.6348720">
    <ele>2.0</ele>
    <time>2026-01-08T11:34:50Z</time>
   </trkpt>
   <trkpt lat="59.1338920" lon="9.6348490">
    <ele>2.0</ele>
    <time>2026-01-08T11:34:51Z</time>
   </trkpt>
   <trkpt lat="59.1338810" lon="9.6348320">
    <ele>2.0</ele>
    <time>2026-01-08T11:34:52Z</time>
   </trkpt>
   <trkpt lat="59.1338650" lon="9.6348140">
    <ele>2.0</ele>
    <time>2026-01-08T11:34:53Z</time>
   </trkpt>
   <trkpt lat="59.1338560" lon="9.6348040">
    <ele>2.0</ele>
    <time>2026-01-08T11:34:54Z</time>
   </trkpt>
   <trkpt lat="59.1338430" lon="9.6347840">
    <ele>2.0</ele>
    <time>2026-01-08T11:34:55Z</time>
   </trkpt>
   <trkpt lat="59.1338280" lon="9.6347580">
    <ele>2.0</ele>
    <time>2026-01-08T11:34:56Z</time>
   </trkpt>
   <trkpt lat="59.1338200" lon="9.6347440">
    <ele>2.0</ele>
    <time>2026-01-08T11:34:57Z</time>
   </trkpt>
   <trkpt lat="59.1338120" lon="9.6347310">
    <ele>2.1</ele>
    <time>2026-01-08T11:34:58Z</time>
   </trkpt>
   <trkpt lat="59.1337930" lon="9.6347040">
    <ele>2.1</ele>
    <time>2026-01-08T11:34:59Z</time>
   </trkpt>
   <trkpt lat="59.1337840" lon="9.6346870">
    <ele>2.1</ele>
    <time>2026-01-08T11:35:00Z</time>
   </trkpt>
   <trkpt lat="59.1337760" lon="9.6346710">
    <ele>2.1</ele>
    <time>2026-01-08T11:35:01Z</time>
   </trkpt>
   <trkpt lat="59.1337610" lon="9.6346430">
    <ele>2.1</ele>
    <time>2026-01-08T11:35:02Z</time>
   </trkpt>
   <trkpt lat="59.1337520" lon="9.6346290">
    <ele>2.1</ele>
    <time>2026-01-08T11:35:03Z</time>
   </trkpt>
   <trkpt lat="59.1337420" lon="9.6346140">
    <ele>2.1</ele>
    <time>2026-01-08T11:35:04Z</time>
   </trkpt>
   <trkpt lat="59.1337390" lon="9.6345920">
    <ele>2.1</ele>
    <time>2026-01-08T11:35:05Z</time>
   </trkpt>
   <trkpt lat="59.1337280" lon="9.6345680">
    <ele>2.1</ele>
    <time>2026-01-08T11:35:06Z</time>
   </trkpt>
   <trkpt lat="59.1337130" lon="9.6345410">
    <ele>2.1</ele>
    <time>2026-01-08T11:35:07Z</time>
   </trkpt>
   <trkpt lat="59.1337050" lon="9.6345260">
    <ele>2.1</ele>
    <time>2026-01-08T11:35:08Z</time>
   </trkpt>
   <trkpt lat="59.1336970" lon="9.6345120">
    <ele>2.1</ele>
    <time>2026-01-08T11:35:09Z</time>
   </trkpt>
   <trkpt lat="59.1336870" lon="9.6344950">
    <ele>2.1</ele>
    <time>2026-01-08T11:35:10Z</time>
   </trkpt>
   <trkpt lat="59.1336740" lon="9.6344720">
    <ele>2.1</ele>
    <time>2026-01-08T11:35:11Z</time>
   </trkpt>
   <trkpt lat="59.1336640" lon="9.6344570">
    <ele>2.1</ele>
    <time>2026-01-08T11:35:12Z</time>
   </trkpt>
   <trkpt lat="59.1336510" lon="9.6344260">
    <ele>2.1</ele>
    <time>2026-01-08T11:35:13Z</time>
   </trkpt>
   <trkpt lat="59.1336440" lon="9.6344160">
    <ele>2.2</ele>
    <time>2026-01-08T11:35:14Z</time>
   </trkpt>
   <trkpt lat="59.1336260" lon="9.6343910">
    <ele>2.2</ele>
    <time>2026-01-08T11:35:15Z</time>
   </trkpt>
   <trkpt lat="59.1336220" lon="9.6343760">
    <ele>2.2</ele>
    <time>2026-01-08T11:35:16Z</time>
   </trkpt>
   <trkpt lat="59.1336060" lon="9.6343510">
    <ele>2.2</ele>
    <time>2026-01-08T11:35:17Z</time>
   </trkpt>
   <trkpt lat="59.1336040" lon="9.6343280">
    <ele>2.2</ele>
    <time>2026-01-08T11:35:18Z</time>
   </trkpt>
   <trkpt lat="59.1335970" lon="9.6342910">
    <ele>2.2</ele>
    <time>2026-01-08T11:35:19Z</time>
   </trkpt>
   <trkpt lat="59.1335820" lon="9.6342800">
    <ele>2.2</ele>
    <time>2026-01-08T11:35:20Z</time>
   </trkpt>
   <trkpt lat="59.1335710" lon="9.6342460">
    <ele>2.2</ele>
    <time>2026-01-08T11:35:21Z</time>
   </trkpt>
   <trkpt lat="59.1335710" lon="9.6342290">
    <ele>2.2</ele>
    <time>2026-01-08T11:35:22Z</time>
   </trkpt>
   <trkpt lat="59.1335620" lon="9.6342030">
    <ele>2.2</ele>
    <time>2026-01-08T11:35:23Z</time>
   </trkpt>
   <trkpt lat="59.1335540" lon="9.6341890">
    <ele>2.2</ele>
    <time>2026-01-08T11:35:24Z</time>
   </trkpt>
   <trkpt lat="59.1335420" lon="9.6341610">
    <ele>2.2</ele>
    <time>2026-01-08T11:35:25Z</time>
   </trkpt>
   <trkpt lat="59.1335380" lon="9.6341400">
    <ele>2.2</ele>
    <time>2026-01-08T11:35:26Z</time>
   </trkpt>
   <trkpt lat="59.1335200" lon="9.6341010">
    <ele>2.2</ele>
    <time>2026-01-08T11:35:27Z</time>
   </trkpt>
   <trkpt lat="59.1335150" lon="9.6340870">
    <ele>2.2</ele>
    <time>2026-01-08T11:35:28Z</time>
   </trkpt>
   <trkpt lat="59.1335090" lon="9.6340740">
    <ele>2.2</ele>
    <time>2026-01-08T11:35:29Z</time>
   </trkpt>
   <trkpt lat="59.1334970" lon="9.6340450">
    <ele>2.2</ele>
    <time>2026-01-08T11:35:30Z</time>
   </trkpt>
   <trkpt lat="59.1334910" lon="9.6340330">
    <ele>2.3</ele>
    <time>2026-01-08T11:35:31Z</time>
   </trkpt>
   <trkpt lat="59.1334840" lon="9.6340220">
    <ele>2.3</ele>
    <time>2026-01-08T11:35:32Z</time>
   </trkpt>
   <trkpt lat="59.1334670" lon="9.6339890">
    <ele>2.3</ele>
    <time>2026-01-08T11:35:33Z</time>
   </trkpt>
   <trkpt lat="59.1334670" lon="9.6339750">
    <ele>2.3</ele>
    <time>2026-01-08T11:35:34Z</time>
   </trkpt>
   <trkpt lat="59.1334560" lon="9.6339590">
    <ele>2.3</ele>
    <time>2026-01-08T11:35:35Z</time>
   </trkpt>
   <trkpt lat="59.1334420" lon="9.6339340">
    <ele>2.3</ele>
    <time>2026-01-08T11:35:36Z</time>
   </trkpt>
   <trkpt lat="59.1334320" lon="9.6339170">
    <ele>2.3</ele>
    <time>2026-01-08T11:35:37Z</time>
   </trkpt>
   <trkpt lat="59.1334180" lon="9.6338970">
    <ele>2.3</ele>
    <time>2026-01-08T11:35:38Z</time>
   </trkpt>
   <trkpt lat="59.1333960" lon="9.6338730">
    <ele>2.3</ele>
    <time>2026-01-08T11:35:39Z</time>
   </trkpt>
   <trkpt lat="59.1333850" lon="9.6338610">
    <ele>2.3</ele>
    <time>2026-01-08T11:35:40Z</time>
   </trkpt>
   <trkpt lat="59.1333750" lon="9.6338480">
    <ele>2.3</ele>
    <time>2026-01-08T11:35:41Z</time>
   </trkpt>
   <trkpt lat="59.1333690" lon="9.6338380">
    <ele>2.3</ele>
    <time>2026-01-08T11:35:42Z</time>
   </trkpt>
   <trkpt lat="59.1333570" lon="9.6338170">
    <ele>2.3</ele>
    <time>2026-01-08T11:35:43Z</time>
   </trkpt>
   <trkpt lat="59.1333500" lon="9.6338110">
    <ele>2.3</ele>
    <time>2026-01-08T11:35:44Z</time>
   </trkpt>
   <trkpt lat="59.1333310" lon="9.6337900">
    <ele>2.3</ele>
    <time>2026-01-08T11:35:45Z</time>
   </trkpt>
   <trkpt lat="59.1333250" lon="9.6337760">
    <ele>2.3</ele>
    <time>2026-01-08T11:35:46Z</time>
   </trkpt>
   <trkpt lat="59.1333180" lon="9.6337620">
    <ele>2.3</ele>
    <time>2026-01-08T11:35:47Z</time>
   </trkpt>
   <trkpt lat="59.1333030" lon="9.6337420">
    <ele>2.3</ele>
    <time>2026-01-08T11:35:48Z</time>
   </trkpt>
   <trkpt lat="59.1332920" lon="9.6337410">
    <ele>2.3</ele>
    <time>2026-01-08T11:35:49Z</time>
   </trkpt>
   <trkpt lat="59.1332760" lon="9.6337080">
    <ele>2.2</ele>
    <time>2026-01-08T11:35:50Z</time>
   </trkpt>
   <trkpt lat="59.1332700" lon="9.6336910">
    <ele>2.2</ele>
    <time>2026-01-08T11:35:51Z</time>
   </trkpt>
   <trkpt lat="59.1332540" lon="9.6336660">
    <ele>2.2</ele>
    <time>2026-01-08T11:35:52Z</time>
   </trkpt>
   <trkpt lat="59.1332470" lon="9.6336560">
    <ele>2.2</ele>
    <time>2026-01-08T11:35:53Z</time>
   </trkpt>
   <trkpt lat="59.1332400" lon="9.6336450">
    <ele>2.2</ele>
    <time>2026-01-08T11:35:54Z</time>
   </trkpt>
   <trkpt lat="59.1332270" lon="9.6336250">
    <ele>2.2</ele>
    <time>2026-01-08T11:35:55Z</time>
   </trkpt>
   <trkpt lat="59.1332130" lon="9.6336040">
    <ele>2.2</ele>
    <time>2026-01-08T11:35:56Z</time>
   </trkpt>
   <trkpt lat="59.1331960" lon="9.6335740">
    <ele>2.2</ele>
    <time>2026-01-08T11:35:57Z</time>
   </trkpt>
   <trkpt lat="59.1331880" lon="9.6335580">
    <ele>2.2</ele>
    <time>2026-01-08T11:35:58Z</time>
   </trkpt>
   <trkpt lat="59.1331790" lon="9.6335430">
    <ele>2.2</ele>
    <time>2026-01-08T11:35:59Z</time>
   </trkpt>
   <trkpt lat="59.1331760" lon="9.6335270">
    <ele>2.2</ele>
    <time>2026-01-08T11:36:00Z</time>
   </trkpt>
   <trkpt lat="59.1331580" lon="9.6335100">
    <ele>2.2</ele>
    <time>2026-01-08T11:36:01Z</time>
   </trkpt>
   <trkpt lat="59.1331470" lon="9.6334770">
    <ele>2.2</ele>
    <time>2026-01-08T11:36:02Z</time>
   </trkpt>
   <trkpt lat="59.1331400" lon="9.6334640">
    <ele>2.2</ele>
    <time>2026-01-08T11:36:03Z</time>
   </trkpt>
   <trkpt lat="59.1331330" lon="9.6334500">
    <ele>2.2</ele>
    <time>2026-01-08T11:36:04Z</time>
   </trkpt>
   <trkpt lat="59.1331170" lon="9.6334110">
    <ele>2.2</ele>
    <time>2026-01-08T11:36:05Z</time>
   </trkpt>
   <trkpt lat="59.1331110" lon="9.6334000">
    <ele>2.2</ele>
    <time>2026-01-08T11:36:06Z</time>
   </trkpt>
   <trkpt lat="59.1331050" lon="9.6333890">
    <ele>2.2</ele>
    <time>2026-01-08T11:36:07Z</time>
   </trkpt>
   <trkpt lat="59.1330970" lon="9.6333740">
    <ele>2.2</ele>
    <time>2026-01-08T11:36:08Z</time>
   </trkpt>
   <trkpt lat="59.1330860" lon="9.6333500">
    <ele>2.2</ele>
    <time>2026-01-08T11:36:09Z</time>
   </trkpt>
   <trkpt lat="59.1330760" lon="9.6333290">
    <ele>2.2</ele>
    <time>2026-01-08T11:36:10Z</time>
   </trkpt>
   <trkpt lat="59.1330650" lon="9.6333110">
    <ele>2.2</ele>
    <time>2026-01-08T11:36:11Z</time>
   </trkpt>
   <trkpt lat="59.1330470" lon="9.6332850">
    <ele>2.2</ele>
    <time>2026-01-08T11:36:12Z</time>
   </trkpt>
   <trkpt lat="59.1330370" lon="9.6332690">
    <ele>2.2</ele>
    <time>2026-01-08T11:36:13Z</time>
   </trkpt>
   <trkpt lat="59.1330280" lon="9.6332530">
    <ele>2.2</ele>
    <time>2026-01-08T11:36:14Z</time>
   </trkpt>
   <trkpt lat="59.1330200" lon="9.6332390">
    <ele>2.2</ele>
    <time>2026-01-08T11:36:15Z</time>
   </trkpt>
   <trkpt lat="59.1330070" lon="9.6332140">
    <ele>2.2</ele>
    <time>2026-01-08T11:36:16Z</time>
   </trkpt>
   <trkpt lat="59.1329980" lon="9.6332070">
    <ele>2.2</ele>
    <time>2026-01-08T11:36:17Z</time>
   </trkpt>
   <trkpt lat="59.1329870" lon="9.6331750">
    <ele>2.2</ele>
    <time>2026-01-08T11:36:18Z</time>
   </trkpt>
   <trkpt lat="59.1329810" lon="9.6331620">
    <ele>2.2</ele>
    <time>2026-01-08T11:36:19Z</time>
   </trkpt>
   <trkpt lat="59.1329680" lon="9.6331370">
    <ele>2.2</ele>
    <time>2026-01-08T11:36:20Z</time>
   </trkpt>
   <trkpt lat="59.1329560" lon="9.6331240">
    <ele>2.2</ele>
    <time>2026-01-08T11:36:21Z</time>
   </trkpt>
   <trkpt lat="59.1329420" lon="9.6330940">
    <ele>2.2</ele>
    <time>2026-01-08T11:36:22Z</time>
   </trkpt>
   <trkpt lat="59.1329340" lon="9.6330840">
    <ele>2.2</ele>
    <time>2026-01-08T11:36:23Z</time>
   </trkpt>
   <trkpt lat="59.1329220" lon="9.6330600">
    <ele>2.2</ele>
    <time>2026-01-08T11:36:24Z</time>
   </trkpt>
   <trkpt lat="59.1329120" lon="9.6330500">
    <ele>2.2</ele>
    <time>2026-01-08T11:36:25Z</time>
   </trkpt>
   <trkpt lat="59.1329020" lon="9.6330220">
    <ele>2.2</ele>
    <time>2026-01-08T11:36:26Z</time>
   </trkpt>
   <trkpt lat="59.1328870" lon="9.6329980">
    <ele>2.2</ele>
    <time>2026-01-08T11:36:27Z</time>
   </trkpt>
   <trkpt lat="59.1328820" lon="9.6329830">
    <ele>2.2</ele>
    <time>2026-01-08T11:36:28Z</time>
   </trkpt>
   <trkpt lat="59.1328760" lon="9.6329690">
    <ele>2.2</ele>
    <time>2026-01-08T11:36:29Z</time>
   </trkpt>
   <trkpt lat="59.1328630" lon="9.6329470">
    <ele>2.2</ele>
    <time>2026-01-08T11:36:30Z</time>
   </trkpt>
   <trkpt lat="59.1328550" lon="9.6329330">
    <ele>2.2</ele>
    <time>2026-01-08T11:36:31Z</time>
   </trkpt>
   <trkpt lat="59.1328440" lon="9.6329120">
    <ele>2.2</ele>
    <time>2026-01-08T11:36:32Z</time>
   </trkpt>
   <trkpt lat="59.1328340" lon="9.6328960">
    <ele>2.2</ele>
    <time>2026-01-08T11:36:33Z</time>
   </trkpt>
   <trkpt lat="59.1328240" lon="9.6328750">
    <ele>2.1</ele>
    <time>2026-01-08T11:36:34Z</time>
   </trkpt>
   <trkpt lat="59.1328120" lon="9.6328520">
    <ele>2.1</ele>
    <time>2026-01-08T11:36:35Z</time>
   </trkpt>
   <trkpt lat="59.1328020" lon="9.6328360">
    <ele>2.1</ele>
    <time>2026-01-08T11:36:36Z</time>
   </trkpt>
   <trkpt lat="59.1327920" lon="9.6328160">
    <ele>2.1</ele>
    <time>2026-01-08T11:36:37Z</time>
   </trkpt>
   <trkpt lat="59.1327720" lon="9.6327850">
    <ele>2.1</ele>
    <time>2026-01-08T11:36:38Z</time>
   </trkpt>
   <trkpt lat="59.1327620" lon="9.6327730">
    <ele>2.1</ele>
    <time>2026-01-08T11:36:39Z</time>
   </trkpt>
   <trkpt lat="59.1327570" lon="9.6327570">
    <ele>2.1</ele>
    <time>2026-01-08T11:36:40Z</time>
   </trkpt>
   <trkpt lat="59.1327420" lon="9.6327280">
    <ele>2.1</ele>
    <time>2026-01-08T11:36:41Z</time>
   </trkpt>
   <trkpt lat="59.1327380" lon="9.6327110">
    <ele>2.1</ele>
    <time>2026-01-08T11:36:42Z</time>
   </trkpt>
   <trkpt lat="59.1327270" lon="9.6326790">
    <ele>2.1</ele>
    <time>2026-01-08T11:36:43Z</time>
   </trkpt>
   <trkpt lat="59.1327190" lon="9.6326620">
    <ele>2.0</ele>
    <time>2026-01-08T11:36:44Z</time>
   </trkpt>
   <trkpt lat="59.1327090" lon="9.6326340">
    <ele>2.0</ele>
    <time>2026-01-08T11:36:45Z</time>
   </trkpt>
   <trkpt lat="59.1327010" lon="9.6326200">
    <ele>2.0</ele>
    <time>2026-01-08T11:36:46Z</time>
   </trkpt>
   <trkpt lat="59.1326890" lon="9.6325890">
    <ele>2.0</ele>
    <time>2026-01-08T11:36:47Z</time>
   </trkpt>
   <trkpt lat="59.1326760" lon="9.6325630">
    <ele>2.0</ele>
    <time>2026-01-08T11:36:48Z</time>
   </trkpt>
   <trkpt lat="59.1326710" lon="9.6325480">
    <ele>2.0</ele>
    <time>2026-01-08T11:36:49Z</time>
   </trkpt>
   <trkpt lat="59.1326660" lon="9.6325340">
    <ele>2.0</ele>
    <time>2026-01-08T11:36:50Z</time>
   </trkpt>
   <trkpt lat="59.1326570" lon="9.6325100">
    <ele>1.9</ele>
    <time>2026-01-08T11:36:51Z</time>
   </trkpt>
   <trkpt lat="59.1326470" lon="9.6324830">
    <ele>1.9</ele>
    <time>2026-01-08T11:36:52Z</time>
   </trkpt>
   <trkpt lat="59.1326370" lon="9.6324630">
    <ele>1.9</ele>
    <time>2026-01-08T11:36:53Z</time>
   </trkpt>
   <trkpt lat="59.1326280" lon="9.6324340">
    <ele>1.9</ele>
    <time>2026-01-08T11:36:54Z</time>
   </trkpt>
   <trkpt lat="59.1326210" lon="9.6324130">
    <ele>1.9</ele>
    <time>2026-01-08T11:36:55Z</time>
   </trkpt>
   <trkpt lat="59.1326110" lon="9.6323900">
    <ele>1.9</ele>
    <time>2026-01-08T11:36:56Z</time>
   </trkpt>
   <trkpt lat="59.1326040" lon="9.6323650">
    <ele>1.9</ele>
    <time>2026-01-08T11:36:57Z</time>
   </trkpt>
   <trkpt lat="59.1325950" lon="9.6323360">
    <ele>1.8</ele>
    <time>2026-01-08T11:36:58Z</time>
   </trkpt>
   <trkpt lat="59.1325870" lon="9.6323150">
    <ele>1.8</ele>
    <time>2026-01-08T11:36:59Z</time>
   </trkpt>
   <trkpt lat="59.1325740" lon="9.6322890">
    <ele>1.8</ele>
    <time>2026-01-08T11:37:00Z</time>
   </trkpt>
   <trkpt lat="59.1325670" lon="9.6322690">
    <ele>1.8</ele>
    <time>2026-01-08T11:37:01Z</time>
   </trkpt>
   <trkpt lat="59.1325570" lon="9.6322430">
    <ele>1.8</ele>
    <time>2026-01-08T11:37:02Z</time>
   </trkpt>
   <trkpt lat="59.1325460" lon="9.6321980">
    <ele>1.8</ele>
    <time>2026-01-08T11:37:03Z</time>
   </trkpt>
   <trkpt lat="59.1325400" lon="9.6321800">
    <ele>1.8</ele>
    <time>2026-01-08T11:37:04Z</time>
   </trkpt>
   <trkpt lat="59.1325200" lon="9.6321270">
    <ele>1.7</ele>
    <time>2026-01-08T11:37:05Z</time>
   </trkpt>
   <trkpt lat="59.1325110" lon="9.6321080">
    <ele>1.7</ele>
    <time>2026-01-08T11:37:06Z</time>
   </trkpt>
   <trkpt lat="59.1325060" lon="9.6320810">
    <ele>1.7</ele>
    <time>2026-01-08T11:37:07Z</time>
   </trkpt>
   <trkpt lat="59.1325040" lon="9.6320670">
    <ele>1.7</ele>
    <time>2026-01-08T11:37:08Z</time>
   </trkpt>
   <trkpt lat="59.1325010" lon="9.6320540">
    <ele>1.7</ele>
    <time>2026-01-08T11:37:09Z</time>
   </trkpt>
   <trkpt lat="59.1324990" lon="9.6320400">
    <ele>1.7</ele>
    <time>2026-01-08T11:37:10Z</time>
   </trkpt>
   <trkpt lat="59.1324940" lon="9.6320130">
    <ele>1.7</ele>
    <time>2026-01-08T11:37:11Z</time>
   </trkpt>
   <trkpt lat="59.1324940" lon="9.6319790">
    <ele>1.7</ele>
    <time>2026-01-08T11:37:12Z</time>
   </trkpt>
   <trkpt lat="59.1324930" lon="9.6319610">
    <ele>1.7</ele>
    <time>2026-01-08T11:37:13Z</time>
   </trkpt>
   <trkpt lat="59.1324910" lon="9.6319400">
    <ele>1.6</ele>
    <time>2026-01-08T11:37:14Z</time>
   </trkpt>
   <trkpt lat="59.1324900" lon="9.6319170">
    <ele>1.6</ele>
    <time>2026-01-08T11:37:15Z</time>
   </trkpt>
   <trkpt lat="59.1324800" lon="9.6318650">
    <ele>1.6</ele>
    <time>2026-01-08T11:37:16Z</time>
   </trkpt>
   <trkpt lat="59.1324780" lon="9.6318480">
    <ele>1.6</ele>
    <time>2026-01-08T11:37:17Z</time>
   </trkpt>
   <trkpt lat="59.1324700" lon="9.6318090">
    <ele>1.6</ele>
    <time>2026-01-08T11:37:18Z</time>
   </trkpt>
   <trkpt lat="59.1324660" lon="9.6317910">
    <ele>1.6</ele>
    <time>2026-01-08T11:37:19Z</time>
   </trkpt>
   <trkpt lat="59.1324620" lon="9.6317730">
    <ele>1.6</ele>
    <time>2026-01-08T11:37:20Z</time>
   </trkpt>
   <trkpt lat="59.1324500" lon="9.6317260">
    <ele>1.6</ele>
    <time>2026-01-08T11:37:21Z</time>
   </trkpt>
   <trkpt lat="59.1324460" lon="9.6316960">
    <ele>1.6</ele>
    <time>2026-01-08T11:37:22Z</time>
   </trkpt>
   <trkpt lat="59.1324300" lon="9.6316300">
    <ele>1.6</ele>
    <time>2026-01-08T11:37:23Z</time>
   </trkpt>
   <trkpt lat="59.1324210" lon="9.6315630">
    <ele>1.6</ele>
    <time>2026-01-08T11:37:24Z</time>
   </trkpt>
   <trkpt lat="59.1324180" lon="9.6315430">
    <ele>1.7</ele>
    <time>2026-01-08T11:37:25Z</time>
   </trkpt>
   <trkpt lat="59.1324160" lon="9.6315310">
    <ele>1.7</ele>
    <time>2026-01-08T11:37:26Z</time>
   </trkpt>
   <trkpt lat="59.1324150" lon="9.6315060">
    <ele>1.7</ele>
    <time>2026-01-08T11:37:27Z</time>
   </trkpt>
   <trkpt lat="59.1324160" lon="9.6314900">
    <ele>1.7</ele>
    <time>2026-01-08T11:37:28Z</time>
   </trkpt>
   <trkpt lat="59.1324100" lon="9.6314750">
    <ele>1.7</ele>
    <time>2026-01-08T11:37:29Z</time>
   </trkpt>
   <trkpt lat="59.1324050" lon="9.6314640">
    <ele>1.7</ele>
    <time>2026-01-08T11:37:30Z</time>
   </trkpt>
   <trkpt lat="59.1323970" lon="9.6314340">
    <ele>1.7</ele>
    <time>2026-01-08T11:37:31Z</time>
   </trkpt>
   <trkpt lat="59.1323970" lon="9.6314220">
    <ele>1.8</ele>
    <time>2026-01-08T11:37:32Z</time>
   </trkpt>
   <trkpt lat="59.1323950" lon="9.6314050">
    <ele>1.8</ele>
    <time>2026-01-08T11:37:33Z</time>
   </trkpt>
   <trkpt lat="59.1323930" lon="9.6313800">
    <ele>1.8</ele>
    <time>2026-01-08T11:37:34Z</time>
   </trkpt>
   <trkpt lat="59.1323910" lon="9.6313440">
    <ele>1.9</ele>
    <time>2026-01-08T11:37:35Z</time>
   </trkpt>
   <trkpt lat="59.1324000" lon="9.6313210">
    <ele>1.9</ele>
    <time>2026-01-08T11:37:36Z</time>
   </trkpt>
   <trkpt lat="59.1324050" lon="9.6312820">
    <ele>2.0</ele>
    <time>2026-01-08T11:37:37Z</time>
   </trkpt>
   <trkpt lat="59.1324010" lon="9.6312530">
    <ele>2.0</ele>
    <time>2026-01-08T11:37:38Z</time>
   </trkpt>
   <trkpt lat="59.1324010" lon="9.6312110">
    <ele>2.1</ele>
    <time>2026-01-08T11:37:39Z</time>
   </trkpt>
   <trkpt lat="59.1323960" lon="9.6311980">
    <ele>2.1</ele>
    <time>2026-01-08T11:37:40Z</time>
   </trkpt>
   <trkpt lat="59.1323800" lon="9.6311750">
    <ele>2.2</ele>
    <time>2026-01-08T11:37:41Z</time>
   </trkpt>
   <trkpt lat="59.1323740" lon="9.6311620">
    <ele>2.3</ele>
    <time>2026-01-08T11:37:42Z</time>
   </trkpt>
   <trkpt lat="59.1323670" lon="9.6311490">
    <ele>2.3</ele>
    <time>2026-01-08T11:37:43Z</time>
   </trkpt>
   <trkpt lat="59.1323570" lon="9.6311440">
    <ele>2.3</ele>
    <time>2026-01-08T11:37:44Z</time>
   </trkpt>
   <trkpt lat="59.1323440" lon="9.6311140">
    <ele>2.4</ele>
    <time>2026-01-08T11:37:45Z</time>
   </trkpt>
   <trkpt lat="59.1323280" lon="9.6310950">
    <ele>2.5</ele>
    <time>2026-01-08T11:37:46Z</time>
   </trkpt>
   <trkpt lat="59.1323190" lon="9.6310850">
    <ele>2.6</ele>
    <time>2026-01-08T11:37:47Z</time>
   </trkpt>
   <trkpt lat="59.1323100" lon="9.6310740">
    <ele>2.7</ele>
    <time>2026-01-08T11:37:48Z</time>
   </trkpt>
   <trkpt lat="59.1323070" lon="9.6310510">
    <ele>2.7</ele>
    <time>2026-01-08T11:37:49Z</time>
   </trkpt>
   <trkpt lat="59.1322990" lon="9.6310420">
    <ele>2.8</ele>
    <time>2026-01-08T11:37:50Z</time>
   </trkpt>
   <trkpt lat="59.1322910" lon="9.6310290">
    <ele>2.9</ele>
    <time>2026-01-08T11:37:51Z</time>
   </trkpt>
   <trkpt lat="59.1322760" lon="9.6310120">
    <ele>3.0</ele>
    <time>2026-01-08T11:37:52Z</time>
   </trkpt>
   <trkpt lat="59.1322590" lon="9.6310020">
    <ele>3.1</ele>
    <time>2026-01-08T11:37:53Z</time>
   </trkpt>
   <trkpt lat="59.1322390" lon="9.6309930">
    <ele>3.2</ele>
    <time>2026-01-08T11:37:54Z</time>
   </trkpt>
   <trkpt lat="59.1322280" lon="9.6309880">
    <ele>3.3</ele>
    <time>2026-01-08T11:37:55Z</time>
   </trkpt>
   <trkpt lat="59.1322090" lon="9.6309860">
    <ele>3.4</ele>
    <time>2026-01-08T11:37:56Z</time>
   </trkpt>
   <trkpt lat="59.1321970" lon="9.6309900">
    <ele>3.5</ele>
    <time>2026-01-08T11:37:57Z</time>
   </trkpt>
   <trkpt lat="59.1321810" lon="9.6309890">
    <ele>3.6</ele>
    <time>2026-01-08T11:37:58Z</time>
   </trkpt>
   <trkpt lat="59.1321670" lon="9.6309880">
    <ele>3.7</ele>
    <time>2026-01-08T11:37:59Z</time>
   </trkpt>
   <trkpt lat="59.1321500" lon="9.6309870">
    <ele>3.8</ele>
    <time>2026-01-08T11:38:00Z</time>
   </trkpt>
   <trkpt lat="59.1321380" lon="9.6309960">
    <ele>3.9</ele>
    <time>2026-01-08T11:38:01Z</time>
   </trkpt>
   <trkpt lat="59.1321250" lon="9.6310070">
    <ele>3.9</ele>
    <time>2026-01-08T11:38:02Z</time>
   </trkpt>
   <trkpt lat="59.1321080" lon="9.6310140">
    <ele>4.0</ele>
    <time>2026-01-08T11:38:03Z</time>
   </trkpt>
   <trkpt lat="59.1320870" lon="9.6310310">
    <ele>4.2</ele>
    <time>2026-01-08T11:38:04Z</time>
   </trkpt>
   <trkpt lat="59.1320760" lon="9.6310420">
    <ele>4.2</ele>
    <time>2026-01-08T11:38:05Z</time>
   </trkpt>
   <trkpt lat="59.1320640" lon="9.6310540">
    <ele>4.3</ele>
    <time>2026-01-08T11:38:06Z</time>
   </trkpt>
   <trkpt lat="59.1320530" lon="9.6310560">
    <ele>4.3</ele>
    <time>2026-01-08T11:38:07Z</time>
   </trkpt>
   <trkpt lat="59.1320420" lon="9.6310770">
    <ele>4.4</ele>
    <time>2026-01-08T11:38:08Z</time>
   </trkpt>
   <trkpt lat="59.1320350" lon="9.6310870">
    <ele>4.4</ele>
    <time>2026-01-08T11:38:09Z</time>
   </trkpt>
   <trkpt lat="59.1320240" lon="9.6310990">
    <ele>4.5</ele>
    <time>2026-01-08T11:38:10Z</time>
   </trkpt>
   <trkpt lat="59.1320140" lon="9.6311270">
    <ele>4.5</ele>
    <time>2026-01-08T11:38:11Z</time>
   </trkpt>
   <trkpt lat="59.1320090" lon="9.6311670">
    <ele>4.6</ele>
    <time>2026-01-08T11:38:12Z</time>
   </trkpt>
   <trkpt lat="59.1320100" lon="9.6311830">
    <ele>4.6</ele>
    <time>2026-01-08T11:38:13Z</time>
   </trkpt>
   <trkpt lat="59.1320100" lon="9.6312000">
    <ele>4.7</ele>
    <time>2026-01-08T11:38:14Z</time>
   </trkpt>
   <trkpt lat="59.1320280" lon="9.6312110">
    <ele>4.7</ele>
    <time>2026-01-08T11:38:15Z</time>
   </trkpt>
   <trkpt lat="59.1320400" lon="9.6312110">
    <ele>4.7</ele>
    <time>2026-01-08T11:38:16Z</time>
   </trkpt>
   <trkpt lat="59.1320520" lon="9.6312110">
    <ele>4.7</ele>
    <time>2026-01-08T11:38:17Z</time>
   </trkpt>
   <trkpt lat="59.1320700" lon="9.6312290">
    <ele>4.8</ele>
    <time>2026-01-08T11:38:18Z</time>
   </trkpt>
   <trkpt lat="59.1320770" lon="9.6312390">
    <ele>4.8</ele>
    <time>2026-01-08T11:38:19Z</time>
   </trkpt>
   <trkpt lat="59.1320850" lon="9.6312490">
    <ele>4.8</ele>
    <time>2026-01-08T11:38:20Z</time>
   </trkpt>
   <trkpt lat="59.1320960" lon="9.6312570">
    <ele>4.8</ele>
    <time>2026-01-08T11:38:21Z</time>
   </trkpt>
   <trkpt lat="59.1321090" lon="9.6312720">
    <ele>4.8</ele>
    <time>2026-01-08T11:38:22Z</time>
   </trkpt>
   <trkpt lat="59.1321150" lon="9.6312850">
    <ele>4.8</ele>
    <time>2026-01-08T11:38:23Z</time>
   </trkpt>
   <trkpt lat="59.1321240" lon="9.6312940">
    <ele>4.8</ele>
    <time>2026-01-08T11:38:24Z</time>
   </trkpt>
   <trkpt lat="59.1321410" lon="9.6312990">
    <ele>4.9</ele>
    <time>2026-01-08T11:38:25Z</time>
   </trkpt>
   <trkpt lat="59.1321570" lon="9.6312980">
    <ele>4.9</ele>
    <time>2026-01-08T11:38:26Z</time>
   </trkpt>
   <trkpt lat="59.1321720" lon="9.6313010">
    <ele>4.9</ele>
    <time>2026-01-08T11:38:27Z</time>
   </trkpt>
   <trkpt lat="59.1321960" lon="9.6313050">
    <ele>5.0</ele>
    <time>2026-01-08T11:38:28Z</time>
   </trkpt>
   <trkpt lat="59.1322050" lon="9.6313060">
    <ele>5.0</ele>
    <time>2026-01-08T11:38:29Z</time>
   </trkpt>
   <trkpt lat="59.1322130" lon="9.6313070">
    <ele>5.0</ele>
    <time>2026-01-08T11:38:30Z</time>
   </trkpt>
   <trkpt lat="59.1322380" lon="9.6313060">
    <ele>5.1</ele>
    <time>2026-01-08T11:38:31Z</time>
   </trkpt>
   <trkpt lat="59.1322470" lon="9.6313070">
    <ele>5.1</ele>
    <time>2026-01-08T11:38:32Z</time>
   </trkpt>
   <trkpt lat="59.1322560" lon="9.6313070">
    <ele>5.1</ele>
    <time>2026-01-08T11:38:33Z</time>
   </trkpt>
   <trkpt lat="59.1322740" lon="9.6313140">
    <ele>5.2</ele>
    <time>2026-01-08T11:38:34Z</time>
   </trkpt>
   <trkpt lat="59.1322870" lon="9.6313150">
    <ele>5.2</ele>
    <time>2026-01-08T11:38:35Z</time>
   </trkpt>
   <trkpt lat="59.1323050" lon="9.6313090">
    <ele>5.3</ele>
    <time>2026-01-08T11:38:36Z</time>
   </trkpt>
   <trkpt lat="59.1323180" lon="9.6313090">
    <ele>5.3</ele>
    <time>2026-01-08T11:38:37Z</time>
   </trkpt>
   <trkpt lat="59.1323370" lon="9.6313070">
    <ele>5.3</ele>
    <time>2026-01-08T11:38:38Z</time>
   </trkpt>
   <trkpt lat="59.1323450" lon="9.6313000">
    <ele>5.4</ele>
    <time>2026-01-08T11:38:39Z</time>
   </trkpt>
   <trkpt lat="59.1323670" lon="9.6312900">
    <ele>5.5</ele>
    <time>2026-01-08T11:38:40Z</time>
   </trkpt>
   <trkpt lat="59.1323760" lon="9.6312870">
    <ele>5.5</ele>
    <time>2026-01-08T11:38:41Z</time>
   </trkpt>
   <trkpt lat="59.1323840" lon="9.6312840">
    <ele>5.5</ele>
    <time>2026-01-08T11:38:42Z</time>
   </trkpt>
   <trkpt lat="59.1324050" lon="9.6312800">
    <ele>5.6</ele>
    <time>2026-01-08T11:38:43Z</time>
   </trkpt>
   <trkpt lat="59.1324140" lon="9.6312730">
    <ele>5.7</ele>
    <time>2026-01-08T11:38:44Z</time>
   </trkpt>
   <trkpt lat="59.1324280" lon="9.6312690">
    <ele>5.7</ele>
    <time>2026-01-08T11:38:45Z</time>
   </trkpt>
   <trkpt lat="59.1324440" lon="9.6312650">
    <ele>5.8</ele>
    <time>2026-01-08T11:38:46Z</time>
   </trkpt>
   <trkpt lat="59.1324530" lon="9.6312590">
    <ele>5.8</ele>
    <time>2026-01-08T11:38:47Z</time>
   </trkpt>
   <trkpt lat="59.1324680" lon="9.6312570">
    <ele>5.9</ele>
    <time>2026-01-08T11:38:48Z</time>
   </trkpt>
   <trkpt lat="59.1324740" lon="9.6312520">
    <ele>5.9</ele>
    <time>2026-01-08T11:38:49Z</time>
   </trkpt>
   <trkpt lat="59.1324850" lon="9.6312540">
    <ele>6.0</ele>
    <time>2026-01-08T11:38:50Z</time>
   </trkpt>
   <trkpt lat="59.1325020" lon="9.6312460">
    <ele>6.0</ele>
    <time>2026-01-08T11:38:51Z</time>
   </trkpt>
   <trkpt lat="59.1325190" lon="9.6312360">
    <ele>6.1</ele>
    <time>2026-01-08T11:38:52Z</time>
   </trkpt>
   <trkpt lat="59.1325320" lon="9.6312360">
    <ele>6.2</ele>
    <time>2026-01-08T11:38:53Z</time>
   </trkpt>
   <trkpt lat="59.1325470" lon="9.6312230">
    <ele>6.3</ele>
    <time>2026-01-08T11:38:54Z</time>
   </trkpt>
   <trkpt lat="59.1325620" lon="9.6312140">
    <ele>6.4</ele>
    <time>2026-01-08T11:38:55Z</time>
   </trkpt>
   <trkpt lat="59.1325780" lon="9.6312110">
    <ele>6.4</ele>
    <time>2026-01-08T11:38:56Z</time>
   </trkpt>
   <trkpt lat="59.1325910" lon="9.6311980">
    <ele>6.5</ele>
    <time>2026-01-08T11:38:57Z</time>
   </trkpt>
   <trkpt lat="59.1326070" lon="9.6311920">
    <ele>6.6</ele>
    <time>2026-01-08T11:38:58Z</time>
   </trkpt>
   <trkpt lat="59.1326170" lon="9.6311770">
    <ele>6.7</ele>
    <time>2026-01-08T11:38:59Z</time>
   </trkpt>
   <trkpt lat="59.1326310" lon="9.6311670">
    <ele>6.8</ele>
    <time>2026-01-08T11:39:00Z</time>
   </trkpt>
   <trkpt lat="59.1326480" lon="9.6311600">
    <ele>6.9</ele>
    <time>2026-01-08T11:39:01Z</time>
   </trkpt>
   <trkpt lat="59.1326620" lon="9.6311530">
    <ele>7.0</ele>
    <time>2026-01-08T11:39:02Z</time>
   </trkpt>
   <trkpt lat="59.1326750" lon="9.6311430">
    <ele>7.0</ele>
    <time>2026-01-08T11:39:03Z</time>
   </trkpt>
   <trkpt lat="59.1326870" lon="9.6311260">
    <ele>7.1</ele>
    <time>2026-01-08T11:39:04Z</time>
   </trkpt>
   <trkpt lat="59.1327040" lon="9.6311130">
    <ele>7.2</ele>
    <time>2026-01-08T11:39:05Z</time>
   </trkpt>
   <trkpt lat="59.1327240" lon="9.6311020">
    <ele>7.3</ele>
    <time>2026-01-08T11:39:06Z</time>
   </trkpt>
   <trkpt lat="59.1327390" lon="9.6310970">
    <ele>7.4</ele>
    <time>2026-01-08T11:39:07Z</time>
   </trkpt>
   <trkpt lat="59.1327530" lon="9.6310920">
    <ele>7.5</ele>
    <time>2026-01-08T11:39:08Z</time>
   </trkpt>
   <trkpt lat="59.1327610" lon="9.6310840">
    <ele>7.6</ele>
    <time>2026-01-08T11:39:09Z</time>
   </trkpt>
   <trkpt lat="59.1327790" lon="9.6310710">
    <ele>7.7</ele>
    <time>2026-01-08T11:39:10Z</time>
   </trkpt>
   <trkpt lat="59.1327910" lon="9.6310630">
    <ele>7.7</ele>
    <time>2026-01-08T11:39:11Z</time>
   </trkpt>
   <trkpt lat="59.1328080" lon="9.6310650">
    <ele>7.8</ele>
    <time>2026-01-08T11:39:12Z</time>
   </trkpt>
   <trkpt lat="59.1328250" lon="9.6310600">
    <ele>7.9</ele>
    <time>2026-01-08T11:39:13Z</time>
   </trkpt>
   <trkpt lat="59.1328350" lon="9.6310570">
    <ele>8.0</ele>
    <time>2026-01-08T11:39:14Z</time>
   </trkpt>
   <trkpt lat="59.1328440" lon="9.6310540">
    <ele>8.0</ele>
    <time>2026-01-08T11:39:15Z</time>
   </trkpt>
   <trkpt lat="59.1328690" lon="9.6310430">
    <ele>8.1</ele>
    <time>2026-01-08T11:39:16Z</time>
   </trkpt>
   <trkpt lat="59.1328760" lon="9.6310350">
    <ele>8.2</ele>
    <time>2026-01-08T11:39:17Z</time>
   </trkpt>
   <trkpt lat="59.1328950" lon="9.6310270">
    <ele>8.3</ele>
    <time>2026-01-08T11:39:18Z</time>
   </trkpt>
   <trkpt lat="59.1329020" lon="9.6310200">
    <ele>8.3</ele>
    <time>2026-01-08T11:39:19Z</time>
   </trkpt>
   <trkpt lat="59.1329090" lon="9.6310090">
    <ele>8.4</ele>
    <time>2026-01-08T11:39:20Z</time>
   </trkpt>
   <trkpt lat="59.1329220" lon="9.6309970">
    <ele>8.5</ele>
    <time>2026-01-08T11:39:21Z</time>
   </trkpt>
   <trkpt lat="59.1329350" lon="9.6309910">
    <ele>8.5</ele>
    <time>2026-01-08T11:39:22Z</time>
   </trkpt>
   <trkpt lat="59.1329620" lon="9.6309760">
    <ele>8.7</ele>
    <time>2026-01-08T11:39:23Z</time>
   </trkpt>
   <trkpt lat="59.1329710" lon="9.6309710">
    <ele>8.7</ele>
    <time>2026-01-08T11:39:24Z</time>
   </trkpt>
   <trkpt lat="59.1329940" lon="9.6309620">
    <ele>8.8</ele>
    <time>2026-01-08T11:39:25Z</time>
   </trkpt>
   <trkpt lat="59.1330020" lon="9.6309600">
    <ele>8.9</ele>
    <time>2026-01-08T11:39:26Z</time>
   </trkpt>
   <trkpt lat="59.1330110" lon="9.6309580">
    <ele>8.9</ele>
    <time>2026-01-08T11:39:27Z</time>
   </trkpt>
   <trkpt lat="59.1330240" lon="9.6309410">
    <ele>9.0</ele>
    <time>2026-01-08T11:39:28Z</time>
   </trkpt>
   <trkpt lat="59.1330390" lon="9.6309270">
    <ele>9.1</ele>
    <time>2026-01-08T11:39:29Z</time>
   </trkpt>
   <trkpt lat="59.1330580" lon="9.6309170">
    <ele>9.2</ele>
    <time>2026-01-08T11:39:30Z</time>
   </trkpt>
   <trkpt lat="59.1330660" lon="9.6309140">
    <ele>9.3</ele>
    <time>2026-01-08T11:39:31Z</time>
   </trkpt>
   <trkpt lat="59.1330750" lon="9.6309110">
    <ele>9.3</ele>
    <time>2026-01-08T11:39:32Z</time>
   </trkpt>
   <trkpt lat="59.1330840" lon="9.6308950">
    <ele>9.4</ele>
    <time>2026-01-08T11:39:33Z</time>
   </trkpt>
   <trkpt lat="59.1331010" lon="9.6308870">
    <ele>9.5</ele>
    <time>2026-01-08T11:39:34Z</time>
   </trkpt>
   <trkpt lat="59.1331210" lon="9.6308700">
    <ele>9.6</ele>
    <time>2026-01-08T11:39:35Z</time>
   </trkpt>
   <trkpt lat="59.1331320" lon="9.6308660">
    <ele>9.7</ele>
    <time>2026-01-08T11:39:36Z</time>
   </trkpt>
   <trkpt lat="59.1331460" lon="9.6308610">
    <ele>9.7</ele>
    <time>2026-01-08T11:39:37Z</time>
   </trkpt>
   <trkpt lat="59.1331590" lon="9.6308600">
    <ele>9.8</ele>
    <time>2026-01-08T11:39:38Z</time>
   </trkpt>
   <trkpt lat="59.1331730" lon="9.6308590">
    <ele>9.9</ele>
    <time>2026-01-08T11:39:39Z</time>
   </trkpt>
   <trkpt lat="59.1331850" lon="9.6308470">
    <ele>10.0</ele>
    <time>2026-01-08T11:39:40Z</time>
   </trkpt>
   <trkpt lat="59.1331960" lon="9.6308350">
    <ele>10.0</ele>
    <time>2026-01-08T11:39:41Z</time>
   </trkpt>
   <trkpt lat="59.1332040" lon="9.6308250">
    <ele>10.1</ele>
    <time>2026-01-08T11:39:42Z</time>
   </trkpt>
   <trkpt lat="59.1332110" lon="9.6308160">
    <ele>10.1</ele>
    <time>2026-01-08T11:39:43Z</time>
   </trkpt>
   <trkpt lat="59.1332400" lon="9.6308020">
    <ele>10.3</ele>
    <time>2026-01-08T11:39:44Z</time>
   </trkpt>
   <trkpt lat="59.1332470" lon="9.6308050">
    <ele>10.3</ele>
    <time>2026-01-08T11:39:45Z</time>
   </trkpt>
   <trkpt lat="59.1332630" lon="9.6307980">
    <ele>10.4</ele>
    <time>2026-01-08T11:39:46Z</time>
   </trkpt>
   <trkpt lat="59.1332720" lon="9.6307990">
    <ele>10.5</ele>
    <time>2026-01-08T11:39:47Z</time>
   </trkpt>
   <trkpt lat="59.1332910" lon="9.6307840">
    <ele>10.6</ele>
    <time>2026-01-08T11:39:48Z</time>
   </trkpt>
   <trkpt lat="59.1333000" lon="9.6307810">
    <ele>10.6</ele>
    <time>2026-01-08T11:39:49Z</time>
   </trkpt>
   <trkpt lat="59.1333100" lon="9.6307770">
    <ele>10.7</ele>
    <time>2026-01-08T11:39:50Z</time>
   </trkpt>
   <trkpt lat="59.1333310" lon="9.6307680">
    <ele>10.8</ele>
    <time>2026-01-08T11:39:51Z</time>
   </trkpt>
   <trkpt lat="59.1333360" lon="9.6307680">
    <ele>10.9</ele>
    <time>2026-01-08T11:39:52Z</time>
   </trkpt>
   <trkpt lat="59.1333420" lon="9.6307620">
    <ele>10.9</ele>
    <time>2026-01-08T11:39:53Z</time>
   </trkpt>
   <trkpt lat="59.1333660" lon="9.6307420">
    <ele>11.1</ele>
    <time>2026-01-08T11:39:54Z</time>
   </trkpt>
   <trkpt lat="59.1333750" lon="9.6307350">
    <ele>11.1</ele>
    <time>2026-01-08T11:39:55Z</time>
   </trkpt>
   <trkpt lat="59.1333850" lon="9.6307270">
    <ele>11.2</ele>
    <time>2026-01-08T11:39:56Z</time>
   </trkpt>
   <trkpt lat="59.1333940" lon="9.6307190">
    <ele>11.2</ele>
    <time>2026-01-08T11:39:57Z</time>
   </trkpt>
   <trkpt lat="59.1334260" lon="9.6307030">
    <ele>11.4</ele>
    <time>2026-01-08T11:39:58Z</time>
   </trkpt>
   <trkpt lat="59.1334330" lon="9.6306970">
    <ele>11.5</ele>
    <time>2026-01-08T11:39:59Z</time>
   </trkpt>
   <trkpt lat="59.1334470" lon="9.6306910">
    <ele>11.6</ele>
    <time>2026-01-08T11:40:00Z</time>
   </trkpt>
   <trkpt lat="59.1334610" lon="9.6306840">
    <ele>11.6</ele>
    <time>2026-01-08T11:40:01Z</time>
   </trkpt>
   <trkpt lat="59.1334750" lon="9.6306790">
    <ele>11.7</ele>
    <time>2026-01-08T11:40:02Z</time>
   </trkpt>
   <trkpt lat="59.1334840" lon="9.6306700">
    <ele>11.8</ele>
    <time>2026-01-08T11:40:03Z</time>
   </trkpt>
   <trkpt lat="59.1334920" lon="9.6306590">
    <ele>11.8</ele>
    <time>2026-01-08T11:40:04Z</time>
   </trkpt>
   <trkpt lat="59.1335100" lon="9.6306340">
    <ele>12.0</ele>
    <time>2026-01-08T11:40:05Z</time>
   </trkpt>
   <trkpt lat="59.1335220" lon="9.6306230">
    <ele>12.1</ele>
    <time>2026-01-08T11:40:06Z</time>
   </trkpt>
   <trkpt lat="59.1335350" lon="9.6306130">
    <ele>12.1</ele>
    <time>2026-01-08T11:40:07Z</time>
   </trkpt>
   <trkpt lat="59.1335530" lon="9.6305940">
    <ele>12.2</ele>
    <time>2026-01-08T11:40:08Z</time>
   </trkpt>
   <trkpt lat="59.1335600" lon="9.6305850">
    <ele>12.3</ele>
    <time>2026-01-08T11:40:09Z</time>
   </trkpt>
   <trkpt lat="59.1335660" lon="9.6305760">
    <ele>12.3</ele>
    <time>2026-01-08T11:40:10Z</time>
   </trkpt>
   <trkpt lat="59.1335940" lon="9.6305670">
    <ele>12.5</ele>
    <time>2026-01-08T11:40:11Z</time>
   </trkpt>
   <trkpt lat="59.1336080" lon="9.6305590">
    <ele>12.6</ele>
    <time>2026-01-08T11:40:12Z</time>
   </trkpt>
   <trkpt lat="59.1336100" lon="9.6305600">
    <ele>12.6</ele>
    <time>2026-01-08T11:40:13Z</time>
   </trkpt>
   <trkpt lat="59.1336190" lon="9.6305500">
    <ele>12.7</ele>
    <time>2026-01-08T11:40:14Z</time>
   </trkpt>
   <trkpt lat="59.1336230" lon="9.6305330">
    <ele>12.7</ele>
    <time>2026-01-08T11:40:15Z</time>
   </trkpt>
   <trkpt lat="59.1336310" lon="9.6305190">
    <ele>12.8</ele>
    <time>2026-01-08T11:40:16Z</time>
   </trkpt>
   <trkpt lat="59.1336580" lon="9.6305090">
    <ele>12.9</ele>
    <time>2026-01-08T11:40:17Z</time>
   </trkpt>
   <trkpt lat="59.1336670" lon="9.6305050">
    <ele>13.0</ele>
    <time>2026-01-08T11:40:18Z</time>
   </trkpt>
   <trkpt lat="59.1336900" lon="9.6304880">
    <ele>13.1</ele>
    <time>2026-01-08T11:40:19Z</time>
   </trkpt>
   <trkpt lat="59.1336980" lon="9.6304830">
    <ele>13.2</ele>
    <time>2026-01-08T11:40:20Z</time>
   </trkpt>
   <trkpt lat="59.1337070" lon="9.6304780">
    <ele>13.2</ele>
    <time>2026-01-08T11:40:21Z</time>
   </trkpt>
   <trkpt lat="59.1337100" lon="9.6304720">
    <ele>13.2</ele>
    <time>2026-01-08T11:40:22Z</time>
   </trkpt>
   <trkpt lat="59.1337240" lon="9.6304570">
    <ele>13.3</ele>
    <time>2026-01-08T11:40:23Z</time>
   </trkpt>
   <trkpt lat="59.1337320" lon="9.6304440">
    <ele>13.3</ele>
    <time>2026-01-08T11:40:24Z</time>
   </trkpt>
   <trkpt lat="59.1337490" lon="9.6304220">
    <ele>13.4</ele>
    <time>2026-01-08T11:40:25Z</time>
   </trkpt>
   <trkpt lat="59.1337560" lon="9.6304060">
    <ele>13.5</ele>
    <time>2026-01-08T11:40:26Z</time>
   </trkpt>
   <trkpt lat="59.1337650" lon="9.6303970">
    <ele>13.5</ele>
    <time>2026-01-08T11:40:27Z</time>
   </trkpt>
   <trkpt lat="59.1337820" lon="9.6303830">
    <ele>13.6</ele>
    <time>2026-01-08T11:40:28Z</time>
   </trkpt>
   <trkpt lat="59.1337830" lon="9.6303740">
    <ele>13.6</ele>
    <time>2026-01-08T11:40:29Z</time>
   </trkpt>
   <trkpt lat="59.1338020" lon="9.6303650">
    <ele>13.7</ele>
    <time>2026-01-08T11:40:30Z</time>
   </trkpt>
   <trkpt lat="59.1338070" lon="9.6303560">
    <ele>13.8</ele>
    <time>2026-01-08T11:40:31Z</time>
   </trkpt>
   <trkpt lat="59.1338200" lon="9.6303470">
    <ele>13.8</ele>
    <time>2026-01-08T11:40:32Z</time>
   </trkpt>
   <trkpt lat="59.1338360" lon="9.6303320">
    <ele>13.9</ele>
    <time>2026-01-08T11:40:33Z</time>
   </trkpt>
   <trkpt lat="59.1338620" lon="9.6303060">
    <ele>14.0</ele>
    <time>2026-01-08T11:40:34Z</time>
   </trkpt>
   <trkpt lat="59.1338690" lon="9.6302990">
    <ele>14.0</ele>
    <time>2026-01-08T11:40:35Z</time>
   </trkpt>
   <trkpt lat="59.1338820" lon="9.6302860">
    <ele>14.1</ele>
    <time>2026-01-08T11:40:36Z</time>
   </trkpt>
   <trkpt lat="59.1338970" lon="9.6302690">
    <ele>14.2</ele>
    <time>2026-01-08T11:40:37Z</time>
   </trkpt>
   <trkpt lat="59.1339110" lon="9.6302490">
    <ele>14.2</ele>
    <time>2026-01-08T11:40:38Z</time>
   </trkpt>
   <trkpt lat="59.1339170" lon="9.6302280">
    <ele>14.3</ele>
    <time>2026-01-08T11:40:39Z</time>
   </trkpt>
   <trkpt lat="59.1339340" lon="9.6302080">
    <ele>14.4</ele>
    <time>2026-01-08T11:40:40Z</time>
   </trkpt>
   <trkpt lat="59.1339390" lon="9.6301970">
    <ele>14.4</ele>
    <time>2026-01-08T11:40:41Z</time>
   </trkpt>
   <trkpt lat="59.1339640" lon="9.6301650">
    <ele>14.5</ele>
    <time>2026-01-08T11:40:42Z</time>
   </trkpt>
   <trkpt lat="59.1339720" lon="9.6301560">
    <ele>14.5</ele>
    <time>2026-01-08T11:40:43Z</time>
   </trkpt>
   <trkpt lat="59.1339930" lon="9.6301360">
    <ele>14.6</ele>
    <time>2026-01-08T11:40:44Z</time>
   </trkpt>
   <trkpt lat="59.1340030" lon="9.6301270">
    <ele>14.7</ele>
    <time>2026-01-08T11:40:45Z</time>
   </trkpt>
   <trkpt lat="59.1340260" lon="9.6301050">
    <ele>14.8</ele>
    <time>2026-01-08T11:40:46Z</time>
   </trkpt>
   <trkpt lat="59.1340330" lon="9.6300990">
    <ele>14.8</ele>
    <time>2026-01-08T11:40:47Z</time>
   </trkpt>
   <trkpt lat="59.1340390" lon="9.6300920">
    <ele>14.8</ele>
    <time>2026-01-08T11:40:48Z</time>
   </trkpt>
   <trkpt lat="59.1340480" lon="9.6300720">
    <ele>14.8</ele>
    <time>2026-01-08T11:40:49Z</time>
   </trkpt>
   <trkpt lat="59.1340560" lon="9.6300490">
    <ele>14.9</ele>
    <time>2026-01-08T11:40:50Z</time>
   </trkpt>
   <trkpt lat="59.1340670" lon="9.6300370">
    <ele>14.9</ele>
    <time>2026-01-08T11:40:51Z</time>
   </trkpt>
   <trkpt lat="59.1340830" lon="9.6300100">
    <ele>15.0</ele>
    <time>2026-01-08T11:40:52Z</time>
   </trkpt>
   <trkpt lat="59.1340900" lon="9.6299950">
    <ele>15.0</ele>
    <time>2026-01-08T11:40:53Z</time>
   </trkpt>
   <trkpt lat="59.1341030" lon="9.6299680">
    <ele>15.1</ele>
    <time>2026-01-08T11:40:54Z</time>
   </trkpt>
   <trkpt lat="59.1341190" lon="9.6299410">
    <ele>15.2</ele>
    <time>2026-01-08T11:40:55Z</time>
   </trkpt>
   <trkpt lat="59.1341260" lon="9.6299300">
    <ele>15.2</ele>
    <time>2026-01-08T11:40:56Z</time>
   </trkpt>
   <trkpt lat="59.1341330" lon="9.6299190">
    <ele>15.2</ele>
    <time>2026-01-08T11:40:57Z</time>
   </trkpt>
   <trkpt lat="59.1341410" lon="9.6299030">
    <ele>15.3</ele>
    <time>2026-01-08T11:40:58Z</time>
   </trkpt>
   <trkpt lat="59.1341550" lon="9.6298840">
    <ele>15.3</ele>
    <time>2026-01-08T11:40:59Z</time>
   </trkpt>
   <trkpt lat="59.1341650" lon="9.6298780">
    <ele>15.3</ele>
    <time>2026-01-08T11:41:00Z</time>
   </trkpt>
   <trkpt lat="59.1341810" lon="9.6298600">
    <ele>15.4</ele>
    <time>2026-01-08T11:41:01Z</time>
   </trkpt>
   <trkpt lat="59.1342040" lon="9.6298260">
    <ele>15.5</ele>
    <time>2026-01-08T11:41:02Z</time>
   </trkpt>
   <trkpt lat="59.1342130" lon="9.6298140">
    <ele>15.5</ele>
    <time>2026-01-08T11:41:03Z</time>
   </trkpt>
   <trkpt lat="59.1342220" lon="9.6298010">
    <ele>15.5</ele>
    <time>2026-01-08T11:41:04Z</time>
   </trkpt>
   <trkpt lat="59.1342270" lon="9.6297810">
    <ele>15.6</ele>
    <time>2026-01-08T11:41:05Z</time>
   </trkpt>
   <trkpt lat="59.1342350" lon="9.6297570">
    <ele>15.6</ele>
    <time>2026-01-08T11:41:06Z</time>
   </trkpt>
   <trkpt lat="59.1342410" lon="9.6297310">
    <ele>15.7</ele>
    <time>2026-01-08T11:41:07Z</time>
   </trkpt>
   <trkpt lat="59.1342450" lon="9.6297190">
    <ele>15.7</ele>
    <time>2026-01-08T11:41:08Z</time>
   </trkpt>
   <trkpt lat="59.1342520" lon="9.6297000">
    <ele>15.7</ele>
    <time>2026-01-08T11:41:09Z</time>
   </trkpt>
   <trkpt lat="59.1342700" lon="9.6296790">
    <ele>15.8</ele>
    <time>2026-01-08T11:41:10Z</time>
   </trkpt>
   <trkpt lat="59.1342820" lon="9.6296660">
    <ele>15.8</ele>
    <time>2026-01-08T11:41:11Z</time>
   </trkpt>
   <trkpt lat="59.1342920" lon="9.6296500">
    <ele>15.8</ele>
    <time>2026-01-08T11:41:12Z</time>
   </trkpt>
   <trkpt lat="59.1343070" lon="9.6296310">
    <ele>15.9</ele>
    <time>2026-01-08T11:41:13Z</time>
   </trkpt>
   <trkpt lat="59.1343250" lon="9.6296120">
    <ele>15.9</ele>
    <time>2026-01-08T11:41:14Z</time>
   </trkpt>
   <trkpt lat="59.1343380" lon="9.6295970">
    <ele>15.9</ele>
    <time>2026-01-08T11:41:15Z</time>
   </trkpt>
   <trkpt lat="59.1343520" lon="9.6295750">
    <ele>15.9</ele>
    <time>2026-01-08T11:41:16Z</time>
   </trkpt>
   <trkpt lat="59.1343640" lon="9.6295490">
    <ele>16.0</ele>
    <time>2026-01-08T11:41:17Z</time>
   </trkpt>
   <trkpt lat="59.1343770" lon="9.6295240">
    <ele>16.0</ele>
    <time>2026-01-08T11:41:18Z</time>
   </trkpt>
   <trkpt lat="59.1343860" lon="9.6295190">
    <ele>16.0</ele>
    <time>2026-01-08T11:41:19Z</time>
   </trkpt>
   <trkpt lat="59.1343980" lon="9.6294900">
    <ele>16.0</ele>
    <time>2026-01-08T11:41:20Z</time>
   </trkpt>
   <trkpt lat="59.1344080" lon="9.6294670">
    <ele>16.1</ele>
    <time>2026-01-08T11:41:21Z</time>
   </trkpt>
   <trkpt lat="59.1344220" lon="9.6294470">
    <ele>16.1</ele>
    <time>2026-01-08T11:41:22Z</time>
   </trkpt>
   <trkpt lat="59.1344360" lon="9.6294270">
    <ele>16.1</ele>
    <time>2026-01-08T11:41:23Z</time>
   </trkpt>
   <trkpt lat="59.1344490" lon="9.6294000">
    <ele>16.1</ele>
    <time>2026-01-08T11:41:24Z</time>
   </trkpt>
   <trkpt lat="59.1344570" lon="9.6293860">
    <ele>16.1</ele>
    <time>2026-01-08T11:41:25Z</time>
   </trkpt>
   <trkpt lat="59.1344640" lon="9.6293730">
    <ele>16.1</ele>
    <time>2026-01-08T11:41:26Z</time>
   </trkpt>
   <trkpt lat="59.1344850" lon="9.6293440">
    <ele>16.2</ele>
    <time>2026-01-08T11:41:27Z</time>
   </trkpt>
   <trkpt lat="59.1344920" lon="9.6293350">
    <ele>16.2</ele>
    <time>2026-01-08T11:41:28Z</time>
   </trkpt>
   <trkpt lat="59.1345000" lon="9.6293260">
    <ele>16.2</ele>
    <time>2026-01-08T11:41:29Z</time>
   </trkpt>
   <trkpt lat="59.1345100" lon="9.6293050">
    <ele>16.2</ele>
    <time>2026-01-08T11:41:30Z</time>
   </trkpt>
   <trkpt lat="59.1345200" lon="9.6292880">
    <ele>16.2</ele>
    <time>2026-01-08T11:41:31Z</time>
   </trkpt>
   <trkpt lat="59.1345360" lon="9.6292770">
    <ele>16.2</ele>
    <time>2026-01-08T11:41:32Z</time>
   </trkpt>
   <trkpt lat="59.1345450" lon="9.6292630">
    <ele>16.2</ele>
    <time>2026-01-08T11:41:33Z</time>
   </trkpt>
   <trkpt lat="59.1345580" lon="9.6292450">
    <ele>16.2</ele>
    <time>2026-01-08T11:41:34Z</time>
   </trkpt>
   <trkpt lat="59.1345730" lon="9.6292300">
    <ele>16.2</ele>
    <time>2026-01-08T11:41:35Z</time>
   </trkpt>
   <trkpt lat="59.1345820" lon="9.6292170">
    <ele>16.2</ele>
    <time>2026-01-08T11:41:36Z</time>
   </trkpt>
   <trkpt lat="59.1345880" lon="9.6292060">
    <ele>16.2</ele>
    <time>2026-01-08T11:41:37Z</time>
   </trkpt>
   <trkpt lat="59.1345980" lon="9.6291870">
    <ele>16.2</ele>
    <time>2026-01-08T11:41:38Z</time>
   </trkpt>
   <trkpt lat="59.1346160" lon="9.6291600">
    <ele>16.2</ele>
    <time>2026-01-08T11:41:39Z</time>
   </trkpt>
   <trkpt lat="59.1346260" lon="9.6291580">
    <ele>16.1</ele>
    <time>2026-01-08T11:41:40Z</time>
   </trkpt>
   <trkpt lat="59.1346470" lon="9.6291330">
    <ele>16.1</ele>
    <time>2026-01-08T11:41:41Z</time>
   </trkpt>
   <trkpt lat="59.1346520" lon="9.6291150">
    <ele>16.1</ele>
    <time>2026-01-08T11:41:42Z</time>
   </trkpt>
   <trkpt lat="59.1346600" lon="9.6290880">
    <ele>16.1</ele>
    <time>2026-01-08T11:41:43Z</time>
   </trkpt>
   <trkpt lat="59.1346670" lon="9.6290640">
    <ele>16.1</ele>
    <time>2026-01-08T11:41:44Z</time>
   </trkpt>
   <trkpt lat="59.1346890" lon="9.6290370">
    <ele>16.1</ele>
    <time>2026-01-08T11:41:45Z</time>
   </trkpt>
   <trkpt lat="59.1346950" lon="9.6290270">
    <ele>16.1</ele>
    <time>2026-01-08T11:41:46Z</time>
   </trkpt>
   <trkpt lat="59.1347120" lon="9.6289940">
    <ele>16.0</ele>
    <time>2026-01-08T11:41:47Z</time>
   </trkpt>
   <trkpt lat="59.1347190" lon="9.6289860">
    <ele>16.0</ele>
    <time>2026-01-08T11:41:48Z</time>
   </trkpt>
   <trkpt lat="59.1347260" lon="9.6289790">
    <ele>16.0</ele>
    <time>2026-01-08T11:41:49Z</time>
   </trkpt>
   <trkpt lat="59.1347510" lon="9.6289530">
    <ele>16.0</ele>
    <time>2026-01-08T11:41:50Z</time>
   </trkpt>
   <trkpt lat="59.1347590" lon="9.6289400">
    <ele>15.9</ele>
    <time>2026-01-08T11:41:51Z</time>
   </trkpt>
   <trkpt lat="59.1347650" lon="9.6289410">
    <ele>15.9</ele>
    <time>2026-01-08T11:41:52Z</time>
   </trkpt>
   <trkpt lat="59.1347720" lon="9.6289340">
    <ele>15.9</ele>
    <time>2026-01-08T11:41:53Z</time>
   </trkpt>
   <trkpt lat="59.1347830" lon="9.6289120">
    <ele>15.9</ele>
    <time>2026-01-08T11:41:54Z</time>
   </trkpt>
   <trkpt lat="59.1348070" lon="9.6288970">
    <ele>15.8</ele>
    <time>2026-01-08T11:41:55Z</time>
   </trkpt>
   <trkpt lat="59.1348120" lon="9.6288880">
    <ele>15.8</ele>
    <time>2026-01-08T11:41:56Z</time>
   </trkpt>
   <trkpt lat="59.1348290" lon="9.6288680">
    <ele>15.8</ele>
    <time>2026-01-08T11:41:57Z</time>
   </trkpt>
   <trkpt lat="59.1348330" lon="9.6288550">
    <ele>15.7</ele>
    <time>2026-01-08T11:41:58Z</time>
   </trkpt>
   <trkpt lat="59.1348460" lon="9.6288240">
    <ele>15.7</ele>
    <time>2026-01-08T11:41:59Z</time>
   </trkpt>
   <trkpt lat="59.1348530" lon="9.6288110">
    <ele>15.7</ele>
    <time>2026-01-08T11:42:00Z</time>
   </trkpt>
   <trkpt lat="59.1348610" lon="9.6287970">
    <ele>15.6</ele>
    <time>2026-01-08T11:42:01Z</time>
   </trkpt>
   <trkpt lat="59.1348780" lon="9.6287790">
    <ele>15.6</ele>
    <time>2026-01-08T11:42:02Z</time>
   </trkpt>
   <trkpt lat="59.1348890" lon="9.6287720">
    <ele>15.6</ele>
    <time>2026-01-08T11:42:03Z</time>
   </trkpt>
   <trkpt lat="59.1349150" lon="9.6287480">
    <ele>15.5</ele>
    <time>2026-01-08T11:42:04Z</time>
   </trkpt>
   <trkpt lat="59.1349280" lon="9.6287280">
    <ele>15.5</ele>
    <time>2026-01-08T11:42:05Z</time>
   </trkpt>
   <trkpt lat="59.1349390" lon="9.6287180">
    <ele>15.4</ele>
    <time>2026-01-08T11:42:06Z</time>
   </trkpt>
   <trkpt lat="59.1349490" lon="9.6287080">
    <ele>15.4</ele>
    <time>2026-01-08T11:42:07Z</time>
   </trkpt>
   <trkpt lat="59.1349600" lon="9.6286980">
    <ele>15.4</ele>
    <time>2026-01-08T11:42:08Z</time>
   </trkpt>
   <trkpt lat="59.1349760" lon="9.6286770">
    <ele>15.3</ele>
    <time>2026-01-08T11:42:09Z</time>
   </trkpt>
   <trkpt lat="59.1349940" lon="9.6286600">
    <ele>15.3</ele>
    <time>2026-01-08T11:42:10Z</time>
   </trkpt>
   <trkpt lat="59.1350030" lon="9.6286510">
    <ele>15.2</ele>
    <time>2026-01-08T11:42:11Z</time>
   </trkpt>
   <trkpt lat="59.1350130" lon="9.6286420">
    <ele>15.2</ele>
    <time>2026-01-08T11:42:12Z</time>
   </trkpt>
   <trkpt lat="59.1350220" lon="9.6286330">
    <ele>15.2</ele>
    <time>2026-01-08T11:42:13Z</time>
   </trkpt>
   <trkpt lat="59.1350370" lon="9.6286220">
    <ele>15.1</ele>
    <time>2026-01-08T11:42:14Z</time>
   </trkpt>
   <trkpt lat="59.1350470" lon="9.6286240">
    <ele>15.1</ele>
    <time>2026-01-08T11:42:15Z</time>
   </trkpt>
   <trkpt lat="59.1350610" lon="9.6286060">
    <ele>15.1</ele>
    <time>2026-01-08T11:42:16Z</time>
   </trkpt>
   <trkpt lat="59.1350720" lon="9.6285940">
    <ele>15.0</ele>
    <time>2026-01-08T11:42:17Z</time>
   </trkpt>
   <trkpt lat="59.1350940" lon="9.6285780">
    <ele>14.9</ele>
    <time>2026-01-08T11:42:18Z</time>
   </trkpt>
   <trkpt lat="59.1351010" lon="9.6285710">
    <ele>14.9</ele>
    <time>2026-01-08T11:42:19Z</time>
   </trkpt>
   <trkpt lat="59.1351090" lon="9.6285630">
    <ele>14.9</ele>
    <time>2026-01-08T11:42:20Z</time>
   </trkpt>
   <trkpt lat="59.1351220" lon="9.6285450">
    <ele>14.8</ele>
    <time>2026-01-08T11:42:21Z</time>
   </trkpt>
   <trkpt lat="59.1351400" lon="9.6285360">
    <ele>14.8</ele>
    <time>2026-01-08T11:42:22Z</time>
   </trkpt>
   <trkpt lat="59.1351480" lon="9.6285270">
    <ele>14.7</ele>
    <time>2026-01-08T11:42:23Z</time>
   </trkpt>
   <trkpt lat="59.1351660" lon="9.6285160">
    <ele>14.7</ele>
    <time>2026-01-08T11:42:24Z</time>
   </trkpt>
   <trkpt lat="59.1351770" lon="9.6285050">
    <ele>14.6</ele>
    <time>2026-01-08T11:42:25Z</time>
   </trkpt>
   <trkpt lat="59.1351930" lon="9.6284860">
    <ele>14.5</ele>
    <time>2026-01-08T11:42:26Z</time>
   </trkpt>
   <trkpt lat="59.1352110" lon="9.6284750">
    <ele>14.5</ele>
    <time>2026-01-08T11:42:27Z</time>
   </trkpt>
   <trkpt lat="59.1352200" lon="9.6284660">
    <ele>14.4</ele>
    <time>2026-01-08T11:42:28Z</time>
   </trkpt>
   <trkpt lat="59.1352280" lon="9.6284570">
    <ele>14.4</ele>
    <time>2026-01-08T11:42:29Z</time>
   </trkpt>
   <trkpt lat="59.1352460" lon="9.6284470">
    <ele>14.3</ele>
    <time>2026-01-08T11:42:30Z</time>
   </trkpt>
   <trkpt lat="59.1352590" lon="9.6284390">
    <ele>14.3</ele>
    <time>2026-01-08T11:42:31Z</time>
   </trkpt>
   <trkpt lat="59.1352800" lon="9.6284190">
    <ele>14.2</ele>
    <time>2026-01-08T11:42:32Z</time>
   </trkpt>
   <trkpt lat="59.1352900" lon="9.6284170">
    <ele>14.1</ele>
    <time>2026-01-08T11:42:33Z</time>
   </trkpt>
   <trkpt lat="59.1353120" lon="9.6284080">
    <ele>14.0</ele>
    <time>2026-01-08T11:42:34Z</time>
   </trkpt>
   <trkpt lat="59.1353210" lon="9.6284010">
    <ele>14.0</ele>
    <time>2026-01-08T11:42:35Z</time>
   </trkpt>
   <trkpt lat="59.1353380" lon="9.6283900">
    <ele>13.9</ele>
    <time>2026-01-08T11:42:36Z</time>
   </trkpt>
   <trkpt lat="59.1353500" lon="9.6283820">
    <ele>13.8</ele>
    <time>2026-01-08T11:42:37Z</time>
   </trkpt>
   <trkpt lat="59.1353710" lon="9.6283680">
    <ele>13.7</ele>
    <time>2026-01-08T11:42:38Z</time>
   </trkpt>
   <trkpt lat="59.1353800" lon="9.6283610">
    <ele>13.7</ele>
    <time>2026-01-08T11:42:39Z</time>
   </trkpt>
   <trkpt lat="59.1354030" lon="9.6283480">
    <ele>13.6</ele>
    <time>2026-01-08T11:42:40Z</time>
   </trkpt>
   <trkpt lat="59.1354130" lon="9.6283470">
    <ele>13.5</ele>
    <time>2026-01-08T11:42:41Z</time>
   </trkpt>
   <trkpt lat="59.1354400" lon="9.6283370">
    <ele>13.4</ele>
    <time>2026-01-08T11:42:42Z</time>
   </trkpt>
   <trkpt lat="59.1354450" lon="9.6283350">
    <ele>13.4</ele>
    <time>2026-01-08T11:42:43Z</time>
   </trkpt>
   <trkpt lat="59.1354630" lon="9.6283210">
    <ele>13.3</ele>
    <time>2026-01-08T11:42:44Z</time>
   </trkpt>
   <trkpt lat="59.1354740" lon="9.6283160">
    <ele>13.2</ele>
    <time>2026-01-08T11:42:45Z</time>
   </trkpt>
   <trkpt lat="59.1354870" lon="9.6283130">
    <ele>13.1</ele>
    <time>2026-01-08T11:42:46Z</time>
   </trkpt>
   <trkpt lat="59.1355030" lon="9.6283050">
    <ele>13.0</ele>
    <time>2026-01-08T11:42:47Z</time>
   </trkpt>
   <trkpt lat="59.1355170" lon="9.6283080">
    <ele>13.0</ele>
    <time>2026-01-08T11:42:48Z</time>
   </trkpt>
   <trkpt lat="59.1355360" lon="9.6283000">
    <ele>12.9</ele>
    <time>2026-01-08T11:42:49Z</time>
   </trkpt>
   <trkpt lat="59.1355460" lon="9.6282920">
    <ele>12.8</ele>
    <time>2026-01-08T11:42:50Z</time>
   </trkpt>
   <trkpt lat="59.1355630" lon="9.6282880">
    <ele>12.7</ele>
    <time>2026-01-08T11:42:51Z</time>
   </trkpt>
   <trkpt lat="59.1355830" lon="9.6282830">
    <ele>12.6</ele>
    <time>2026-01-08T11:42:52Z</time>
   </trkpt>
   <trkpt lat="59.1355940" lon="9.6282800">
    <ele>12.5</ele>
    <time>2026-01-08T11:42:53Z</time>
   </trkpt>
   <trkpt lat="59.1356040" lon="9.6282770">
    <ele>12.4</ele>
    <time>2026-01-08T11:42:54Z</time>
   </trkpt>
   <trkpt lat="59.1356150" lon="9.6282720">
    <ele>12.4</ele>
    <time>2026-01-08T11:42:55Z</time>
   </trkpt>
   <trkpt lat="59.1356310" lon="9.6282660">
    <ele>12.2</ele>
    <time>2026-01-08T11:42:56Z</time>
   </trkpt>
   <trkpt lat="59.1356440" lon="9.6282640">
    <ele>12.2</ele>
    <time>2026-01-08T11:42:57Z</time>
   </trkpt>
   <trkpt lat="59.1356600" lon="9.6282580">
    <ele>12.0</ele>
    <time>2026-01-08T11:42:58Z</time>
   </trkpt>
   <trkpt lat="59.1356720" lon="9.6282580">
    <ele>12.0</ele>
    <time>2026-01-08T11:42:59Z</time>
   </trkpt>
   <trkpt lat="59.1356920" lon="9.6282500">
    <ele>11.8</ele>
    <time>2026-01-08T11:43:00Z</time>
   </trkpt>
   <trkpt lat="59.1357130" lon="9.6282390">
    <ele>11.6</ele>
    <time>2026-01-08T11:43:01Z</time>
   </trkpt>
   <trkpt lat="59.1357240" lon="9.6282330">
    <ele>11.5</ele>
    <time>2026-01-08T11:43:02Z</time>
   </trkpt>
   <trkpt lat="59.1357340" lon="9.6282270">
    <ele>11.5</ele>
    <time>2026-01-08T11:43:03Z</time>
   </trkpt>
   <trkpt lat="59.1357510" lon="9.6282260">
    <ele>11.3</ele>
    <time>2026-01-08T11:43:04Z</time>
   </trkpt>
   <trkpt lat="59.1357620" lon="9.6282220">
    <ele>11.2</ele>
    <time>2026-01-08T11:43:05Z</time>
   </trkpt>
   <trkpt lat="59.1357770" lon="9.6282160">
    <ele>11.1</ele>
    <time>2026-01-08T11:43:06Z</time>
   </trkpt>
   <trkpt lat="59.1357900" lon="9.6282110">
    <ele>11.0</ele>
    <time>2026-01-08T11:43:07Z</time>
   </trkpt>
   <trkpt lat="59.1358060" lon="9.6282110">
    <ele>10.9</ele>
    <time>2026-01-08T11:43:08Z</time>
   </trkpt>
   <trkpt lat="59.1358180" lon="9.6282040">
    <ele>10.8</ele>
    <time>2026-01-08T11:43:09Z</time>
   </trkpt>
   <trkpt lat="59.1358370" lon="9.6282000">
    <ele>10.6</ele>
    <time>2026-01-08T11:43:10Z</time>
   </trkpt>
   <trkpt lat="59.1358480" lon="9.6281990">
    <ele>10.5</ele>
    <time>2026-01-08T11:43:11Z</time>
   </trkpt>
   <trkpt lat="59.1358660" lon="9.6281910">
    <ele>10.4</ele>
    <time>2026-01-08T11:43:12Z</time>
   </trkpt>
   <trkpt lat="59.1358780" lon="9.6281840">
    <ele>10.3</ele>
    <time>2026-01-08T11:43:13Z</time>
   </trkpt>
   <trkpt lat="59.1358900" lon="9.6281830">
    <ele>10.2</ele>
    <time>2026-01-08T11:43:14Z</time>
   </trkpt>
   <trkpt lat="59.1359090" lon="9.6281710">
    <ele>10.0</ele>
    <time>2026-01-08T11:43:15Z</time>
   </trkpt>
   <trkpt lat="59.1359250" lon="9.6281650">
    <ele>9.9</ele>
    <time>2026-01-08T11:43:16Z</time>
   </trkpt>
   <trkpt lat="59.1359430" lon="9.6281560">
    <ele>9.7</ele>
    <time>2026-01-08T11:43:17Z</time>
   </trkpt>
   <trkpt lat="59.1359540" lon="9.6281520">
    <ele>9.6</ele>
    <time>2026-01-08T11:43:18Z</time>
   </trkpt>
   <trkpt lat="59.1359710" lon="9.6281480">
    <ele>9.5</ele>
    <time>2026-01-08T11:43:19Z</time>
   </trkpt>
   <trkpt lat="59.1359880" lon="9.6281410">
    <ele>9.3</ele>
    <time>2026-01-08T11:43:20Z</time>
   </trkpt>
   <trkpt lat="59.1360030" lon="9.6281350">
    <ele>9.2</ele>
    <time>2026-01-08T11:43:21Z</time>
   </trkpt>
   <trkpt lat="59.1360210" lon="9.6281250">
    <ele>9.0</ele>
    <time>2026-01-08T11:43:22Z</time>
   </trkpt>
   <trkpt lat="59.1360340" lon="9.6281140">
    <ele>8.9</ele>
    <time>2026-01-08T11:43:23Z</time>
   </trkpt>
   <trkpt lat="59.1360520" lon="9.6281130">
    <ele>8.7</ele>
    <time>2026-01-08T11:43:24Z</time>
   </trkpt>
   <trkpt lat="59.1360630" lon="9.6281090">
    <ele>8.6</ele>
    <time>2026-01-08T11:43:25Z</time>
   </trkpt>
   <trkpt lat="59.1360790" lon="9.6281120">
    <ele>8.5</ele>
    <time>2026-01-08T11:43:26Z</time>
   </trkpt>
   <trkpt lat="59.1360920" lon="9.6280980">
    <ele>8.3</ele>
    <time>2026-01-08T11:43:27Z</time>
   </trkpt>
   <trkpt lat="59.1361080" lon="9.6280910">
    <ele>8.2</ele>
    <time>2026-01-08T11:43:28Z</time>
   </trkpt>
   <trkpt lat="59.1361200" lon="9.6280840">
    <ele>8.1</ele>
    <time>2026-01-08T11:43:29Z</time>
   </trkpt>
   <trkpt lat="59.1361380" lon="9.6280800">
    <ele>8.0</ele>
    <time>2026-01-08T11:43:30Z</time>
   </trkpt>
   <trkpt lat="59.1361510" lon="9.6280740">
    <ele>7.9</ele>
    <time>2026-01-08T11:43:31Z</time>
   </trkpt>
   <trkpt lat="59.1361660" lon="9.6280690">
    <ele>7.8</ele>
    <time>2026-01-08T11:43:32Z</time>
   </trkpt>
   <trkpt lat="59.1361820" lon="9.6280670">
    <ele>7.6</ele>
    <time>2026-01-08T11:43:33Z</time>
   </trkpt>
   <trkpt lat="59.1361990" lon="9.6280570">
    <ele>7.5</ele>
    <time>2026-01-08T11:43:34Z</time>
   </trkpt>
   <trkpt lat="59.1362140" lon="9.6280550">
    <ele>7.4</ele>
    <time>2026-01-08T11:43:35Z</time>
   </trkpt>
   <trkpt lat="59.1362330" lon="9.6280440">
    <ele>7.3</ele>
    <time>2026-01-08T11:43:36Z</time>
   </trkpt>
   <trkpt lat="59.1362480" lon="9.6280380">
    <ele>7.1</ele>
    <time>2026-01-08T11:43:37Z</time>
   </trkpt>
   <trkpt lat="59.1362710" lon="9.6280320">
    <ele>7.0</ele>
    <time>2026-01-08T11:43:38Z</time>
   </trkpt>
   <trkpt lat="59.1362820" lon="9.6280340">
    <ele>6.9</ele>
    <time>2026-01-08T11:43:39Z</time>
   </trkpt>
   <trkpt lat="59.1362980" lon="9.6280240">
    <ele>6.8</ele>
    <time>2026-01-08T11:43:40Z</time>
   </trkpt>
   <trkpt lat="59.1363120" lon="9.6280180">
    <ele>6.7</ele>
    <time>2026-01-08T11:43:41Z</time>
   </trkpt>
   <trkpt lat="59.1363290" lon="9.6280130">
    <ele>6.5</ele>
    <time>2026-01-08T11:43:42Z</time>
   </trkpt>
   <trkpt lat="59.1363420" lon="9.6280120">
    <ele>6.4</ele>
    <time>2026-01-08T11:43:43Z</time>
   </trkpt>
   <trkpt lat="59.1363600" lon="9.6280060">
    <ele>6.3</ele>
    <time>2026-01-08T11:43:44Z</time>
   </trkpt>
   <trkpt lat="59.1363710" lon="9.6279980">
    <ele>6.2</ele>
    <time>2026-01-08T11:43:45Z</time>
   </trkpt>
   <trkpt lat="59.1363890" lon="9.6280050">
    <ele>6.1</ele>
    <time>2026-01-08T11:43:46Z</time>
   </trkpt>
   <trkpt lat="59.1364000" lon="9.6279990">
    <ele>6.0</ele>
    <time>2026-01-08T11:43:47Z</time>
   </trkpt>
   <trkpt lat="59.1364100" lon="9.6279930">
    <ele>5.9</ele>
    <time>2026-01-08T11:43:48Z</time>
   </trkpt>
   <trkpt lat="59.1364360" lon="9.6279760">
    <ele>5.7</ele>
    <time>2026-01-08T11:43:49Z</time>
   </trkpt>
   <trkpt lat="59.1364530" lon="9.6279700">
    <ele>5.6</ele>
    <time>2026-01-08T11:43:50Z</time>
   </trkpt>
   <trkpt lat="59.1364640" lon="9.6279700">
    <ele>5.5</ele>
    <time>2026-01-08T11:43:51Z</time>
   </trkpt>
   <trkpt lat="59.1364750" lon="9.6279690">
    <ele>5.4</ele>
    <time>2026-01-08T11:43:52Z</time>
   </trkpt>
   <trkpt lat="59.1364960" lon="9.6279670">
    <ele>5.3</ele>
    <time>2026-01-08T11:43:53Z</time>
   </trkpt>
   <trkpt lat="59.1365070" lon="9.6279620">
    <ele>5.2</ele>
    <time>2026-01-08T11:43:54Z</time>
   </trkpt>
   <trkpt lat="59.1365170" lon="9.6279560">
    <ele>5.1</ele>
    <time>2026-01-08T11:43:55Z</time>
   </trkpt>
   <trkpt lat="59.1365490" lon="9.6279330">
    <ele>4.9</ele>
    <time>2026-01-08T11:43:56Z</time>
   </trkpt>
   <trkpt lat="59.1365580" lon="9.6279270">
    <ele>4.8</ele>
    <time>2026-01-08T11:43:57Z</time>
   </trkpt>
   <trkpt lat="59.1365680" lon="9.6279190">
    <ele>4.8</ele>
    <time>2026-01-08T11:43:58Z</time>
   </trkpt>
   <trkpt lat="59.1365900" lon="9.6279270">
    <ele>4.6</ele>
    <time>2026-01-08T11:43:59Z</time>
   </trkpt>
   <trkpt lat="59.1366010" lon="9.6279520">
    <ele>4.5</ele>
    <time>2026-01-08T11:44:00Z</time>
   </trkpt>
   <trkpt lat="59.1366170" lon="9.6279390">
    <ele>4.4</ele>
    <time>2026-01-08T11:44:01Z</time>
   </trkpt>
   <trkpt lat="59.1366300" lon="9.6279300">
    <ele>4.4</ele>
    <time>2026-01-08T11:44:02Z</time>
   </trkpt>
   <trkpt lat="59.1366490" lon="9.6279210">
    <ele>4.3</ele>
    <time>2026-01-08T11:44:03Z</time>
   </trkpt>
   <trkpt lat="59.1366630" lon="9.6279070">
    <ele>4.2</ele>
    <time>2026-01-08T11:44:04Z</time>
   </trkpt>
   <trkpt lat="59.1366820" lon="9.6279050">
    <ele>4.1</ele>
    <time>2026-01-08T11:44:05Z</time>
   </trkpt>
   <trkpt lat="59.1367080" lon="9.6278870">
    <ele>4.0</ele>
    <time>2026-01-08T11:44:06Z</time>
   </trkpt>
   <trkpt lat="59.1367180" lon="9.6278800">
    <ele>4.0</ele>
    <time>2026-01-08T11:44:07Z</time>
   </trkpt>
   <trkpt lat="59.1367300" lon="9.6278810">
    <ele>4.0</ele>
    <time>2026-01-08T11:44:08Z</time>
   </trkpt>
   <trkpt lat="59.1367460" lon="9.6278710">
    <ele>3.9</ele>
    <time>2026-01-08T11:44:09Z</time>
   </trkpt>
   <trkpt lat="59.1367580" lon="9.6278600">
    <ele>3.9</ele>
    <time>2026-01-08T11:44:10Z</time>
   </trkpt>
   <trkpt lat="59.1367770" lon="9.6278530">
    <ele>3.9</ele>
    <time>2026-01-08T11:44:11Z</time>
   </trkpt>
   <trkpt lat="59.1367990" lon="9.6278410">
    <ele>3.8</ele>
    <time>2026-01-08T11:44:12Z</time>
   </trkpt>
   <trkpt lat="59.1368110" lon="9.6278360">
    <ele>3.8</ele>
    <time>2026-01-08T11:44:13Z</time>
   </trkpt>
   <trkpt lat="59.1368220" lon="9.6278310">
    <ele>3.8</ele>
    <time>2026-01-08T11:44:14Z</time>
   </trkpt>
   <trkpt lat="59.1368370" lon="9.6278260">
    <ele>3.8</ele>
    <time>2026-01-08T11:44:15Z</time>
   </trkpt>
   <trkpt lat="59.1368510" lon="9.6278310">
    <ele>3.8</ele>
    <time>2026-01-08T11:44:16Z</time>
   </trkpt>
   <trkpt lat="59.1368570" lon="9.6278350">
    <ele>3.8</ele>
    <time>2026-01-08T11:44:17Z</time>
   </trkpt>
   <trkpt lat="59.1368670" lon="9.6278390">
    <ele>3.8</ele>
    <time>2026-01-08T11:44:18Z</time>
   </trkpt>
   <trkpt lat="59.1368750" lon="9.6278420">
    <ele>3.8</ele>
    <time>2026-01-08T11:44:19Z</time>
   </trkpt>
   <trkpt lat="59.1368830" lon="9.6278460">
    <ele>3.8</ele>
    <time>2026-01-08T11:44:20Z</time>
   </trkpt>
   <trkpt lat="59.1368880" lon="9.6278520">
    <ele>3.8</ele>
    <time>2026-01-08T11:44:21Z</time>
   </trkpt>
   <trkpt lat="59.1368950" lon="9.6278580">
    <ele>3.8</ele>
    <time>2026-01-08T11:44:22Z</time>
   </trkpt>
   <trkpt lat="59.1369050" lon="9.6278580">
    <ele>3.8</ele>
    <time>2026-01-08T11:44:24Z</time>
   </trkpt>
   <trkpt lat="59.1369130" lon="9.6278560">
    <ele>3.8</ele>
    <time>2026-01-08T11:44:25Z</time>
   </trkpt>
   <trkpt lat="59.1369660" lon="9.6278320">
    <ele>3.8</ele>
    <time>2026-01-08T11:44:26Z</time>
   </trkpt>
   <trkpt lat="59.1370000" lon="9.6278020">
    <ele>3.9</ele>
    <time>2026-01-08T11:44:27Z</time>
   </trkpt>
   <trkpt lat="59.1370120" lon="9.6277900">
    <ele>3.9</ele>
    <time>2026-01-08T11:44:28Z</time>
   </trkpt>
   <trkpt lat="59.1370390" lon="9.6277770">
    <ele>3.9</ele>
    <time>2026-01-08T11:44:29Z</time>
   </trkpt>
   <trkpt lat="59.1370470" lon="9.6277690">
    <ele>3.9</ele>
    <time>2026-01-08T11:44:30Z</time>
   </trkpt>
   <trkpt lat="59.1370750" lon="9.6277660">
    <ele>3.9</ele>
    <time>2026-01-08T11:44:31Z</time>
   </trkpt>
   <trkpt lat="59.1370840" lon="9.6277660">
    <ele>4.0</ele>
    <time>2026-01-08T11:44:32Z</time>
   </trkpt>
   <trkpt lat="59.1370980" lon="9.6277640">
    <ele>4.0</ele>
    <time>2026-01-08T11:44:33Z</time>
   </trkpt>
   <trkpt lat="59.1371120" lon="9.6277730">
    <ele>4.0</ele>
    <time>2026-01-08T11:44:34Z</time>
   </trkpt>
   <trkpt lat="59.1371300" lon="9.6277820">
    <ele>4.0</ele>
    <time>2026-01-08T11:44:35Z</time>
   </trkpt>
   <trkpt lat="59.1371440" lon="9.6278020">
    <ele>4.0</ele>
    <time>2026-01-08T11:44:36Z</time>
   </trkpt>
   <trkpt lat="59.1371570" lon="9.6278150">
    <ele>4.0</ele>
    <time>2026-01-08T11:44:37Z</time>
   </trkpt>
   <trkpt lat="59.1371690" lon="9.6278280">
    <ele>4.0</ele>
    <time>2026-01-08T11:44:38Z</time>
   </trkpt>
   <trkpt lat="59.1371800" lon="9.6278320">
    <ele>4.0</ele>
    <time>2026-01-08T11:44:39Z</time>
   </trkpt>
   <trkpt lat="59.1371870" lon="9.6278420">
    <ele>4.0</ele>
    <time>2026-01-08T11:44:40Z</time>
   </trkpt>
   <trkpt lat="59.1371990" lon="9.6278570">
    <ele>4.1</ele>
    <time>2026-01-08T11:44:41Z</time>
   </trkpt>
   <trkpt lat="59.1372140" lon="9.6278860">
    <ele>4.1</ele>
    <time>2026-01-08T11:44:42Z</time>
   </trkpt>
   <trkpt lat="59.1372230" lon="9.6279040">
    <ele>4.1</ele>
    <time>2026-01-08T11:44:43Z</time>
   </trkpt>
   <trkpt lat="59.1372400" lon="9.6279270">
    <ele>4.1</ele>
    <time>2026-01-08T11:44:44Z</time>
   </trkpt>
   <trkpt lat="59.1372470" lon="9.6279490">
    <ele>4.1</ele>
    <time>2026-01-08T11:44:45Z</time>
   </trkpt>
   <trkpt lat="59.1372570" lon="9.6279740">
    <ele>4.1</ele>
    <time>2026-01-08T11:44:46Z</time>
   </trkpt>
   <trkpt lat="59.1372640" lon="9.6279900">
    <ele>4.1</ele>
    <time>2026-01-08T11:44:47Z</time>
   </trkpt>
   <trkpt lat="59.1372700" lon="9.6280130">
    <ele>4.1</ele>
    <time>2026-01-08T11:44:48Z</time>
   </trkpt>
   <trkpt lat="59.1372820" lon="9.6280440">
    <ele>4.1</ele>
    <time>2026-01-08T11:44:49Z</time>
   </trkpt>
   <trkpt lat="59.1372940" lon="9.6280570">
    <ele>4.1</ele>
    <time>2026-01-08T11:44:50Z</time>
   </trkpt>
   <trkpt lat="59.1373040" lon="9.6280880">
    <ele>4.1</ele>
    <time>2026-01-08T11:44:51Z</time>
   </trkpt>
   <trkpt lat="59.1373090" lon="9.6281000">
    <ele>4.1</ele>
    <time>2026-01-08T11:44:52Z</time>
   </trkpt>
   <trkpt lat="59.1373090" lon="9.6281310">
    <ele>4.2</ele>
    <time>2026-01-08T11:44:53Z</time>
   </trkpt>
   <trkpt lat="59.1373110" lon="9.6281480">
    <ele>4.2</ele>
    <time>2026-01-08T11:44:54Z</time>
   </trkpt>
   <trkpt lat="59.1373140" lon="9.6281730">
    <ele>4.2</ele>
    <time>2026-01-08T11:44:55Z</time>
   </trkpt>
   <trkpt lat="59.1373200" lon="9.6281930">
    <ele>4.2</ele>
    <time>2026-01-08T11:44:56Z</time>
   </trkpt>
   <trkpt lat="59.1373240" lon="9.6282040">
    <ele>4.2</ele>
    <time>2026-01-08T11:44:57Z</time>
   </trkpt>
   <trkpt lat="59.1373400" lon="9.6282610">
    <ele>4.2</ele>
    <time>2026-01-08T11:44:58Z</time>
   </trkpt>
   <trkpt lat="59.1373440" lon="9.6282730">
    <ele>4.2</ele>
    <time>2026-01-08T11:44:59Z</time>
   </trkpt>
   <trkpt lat="59.1373500" lon="9.6283210">
    <ele>4.2</ele>
    <time>2026-01-08T11:45:00Z</time>
   </trkpt>
   <trkpt lat="59.1373450" lon="9.6283360">
    <ele>4.2</ele>
    <time>2026-01-08T11:45:01Z</time>
   </trkpt>
   <trkpt lat="59.1373410" lon="9.6283500">
    <ele>4.2</ele>
    <time>2026-01-08T11:45:02Z</time>
   </trkpt>
   <trkpt lat="59.1373270" lon="9.6284010">
    <ele>4.2</ele>
    <time>2026-01-08T11:45:03Z</time>
   </trkpt>
   <trkpt lat="59.1373180" lon="9.6284120">
    <ele>4.2</ele>
    <time>2026-01-08T11:45:04Z</time>
   </trkpt>
   <trkpt lat="59.1373250" lon="9.6284440">
    <ele>4.2</ele>
    <time>2026-01-08T11:45:05Z</time>
   </trkpt>
   <trkpt lat="59.1373300" lon="9.6284660">
    <ele>4.3</ele>
    <time>2026-01-08T11:45:06Z</time>
   </trkpt>
   <trkpt lat="59.1373430" lon="9.6285300">
    <ele>4.3</ele>
    <time>2026-01-08T11:45:07Z</time>
   </trkpt>
   <trkpt lat="59.1373480" lon="9.6285550">
    <ele>4.4</ele>
    <time>2026-01-08T11:45:08Z</time>
   </trkpt>
   <trkpt lat="59.1373430" lon="9.6285930">
    <ele>4.4</ele>
    <time>2026-01-08T11:45:09Z</time>
   </trkpt>
   <trkpt lat="59.1373500" lon="9.6286200">
    <ele>4.5</ele>
    <time>2026-01-08T11:45:10Z</time>
   </trkpt>
   <trkpt lat="59.1373620" lon="9.6286630">
    <ele>4.5</ele>
    <time>2026-01-08T11:45:11Z</time>
   </trkpt>
   <trkpt lat="59.1373650" lon="9.6286810">
    <ele>4.6</ele>
    <time>2026-01-08T11:45:12Z</time>
   </trkpt>
   <trkpt lat="59.1373680" lon="9.6286980">
    <ele>4.6</ele>
    <time>2026-01-08T11:45:13Z</time>
   </trkpt>
   <trkpt lat="59.1373710" lon="9.6287200">
    <ele>4.6</ele>
    <time>2026-01-08T11:45:14Z</time>
   </trkpt>
   <trkpt lat="59.1373810" lon="9.6287450">
    <ele>4.7</ele>
    <time>2026-01-08T11:45:15Z</time>
   </trkpt>
   <trkpt lat="59.1373870" lon="9.6287610">
    <ele>4.7</ele>
    <time>2026-01-08T11:45:16Z</time>
   </trkpt>
   <trkpt lat="59.1374040" lon="9.6287900">
    <ele>4.8</ele>
    <time>2026-01-08T11:45:17Z</time>
   </trkpt>
   <trkpt lat="59.1374080" lon="9.6288050">
    <ele>4.8</ele>
    <time>2026-01-08T11:45:18Z</time>
   </trkpt>
   <trkpt lat="59.1374200" lon="9.6288330">
    <ele>4.9</ele>
    <time>2026-01-08T11:45:19Z</time>
   </trkpt>
   <trkpt lat="59.1374330" lon="9.6288590">
    <ele>5.0</ele>
    <time>2026-01-08T11:45:20Z</time>
   </trkpt>
   <trkpt lat="59.1374390" lon="9.6288720">
    <ele>5.0</ele>
    <time>2026-01-08T11:45:21Z</time>
   </trkpt>
   <trkpt lat="59.1374450" lon="9.6288850">
    <ele>5.0</ele>
    <time>2026-01-08T11:45:22Z</time>
   </trkpt>
   <trkpt lat="59.1374590" lon="9.6289200">
    <ele>5.1</ele>
    <time>2026-01-08T11:45:23Z</time>
   </trkpt>
   <trkpt lat="59.1374650" lon="9.6289360">
    <ele>5.2</ele>
    <time>2026-01-08T11:45:24Z</time>
   </trkpt>
   <trkpt lat="59.1374710" lon="9.6289510">
    <ele>5.2</ele>
    <time>2026-01-08T11:45:25Z</time>
   </trkpt>
   <trkpt lat="59.1374800" lon="9.6289690">
    <ele>5.3</ele>
    <time>2026-01-08T11:45:26Z</time>
   </trkpt>
   <trkpt lat="59.1374910" lon="9.6289870">
    <ele>5.3</ele>
    <time>2026-01-08T11:45:27Z</time>
   </trkpt>
   <trkpt lat="59.1375050" lon="9.6290250">
    <ele>5.4</ele>
    <time>2026-01-08T11:45:28Z</time>
   </trkpt>
   <trkpt lat="59.1375090" lon="9.6290380">
    <ele>5.5</ele>
    <time>2026-01-08T11:45:29Z</time>
   </trkpt>
   <trkpt lat="59.1375130" lon="9.6290500">
    <ele>5.5</ele>
    <time>2026-01-08T11:45:30Z</time>
   </trkpt>
   <trkpt lat="59.1375240" lon="9.6290630">
    <ele>5.6</ele>
    <time>2026-01-08T11:45:31Z</time>
   </trkpt>
   <trkpt lat="59.1375380" lon="9.6290880">
    <ele>5.6</ele>
    <time>2026-01-08T11:45:32Z</time>
   </trkpt>
   <trkpt lat="59.1375440" lon="9.6291020">
    <ele>5.7</ele>
    <time>2026-01-08T11:45:33Z</time>
   </trkpt>
   <trkpt lat="59.1375550" lon="9.6291260">
    <ele>5.8</ele>
    <time>2026-01-08T11:45:34Z</time>
   </trkpt>
   <trkpt lat="59.1375610" lon="9.6291340">
    <ele>5.8</ele>
    <time>2026-01-08T11:45:35Z</time>
   </trkpt>
   <trkpt lat="59.1375670" lon="9.6291580">
    <ele>5.8</ele>
    <time>2026-01-08T11:45:36Z</time>
   </trkpt>
   <trkpt lat="59.1375770" lon="9.6291860">
    <ele>5.9</ele>
    <time>2026-01-08T11:45:37Z</time>
   </trkpt>
   <trkpt lat="59.1375900" lon="9.6292050">
    <ele>6.0</ele>
    <time>2026-01-08T11:45:38Z</time>
   </trkpt>
   <trkpt lat="59.1376020" lon="9.6292220">
    <ele>6.1</ele>
    <time>2026-01-08T11:45:39Z</time>
   </trkpt>
   <trkpt lat="59.1376130" lon="9.6292510">
    <ele>6.1</ele>
    <time>2026-01-08T11:45:40Z</time>
   </trkpt>
   <trkpt lat="59.1376200" lon="9.6292630">
    <ele>6.2</ele>
    <time>2026-01-08T11:45:41Z</time>
   </trkpt>
   <trkpt lat="59.1376310" lon="9.6292860">
    <ele>6.2</ele>
    <time>2026-01-08T11:45:42Z</time>
   </trkpt>
   <trkpt lat="59.1376380" lon="9.6293090">
    <ele>6.3</ele>
    <time>2026-01-08T11:45:43Z</time>
   </trkpt>
   <trkpt lat="59.1376450" lon="9.6293250">
    <ele>6.3</ele>
    <time>2026-01-08T11:45:44Z</time>
   </trkpt>
   <trkpt lat="59.1376560" lon="9.6293520">
    <ele>6.4</ele>
    <time>2026-01-08T11:45:45Z</time>
   </trkpt>
   <trkpt lat="59.1376670" lon="9.6293790">
    <ele>6.4</ele>
    <time>2026-01-08T11:45:46Z</time>
   </trkpt>
   <trkpt lat="59.1376730" lon="9.6293920">
    <ele>6.5</ele>
    <time>2026-01-08T11:45:47Z</time>
   </trkpt>
   <trkpt lat="59.1376790" lon="9.6294060">
    <ele>6.5</ele>
    <time>2026-01-08T11:45:48Z</time>
   </trkpt>
   <trkpt lat="59.1376890" lon="9.6294220">
    <ele>6.6</ele>
    <time>2026-01-08T11:45:49Z</time>
   </trkpt>
   <trkpt lat="59.1377040" lon="9.6294490">
    <ele>6.6</ele>
    <time>2026-01-08T11:45:50Z</time>
   </trkpt>
   <trkpt lat="59.1377150" lon="9.6294650">
    <ele>6.6</ele>
    <time>2026-01-08T11:45:51Z</time>
   </trkpt>
   <trkpt lat="59.1377300" lon="9.6294940">
    <ele>6.7</ele>
    <time>2026-01-08T11:45:52Z</time>
   </trkpt>
   <trkpt lat="59.1377340" lon="9.6295120">
    <ele>6.7</ele>
    <time>2026-01-08T11:45:53Z</time>
   </trkpt>
   <trkpt lat="59.1377470" lon="9.6295410">
    <ele>6.8</ele>
    <time>2026-01-08T11:45:54Z</time>
   </trkpt>
   <trkpt lat="59.1377530" lon="9.6295590">
    <ele>6.8</ele>
    <time>2026-01-08T11:45:55Z</time>
   </trkpt>
   <trkpt lat="59.1377640" lon="9.6295890">
    <ele>6.8</ele>
    <time>2026-01-08T11:45:56Z</time>
   </trkpt>
   <trkpt lat="59.1377690" lon="9.6295970">
    <ele>6.8</ele>
    <time>2026-01-08T11:45:57Z</time>
   </trkpt>
   <trkpt lat="59.1377780" lon="9.6296160">
    <ele>6.8</ele>
    <time>2026-01-08T11:45:58Z</time>
   </trkpt>
   <trkpt lat="59.1377860" lon="9.6296350">
    <ele>6.9</ele>
    <time>2026-01-08T11:45:59Z</time>
   </trkpt>
   <trkpt lat="59.1377980" lon="9.6296560">
    <ele>6.9</ele>
    <time>2026-01-08T11:46:00Z</time>
   </trkpt>
   <trkpt lat="59.1378070" lon="9.6296700">
    <ele>6.9</ele>
    <time>2026-01-08T11:46:01Z</time>
   </trkpt>
   <trkpt lat="59.1378240" lon="9.6297080">
    <ele>6.9</ele>
    <time>2026-01-08T11:46:02Z</time>
   </trkpt>
   <trkpt lat="59.1378300" lon="9.6297190">
    <ele>7.0</ele>
    <time>2026-01-08T11:46:03Z</time>
   </trkpt>
   <trkpt lat="59.1378360" lon="9.6297310">
    <ele>7.0</ele>
    <time>2026-01-08T11:46:04Z</time>
   </trkpt>
   <trkpt lat="59.1378400" lon="9.6297490">
    <ele>7.0</ele>
    <time>2026-01-08T11:46:05Z</time>
   </trkpt>
   <trkpt lat="59.1378550" lon="9.6297730">
    <ele>7.0</ele>
    <time>2026-01-08T11:46:06Z</time>
   </trkpt>
   <trkpt lat="59.1378620" lon="9.6297890">
    <ele>7.0</ele>
    <time>2026-01-08T11:46:07Z</time>
   </trkpt>
   <trkpt lat="59.1378760" lon="9.6298170">
    <ele>7.1</ele>
    <time>2026-01-08T11:46:08Z</time>
   </trkpt>
   <trkpt lat="59.1378880" lon="9.6298450">
    <ele>7.1</ele>
    <time>2026-01-08T11:46:09Z</time>
   </trkpt>
   <trkpt lat="59.1378950" lon="9.6298560">
    <ele>7.1</ele>
    <time>2026-01-08T11:46:10Z</time>
   </trkpt>
   <trkpt lat="59.1379010" lon="9.6298680">
    <ele>7.1</ele>
    <time>2026-01-08T11:46:11Z</time>
   </trkpt>
   <trkpt lat="59.1379120" lon="9.6298950">
    <ele>7.1</ele>
    <time>2026-01-08T11:46:12Z</time>
   </trkpt>
   <trkpt lat="59.1379210" lon="9.6299080">
    <ele>7.2</ele>
    <time>2026-01-08T11:46:13Z</time>
   </trkpt>
   <trkpt lat="59.1379350" lon="9.6299360">
    <ele>7.2</ele>
    <time>2026-01-08T11:46:14Z</time>
   </trkpt>
   <trkpt lat="59.1379400" lon="9.6299500">
    <ele>7.2</ele>
    <time>2026-01-08T11:46:15Z</time>
   </trkpt>
   <trkpt lat="59.1379520" lon="9.6299780">
    <ele>7.2</ele>
    <time>2026-01-08T11:46:16Z</time>
   </trkpt>
   <trkpt lat="59.1379590" lon="9.6299930">
    <ele>7.2</ele>
    <time>2026-01-08T11:46:17Z</time>
   </trkpt>
   <trkpt lat="59.1379740" lon="9.6300230">
    <ele>7.3</ele>
    <time>2026-01-08T11:46:18Z</time>
   </trkpt>
   <trkpt lat="59.1379840" lon="9.6300340">
    <ele>7.3</ele>
    <time>2026-01-08T11:46:19Z</time>
   </trkpt>
   <trkpt lat="59.1379940" lon="9.6300610">
    <ele>7.3</ele>
    <time>2026-01-08T11:46:20Z</time>
   </trkpt>
   <trkpt lat="59.1380030" lon="9.6300880">
    <ele>7.3</ele>
    <time>2026-01-08T11:46:21Z</time>
   </trkpt>
   <trkpt lat="59.1380190" lon="9.6301030">
    <ele>7.4</ele>
    <time>2026-01-08T11:46:22Z</time>
   </trkpt>
   <trkpt lat="59.1380250" lon="9.6301200">
    <ele>7.4</ele>
    <time>2026-01-08T11:46:23Z</time>
   </trkpt>
   <trkpt lat="59.1380320" lon="9.6301370">
    <ele>7.4</ele>
    <time>2026-01-08T11:46:24Z</time>
   </trkpt>
   <trkpt lat="59.1380480" lon="9.6301720">
    <ele>7.4</ele>
    <time>2026-01-08T11:46:25Z</time>
   </trkpt>
   <trkpt lat="59.1380530" lon="9.6301840">
    <ele>7.5</ele>
    <time>2026-01-08T11:46:26Z</time>
   </trkpt>
   <trkpt lat="59.1380580" lon="9.6301960">
    <ele>7.5</ele>
    <time>2026-01-08T11:46:27Z</time>
   </trkpt>
   <trkpt lat="59.1380740" lon="9.6302280">
    <ele>7.5</ele>
    <time>2026-01-08T11:46:28Z</time>
   </trkpt>
   <trkpt lat="59.1380830" lon="9.6302390">
    <ele>7.5</ele>
    <time>2026-01-08T11:46:29Z</time>
   </trkpt>
   <trkpt lat="59.1380990" lon="9.6302710">
    <ele>7.6</ele>
    <time>2026-01-08T11:46:30Z</time>
   </trkpt>
   <trkpt lat="59.1381040" lon="9.6302890">
    <ele>7.6</ele>
    <time>2026-01-08T11:46:31Z</time>
   </trkpt>
   <trkpt lat="59.1381130" lon="9.6303150">
    <ele>7.6</ele>
    <time>2026-01-08T11:46:32Z</time>
   </trkpt>
   <trkpt lat="59.1381190" lon="9.6303370">
    <ele>7.7</ele>
    <time>2026-01-08T11:46:33Z</time>
   </trkpt>
   <trkpt lat="59.1381290" lon="9.6303660">
    <ele>7.7</ele>
    <time>2026-01-08T11:46:34Z</time>
   </trkpt>
   <trkpt lat="59.1381380" lon="9.6303810">
    <ele>7.7</ele>
    <time>2026-01-08T11:46:35Z</time>
   </trkpt>
   <trkpt lat="59.1381560" lon="9.6304190">
    <ele>7.8</ele>
    <time>2026-01-08T11:46:36Z</time>
   </trkpt>
   <trkpt lat="59.1381640" lon="9.6304320">
    <ele>7.8</ele>
    <time>2026-01-08T11:46:37Z</time>
   </trkpt>
   <trkpt lat="59.1381710" lon="9.6304440">
    <ele>7.8</ele>
    <time>2026-01-08T11:46:38Z</time>
   </trkpt>
   <trkpt lat="59.1381810" lon="9.6304770">
    <ele>7.9</ele>
    <time>2026-01-08T11:46:39Z</time>
   </trkpt>
   <trkpt lat="59.1381840" lon="9.6304960">
    <ele>7.9</ele>
    <time>2026-01-08T11:46:40Z</time>
   </trkpt>
   <trkpt lat="59.1381880" lon="9.6305140">
    <ele>7.9</ele>
    <time>2026-01-08T11:46:41Z</time>
   </trkpt>
   <trkpt lat="59.1381930" lon="9.6305410">
    <ele>8.0</ele>
    <time>2026-01-08T11:46:42Z</time>
   </trkpt>
   <trkpt lat="59.1382020" lon="9.6305700">
    <ele>8.0</ele>
    <time>2026-01-08T11:46:43Z</time>
   </trkpt>
   <trkpt lat="59.1382100" lon="9.6305980">
    <ele>8.1</ele>
    <time>2026-01-08T11:46:44Z</time>
   </trkpt>
   <trkpt lat="59.1382160" lon="9.6306150">
    <ele>8.1</ele>
    <time>2026-01-08T11:46:45Z</time>
   </trkpt>
   <trkpt lat="59.1382240" lon="9.6306340">
    <ele>8.1</ele>
    <time>2026-01-08T11:46:46Z</time>
   </trkpt>
   <trkpt lat="59.1382310" lon="9.6306540">
    <ele>8.2</ele>
    <time>2026-01-08T11:46:47Z</time>
   </trkpt>
   <trkpt lat="59.1382340" lon="9.6306670">
    <ele>8.2</ele>
    <time>2026-01-08T11:46:48Z</time>
   </trkpt>
   <trkpt lat="59.1382470" lon="9.6307000">
    <ele>8.2</ele>
    <time>2026-01-08T11:46:49Z</time>
   </trkpt>
   <trkpt lat="59.1382500" lon="9.6307260">
    <ele>8.2</ele>
    <time>2026-01-08T11:46:50Z</time>
   </trkpt>
   <trkpt lat="59.1382590" lon="9.6307430">
    <ele>8.2</ele>
    <time>2026-01-08T11:46:51Z</time>
   </trkpt>
   <trkpt lat="59.1382740" lon="9.6307600">
    <ele>8.3</ele>
    <time>2026-01-08T11:46:52Z</time>
   </trkpt>
   <trkpt lat="59.1382870" lon="9.6307740">
    <ele>8.3</ele>
    <time>2026-01-08T11:46:53Z</time>
   </trkpt>
   <trkpt lat="59.1383000" lon="9.6307880">
    <ele>8.3</ele>
    <time>2026-01-08T11:46:54Z</time>
   </trkpt>
   <trkpt lat="59.1383130" lon="9.6308170">
    <ele>8.3</ele>
    <time>2026-01-08T11:46:55Z</time>
   </trkpt>
   <trkpt lat="59.1383190" lon="9.6308390">
    <ele>8.4</ele>
    <time>2026-01-08T11:46:56Z</time>
   </trkpt>
   <trkpt lat="59.1383330" lon="9.6308620">
    <ele>8.4</ele>
    <time>2026-01-08T11:46:57Z</time>
   </trkpt>
   <trkpt lat="59.1383430" lon="9.6308740">
    <ele>8.4</ele>
    <time>2026-01-08T11:46:58Z</time>
   </trkpt>
   <trkpt lat="59.1383540" lon="9.6309060">
    <ele>8.5</ele>
    <time>2026-01-08T11:46:59Z</time>
   </trkpt>
   <trkpt lat="59.1383580" lon="9.6309230">
    <ele>8.5</ele>
    <time>2026-01-08T11:47:00Z</time>
   </trkpt>
   <trkpt lat="59.1383700" lon="9.6309380">
    <ele>8.5</ele>
    <time>2026-01-08T11:47:01Z</time>
   </trkpt>
   <trkpt lat="59.1383780" lon="9.6309530">
    <ele>8.5</ele>
    <time>2026-01-08T11:47:02Z</time>
   </trkpt>
   <trkpt lat="59.1383840" lon="9.6309630">
    <ele>8.6</ele>
    <time>2026-01-08T11:47:03Z</time>
   </trkpt>
   <trkpt lat="59.1384010" lon="9.6309920">
    <ele>8.6</ele>
    <time>2026-01-08T11:47:04Z</time>
   </trkpt>
   <trkpt lat="59.1384050" lon="9.6310050">
    <ele>8.6</ele>
    <time>2026-01-08T11:47:05Z</time>
   </trkpt>
   <trkpt lat="59.1384140" lon="9.6310320">
    <ele>8.7</ele>
    <time>2026-01-08T11:47:06Z</time>
   </trkpt>
   <trkpt lat="59.1384270" lon="9.6310600">
    <ele>8.7</ele>
    <time>2026-01-08T11:47:07Z</time>
   </trkpt>
   <trkpt lat="59.1384360" lon="9.6310750">
    <ele>8.7</ele>
    <time>2026-01-08T11:47:08Z</time>
   </trkpt>
   <trkpt lat="59.1384520" lon="9.6311000">
    <ele>8.8</ele>
    <time>2026-01-08T11:47:09Z</time>
   </trkpt>
   <trkpt lat="59.1384590" lon="9.6311180">
    <ele>8.8</ele>
    <time>2026-01-08T11:47:10Z</time>
   </trkpt>
   <trkpt lat="59.1384750" lon="9.6311440">
    <ele>8.8</ele>
    <time>2026-01-08T11:47:11Z</time>
   </trkpt>
   <trkpt lat="59.1384840" lon="9.6311550">
    <ele>8.9</ele>
    <time>2026-01-08T11:47:12Z</time>
   </trkpt>
   <trkpt lat="59.1384980" lon="9.6311720">
    <ele>8.9</ele>
    <time>2026-01-08T11:47:13Z</time>
   </trkpt>
   <trkpt lat="59.1385100" lon="9.6311890">
    <ele>8.9</ele>
    <time>2026-01-08T11:47:14Z</time>
   </trkpt>
   <trkpt lat="59.1385220" lon="9.6312020">
    <ele>9.0</ele>
    <time>2026-01-08T11:47:15Z</time>
   </trkpt>
   <trkpt lat="59.1385320" lon="9.6312350">
    <ele>9.0</ele>
    <time>2026-01-08T11:47:16Z</time>
   </trkpt>
   <trkpt lat="59.1385360" lon="9.6312510">
    <ele>9.0</ele>
    <time>2026-01-08T11:47:17Z</time>
   </trkpt>
   <trkpt lat="59.1385550" lon="9.6312760">
    <ele>9.1</ele>
    <time>2026-01-08T11:47:18Z</time>
   </trkpt>
   <trkpt lat="59.1385600" lon="9.6312950">
    <ele>9.1</ele>
    <time>2026-01-08T11:47:19Z</time>
   </trkpt>
   <trkpt lat="59.1385780" lon="9.6313120">
    <ele>9.1</ele>
    <time>2026-01-08T11:47:20Z</time>
   </trkpt>
   <trkpt lat="59.1385850" lon="9.6313270">
    <ele>9.2</ele>
    <time>2026-01-08T11:47:21Z</time>
   </trkpt>
   <trkpt lat="59.1386010" lon="9.6313580">
    <ele>9.2</ele>
    <time>2026-01-08T11:47:22Z</time>
   </trkpt>
   <trkpt lat="59.1386080" lon="9.6313700">
    <ele>9.3</ele>
    <time>2026-01-08T11:47:23Z</time>
   </trkpt>
   <trkpt lat="59.1386140" lon="9.6313810">
    <ele>9.3</ele>
    <time>2026-01-08T11:47:24Z</time>
   </trkpt>
   <trkpt lat="59.1386260" lon="9.6313730">
    <ele>9.3</ele>
    <time>2026-01-08T11:47:25Z</time>
   </trkpt>
   <trkpt lat="59.1386430" lon="9.6314030">
    <ele>9.4</ele>
    <time>2026-01-08T11:47:26Z</time>
   </trkpt>
   <trkpt lat="59.1386520" lon="9.6314230">
    <ele>9.4</ele>
    <time>2026-01-08T11:47:27Z</time>
   </trkpt>
   <trkpt lat="59.1386650" lon="9.6314480">
    <ele>9.4</ele>
    <time>2026-01-08T11:47:28Z</time>
   </trkpt>
   <trkpt lat="59.1386690" lon="9.6314660">
    <ele>9.5</ele>
    <time>2026-01-08T11:47:29Z</time>
   </trkpt>
   <trkpt lat="59.1386800" lon="9.6314880">
    <ele>9.5</ele>
    <time>2026-01-08T11:47:30Z</time>
   </trkpt>
   <trkpt lat="59.1386880" lon="9.6315020">
    <ele>9.5</ele>
    <time>2026-01-08T11:47:31Z</time>
   </trkpt>
   <trkpt lat="59.1386980" lon="9.6315180">
    <ele>9.6</ele>
    <time>2026-01-08T11:47:32Z</time>
   </trkpt>
   <trkpt lat="59.1387050" lon="9.6315480">
    <ele>9.6</ele>
    <time>2026-01-08T11:47:33Z</time>
   </trkpt>
   <trkpt lat="59.1387110" lon="9.6315600">
    <ele>9.6</ele>
    <time>2026-01-08T11:47:34Z</time>
   </trkpt>
   <trkpt lat="59.1387140" lon="9.6315750">
    <ele>9.6</ele>
    <time>2026-01-08T11:47:35Z</time>
   </trkpt>
   <trkpt lat="59.1387220" lon="9.6316030">
    <ele>9.7</ele>
    <time>2026-01-08T11:47:36Z</time>
   </trkpt>
   <trkpt lat="59.1387260" lon="9.6316350">
    <ele>9.7</ele>
    <time>2026-01-08T11:47:37Z</time>
   </trkpt>
   <trkpt lat="59.1387290" lon="9.6316650">
    <ele>9.8</ele>
    <time>2026-01-08T11:47:38Z</time>
   </trkpt>
   <trkpt lat="59.1387330" lon="9.6317030">
    <ele>9.8</ele>
    <time>2026-01-08T11:47:39Z</time>
   </trkpt>
   <trkpt lat="59.1387360" lon="9.6317280">
    <ele>9.8</ele>
    <time>2026-01-08T11:47:40Z</time>
   </trkpt>
   <trkpt lat="59.1387430" lon="9.6317740">
    <ele>9.9</ele>
    <time>2026-01-08T11:47:41Z</time>
   </trkpt>
   <trkpt lat="59.1387450" lon="9.6317940">
    <ele>9.9</ele>
    <time>2026-01-08T11:47:42Z</time>
   </trkpt>
   <trkpt lat="59.1387460" lon="9.6318140">
    <ele>9.9</ele>
    <time>2026-01-08T11:47:43Z</time>
   </trkpt>
   <trkpt lat="59.1387500" lon="9.6318370">
    <ele>9.9</ele>
    <time>2026-01-08T11:47:44Z</time>
   </trkpt>
   <trkpt lat="59.1387570" lon="9.6318670">
    <ele>9.9</ele>
    <time>2026-01-08T11:47:45Z</time>
   </trkpt>
   <trkpt lat="59.1387640" lon="9.6318810">
    <ele>9.9</ele>
    <time>2026-01-08T11:47:46Z</time>
   </trkpt>
   <trkpt lat="59.1387690" lon="9.6319090">
    <ele>9.9</ele>
    <time>2026-01-08T11:47:47Z</time>
   </trkpt>
   <trkpt lat="59.1387720" lon="9.6319300">
    <ele>9.9</ele>
    <time>2026-01-08T11:47:48Z</time>
   </trkpt>
   <trkpt lat="59.1387800" lon="9.6319610">
    <ele>9.9</ele>
    <time>2026-01-08T11:47:49Z</time>
   </trkpt>
   <trkpt lat="59.1387790" lon="9.6319850">
    <ele>9.9</ele>
    <time>2026-01-08T11:47:50Z</time>
   </trkpt>
   <trkpt lat="59.1387810" lon="9.6320140">
    <ele>9.9</ele>
    <time>2026-01-08T11:47:51Z</time>
   </trkpt>
   <trkpt lat="59.1387840" lon="9.6320450">
    <ele>9.9</ele>
    <time>2026-01-08T11:47:52Z</time>
   </trkpt>
   <trkpt lat="59.1387890" lon="9.6320610">
    <ele>9.9</ele>
    <time>2026-01-08T11:47:53Z</time>
   </trkpt>
   <trkpt lat="59.1387990" lon="9.6320930">
    <ele>9.9</ele>
    <time>2026-01-08T11:47:54Z</time>
   </trkpt>
   <trkpt lat="59.1388020" lon="9.6321320">
    <ele>9.9</ele>
    <time>2026-01-08T11:47:55Z</time>
   </trkpt>
   <trkpt lat="59.1388040" lon="9.6321520">
    <ele>9.9</ele>
    <time>2026-01-08T11:47:56Z</time>
   </trkpt>
   <trkpt lat="59.1388070" lon="9.6321720">
    <ele>9.9</ele>
    <time>2026-01-08T11:47:57Z</time>
   </trkpt>
   <trkpt lat="59.1388160" lon="9.6322000">
    <ele>9.9</ele>
    <time>2026-01-08T11:47:58Z</time>
   </trkpt>
   <trkpt lat="59.1388120" lon="9.6322070">
    <ele>9.9</ele>
    <time>2026-01-08T11:47:59Z</time>
   </trkpt>
   <trkpt lat="59.1388100" lon="9.6321990">
    <ele>9.9</ele>
    <time>2026-01-08T11:48:00Z</time>
   </trkpt>
   <trkpt lat="59.1388110" lon="9.6321940">
    <ele>9.9</ele>
    <time>2026-01-08T11:48:01Z</time>
   </trkpt>
   <trkpt lat="59.1388100" lon="9.6321910">
    <ele>9.9</ele>
    <time>2026-01-08T11:48:02Z</time>
   </trkpt>
   <trkpt lat="59.1388100" lon="9.6321910">
    <ele>9.9</ele>
    <time>2026-01-08T11:48:03Z</time>
   </trkpt>
   <trkpt lat="59.1388100" lon="9.6321910">
    <ele>9.9</ele>
    <time>2026-01-08T11:48:04Z</time>
   </trkpt>
   <trkpt lat="59.1388100" lon="9.6321910">
    <ele>9.9</ele>
    <time>2026-01-08T11:48:05Z</time>
   </trkpt>
   <trkpt lat="59.1387960" lon="9.6322100">
    <ele>10.0</ele>
    <time>2026-01-08T11:48:06Z</time>
   </trkpt>
   <trkpt lat="59.1387970" lon="9.6322110">
    <ele>10.0</ele>
    <time>2026-01-08T11:48:07Z</time>
   </trkpt>
   <trkpt lat="59.1387960" lon="9.6322090">
    <ele>10.0</ele>
    <time>2026-01-08T11:48:08Z</time>
   </trkpt>
   <trkpt lat="59.1387960" lon="9.6322090">
    <ele>10.0</ele>
    <time>2026-01-08T11:48:09Z</time>
   </trkpt>
   <trkpt lat="59.1387960" lon="9.6322090">
    <ele>10.0</ele>
    <time>2026-01-08T11:48:10Z</time>
   </trkpt>
   <trkpt lat="59.1387960" lon="9.6322090">
    <ele>10.0</ele>
    <time>2026-01-08T11:48:11Z</time>
   </trkpt>
   <trkpt lat="59.1387900" lon="9.6322250">
    <ele>10.0</ele>
    <time>2026-01-08T11:48:12Z</time>
   </trkpt>
   <trkpt lat="59.1387900" lon="9.6322220">
    <ele>10.0</ele>
    <time>2026-01-08T11:48:13Z</time>
   </trkpt>
   <trkpt lat="59.1387900" lon="9.6322220">
    <ele>10.0</ele>
    <time>2026-01-08T11:48:14Z</time>
   </trkpt>
   <trkpt lat="59.1387940" lon="9.6322160">
    <ele>10.0</ele>
    <time>2026-01-08T11:48:15Z</time>
   </trkpt>
   <trkpt lat="59.1387940" lon="9.6322160">
    <ele>10.0</ele>
    <time>2026-01-08T11:48:16Z</time>
   </trkpt>
   <trkpt lat="59.1387960" lon="9.6322070">
    <ele>10.0</ele>
    <time>2026-01-08T11:48:17Z</time>
   </trkpt>
   <trkpt lat="59.1387960" lon="9.6322070">
    <ele>10.0</ele>
    <time>2026-01-08T11:48:18Z</time>
   </trkpt>
   <trkpt lat="59.1388040" lon="9.6322100">
    <ele>10.0</ele>
    <time>2026-01-08T11:48:19Z</time>
   </trkpt>
   <trkpt lat="59.1388070" lon="9.6322070">
    <ele>10.0</ele>
    <time>2026-01-08T11:48:20Z</time>
   </trkpt>
   <trkpt lat="59.1388070" lon="9.6322070">
    <ele>10.0</ele>
    <time>2026-01-08T11:48:21Z</time>
   </trkpt>
   <trkpt lat="59.1388070" lon="9.6322070">
    <ele>10.0</ele>
    <time>2026-01-08T11:48:22Z</time>
   </trkpt>
   <trkpt lat="59.1388070" lon="9.6322070">
    <ele>10.0</ele>
    <time>2026-01-08T11:48:23Z</time>
   </trkpt>
   <trkpt lat="59.1388050" lon="9.6322160">
    <ele>10.0</ele>
    <time>2026-01-08T11:48:24Z</time>
   </trkpt>
   <trkpt lat="59.1388030" lon="9.6322130">
    <ele>10.0</ele>
    <time>2026-01-08T11:48:25Z</time>
   </trkpt>
   <trkpt lat="59.1388030" lon="9.6322100">
    <ele>10.0</ele>
    <time>2026-01-08T11:48:26Z</time>
   </trkpt>
   <trkpt lat="59.1388020" lon="9.6322060">
    <ele>10.0</ele>
    <time>2026-01-08T11:48:27Z</time>
   </trkpt>
   <trkpt lat="59.1388030" lon="9.6322090">
    <ele>10.0</ele>
    <time>2026-01-08T11:48:28Z</time>
   </trkpt>
   <trkpt lat="59.1388040" lon="9.6322090">
    <ele>10.0</ele>
    <time>2026-01-08T11:48:29Z</time>
   </trkpt>
   <trkpt lat="59.1388060" lon="9.6322020">
    <ele>10.0</ele>
    <time>2026-01-08T11:48:30Z</time>
   </trkpt>
   <trkpt lat="59.1388060" lon="9.6322020">
    <ele>10.0</ele>
    <time>2026-01-08T11:48:31Z</time>
   </trkpt>
   <trkpt lat="59.1388040" lon="9.6322030">
    <ele>10.0</ele>
    <time>2026-01-08T11:48:32Z</time>
   </trkpt>
   <trkpt lat="59.1388040" lon="9.6322030">
    <ele>10.0</ele>
    <time>2026-01-08T11:48:33Z</time>
   </trkpt>
   <trkpt lat="59.1388050" lon="9.6322020">
    <ele>10.0</ele>
    <time>2026-01-08T11:48:34Z</time>
   </trkpt>
   <trkpt lat="59.1388040" lon="9.6322020">
    <ele>10.0</ele>
    <time>2026-01-08T11:48:35Z</time>
   </trkpt>
   <trkpt lat="59.1388040" lon="9.6322020">
    <ele>10.0</ele>
    <time>2026-01-08T11:48:36Z</time>
   </trkpt>
   <trkpt lat="59.1388040" lon="9.6322020">
    <ele>10.0</ele>
    <time>2026-01-08T11:48:37Z</time>
   </trkpt>
   <trkpt lat="59.1387970" lon="9.6322070">
    <ele>10.0</ele>
    <time>2026-01-08T11:48:38Z</time>
   </trkpt>
   <trkpt lat="59.1387970" lon="9.6322070">
    <ele>10.0</ele>
    <time>2026-01-08T11:48:39Z</time>
   </trkpt>
   <trkpt lat="59.1387970" lon="9.6322070">
    <ele>10.0</ele>
    <time>2026-01-08T11:48:40Z</time>
   </trkpt>
   <trkpt lat="59.1387950" lon="9.6322060">
    <ele>10.0</ele>
    <time>2026-01-08T11:48:41Z</time>
   </trkpt>
   <trkpt lat="59.1387950" lon="9.6322060">
    <ele>10.0</ele>
    <time>2026-01-08T11:48:42Z</time>
   </trkpt>
   <trkpt lat="59.1387910" lon="9.6322080">
    <ele>10.0</ele>
    <time>2026-01-08T11:48:43Z</time>
   </trkpt>
   <trkpt lat="59.1387870" lon="9.6322140">
    <ele>10.0</ele>
    <time>2026-01-08T11:48:44Z</time>
   </trkpt>
   <trkpt lat="59.1387920" lon="9.6322080">
    <ele>10.0</ele>
    <time>2026-01-08T11:48:45Z</time>
   </trkpt>
   <trkpt lat="59.1387920" lon="9.6322080">
    <ele>10.0</ele>
    <time>2026-01-08T11:48:46Z</time>
   </trkpt>
   <trkpt lat="59.1387920" lon="9.6322080">
    <ele>10.0</ele>
    <time>2026-01-08T11:48:47Z</time>
   </trkpt>
   <trkpt lat="59.1387920" lon="9.6322080">
    <ele>10.0</ele>
    <time>2026-01-08T11:48:48Z</time>
   </trkpt>
   <trkpt lat="59.1387920" lon="9.6322080">
    <ele>10.0</ele>
    <time>2026-01-08T11:48:49Z</time>
   </trkpt>
   <trkpt lat="59.1387920" lon="9.6322080">
    <ele>10.0</ele>
    <time>2026-01-08T11:48:50Z</time>
   </trkpt>
   <trkpt lat="59.1387920" lon="9.6322080">
    <ele>10.0</ele>
    <time>2026-01-08T11:48:51Z</time>
   </trkpt>
   <trkpt lat="59.1387920" lon="9.6322080">
    <ele>10.0</ele>
    <time>2026-01-08T11:48:52Z</time>
   </trkpt>
   <trkpt lat="59.1387920" lon="9.6322080">
    <ele>10.0</ele>
    <time>2026-01-08T11:48:53Z</time>
   </trkpt>
   <trkpt lat="59.1387930" lon="9.6322090">
    <ele>10.0</ele>
    <time>2026-01-08T11:48:54Z</time>
   </trkpt>
   <trkpt lat="59.1387930" lon="9.6322090">
    <ele>10.0</ele>
    <time>2026-01-08T11:48:55Z</time>
   </trkpt>
   <trkpt lat="59.1387970" lon="9.6322110">
    <ele>10.0</ele>
    <time>2026-01-08T11:48:56Z</time>
   </trkpt>
   <trkpt lat="59.1388000" lon="9.6322140">
    <ele>10.0</ele>
    <time>2026-01-08T11:48:57Z</time>
   </trkpt>
   <trkpt lat="59.1387890" lon="9.6322220">
    <ele>10.0</ele>
    <time>2026-01-08T11:48:58Z</time>
   </trkpt>
   <trkpt lat="59.1387960" lon="9.6322140">
    <ele>10.0</ele>
    <time>2026-01-08T11:48:59Z</time>
   </trkpt>
   <trkpt lat="59.1387990" lon="9.6322120">
    <ele>10.0</ele>
    <time>2026-01-08T11:49:00Z</time>
   </trkpt>
   <trkpt lat="59.1387990" lon="9.6322120">
    <ele>10.0</ele>
    <time>2026-01-08T11:49:01Z</time>
   </trkpt>
   <trkpt lat="59.1387980" lon="9.6322120">
    <ele>10.0</ele>
    <time>2026-01-08T11:49:02Z</time>
   </trkpt>
   <trkpt lat="59.1387990" lon="9.6322080">
    <ele>10.0</ele>
    <time>2026-01-08T11:49:03Z</time>
   </trkpt>
   <trkpt lat="59.1388000" lon="9.6322070">
    <ele>10.0</ele>
    <time>2026-01-08T11:49:04Z</time>
   </trkpt>
   <trkpt lat="59.1387980" lon="9.6322080">
    <ele>10.0</ele>
    <time>2026-01-08T11:49:05Z</time>
   </trkpt>
   <trkpt lat="59.1387990" lon="9.6322080">
    <ele>10.0</ele>
    <time>2026-01-08T11:49:06Z</time>
   </trkpt>
   <trkpt lat="59.1387960" lon="9.6322210">
    <ele>10.0</ele>
    <time>2026-01-08T11:49:07Z</time>
   </trkpt>
   <trkpt lat="59.1387980" lon="9.6322190">
    <ele>10.0</ele>
    <time>2026-01-08T11:49:08Z</time>
   </trkpt>
   <trkpt lat="59.1387980" lon="9.6322190">
    <ele>10.0</ele>
    <time>2026-01-08T11:49:09Z</time>
   </trkpt>
   <trkpt lat="59.1387910" lon="9.6322530">
    <ele>10.0</ele>
    <time>2026-01-08T11:49:10Z</time>
   </trkpt>
   <trkpt lat="59.1387910" lon="9.6322440">
    <ele>10.0</ele>
    <time>2026-01-08T11:49:11Z</time>
   </trkpt>
   <trkpt lat="59.1387770" lon="9.6322730">
    <ele>10.0</ele>
    <time>2026-01-08T11:49:12Z</time>
   </trkpt>
   <trkpt lat="59.1387910" lon="9.6322410">
    <ele>10.0</ele>
    <time>2026-01-08T11:49:13Z</time>
   </trkpt>
   <trkpt lat="59.1387920" lon="9.6322330">
    <ele>10.0</ele>
    <time>2026-01-08T11:49:14Z</time>
   </trkpt>
   <trkpt lat="59.1387920" lon="9.6322330">
    <ele>10.0</ele>
    <time>2026-01-08T11:49:15Z</time>
   </trkpt>
   <trkpt lat="59.1387940" lon="9.6322170">
    <ele>10.0</ele>
    <time>2026-01-08T11:49:16Z</time>
   </trkpt>
   <trkpt lat="59.1387940" lon="9.6322130">
    <ele>10.0</ele>
    <time>2026-01-08T11:49:17Z</time>
   </trkpt>
   <trkpt lat="59.1387950" lon="9.6322160">
    <ele>10.0</ele>
    <time>2026-01-08T11:49:18Z</time>
   </trkpt>
   <trkpt lat="59.1387960" lon="9.6322190">
    <ele>10.0</ele>
    <time>2026-01-08T11:49:19Z</time>
   </trkpt>
   <trkpt lat="59.1387960" lon="9.6322220">
    <ele>10.0</ele>
    <time>2026-01-08T11:49:20Z</time>
   </trkpt>
   <trkpt lat="59.1387970" lon="9.6322250">
    <ele>10.0</ele>
    <time>2026-01-08T11:49:21Z</time>
   </trkpt>
   <trkpt lat="59.1387980" lon="9.6322280">
    <ele>10.1</ele>
    <time>2026-01-08T11:49:22Z</time>
   </trkpt>
   <trkpt lat="59.1387990" lon="9.6322310">
    <ele>10.1</ele>
    <time>2026-01-08T11:49:23Z</time>
   </trkpt>
   <trkpt lat="59.1388000" lon="9.6322340">
    <ele>10.1</ele>
    <time>2026-01-08T11:49:24Z</time>
   </trkpt>
   <trkpt lat="59.1388010" lon="9.6322370">
    <ele>10.1</ele>
    <time>2026-01-08T11:49:25Z</time>
   </trkpt>
   <trkpt lat="59.1388010" lon="9.6322400">
    <ele>10.1</ele>
    <time>2026-01-08T11:49:26Z</time>
   </trkpt>
   <trkpt lat="59.1388020" lon="9.6322430">
    <ele>10.1</ele>
    <time>2026-01-08T11:49:27Z</time>
   </trkpt>
   <trkpt lat="59.1388030" lon="9.6322460">
    <ele>10.1</ele>
    <time>2026-01-08T11:49:28Z</time>
   </trkpt>
   <trkpt lat="59.1388040" lon="9.6322490">
    <ele>10.1</ele>
    <time>2026-01-08T11:49:29Z</time>
   </trkpt>
   <trkpt lat="59.1388050" lon="9.6322520">
    <ele>10.1</ele>
    <time>2026-01-08T11:49:30Z</time>
   </trkpt>
   <trkpt lat="59.1388060" lon="9.6322550">
    <ele>10.1</ele>
    <time>2026-01-08T11:49:31Z</time>
   </trkpt>
   <trkpt lat="59.1388060" lon="9.6322580">
    <ele>10.1</ele>
    <time>2026-01-08T11:49:32Z</time>
   </trkpt>
   <trkpt lat="59.1388070" lon="9.6322610">
    <ele>10.1</ele>
    <time>2026-01-08T11:49:33Z</time>
   </trkpt>
   <trkpt lat="59.1388080" lon="9.6322640">
    <ele>10.1</ele>
    <time>2026-01-08T11:49:34Z</time>
   </trkpt>
   <trkpt lat="59.1388090" lon="9.6322670">
    <ele>10.1</ele>
    <time>2026-01-08T11:49:35Z</time>
   </trkpt>
   <trkpt lat="59.1388100" lon="9.6322700">
    <ele>10.1</ele>
    <time>2026-01-08T11:49:36Z</time>
   </trkpt>
   <trkpt lat="59.1388110" lon="9.6322730">
    <ele>10.1</ele>
    <time>2026-01-08T11:49:37Z</time>
   </trkpt>
   <trkpt lat="59.1388110" lon="9.6322760">
    <ele>10.1</ele>
    <time>2026-01-08T11:49:38Z</time>
   </trkpt>
   <trkpt lat="59.1388120" lon="9.6322790">
    <ele>10.1</ele>
    <time>2026-01-08T11:49:39Z</time>
   </trkpt>
   <trkpt lat="59.1388130" lon="9.6322820">
    <ele>10.1</ele>
    <time>2026-01-08T11:49:40Z</time>
   </trkpt>
   <trkpt lat="59.1388240" lon="9.6322990">
    <ele>10.1</ele>
    <time>2026-01-08T11:49:41Z</time>
   </trkpt>
   <trkpt lat="59.1388310" lon="9.6323020">
    <ele>10.1</ele>
    <time>2026-01-08T11:49:42Z</time>
   </trkpt>
   <trkpt lat="59.1388410" lon="9.6323150">
    <ele>10.1</ele>
    <time>2026-01-08T11:49:43Z</time>
   </trkpt>
   <trkpt lat="59.1388520" lon="9.6323640">
    <ele>10.1</ele>
    <time>2026-01-08T11:49:44Z</time>
   </trkpt>
   <trkpt lat="59.1388600" lon="9.6324170">
    <ele>10.1</ele>
    <time>2026-01-08T11:49:45Z</time>
   </trkpt>
   <trkpt lat="59.1388630" lon="9.6324340">
    <ele>10.1</ele>
    <time>2026-01-08T11:49:46Z</time>
   </trkpt>
   <trkpt lat="59.1388770" lon="9.6324710">
    <ele>10.1</ele>
    <time>2026-01-08T11:49:47Z</time>
   </trkpt>
   <trkpt lat="59.1388810" lon="9.6324840">
    <ele>10.1</ele>
    <time>2026-01-08T11:49:48Z</time>
   </trkpt>
   <trkpt lat="59.1388840" lon="9.6324970">
    <ele>10.1</ele>
    <time>2026-01-08T11:49:49Z</time>
   </trkpt>
   <trkpt lat="59.1388930" lon="9.6325320">
    <ele>10.1</ele>
    <time>2026-01-08T11:49:50Z</time>
   </trkpt>
   <trkpt lat="59.1388980" lon="9.6325460">
    <ele>10.1</ele>
    <time>2026-01-08T11:49:51Z</time>
   </trkpt>
   <trkpt lat="59.1389020" lon="9.6325600">
    <ele>10.1</ele>
    <time>2026-01-08T11:49:52Z</time>
   </trkpt>
   <trkpt lat="59.1389090" lon="9.6325650">
    <ele>10.1</ele>
    <time>2026-01-08T11:49:53Z</time>
   </trkpt>
   <trkpt lat="59.1389110" lon="9.6325810">
    <ele>10.1</ele>
    <time>2026-01-08T11:49:54Z</time>
   </trkpt>
   <trkpt lat="59.1389100" lon="9.6325610">
    <ele>10.1</ele>
    <time>2026-01-08T11:49:55Z</time>
   </trkpt>
   <trkpt lat="59.1389120" lon="9.6325550">
    <ele>10.1</ele>
    <time>2026-01-08T11:49:56Z</time>
   </trkpt>
   <trkpt lat="59.1389080" lon="9.6325670">
    <ele>10.1</ele>
    <time>2026-01-08T11:49:57Z</time>
   </trkpt>
   <trkpt lat="59.1389070" lon="9.6325720">
    <ele>10.1</ele>
    <time>2026-01-08T11:49:58Z</time>
   </trkpt>
   <trkpt lat="59.1389020" lon="9.6326020">
    <ele>10.1</ele>
    <time>2026-01-08T11:49:59Z</time>
   </trkpt>
   <trkpt lat="59.1389080" lon="9.6325730">
    <ele>10.1</ele>
    <time>2026-01-08T11:50:00Z</time>
   </trkpt>
   <trkpt lat="59.1389080" lon="9.6325730">
    <ele>10.1</ele>
    <time>2026-01-08T11:50:01Z</time>
   </trkpt>
   <trkpt lat="59.1389080" lon="9.6325730">
    <ele>10.1</ele>
    <time>2026-01-08T11:50:02Z</time>
   </trkpt>
   <trkpt lat="59.1389040" lon="9.6325740">
    <ele>10.1</ele>
    <time>2026-01-08T11:50:03Z</time>
   </trkpt>
   <trkpt lat="59.1389050" lon="9.6325740">
    <ele>10.1</ele>
    <time>2026-01-08T11:50:04Z</time>
   </trkpt>
   <trkpt lat="59.1389050" lon="9.6325740">
    <ele>10.1</ele>
    <time>2026-01-08T11:50:05Z</time>
   </trkpt>
   <trkpt lat="59.1389050" lon="9.6325740">
    <ele>10.1</ele>
    <time>2026-01-08T11:50:06Z</time>
   </trkpt>
   <trkpt lat="59.1389040" lon="9.6325670">
    <ele>10.1</ele>
    <time>2026-01-08T11:50:07Z</time>
   </trkpt>
   <trkpt lat="59.1389040" lon="9.6325720">
    <ele>10.1</ele>
    <time>2026-01-08T11:50:08Z</time>
   </trkpt>
   <trkpt lat="59.1389050" lon="9.6325690">
    <ele>10.1</ele>
    <time>2026-01-08T11:50:09Z</time>
   </trkpt>
   <trkpt lat="59.1389050" lon="9.6325680">
    <ele>10.1</ele>
    <time>2026-01-08T11:50:10Z</time>
   </trkpt>
   <trkpt lat="59.1389060" lon="9.6325640">
    <ele>10.1</ele>
    <time>2026-01-08T11:50:11Z</time>
   </trkpt>
   <trkpt lat="59.1389060" lon="9.6325640">
    <ele>10.1</ele>
    <time>2026-01-08T11:50:12Z</time>
   </trkpt>
   <trkpt lat="59.1389100" lon="9.6325830">
    <ele>10.1</ele>
    <time>2026-01-08T11:50:13Z</time>
   </trkpt>
   <trkpt lat="59.1389030" lon="9.6325920">
    <ele>10.1</ele>
    <time>2026-01-08T11:50:14Z</time>
   </trkpt>
   <trkpt lat="59.1389040" lon="9.6325860">
    <ele>10.1</ele>
    <time>2026-01-08T11:50:15Z</time>
   </trkpt>
   <trkpt lat="59.1389060" lon="9.6325850">
    <ele>10.1</ele>
    <time>2026-01-08T11:50:16Z</time>
   </trkpt>
   <trkpt lat="59.1389040" lon="9.6325940">
    <ele>10.1</ele>
    <time>2026-01-08T11:50:17Z</time>
   </trkpt>
   <trkpt lat="59.1389010" lon="9.6326060">
    <ele>10.1</ele>
    <time>2026-01-08T11:50:18Z</time>
   </trkpt>
   <trkpt lat="59.1389080" lon="9.6326170">
    <ele>10.1</ele>
    <time>2026-01-08T11:50:19Z</time>
   </trkpt>
   <trkpt lat="59.1389000" lon="9.6326520">
    <ele>10.1</ele>
    <time>2026-01-08T11:50:20Z</time>
   </trkpt>
   <trkpt lat="59.1389010" lon="9.6326820">
    <ele>10.1</ele>
    <time>2026-01-08T11:50:21Z</time>
   </trkpt>
   <trkpt lat="59.1389010" lon="9.6326900">
    <ele>10.1</ele>
    <time>2026-01-08T11:50:22Z</time>
   </trkpt>
   <trkpt lat="59.1389030" lon="9.6327180">
    <ele>10.1</ele>
    <time>2026-01-08T11:50:23Z</time>
   </trkpt>
   <trkpt lat="59.1389030" lon="9.6327360">
    <ele>10.1</ele>
    <time>2026-01-08T11:50:24Z</time>
   </trkpt>
   <trkpt lat="59.1389050" lon="9.6327620">
    <ele>10.1</ele>
    <time>2026-01-08T11:50:25Z</time>
   </trkpt>
   <trkpt lat="59.1389020" lon="9.6327830">
    <ele>10.1</ele>
    <time>2026-01-08T11:50:26Z</time>
   </trkpt>
   <trkpt lat="59.1389020" lon="9.6328020">
    <ele>10.1</ele>
    <time>2026-01-08T11:50:27Z</time>
   </trkpt>
   <trkpt lat="59.1389010" lon="9.6328080">
    <ele>10.1</ele>
    <time>2026-01-08T11:50:28Z</time>
   </trkpt>
   <trkpt lat="59.1389030" lon="9.6328090">
    <ele>10.1</ele>
    <time>2026-01-08T11:50:29Z</time>
   </trkpt>
   <trkpt lat="59.1389040" lon="9.6328110">
    <ele>10.1</ele>
    <time>2026-01-08T11:50:30Z</time>
   </trkpt>
   <trkpt lat="59.1389050" lon="9.6328120">
    <ele>10.1</ele>
    <time>2026-01-08T11:50:31Z</time>
   </trkpt>
   <trkpt lat="59.1389060" lon="9.6328140">
    <ele>10.1</ele>
    <time>2026-01-08T11:50:32Z</time>
   </trkpt>
   <trkpt lat="59.1389080" lon="9.6328150">
    <ele>10.1</ele>
    <time>2026-01-08T11:50:33Z</time>
   </trkpt>
   <trkpt lat="59.1389090" lon="9.6328170">
    <ele>10.1</ele>
    <time>2026-01-08T11:50:34Z</time>
   </trkpt>
   <trkpt lat="59.1389100" lon="9.6328180">
    <ele>10.1</ele>
    <time>2026-01-08T11:50:35Z</time>
   </trkpt>
   <trkpt lat="59.1389120" lon="9.6328200">
    <ele>10.1</ele>
    <time>2026-01-08T11:50:36Z</time>
   </trkpt>
   <trkpt lat="59.1389130" lon="9.6328210">
    <ele>10.1</ele>
    <time>2026-01-08T11:50:37Z</time>
   </trkpt>
   <trkpt lat="59.1389140" lon="9.6328230">
    <ele>10.1</ele>
    <time>2026-01-08T11:50:38Z</time>
   </trkpt>
   <trkpt lat="59.1389150" lon="9.6328240">
    <ele>10.1</ele>
    <time>2026-01-08T11:50:39Z</time>
   </trkpt>
   <trkpt lat="59.1389170" lon="9.6328260">
    <ele>10.1</ele>
    <time>2026-01-08T11:50:40Z</time>
   </trkpt>
   <trkpt lat="59.1389180" lon="9.6328270">
    <ele>10.1</ele>
    <time>2026-01-08T11:50:41Z</time>
   </trkpt>
   <trkpt lat="59.1389190" lon="9.6328290">
    <ele>10.1</ele>
    <time>2026-01-08T11:50:42Z</time>
   </trkpt>
   <trkpt lat="59.1389200" lon="9.6328300">
    <ele>10.1</ele>
    <time>2026-01-08T11:50:43Z</time>
   </trkpt>
   <trkpt lat="59.1389220" lon="9.6328320">
    <ele>10.1</ele>
    <time>2026-01-08T11:50:44Z</time>
   </trkpt>
   <trkpt lat="59.1389230" lon="9.6328330">
    <ele>10.1</ele>
    <time>2026-01-08T11:50:45Z</time>
   </trkpt>
   <trkpt lat="59.1389240" lon="9.6328350">
    <ele>10.1</ele>
    <time>2026-01-08T11:50:46Z</time>
   </trkpt>
   <trkpt lat="59.1389260" lon="9.6328370">
    <ele>10.1</ele>
    <time>2026-01-08T11:50:47Z</time>
   </trkpt>
   <trkpt lat="59.1389270" lon="9.6328380">
    <ele>10.1</ele>
    <time>2026-01-08T11:50:48Z</time>
   </trkpt>
   <trkpt lat="59.1389280" lon="9.6328400">
    <ele>10.1</ele>
    <time>2026-01-08T11:50:49Z</time>
   </trkpt>
   <trkpt lat="59.1389290" lon="9.6328410">
    <ele>10.1</ele>
    <time>2026-01-08T11:50:50Z</time>
   </trkpt>
   <trkpt lat="59.1389310" lon="9.6328430">
    <ele>10.1</ele>
    <time>2026-01-08T11:50:51Z</time>
   </trkpt>
   <trkpt lat="59.1389320" lon="9.6328440">
    <ele>10.1</ele>
    <time>2026-01-08T11:50:52Z</time>
   </trkpt>
   <trkpt lat="59.1389330" lon="9.6328460">
    <ele>10.1</ele>
    <time>2026-01-08T11:50:53Z</time>
   </trkpt>
   <trkpt lat="59.1389350" lon="9.6328470">
    <ele>10.0</ele>
    <time>2026-01-08T11:50:54Z</time>
   </trkpt>
   <trkpt lat="59.1389360" lon="9.6328490">
    <ele>10.0</ele>
    <time>2026-01-08T11:50:55Z</time>
   </trkpt>
   <trkpt lat="59.1389370" lon="9.6328500">
    <ele>10.0</ele>
    <time>2026-01-08T11:50:56Z</time>
   </trkpt>
   <trkpt lat="59.1389380" lon="9.6328520">
    <ele>10.0</ele>
    <time>2026-01-08T11:50:57Z</time>
   </trkpt>
   <trkpt lat="59.1389400" lon="9.6328530">
    <ele>10.0</ele>
    <time>2026-01-08T11:50:58Z</time>
   </trkpt>
   <trkpt lat="59.1389410" lon="9.6328550">
    <ele>10.0</ele>
    <time>2026-01-08T11:50:59Z</time>
   </trkpt>
   <trkpt lat="59.1389420" lon="9.6328560">
    <ele>10.0</ele>
    <time>2026-01-08T11:51:00Z</time>
   </trkpt>
   <trkpt lat="59.1389430" lon="9.6328580">
    <ele>10.0</ele>
    <time>2026-01-08T11:51:01Z</time>
   </trkpt>
   <trkpt lat="59.1389450" lon="9.6328590">
    <ele>10.0</ele>
    <time>2026-01-08T11:51:02Z</time>
   </trkpt>
   <trkpt lat="59.1389460" lon="9.6328610">
    <ele>10.0</ele>
    <time>2026-01-08T11:51:03Z</time>
   </trkpt>
   <trkpt lat="59.1389550" lon="9.6328990">
    <ele>10.0</ele>
    <time>2026-01-08T11:51:04Z</time>
   </trkpt>
   <trkpt lat="59.1389620" lon="9.6329210">
    <ele>10.0</ele>
    <time>2026-01-08T11:51:05Z</time>
   </trkpt>
   <trkpt lat="59.1389750" lon="9.6329570">
    <ele>10.0</ele>
    <time>2026-01-08T11:51:06Z</time>
   </trkpt>
   <trkpt lat="59.1389790" lon="9.6329700">
    <ele>10.0</ele>
    <time>2026-01-08T11:51:07Z</time>
   </trkpt>
   <trkpt lat="59.1389840" lon="9.6329830">
    <ele>10.0</ele>
    <time>2026-01-08T11:51:08Z</time>
   </trkpt>
   <trkpt lat="59.1389860" lon="9.6330040">
    <ele>9.9</ele>
    <time>2026-01-08T11:51:09Z</time>
   </trkpt>
   <trkpt lat="59.1389980" lon="9.6330380">
    <ele>9.9</ele>
    <time>2026-01-08T11:51:10Z</time>
   </trkpt>
   <trkpt lat="59.1390070" lon="9.6330550">
    <ele>9.9</ele>
    <time>2026-01-08T11:51:11Z</time>
   </trkpt>
   <trkpt lat="59.1390210" lon="9.6330700">
    <ele>9.9</ele>
    <time>2026-01-08T11:51:12Z</time>
   </trkpt>
   <trkpt lat="59.1390330" lon="9.6331080">
    <ele>9.8</ele>
    <time>2026-01-08T11:51:13Z</time>
   </trkpt>
   <trkpt lat="59.1390390" lon="9.6331200">
    <ele>9.8</ele>
    <time>2026-01-08T11:51:14Z</time>
   </trkpt>
   <trkpt lat="59.1390450" lon="9.6331320">
    <ele>9.8</ele>
    <time>2026-01-08T11:51:15Z</time>
   </trkpt>
   <trkpt lat="59.1390540" lon="9.6331450">
    <ele>9.8</ele>
    <time>2026-01-08T11:51:16Z</time>
   </trkpt>
   <trkpt lat="59.1390660" lon="9.6331740">
    <ele>9.8</ele>
    <time>2026-01-08T11:51:17Z</time>
   </trkpt>
   <trkpt lat="59.1390770" lon="9.6331940">
    <ele>9.7</ele>
    <time>2026-01-08T11:51:18Z</time>
   </trkpt>
   <trkpt lat="59.1390880" lon="9.6332140">
    <ele>9.7</ele>
    <time>2026-01-08T11:51:19Z</time>
   </trkpt>
   <trkpt lat="59.1390920" lon="9.6332250">
    <ele>9.7</ele>
    <time>2026-01-08T11:51:20Z</time>
   </trkpt>
   <trkpt lat="59.1390990" lon="9.6332420">
    <ele>9.7</ele>
    <time>2026-01-08T11:51:21Z</time>
   </trkpt>
   <trkpt lat="59.1391070" lon="9.6332600">
    <ele>9.7</ele>
    <time>2026-01-08T11:51:22Z</time>
   </trkpt>
   <trkpt lat="59.1391240" lon="9.6333100">
    <ele>9.6</ele>
    <time>2026-01-08T11:51:23Z</time>
   </trkpt>
   <trkpt lat="59.1391270" lon="9.6333200">
    <ele>9.6</ele>
    <time>2026-01-08T11:51:24Z</time>
   </trkpt>
   <trkpt lat="59.1391380" lon="9.6333420">
    <ele>9.6</ele>
    <time>2026-01-08T11:51:25Z</time>
   </trkpt>
   <trkpt lat="59.1391470" lon="9.6333600">
    <ele>9.6</ele>
    <time>2026-01-08T11:51:26Z</time>
   </trkpt>
   <trkpt lat="59.1391590" lon="9.6333880">
    <ele>9.6</ele>
    <time>2026-01-08T11:51:27Z</time>
   </trkpt>
   <trkpt lat="59.1391670" lon="9.6334020">
    <ele>9.5</ele>
    <time>2026-01-08T11:51:28Z</time>
   </trkpt>
   <trkpt lat="59.1391740" lon="9.6334150">
    <ele>9.5</ele>
    <time>2026-01-08T11:51:29Z</time>
   </trkpt>
   <trkpt lat="59.1391860" lon="9.6334520">
    <ele>9.5</ele>
    <time>2026-01-08T11:51:30Z</time>
   </trkpt>
   <trkpt lat="59.1391940" lon="9.6334630">
    <ele>9.5</ele>
    <time>2026-01-08T11:51:31Z</time>
   </trkpt>
   <trkpt lat="59.1392050" lon="9.6334960">
    <ele>9.5</ele>
    <time>2026-01-08T11:51:32Z</time>
   </trkpt>
   <trkpt lat="59.1392160" lon="9.6335100">
    <ele>9.5</ele>
    <time>2026-01-08T11:51:33Z</time>
   </trkpt>
   <trkpt lat="59.1392280" lon="9.6335410">
    <ele>9.4</ele>
    <time>2026-01-08T11:51:34Z</time>
   </trkpt>
   <trkpt lat="59.1392330" lon="9.6335550">
    <ele>9.4</ele>
    <time>2026-01-08T11:51:35Z</time>
   </trkpt>
   <trkpt lat="59.1392390" lon="9.6335690">
    <ele>9.4</ele>
    <time>2026-01-08T11:51:36Z</time>
   </trkpt>
   <trkpt lat="59.1392480" lon="9.6335860">
    <ele>9.4</ele>
    <time>2026-01-08T11:51:37Z</time>
   </trkpt>
   <trkpt lat="59.1392580" lon="9.6336110">
    <ele>9.4</ele>
    <time>2026-01-08T11:51:38Z</time>
   </trkpt>
   <trkpt lat="59.1392700" lon="9.6336460">
    <ele>9.4</ele>
    <time>2026-01-08T11:51:39Z</time>
   </trkpt>
   <trkpt lat="59.1392770" lon="9.6336650">
    <ele>9.4</ele>
    <time>2026-01-08T11:51:40Z</time>
   </trkpt>
   <trkpt lat="59.1392860" lon="9.6337010">
    <ele>9.3</ele>
    <time>2026-01-08T11:51:41Z</time>
   </trkpt>
   <trkpt lat="59.1392940" lon="9.6337180">
    <ele>9.3</ele>
    <time>2026-01-08T11:51:42Z</time>
   </trkpt>
   <trkpt lat="59.1393030" lon="9.6337490">
    <ele>9.3</ele>
    <time>2026-01-08T11:51:43Z</time>
   </trkpt>
   <trkpt lat="59.1393100" lon="9.6337720">
    <ele>9.3</ele>
    <time>2026-01-08T11:51:44Z</time>
   </trkpt>
   <trkpt lat="59.1393130" lon="9.6337970">
    <ele>9.2</ele>
    <time>2026-01-08T11:51:45Z</time>
   </trkpt>
   <trkpt lat="59.1393220" lon="9.6338190">
    <ele>9.2</ele>
    <time>2026-01-08T11:51:46Z</time>
   </trkpt>
   <trkpt lat="59.1393330" lon="9.6338390">
    <ele>9.2</ele>
    <time>2026-01-08T11:51:47Z</time>
   </trkpt>
   <trkpt lat="59.1393410" lon="9.6338690">
    <ele>9.2</ele>
    <time>2026-01-08T11:51:48Z</time>
   </trkpt>
   <trkpt lat="59.1393520" lon="9.6338820">
    <ele>9.2</ele>
    <time>2026-01-08T11:51:49Z</time>
   </trkpt>
   <trkpt lat="59.1393650" lon="9.6339110">
    <ele>9.1</ele>
    <time>2026-01-08T11:51:50Z</time>
   </trkpt>
   <trkpt lat="59.1393790" lon="9.6339270">
    <ele>9.1</ele>
    <time>2026-01-08T11:51:51Z</time>
   </trkpt>
   <trkpt lat="59.1393940" lon="9.6339390">
    <ele>9.1</ele>
    <time>2026-01-08T11:51:52Z</time>
   </trkpt>
   <trkpt lat="59.1394070" lon="9.6339730">
    <ele>9.1</ele>
    <time>2026-01-08T11:51:53Z</time>
   </trkpt>
   <trkpt lat="59.1394150" lon="9.6339970">
    <ele>9.0</ele>
    <time>2026-01-08T11:51:54Z</time>
   </trkpt>
   <trkpt lat="59.1394260" lon="9.6340130">
    <ele>9.0</ele>
    <time>2026-01-08T11:51:55Z</time>
   </trkpt>
   <trkpt lat="59.1394400" lon="9.6340300">
    <ele>9.0</ele>
    <time>2026-01-08T11:51:56Z</time>
   </trkpt>
   <trkpt lat="59.1394530" lon="9.6340610">
    <ele>9.0</ele>
    <time>2026-01-08T11:51:57Z</time>
   </trkpt>
   <trkpt lat="59.1394650" lon="9.6340790">
    <ele>9.0</ele>
    <time>2026-01-08T11:51:58Z</time>
   </trkpt>
   <trkpt lat="59.1394790" lon="9.6340960">
    <ele>8.9</ele>
    <time>2026-01-08T11:51:59Z</time>
   </trkpt>
   <trkpt lat="59.1394880" lon="9.6341080">
    <ele>8.9</ele>
    <time>2026-01-08T11:52:00Z</time>
   </trkpt>
   <trkpt lat="59.1395020" lon="9.6341340">
    <ele>8.9</ele>
    <time>2026-01-08T11:52:01Z</time>
   </trkpt>
   <trkpt lat="59.1395100" lon="9.6341460">
    <ele>8.9</ele>
    <time>2026-01-08T11:52:02Z</time>
   </trkpt>
   <trkpt lat="59.1395180" lon="9.6341580">
    <ele>8.9</ele>
    <time>2026-01-08T11:52:03Z</time>
   </trkpt>
   <trkpt lat="59.1395380" lon="9.6342000">
    <ele>8.8</ele>
    <time>2026-01-08T11:52:04Z</time>
   </trkpt>
   <trkpt lat="59.1395460" lon="9.6342010">
    <ele>8.7</ele>
    <time>2026-01-08T11:52:05Z</time>
   </trkpt>
   <trkpt lat="59.1395620" lon="9.6342300">
    <ele>8.5</ele>
    <time>2026-01-08T11:52:06Z</time>
   </trkpt>
   <trkpt lat="59.1395670" lon="9.6342400">
    <ele>8.5</ele>
    <time>2026-01-08T11:52:07Z</time>
   </trkpt>
   <trkpt lat="59.1395810" lon="9.6342820">
    <ele>8.5</ele>
    <time>2026-01-08T11:52:08Z</time>
   </trkpt>
   <trkpt lat="59.1395860" lon="9.6343020">
    <ele>8.5</ele>
    <time>2026-01-08T11:52:09Z</time>
   </trkpt>
   <trkpt lat="59.1396000" lon="9.6343300">
    <ele>8.4</ele>
    <time>2026-01-08T11:52:10Z</time>
   </trkpt>
   <trkpt lat="59.1396100" lon="9.6343680">
    <ele>8.4</ele>
    <time>2026-01-08T11:52:11Z</time>
   </trkpt>
   <trkpt lat="59.1396140" lon="9.6343830">
    <ele>8.4</ele>
    <time>2026-01-08T11:52:12Z</time>
   </trkpt>
   <trkpt lat="59.1396190" lon="9.6343970">
    <ele>8.4</ele>
    <time>2026-01-08T11:52:13Z</time>
   </trkpt>
   <trkpt lat="59.1396300" lon="9.6344140">
    <ele>8.4</ele>
    <time>2026-01-08T11:52:14Z</time>
   </trkpt>
   <trkpt lat="59.1396420" lon="9.6344280">
    <ele>8.4</ele>
    <time>2026-01-08T11:52:15Z</time>
   </trkpt>
   <trkpt lat="59.1396540" lon="9.6344570">
    <ele>8.4</ele>
    <time>2026-01-08T11:52:16Z</time>
   </trkpt>
   <trkpt lat="59.1396600" lon="9.6344690">
    <ele>8.4</ele>
    <time>2026-01-08T11:52:17Z</time>
   </trkpt>
   <trkpt lat="59.1396670" lon="9.6344810">
    <ele>8.3</ele>
    <time>2026-01-08T11:52:18Z</time>
   </trkpt>
   <trkpt lat="59.1396830" lon="9.6345070">
    <ele>8.3</ele>
    <time>2026-01-08T11:52:19Z</time>
   </trkpt>
   <trkpt lat="59.1396890" lon="9.6345210">
    <ele>8.3</ele>
    <time>2026-01-08T11:52:20Z</time>
   </trkpt>
   <trkpt lat="59.1396950" lon="9.6345350">
    <ele>8.3</ele>
    <time>2026-01-08T11:52:21Z</time>
   </trkpt>
   <trkpt lat="59.1397120" lon="9.6345600">
    <ele>8.3</ele>
    <time>2026-01-08T11:52:22Z</time>
   </trkpt>
   <trkpt lat="59.1397170" lon="9.6345710">
    <ele>8.3</ele>
    <time>2026-01-08T11:52:23Z</time>
   </trkpt>
   <trkpt lat="59.1397220" lon="9.6345830">
    <ele>8.3</ele>
    <time>2026-01-08T11:52:24Z</time>
   </trkpt>
   <trkpt lat="59.1397270" lon="9.6345940">
    <ele>8.3</ele>
    <time>2026-01-08T11:52:25Z</time>
   </trkpt>
   <trkpt lat="59.1397470" lon="9.6346530">
    <ele>8.2</ele>
    <time>2026-01-08T11:52:26Z</time>
   </trkpt>
   <trkpt lat="59.1397530" lon="9.6346790">
    <ele>8.2</ele>
    <time>2026-01-08T11:52:27Z</time>
   </trkpt>
   <trkpt lat="59.1397630" lon="9.6346990">
    <ele>8.2</ele>
    <time>2026-01-08T11:52:28Z</time>
   </trkpt>
   <trkpt lat="59.1397710" lon="9.6347200">
    <ele>8.2</ele>
    <time>2026-01-08T11:52:29Z</time>
   </trkpt>
   <trkpt lat="59.1397860" lon="9.6347470">
    <ele>8.2</ele>
    <time>2026-01-08T11:52:30Z</time>
   </trkpt>
   <trkpt lat="59.1397910" lon="9.6347630">
    <ele>8.2</ele>
    <time>2026-01-08T11:52:31Z</time>
   </trkpt>
   <trkpt lat="59.1397970" lon="9.6347800">
    <ele>8.1</ele>
    <time>2026-01-08T11:52:32Z</time>
   </trkpt>
   <trkpt lat="59.1398060" lon="9.6348010">
    <ele>8.1</ele>
    <time>2026-01-08T11:52:33Z</time>
   </trkpt>
   <trkpt lat="59.1398150" lon="9.6348300">
    <ele>8.1</ele>
    <time>2026-01-08T11:52:34Z</time>
   </trkpt>
   <trkpt lat="59.1398270" lon="9.6348780">
    <ele>8.1</ele>
    <time>2026-01-08T11:52:35Z</time>
   </trkpt>
   <trkpt lat="59.1398290" lon="9.6348950">
    <ele>8.0</ele>
    <time>2026-01-08T11:52:36Z</time>
   </trkpt>
   <trkpt lat="59.1398400" lon="9.6349080">
    <ele>8.0</ele>
    <time>2026-01-08T11:52:37Z</time>
   </trkpt>
   <trkpt lat="59.1398610" lon="9.6349220">
    <ele>8.0</ele>
    <time>2026-01-08T11:52:38Z</time>
   </trkpt>
   <trkpt lat="59.1398670" lon="9.6349400">
    <ele>8.0</ele>
    <time>2026-01-08T11:52:39Z</time>
   </trkpt>
   <trkpt lat="59.1398800" lon="9.6349630">
    <ele>8.0</ele>
    <time>2026-01-08T11:52:40Z</time>
   </trkpt>
   <trkpt lat="59.1398900" lon="9.6349750">
    <ele>7.9</ele>
    <time>2026-01-08T11:52:41Z</time>
   </trkpt>
   <trkpt lat="59.1399000" lon="9.6350090">
    <ele>7.9</ele>
    <time>2026-01-08T11:52:42Z</time>
   </trkpt>
   <trkpt lat="59.1399090" lon="9.6350490">
    <ele>7.8</ele>
    <time>2026-01-08T11:52:43Z</time>
   </trkpt>
   <trkpt lat="59.1399120" lon="9.6350650">
    <ele>7.8</ele>
    <time>2026-01-08T11:52:44Z</time>
   </trkpt>
   <trkpt lat="59.1399160" lon="9.6350800">
    <ele>7.8</ele>
    <time>2026-01-08T11:52:45Z</time>
   </trkpt>
   <trkpt lat="59.1399270" lon="9.6350960">
    <ele>7.8</ele>
    <time>2026-01-08T11:52:46Z</time>
   </trkpt>
   <trkpt lat="59.1399320" lon="9.6351100">
    <ele>7.7</ele>
    <time>2026-01-08T11:52:47Z</time>
   </trkpt>
   <trkpt lat="59.1399320" lon="9.6351310">
    <ele>7.7</ele>
    <time>2026-01-08T11:52:48Z</time>
   </trkpt>
   <trkpt lat="59.1399410" lon="9.6351630">
    <ele>7.7</ele>
    <time>2026-01-08T11:52:49Z</time>
   </trkpt>
   <trkpt lat="59.1399490" lon="9.6351850">
    <ele>7.6</ele>
    <time>2026-01-08T11:52:50Z</time>
   </trkpt>
   <trkpt lat="59.1399580" lon="9.6351880">
    <ele>7.6</ele>
    <time>2026-01-08T11:52:51Z</time>
   </trkpt>
   <trkpt lat="59.1399690" lon="9.6352260">
    <ele>7.6</ele>
    <time>2026-01-08T11:52:52Z</time>
   </trkpt>
   <trkpt lat="59.1399920" lon="9.6352240">
    <ele>7.5</ele>
    <time>2026-01-08T11:52:53Z</time>
   </trkpt>
   <trkpt lat="59.1400020" lon="9.6352380">
    <ele>7.5</ele>
    <time>2026-01-08T11:52:54Z</time>
   </trkpt>
   <trkpt lat="59.1400170" lon="9.6352550">
    <ele>7.4</ele>
    <time>2026-01-08T11:52:55Z</time>
   </trkpt>
   <trkpt lat="59.1400250" lon="9.6352830">
    <ele>7.4</ele>
    <time>2026-01-08T11:52:56Z</time>
   </trkpt>
   <trkpt lat="59.1400640" lon="9.6353130">
    <ele>7.3</ele>
    <time>2026-01-08T11:52:57Z</time>
   </trkpt>
   <trkpt lat="59.1400770" lon="9.6353340">
    <ele>7.2</ele>
    <time>2026-01-08T11:52:58Z</time>
   </trkpt>
   <trkpt lat="59.1400880" lon="9.6353390">
    <ele>7.2</ele>
    <time>2026-01-08T11:52:59Z</time>
   </trkpt>
   <trkpt lat="59.1401030" lon="9.6353630">
    <ele>7.1</ele>
    <time>2026-01-08T11:53:00Z</time>
   </trkpt>
   <trkpt lat="59.1401120" lon="9.6353760">
    <ele>7.1</ele>
    <time>2026-01-08T11:53:01Z</time>
   </trkpt>
   <trkpt lat="59.1401210" lon="9.6353980">
    <ele>7.1</ele>
    <time>2026-01-08T11:53:02Z</time>
   </trkpt>
   <trkpt lat="59.1401270" lon="9.6353960">
    <ele>7.0</ele>
    <time>2026-01-08T11:53:03Z</time>
   </trkpt>
   <trkpt lat="59.1401420" lon="9.6354420">
    <ele>7.0</ele>
    <time>2026-01-08T11:53:04Z</time>
   </trkpt>
   <trkpt lat="59.1401490" lon="9.6354560">
    <ele>6.9</ele>
    <time>2026-01-08T11:53:05Z</time>
   </trkpt>
   <trkpt lat="59.1401700" lon="9.6354830">
    <ele>6.9</ele>
    <time>2026-01-08T11:53:06Z</time>
   </trkpt>
   <trkpt lat="59.1401780" lon="9.6355040">
    <ele>6.8</ele>
    <time>2026-01-08T11:53:07Z</time>
   </trkpt>
   <trkpt lat="59.1401960" lon="9.6355240">
    <ele>6.8</ele>
    <time>2026-01-08T11:53:08Z</time>
   </trkpt>
   <trkpt lat="59.1402060" lon="9.6355350">
    <ele>6.7</ele>
    <time>2026-01-08T11:53:09Z</time>
   </trkpt>
   <trkpt lat="59.1402150" lon="9.6355460">
    <ele>6.7</ele>
    <time>2026-01-08T11:53:10Z</time>
   </trkpt>
   <trkpt lat="59.1402220" lon="9.6355730">
    <ele>6.7</ele>
    <time>2026-01-08T11:53:11Z</time>
   </trkpt>
   <trkpt lat="59.1402340" lon="9.6355850">
    <ele>6.6</ele>
    <time>2026-01-08T11:53:12Z</time>
   </trkpt>
   <trkpt lat="59.1402410" lon="9.6356100">
    <ele>6.6</ele>
    <time>2026-01-08T11:53:13Z</time>
   </trkpt>
   <trkpt lat="59.1402550" lon="9.6356330">
    <ele>6.5</ele>
    <time>2026-01-08T11:53:14Z</time>
   </trkpt>
   <trkpt lat="59.1402570" lon="9.6356650">
    <ele>6.5</ele>
    <time>2026-01-08T11:53:15Z</time>
   </trkpt>
   <trkpt lat="59.1402580" lon="9.6356850">
    <ele>6.4</ele>
    <time>2026-01-08T11:53:16Z</time>
   </trkpt>
   <trkpt lat="59.1402600" lon="9.6357050">
    <ele>6.4</ele>
    <time>2026-01-08T11:53:17Z</time>
   </trkpt>
   <trkpt lat="59.1402740" lon="9.6357300">
    <ele>6.4</ele>
    <time>2026-01-08T11:53:18Z</time>
   </trkpt>
   <trkpt lat="59.1402800" lon="9.6357470">
    <ele>6.3</ele>
    <time>2026-01-08T11:53:19Z</time>
   </trkpt>
   <trkpt lat="59.1402930" lon="9.6357790">
    <ele>6.3</ele>
    <time>2026-01-08T11:53:20Z</time>
   </trkpt>
   <trkpt lat="59.1402900" lon="9.6358090">
    <ele>6.2</ele>
    <time>2026-01-08T11:53:21Z</time>
   </trkpt>
   <trkpt lat="59.1403080" lon="9.6358420">
    <ele>6.2</ele>
    <time>2026-01-08T11:53:22Z</time>
   </trkpt>
   <trkpt lat="59.1403130" lon="9.6358570">
    <ele>6.1</ele>
    <time>2026-01-08T11:53:23Z</time>
   </trkpt>
   <trkpt lat="59.1403190" lon="9.6358730">
    <ele>6.1</ele>
    <time>2026-01-08T11:53:24Z</time>
   </trkpt>
   <trkpt lat="59.1403340" lon="9.6359140">
    <ele>6.0</ele>
    <time>2026-01-08T11:53:25Z</time>
   </trkpt>
   <trkpt lat="59.1403420" lon="9.6359260">
    <ele>6.0</ele>
    <time>2026-01-08T11:53:26Z</time>
   </trkpt>
   <trkpt lat="59.1403490" lon="9.6359370">
    <ele>6.0</ele>
    <time>2026-01-08T11:53:27Z</time>
   </trkpt>
   <trkpt lat="59.1403570" lon="9.6359430">
    <ele>5.9</ele>
    <time>2026-01-08T11:53:28Z</time>
   </trkpt>
   <trkpt lat="59.1403670" lon="9.6359610">
    <ele>5.9</ele>
    <time>2026-01-08T11:53:29Z</time>
   </trkpt>
   <trkpt lat="59.1403730" lon="9.6359830">
    <ele>5.8</ele>
    <time>2026-01-08T11:53:30Z</time>
   </trkpt>
   <trkpt lat="59.1403900" lon="9.6360190">
    <ele>5.7</ele>
    <time>2026-01-08T11:53:31Z</time>
   </trkpt>
   <trkpt lat="59.1404000" lon="9.6360360">
    <ele>5.7</ele>
    <time>2026-01-08T11:53:32Z</time>
   </trkpt>
   <trkpt lat="59.1404090" lon="9.6360520">
    <ele>5.6</ele>
    <time>2026-01-08T11:53:33Z</time>
   </trkpt>
   <trkpt lat="59.1404130" lon="9.6360600">
    <ele>5.6</ele>
    <time>2026-01-08T11:53:34Z</time>
   </trkpt>
   <trkpt lat="59.1404230" lon="9.6360760">
    <ele>5.5</ele>
    <time>2026-01-08T11:53:35Z</time>
   </trkpt>
   <trkpt lat="59.1404310" lon="9.6360900">
    <ele>5.5</ele>
    <time>2026-01-08T11:53:36Z</time>
   </trkpt>
   <trkpt lat="59.1404430" lon="9.6361170">
    <ele>5.4</ele>
    <time>2026-01-08T11:53:37Z</time>
   </trkpt>
   <trkpt lat="59.1404530" lon="9.6361400">
    <ele>5.3</ele>
    <time>2026-01-08T11:53:38Z</time>
   </trkpt>
   <trkpt lat="59.1404590" lon="9.6361660">
    <ele>5.2</ele>
    <time>2026-01-08T11:53:39Z</time>
   </trkpt>
   <trkpt lat="59.1404670" lon="9.6361890">
    <ele>5.2</ele>
    <time>2026-01-08T11:53:40Z</time>
   </trkpt>
   <trkpt lat="59.1404740" lon="9.6362130">
    <ele>5.1</ele>
    <time>2026-01-08T11:53:41Z</time>
   </trkpt>
   <trkpt lat="59.1404800" lon="9.6362350">
    <ele>5.0</ele>
    <time>2026-01-08T11:53:42Z</time>
   </trkpt>
   <trkpt lat="59.1404860" lon="9.6362630">
    <ele>5.0</ele>
    <time>2026-01-08T11:53:43Z</time>
   </trkpt>
   <trkpt lat="59.1404960" lon="9.6362820">
    <ele>4.9</ele>
    <time>2026-01-08T11:53:44Z</time>
   </trkpt>
   <trkpt lat="59.1405050" lon="9.6363140">
    <ele>4.8</ele>
    <time>2026-01-08T11:53:45Z</time>
   </trkpt>
   <trkpt lat="59.1405090" lon="9.6363300">
    <ele>4.8</ele>
    <time>2026-01-08T11:53:46Z</time>
   </trkpt>
   <trkpt lat="59.1405210" lon="9.6363670">
    <ele>4.7</ele>
    <time>2026-01-08T11:53:47Z</time>
   </trkpt>
   <trkpt lat="59.1405270" lon="9.6363820">
    <ele>4.6</ele>
    <time>2026-01-08T11:53:48Z</time>
   </trkpt>
   <trkpt lat="59.1405340" lon="9.6363960">
    <ele>4.6</ele>
    <time>2026-01-08T11:53:49Z</time>
   </trkpt>
   <trkpt lat="59.1405490" lon="9.6364290">
    <ele>4.4</ele>
    <time>2026-01-08T11:53:50Z</time>
   </trkpt>
   <trkpt lat="59.1405540" lon="9.6364400">
    <ele>4.4</ele>
    <time>2026-01-08T11:53:51Z</time>
   </trkpt>
   <trkpt lat="59.1405590" lon="9.6364510">
    <ele>4.4</ele>
    <time>2026-01-08T11:53:52Z</time>
   </trkpt>
   <trkpt lat="59.1405600" lon="9.6364660">
    <ele>4.3</ele>
    <time>2026-01-08T11:53:53Z</time>
   </trkpt>
   <trkpt lat="59.1405750" lon="9.6364970">
    <ele>4.2</ele>
    <time>2026-01-08T11:53:54Z</time>
   </trkpt>
   <trkpt lat="59.1405780" lon="9.6364850">
    <ele>4.2</ele>
    <time>2026-01-08T11:53:55Z</time>
   </trkpt>
   <trkpt lat="59.1405810" lon="9.6365060">
    <ele>4.1</ele>
    <time>2026-01-08T11:53:56Z</time>
   </trkpt>
   <trkpt lat="59.1405850" lon="9.6365250">
    <ele>4.1</ele>
    <time>2026-01-08T11:53:57Z</time>
   </trkpt>
   <trkpt lat="59.1405940" lon="9.6365510">
    <ele>4.0</ele>
    <time>2026-01-08T11:53:58Z</time>
   </trkpt>
   <trkpt lat="59.1405980" lon="9.6365640">
    <ele>4.0</ele>
    <time>2026-01-08T11:53:59Z</time>
   </trkpt>
   <trkpt lat="59.1405980" lon="9.6365670">
    <ele>4.0</ele>
    <time>2026-01-08T11:54:00Z</time>
   </trkpt>
   <trkpt lat="59.1405990" lon="9.6365690">
    <ele>4.0</ele>
    <time>2026-01-08T11:54:01Z</time>
   </trkpt>
   <trkpt lat="59.1405990" lon="9.6365720">
    <ele>4.0</ele>
    <time>2026-01-08T11:54:02Z</time>
   </trkpt>
   <trkpt lat="59.1406000" lon="9.6365740">
    <ele>4.0</ele>
    <time>2026-01-08T11:54:03Z</time>
   </trkpt>
   <trkpt lat="59.1406000" lon="9.6365770">
    <ele>4.0</ele>
    <time>2026-01-08T11:54:04Z</time>
   </trkpt>
   <trkpt lat="59.1406010" lon="9.6365790">
    <ele>3.9</ele>
    <time>2026-01-08T11:54:05Z</time>
   </trkpt>
   <trkpt lat="59.1406010" lon="9.6365820">
    <ele>3.9</ele>
    <time>2026-01-08T11:54:06Z</time>
   </trkpt>
   <trkpt lat="59.1406020" lon="9.6365840">
    <ele>3.9</ele>
    <time>2026-01-08T11:54:07Z</time>
   </trkpt>
   <trkpt lat="59.1406020" lon="9.6365870">
    <ele>3.9</ele>
    <time>2026-01-08T11:54:08Z</time>
   </trkpt>
   <trkpt lat="59.1406030" lon="9.6365890">
    <ele>3.9</ele>
    <time>2026-01-08T11:54:09Z</time>
   </trkpt>
   <trkpt lat="59.1406030" lon="9.6365920">
    <ele>3.9</ele>
    <time>2026-01-08T11:54:10Z</time>
   </trkpt>
   <trkpt lat="59.1406040" lon="9.6365940">
    <ele>3.9</ele>
    <time>2026-01-08T11:54:11Z</time>
   </trkpt>
   <trkpt lat="59.1406050" lon="9.6365960">
    <ele>3.9</ele>
    <time>2026-01-08T11:54:12Z</time>
   </trkpt>
   <trkpt lat="59.1406050" lon="9.6365990">
    <ele>3.9</ele>
    <time>2026-01-08T11:54:13Z</time>
   </trkpt>
   <trkpt lat="59.1406060" lon="9.6366010">
    <ele>3.9</ele>
    <time>2026-01-08T11:54:14Z</time>
   </trkpt>
   <trkpt lat="59.1406060" lon="9.6366040">
    <ele>3.9</ele>
    <time>2026-01-08T11:54:15Z</time>
   </trkpt>
   <trkpt lat="59.1406070" lon="9.6366060">
    <ele>3.9</ele>
    <time>2026-01-08T11:54:16Z</time>
   </trkpt>
   <trkpt lat="59.1406070" lon="9.6366090">
    <ele>3.9</ele>
    <time>2026-01-08T11:54:17Z</time>
   </trkpt>
   <trkpt lat="59.1406080" lon="9.6366110">
    <ele>3.9</ele>
    <time>2026-01-08T11:54:18Z</time>
   </trkpt>
   <trkpt lat="59.1406080" lon="9.6366140">
    <ele>3.9</ele>
    <time>2026-01-08T11:54:19Z</time>
   </trkpt>
   <trkpt lat="59.1406090" lon="9.6366160">
    <ele>3.9</ele>
    <time>2026-01-08T11:54:20Z</time>
   </trkpt>
   <trkpt lat="59.1406090" lon="9.6366190">
    <ele>3.9</ele>
    <time>2026-01-08T11:54:21Z</time>
   </trkpt>
   <trkpt lat="59.1406100" lon="9.6366210">
    <ele>3.8</ele>
    <time>2026-01-08T11:54:22Z</time>
   </trkpt>
   <trkpt lat="59.1406100" lon="9.6366240">
    <ele>3.8</ele>
    <time>2026-01-08T11:54:23Z</time>
   </trkpt>
   <trkpt lat="59.1406110" lon="9.6366260">
    <ele>3.8</ele>
    <time>2026-01-08T11:54:24Z</time>
   </trkpt>
   <trkpt lat="59.1406180" lon="9.6366400">
    <ele>3.8</ele>
    <time>2026-01-08T11:54:25Z</time>
   </trkpt>
   <trkpt lat="59.1406310" lon="9.6366730">
    <ele>3.7</ele>
    <time>2026-01-08T11:54:26Z</time>
   </trkpt>
   <trkpt lat="59.1406450" lon="9.6367160">
    <ele>3.6</ele>
    <time>2026-01-08T11:54:27Z</time>
   </trkpt>
   <trkpt lat="59.1406500" lon="9.6367350">
    <ele>3.6</ele>
    <time>2026-01-08T11:54:28Z</time>
   </trkpt>
   <trkpt lat="59.1406560" lon="9.6367520">
    <ele>3.5</ele>
    <time>2026-01-08T11:54:29Z</time>
   </trkpt>
   <trkpt lat="59.1406600" lon="9.6367550">
    <ele>3.5</ele>
    <time>2026-01-08T11:54:30Z</time>
   </trkpt>
   <trkpt lat="59.1406640" lon="9.6367920">
    <ele>3.5</ele>
    <time>2026-01-08T11:54:31Z</time>
   </trkpt>
   <trkpt lat="59.1406780" lon="9.6368430">
    <ele>3.4</ele>
    <time>2026-01-08T11:54:32Z</time>
   </trkpt>
   <trkpt lat="59.1406820" lon="9.6368640">
    <ele>3.3</ele>
    <time>2026-01-08T11:54:33Z</time>
   </trkpt>
   <trkpt lat="59.1406910" lon="9.6369050">
    <ele>3.3</ele>
    <time>2026-01-08T11:54:34Z</time>
   </trkpt>
   <trkpt lat="59.1406960" lon="9.6369200">
    <ele>3.3</ele>
    <time>2026-01-08T11:54:35Z</time>
   </trkpt>
   <trkpt lat="59.1407120" lon="9.6369560">
    <ele>3.3</ele>
    <time>2026-01-08T11:54:36Z</time>
   </trkpt>
   <trkpt lat="59.1407180" lon="9.6369670">
    <ele>3.3</ele>
    <time>2026-01-08T11:54:37Z</time>
   </trkpt>
   <trkpt lat="59.1407240" lon="9.6369780">
    <ele>3.3</ele>
    <time>2026-01-08T11:54:38Z</time>
   </trkpt>
   <trkpt lat="59.1407370" lon="9.6370040">
    <ele>3.2</ele>
    <time>2026-01-08T11:54:39Z</time>
   </trkpt>
   <trkpt lat="59.1407420" lon="9.6370180">
    <ele>3.2</ele>
    <time>2026-01-08T11:54:40Z</time>
   </trkpt>
   <trkpt lat="59.1407470" lon="9.6370320">
    <ele>3.2</ele>
    <time>2026-01-08T11:54:41Z</time>
   </trkpt>
   <trkpt lat="59.1407610" lon="9.6370540">
    <ele>3.2</ele>
    <time>2026-01-08T11:54:42Z</time>
   </trkpt>
   <trkpt lat="59.1407690" lon="9.6370670">
    <ele>3.2</ele>
    <time>2026-01-08T11:54:43Z</time>
   </trkpt>
   <trkpt lat="59.1407800" lon="9.6370830">
    <ele>3.2</ele>
    <time>2026-01-08T11:54:44Z</time>
   </trkpt>
   <trkpt lat="59.1407970" lon="9.6371020">
    <ele>3.2</ele>
    <time>2026-01-08T11:54:45Z</time>
   </trkpt>
   <trkpt lat="59.1408050" lon="9.6371190">
    <ele>3.2</ele>
    <time>2026-01-08T11:54:46Z</time>
   </trkpt>
   <trkpt lat="59.1408200" lon="9.6371430">
    <ele>3.2</ele>
    <time>2026-01-08T11:54:47Z</time>
   </trkpt>
   <trkpt lat="59.1408290" lon="9.6371640">
    <ele>3.2</ele>
    <time>2026-01-08T11:54:48Z</time>
   </trkpt>
   <trkpt lat="59.1408340" lon="9.6371940">
    <ele>3.2</ele>
    <time>2026-01-08T11:54:49Z</time>
   </trkpt>
   <trkpt lat="59.1408420" lon="9.6372170">
    <ele>3.2</ele>
    <time>2026-01-08T11:54:50Z</time>
   </trkpt>
   <trkpt lat="59.1408530" lon="9.6372420">
    <ele>3.2</ele>
    <time>2026-01-08T11:54:51Z</time>
   </trkpt>
   <trkpt lat="59.1408650" lon="9.6372800">
    <ele>3.2</ele>
    <time>2026-01-08T11:54:52Z</time>
   </trkpt>
   <trkpt lat="59.1408720" lon="9.6372970">
    <ele>3.2</ele>
    <time>2026-01-08T11:54:53Z</time>
   </trkpt>
   <trkpt lat="59.1408780" lon="9.6373130">
    <ele>3.2</ele>
    <time>2026-01-08T11:54:54Z</time>
   </trkpt>
   <trkpt lat="59.1408850" lon="9.6373300">
    <ele>3.2</ele>
    <time>2026-01-08T11:54:55Z</time>
   </trkpt>
   <trkpt lat="59.1408930" lon="9.6373630">
    <ele>3.2</ele>
    <time>2026-01-08T11:54:56Z</time>
   </trkpt>
   <trkpt lat="59.1409000" lon="9.6373820">
    <ele>3.2</ele>
    <time>2026-01-08T11:54:57Z</time>
   </trkpt>
   <trkpt lat="59.1409090" lon="9.6374100">
    <ele>3.2</ele>
    <time>2026-01-08T11:54:58Z</time>
   </trkpt>
   <trkpt lat="59.1409190" lon="9.6374320">
    <ele>3.2</ele>
    <time>2026-01-08T11:54:59Z</time>
   </trkpt>
   <trkpt lat="59.1409280" lon="9.6374500">
    <ele>3.2</ele>
    <time>2026-01-08T11:55:00Z</time>
   </trkpt>
   <trkpt lat="59.1409400" lon="9.6374820">
    <ele>3.2</ele>
    <time>2026-01-08T11:55:01Z</time>
   </trkpt>
   <trkpt lat="59.1409450" lon="9.6375010">
    <ele>3.2</ele>
    <time>2026-01-08T11:55:02Z</time>
   </trkpt>
   <trkpt lat="59.1409600" lon="9.6375320">
    <ele>3.2</ele>
    <time>2026-01-08T11:55:03Z</time>
   </trkpt>
   <trkpt lat="59.1409680" lon="9.6375430">
    <ele>3.2</ele>
    <time>2026-01-08T11:55:04Z</time>
   </trkpt>
   <trkpt lat="59.1409830" lon="9.6375870">
    <ele>3.2</ele>
    <time>2026-01-08T11:55:05Z</time>
   </trkpt>
   <trkpt lat="59.1409860" lon="9.6375990">
    <ele>3.2</ele>
    <time>2026-01-08T11:55:06Z</time>
   </trkpt>
   <trkpt lat="59.1409940" lon="9.6376230">
    <ele>3.2</ele>
    <time>2026-01-08T11:55:07Z</time>
   </trkpt>
   <trkpt lat="59.1410010" lon="9.6376420">
    <ele>3.2</ele>
    <time>2026-01-08T11:55:08Z</time>
   </trkpt>
   <trkpt lat="59.1410100" lon="9.6376650">
    <ele>3.2</ele>
    <time>2026-01-08T11:55:09Z</time>
   </trkpt>
   <trkpt lat="59.1410200" lon="9.6376880">
    <ele>3.2</ele>
    <time>2026-01-08T11:55:10Z</time>
   </trkpt>
   <trkpt lat="59.1410280" lon="9.6377130">
    <ele>3.2</ele>
    <time>2026-01-08T11:55:11Z</time>
   </trkpt>
   <trkpt lat="59.1410380" lon="9.6377430">
    <ele>3.2</ele>
    <time>2026-01-08T11:55:12Z</time>
   </trkpt>
   <trkpt lat="59.1410430" lon="9.6377650">
    <ele>3.2</ele>
    <time>2026-01-08T11:55:13Z</time>
   </trkpt>
   <trkpt lat="59.1410520" lon="9.6377900">
    <ele>3.2</ele>
    <time>2026-01-08T11:55:14Z</time>
   </trkpt>
   <trkpt lat="59.1410620" lon="9.6378080">
    <ele>3.2</ele>
    <time>2026-01-08T11:55:15Z</time>
   </trkpt>
   <trkpt lat="59.1410710" lon="9.6378310">
    <ele>3.2</ele>
    <time>2026-01-08T11:55:16Z</time>
   </trkpt>
   <trkpt lat="59.1410850" lon="9.6378660">
    <ele>3.2</ele>
    <time>2026-01-08T11:55:17Z</time>
   </trkpt>
   <trkpt lat="59.1410910" lon="9.6378830">
    <ele>3.2</ele>
    <time>2026-01-08T11:55:18Z</time>
   </trkpt>
   <trkpt lat="59.1410980" lon="9.6379010">
    <ele>3.2</ele>
    <time>2026-01-08T11:55:19Z</time>
   </trkpt>
   <trkpt lat="59.1411020" lon="9.6379240">
    <ele>3.2</ele>
    <time>2026-01-08T11:55:20Z</time>
   </trkpt>
   <trkpt lat="59.1411200" lon="9.6379400">
    <ele>3.3</ele>
    <time>2026-01-08T11:55:21Z</time>
   </trkpt>
   <trkpt lat="59.1411300" lon="9.6379640">
    <ele>3.3</ele>
    <time>2026-01-08T11:55:22Z</time>
   </trkpt>
   <trkpt lat="59.1411360" lon="9.6379890">
    <ele>3.3</ele>
    <time>2026-01-08T11:55:23Z</time>
   </trkpt>
   <trkpt lat="59.1411470" lon="9.6380110">
    <ele>3.3</ele>
    <time>2026-01-08T11:55:24Z</time>
   </trkpt>
   <trkpt lat="59.1411550" lon="9.6380360">
    <ele>3.3</ele>
    <time>2026-01-08T11:55:25Z</time>
   </trkpt>
   <trkpt lat="59.1411610" lon="9.6380620">
    <ele>3.3</ele>
    <time>2026-01-08T11:55:26Z</time>
   </trkpt>
   <trkpt lat="59.1411650" lon="9.6380860">
    <ele>3.3</ele>
    <time>2026-01-08T11:55:27Z</time>
   </trkpt>
   <trkpt lat="59.1411740" lon="9.6381010">
    <ele>3.3</ele>
    <time>2026-01-08T11:55:28Z</time>
   </trkpt>
   <trkpt lat="59.1411800" lon="9.6381230">
    <ele>3.3</ele>
    <time>2026-01-08T11:55:29Z</time>
   </trkpt>
   <trkpt lat="59.1411880" lon="9.6381400">
    <ele>3.3</ele>
    <time>2026-01-08T11:55:30Z</time>
   </trkpt>
   <trkpt lat="59.1411960" lon="9.6381590">
    <ele>3.3</ele>
    <time>2026-01-08T11:55:31Z</time>
   </trkpt>
   <trkpt lat="59.1412010" lon="9.6381760">
    <ele>3.3</ele>
    <time>2026-01-08T11:55:32Z</time>
   </trkpt>
   <trkpt lat="59.1412050" lon="9.6381910">
    <ele>3.3</ele>
    <time>2026-01-08T11:55:33Z</time>
   </trkpt>
   <trkpt lat="59.1412110" lon="9.6382090">
    <ele>3.4</ele>
    <time>2026-01-08T11:55:34Z</time>
   </trkpt>
   <trkpt lat="59.1412170" lon="9.6382230">
    <ele>3.4</ele>
    <time>2026-01-08T11:55:35Z</time>
   </trkpt>
   <trkpt lat="59.1412200" lon="9.6382270">
    <ele>3.4</ele>
    <time>2026-01-08T11:55:36Z</time>
   </trkpt>
   <trkpt lat="59.1412210" lon="9.6382440">
    <ele>3.4</ele>
    <time>2026-01-08T11:55:37Z</time>
   </trkpt>
   <trkpt lat="59.1412240" lon="9.6382510">
    <ele>3.4</ele>
    <time>2026-01-08T11:55:38Z</time>
   </trkpt>
   <trkpt lat="59.1412240" lon="9.6382520">
    <ele>3.4</ele>
    <time>2026-01-08T11:55:39Z</time>
   </trkpt>
   <trkpt lat="59.1412250" lon="9.6382530">
    <ele>3.4</ele>
    <time>2026-01-08T11:55:40Z</time>
   </trkpt>
   <trkpt lat="59.1412250" lon="9.6382540">
    <ele>3.4</ele>
    <time>2026-01-08T11:55:41Z</time>
   </trkpt>
   <trkpt lat="59.1412250" lon="9.6382540">
    <ele>3.4</ele>
    <time>2026-01-08T11:55:42Z</time>
   </trkpt>
   <trkpt lat="59.1412250" lon="9.6382550">
    <ele>3.4</ele>
    <time>2026-01-08T11:55:43Z</time>
   </trkpt>
   <trkpt lat="59.1412250" lon="9.6382560">
    <ele>3.4</ele>
    <time>2026-01-08T11:55:44Z</time>
   </trkpt>
   <trkpt lat="59.1412250" lon="9.6382570">
    <ele>3.4</ele>
    <time>2026-01-08T11:55:45Z</time>
   </trkpt>
   <trkpt lat="59.1412260" lon="9.6382580">
    <ele>3.4</ele>
    <time>2026-01-08T11:55:46Z</time>
   </trkpt>
   <trkpt lat="59.1412260" lon="9.6382590">
    <ele>3.4</ele>
    <time>2026-01-08T11:55:47Z</time>
   </trkpt>
   <trkpt lat="59.1412260" lon="9.6382600">
    <ele>3.4</ele>
    <time>2026-01-08T11:55:48Z</time>
   </trkpt>
   <trkpt lat="59.1412260" lon="9.6382610">
    <ele>3.4</ele>
    <time>2026-01-08T11:55:49Z</time>
   </trkpt>
   <trkpt lat="59.1412260" lon="9.6382620">
    <ele>3.4</ele>
    <time>2026-01-08T11:55:50Z</time>
   </trkpt>
   <trkpt lat="59.1412260" lon="9.6382630">
    <ele>3.4</ele>
    <time>2026-01-08T11:55:51Z</time>
   </trkpt>
   <trkpt lat="59.1412270" lon="9.6382630">
    <ele>3.4</ele>
    <time>2026-01-08T11:55:52Z</time>
   </trkpt>
   <trkpt lat="59.1412270" lon="9.6382640">
    <ele>3.4</ele>
    <time>2026-01-08T11:55:53Z</time>
   </trkpt>
   <trkpt lat="59.1412270" lon="9.6382650">
    <ele>3.4</ele>
    <time>2026-01-08T11:55:54Z</time>
   </trkpt>
   <trkpt lat="59.1412270" lon="9.6382660">
    <ele>3.4</ele>
    <time>2026-01-08T11:55:55Z</time>
   </trkpt>
   <trkpt lat="59.1412270" lon="9.6382670">
    <ele>3.4</ele>
    <time>2026-01-08T11:55:56Z</time>
   </trkpt>
   <trkpt lat="59.1412270" lon="9.6382680">
    <ele>3.4</ele>
    <time>2026-01-08T11:55:57Z</time>
   </trkpt>
   <trkpt lat="59.1412280" lon="9.6382690">
    <ele>3.4</ele>
    <time>2026-01-08T11:55:58Z</time>
   </trkpt>
   <trkpt lat="59.1412280" lon="9.6382700">
    <ele>3.4</ele>
    <time>2026-01-08T11:55:59Z</time>
   </trkpt>
   <trkpt lat="59.1412280" lon="9.6382710">
    <ele>3.4</ele>
    <time>2026-01-08T11:56:00Z</time>
   </trkpt>
   <trkpt lat="59.1412280" lon="9.6382710">
    <ele>3.4</ele>
    <time>2026-01-08T11:56:01Z</time>
   </trkpt>
   <trkpt lat="59.1412280" lon="9.6382720">
    <ele>3.4</ele>
    <time>2026-01-08T11:56:02Z</time>
   </trkpt>
   <trkpt lat="59.1412280" lon="9.6382730">
    <ele>3.4</ele>
    <time>2026-01-08T11:56:03Z</time>
   </trkpt>
   <trkpt lat="59.1412290" lon="9.6382740">
    <ele>3.4</ele>
    <time>2026-01-08T11:56:04Z</time>
   </trkpt>
   <trkpt lat="59.1412290" lon="9.6382750">
    <ele>3.4</ele>
    <time>2026-01-08T11:56:05Z</time>
   </trkpt>
   <trkpt lat="59.1412290" lon="9.6382760">
    <ele>3.4</ele>
    <time>2026-01-08T11:56:06Z</time>
   </trkpt>
   <trkpt lat="59.1412290" lon="9.6382770">
    <ele>3.4</ele>
    <time>2026-01-08T11:56:07Z</time>
   </trkpt>
   <trkpt lat="59.1412290" lon="9.6382780">
    <ele>3.4</ele>
    <time>2026-01-08T11:56:08Z</time>
   </trkpt>
   <trkpt lat="59.1412290" lon="9.6382790">
    <ele>3.4</ele>
    <time>2026-01-08T11:56:09Z</time>
   </trkpt>
   <trkpt lat="59.1412300" lon="9.6382790">
    <ele>3.4</ele>
    <time>2026-01-08T11:56:10Z</time>
   </trkpt>
   <trkpt lat="59.1412300" lon="9.6382800">
    <ele>3.4</ele>
    <time>2026-01-08T11:56:11Z</time>
   </trkpt>
   <trkpt lat="59.1412300" lon="9.6382810">
    <ele>3.4</ele>
    <time>2026-01-08T11:56:12Z</time>
   </trkpt>
   <trkpt lat="59.1412300" lon="9.6382820">
    <ele>3.4</ele>
    <time>2026-01-08T11:56:13Z</time>
   </trkpt>
   <trkpt lat="59.1412300" lon="9.6382830">
    <ele>3.4</ele>
    <time>2026-01-08T11:56:14Z</time>
   </trkpt>
   <trkpt lat="59.1412300" lon="9.6382840">
    <ele>3.4</ele>
    <time>2026-01-08T11:56:15Z</time>
   </trkpt>
   <trkpt lat="59.1412310" lon="9.6382850">
    <ele>3.4</ele>
    <time>2026-01-08T11:56:16Z</time>
   </trkpt>
   <trkpt lat="59.1412310" lon="9.6382860">
    <ele>3.4</ele>
    <time>2026-01-08T11:56:17Z</time>
   </trkpt>
   <trkpt lat="59.1412310" lon="9.6382870">
    <ele>3.4</ele>
    <time>2026-01-08T11:56:18Z</time>
   </trkpt>
   <trkpt lat="59.1412310" lon="9.6382880">
    <ele>3.4</ele>
    <time>2026-01-08T11:56:19Z</time>
   </trkpt>
   <trkpt lat="59.1412310" lon="9.6382880">
    <ele>3.4</ele>
    <time>2026-01-08T11:56:20Z</time>
   </trkpt>
   <trkpt lat="59.1412310" lon="9.6382890">
    <ele>3.4</ele>
    <time>2026-01-08T11:56:21Z</time>
   </trkpt>
   <trkpt lat="59.1412320" lon="9.6382900">
    <ele>3.4</ele>
    <time>2026-01-08T11:56:22Z</time>
   </trkpt>
   <trkpt lat="59.1412320" lon="9.6382910">
    <ele>3.4</ele>
    <time>2026-01-08T11:56:23Z</time>
   </trkpt>
   <trkpt lat="59.1412320" lon="9.6382920">
    <ele>3.4</ele>
    <time>2026-01-08T11:56:24Z</time>
   </trkpt>
   <trkpt lat="59.1412320" lon="9.6382930">
    <ele>3.4</ele>
    <time>2026-01-08T11:56:25Z</time>
   </trkpt>
   <trkpt lat="59.1412320" lon="9.6382940">
    <ele>3.4</ele>
    <time>2026-01-08T11:56:26Z</time>
   </trkpt>
   <trkpt lat="59.1412320" lon="9.6382950">
    <ele>3.4</ele>
    <time>2026-01-08T11:56:27Z</time>
   </trkpt>
   <trkpt lat="59.1412330" lon="9.6382960">
    <ele>3.4</ele>
    <time>2026-01-08T11:56:28Z</time>
   </trkpt>
   <trkpt lat="59.1412330" lon="9.6382960">
    <ele>3.4</ele>
    <time>2026-01-08T11:56:29Z</time>
   </trkpt>
   <trkpt lat="59.1412330" lon="9.6382970">
    <ele>3.4</ele>
    <time>2026-01-08T11:56:30Z</time>
   </trkpt>
   <trkpt lat="59.1412330" lon="9.6382980">
    <ele>3.4</ele>
    <time>2026-01-08T11:56:31Z</time>
   </trkpt>
   <trkpt lat="59.1412330" lon="9.6382990">
    <ele>3.4</ele>
    <time>2026-01-08T11:56:32Z</time>
   </trkpt>
   <trkpt lat="59.1412330" lon="9.6383000">
    <ele>3.4</ele>
    <time>2026-01-08T11:56:33Z</time>
   </trkpt>
   <trkpt lat="59.1412340" lon="9.6383010">
    <ele>3.4</ele>
    <time>2026-01-08T11:56:34Z</time>
   </trkpt>
   <trkpt lat="59.1412340" lon="9.6383020">
    <ele>3.4</ele>
    <time>2026-01-08T11:56:35Z</time>
   </trkpt>
   <trkpt lat="59.1412340" lon="9.6383030">
    <ele>3.4</ele>
    <time>2026-01-08T11:56:36Z</time>
   </trkpt>
   <trkpt lat="59.1412340" lon="9.6383040">
    <ele>3.4</ele>
    <time>2026-01-08T11:56:37Z</time>
   </trkpt>
   <trkpt lat="59.1412340" lon="9.6383050">
    <ele>3.4</ele>
    <time>2026-01-08T11:56:38Z</time>
   </trkpt>
   <trkpt lat="59.1412340" lon="9.6383050">
    <ele>3.4</ele>
    <time>2026-01-08T11:56:39Z</time>
   </trkpt>
   <trkpt lat="59.1412350" lon="9.6383060">
    <ele>3.4</ele>
    <time>2026-01-08T11:56:40Z</time>
   </trkpt>
   <trkpt lat="59.1412350" lon="9.6383070">
    <ele>3.4</ele>
    <time>2026-01-08T11:56:41Z</time>
   </trkpt>
   <trkpt lat="59.1412350" lon="9.6383080">
    <ele>3.4</ele>
    <time>2026-01-08T11:56:42Z</time>
   </trkpt>
   <trkpt lat="59.1412350" lon="9.6383090">
    <ele>3.4</ele>
    <time>2026-01-08T11:56:43Z</time>
   </trkpt>
   <trkpt lat="59.1412350" lon="9.6383280">
    <ele>3.4</ele>
    <time>2026-01-08T11:56:44Z</time>
   </trkpt>
   <trkpt lat="59.1412400" lon="9.6383420">
    <ele>3.4</ele>
    <time>2026-01-08T11:56:45Z</time>
   </trkpt>
   <trkpt lat="59.1412460" lon="9.6383650">
    <ele>3.4</ele>
    <time>2026-01-08T11:56:46Z</time>
   </trkpt>
   <trkpt lat="59.1412540" lon="9.6383900">
    <ele>3.4</ele>
    <time>2026-01-08T11:56:47Z</time>
   </trkpt>
   <trkpt lat="59.1412610" lon="9.6384170">
    <ele>3.4</ele>
    <time>2026-01-08T11:56:48Z</time>
   </trkpt>
   <trkpt lat="59.1412680" lon="9.6384390">
    <ele>3.5</ele>
    <time>2026-01-08T11:56:49Z</time>
   </trkpt>
   <trkpt lat="59.1412710" lon="9.6384550">
    <ele>3.5</ele>
    <time>2026-01-08T11:56:50Z</time>
   </trkpt>
   <trkpt lat="59.1412780" lon="9.6384590">
    <ele>3.5</ele>
    <time>2026-01-08T11:56:51Z</time>
   </trkpt>
   <trkpt lat="59.1412920" lon="9.6384940">
    <ele>3.5</ele>
    <time>2026-01-08T11:56:52Z</time>
   </trkpt>
   <trkpt lat="59.1412970" lon="9.6385150">
    <ele>3.5</ele>
    <time>2026-01-08T11:56:53Z</time>
   </trkpt>
   <trkpt lat="59.1413040" lon="9.6385410">
    <ele>3.5</ele>
    <time>2026-01-08T11:56:54Z</time>
   </trkpt>
   <trkpt lat="59.1413110" lon="9.6385700">
    <ele>3.5</ele>
    <time>2026-01-08T11:56:55Z</time>
   </trkpt>
   <trkpt lat="59.1413190" lon="9.6385920">
    <ele>3.5</ele>
    <time>2026-01-08T11:56:57Z</time>
   </trkpt>
   <trkpt lat="59.1413260" lon="9.6386210">
    <ele>3.5</ele>
    <time>2026-01-08T11:56:58Z</time>
   </trkpt>
   <trkpt lat="59.1413370" lon="9.6386600">
    <ele>3.5</ele>
    <time>2026-01-08T11:56:59Z</time>
   </trkpt>
   <trkpt lat="59.1413410" lon="9.6386750">
    <ele>3.5</ele>
    <time>2026-01-08T11:57:00Z</time>
   </trkpt>
   <trkpt lat="59.1413440" lon="9.6386890">
    <ele>3.5</ele>
    <time>2026-01-08T11:57:01Z</time>
   </trkpt>
   <trkpt lat="59.1413490" lon="9.6387080">
    <ele>3.5</ele>
    <time>2026-01-08T11:57:02Z</time>
   </trkpt>
   <trkpt lat="59.1413540" lon="9.6387290">
    <ele>3.6</ele>
    <time>2026-01-08T11:57:03Z</time>
   </trkpt>
   <trkpt lat="59.1413590" lon="9.6387510">
    <ele>3.6</ele>
    <time>2026-01-08T11:57:04Z</time>
   </trkpt>
   <trkpt lat="59.1413690" lon="9.6387690">
    <ele>3.6</ele>
    <time>2026-01-08T11:57:05Z</time>
   </trkpt>
   <trkpt lat="59.1413790" lon="9.6387960">
    <ele>3.6</ele>
    <time>2026-01-08T11:57:06Z</time>
   </trkpt>
   <trkpt lat="59.1413880" lon="9.6388320">
    <ele>3.6</ele>
    <time>2026-01-08T11:57:07Z</time>
   </trkpt>
   <trkpt lat="59.1413930" lon="9.6388480">
    <ele>3.6</ele>
    <time>2026-01-08T11:57:08Z</time>
   </trkpt>
   <trkpt lat="59.1413970" lon="9.6388650">
    <ele>3.6</ele>
    <time>2026-01-08T11:57:09Z</time>
   </trkpt>
   <trkpt lat="59.1414020" lon="9.6388920">
    <ele>3.6</ele>
    <time>2026-01-08T11:57:10Z</time>
   </trkpt>
   <trkpt lat="59.1414050" lon="9.6389170">
    <ele>3.6</ele>
    <time>2026-01-08T11:57:11Z</time>
   </trkpt>
   <trkpt lat="59.1414110" lon="9.6389460">
    <ele>3.6</ele>
    <time>2026-01-08T11:57:12Z</time>
   </trkpt>
   <trkpt lat="59.1414180" lon="9.6389770">
    <ele>3.6</ele>
    <time>2026-01-08T11:57:13Z</time>
   </trkpt>
   <trkpt lat="59.1414220" lon="9.6390100">
    <ele>3.7</ele>
    <time>2026-01-08T11:57:14Z</time>
   </trkpt>
   <trkpt lat="59.1414290" lon="9.6390320">
    <ele>3.7</ele>
    <time>2026-01-08T11:57:15Z</time>
   </trkpt>
   <trkpt lat="59.1414340" lon="9.6390600">
    <ele>3.7</ele>
    <time>2026-01-08T11:57:16Z</time>
   </trkpt>
   <trkpt lat="59.1414410" lon="9.6390930">
    <ele>3.7</ele>
    <time>2026-01-08T11:57:17Z</time>
   </trkpt>
   <trkpt lat="59.1414530" lon="9.6391510">
    <ele>3.7</ele>
    <time>2026-01-08T11:57:18Z</time>
   </trkpt>
   <trkpt lat="59.1414580" lon="9.6391670">
    <ele>3.7</ele>
    <time>2026-01-08T11:57:19Z</time>
   </trkpt>
   <trkpt lat="59.1414600" lon="9.6392020">
    <ele>3.7</ele>
    <time>2026-01-08T11:57:20Z</time>
   </trkpt>
   <trkpt lat="59.1414690" lon="9.6392210">
    <ele>3.7</ele>
    <time>2026-01-08T11:57:21Z</time>
   </trkpt>
   <trkpt lat="59.1414760" lon="9.6392590">
    <ele>3.8</ele>
    <time>2026-01-08T11:57:22Z</time>
   </trkpt>
   <trkpt lat="59.1414820" lon="9.6392800">
    <ele>3.8</ele>
    <time>2026-01-08T11:57:23Z</time>
   </trkpt>
   <trkpt lat="59.1414890" lon="9.6393200">
    <ele>3.8</ele>
    <time>2026-01-08T11:57:24Z</time>
   </trkpt>
   <trkpt lat="59.1414950" lon="9.6393380">
    <ele>3.8</ele>
    <time>2026-01-08T11:57:25Z</time>
   </trkpt>
   <trkpt lat="59.1415020" lon="9.6393660">
    <ele>3.8</ele>
    <time>2026-01-08T11:57:26Z</time>
   </trkpt>
   <trkpt lat="59.1415020" lon="9.6393870">
    <ele>3.9</ele>
    <time>2026-01-08T11:57:27Z</time>
   </trkpt>
   <trkpt lat="59.1415070" lon="9.6394180">
    <ele>3.9</ele>
    <time>2026-01-08T11:57:28Z</time>
   </trkpt>
   <trkpt lat="59.1415130" lon="9.6394370">
    <ele>3.9</ele>
    <time>2026-01-08T11:57:29Z</time>
   </trkpt>
   <trkpt lat="59.1415160" lon="9.6394710">
    <ele>3.9</ele>
    <time>2026-01-08T11:57:30Z</time>
   </trkpt>
   <trkpt lat="59.1415170" lon="9.6394970">
    <ele>3.9</ele>
    <time>2026-01-08T11:57:31Z</time>
   </trkpt>
   <trkpt lat="59.1415240" lon="9.6395210">
    <ele>4.0</ele>
    <time>2026-01-08T11:57:32Z</time>
   </trkpt>
   <trkpt lat="59.1415280" lon="9.6395540">
    <ele>4.0</ele>
    <time>2026-01-08T11:57:33Z</time>
   </trkpt>
   <trkpt lat="59.1415280" lon="9.6395790">
    <ele>4.0</ele>
    <time>2026-01-08T11:57:34Z</time>
   </trkpt>
   <trkpt lat="59.1415340" lon="9.6395990">
    <ele>4.0</ele>
    <time>2026-01-08T11:57:35Z</time>
   </trkpt>
   <trkpt lat="59.1415430" lon="9.6396360">
    <ele>4.1</ele>
    <time>2026-01-08T11:57:36Z</time>
   </trkpt>
   <trkpt lat="59.1415460" lon="9.6396590">
    <ele>4.1</ele>
    <time>2026-01-08T11:57:37Z</time>
   </trkpt>
   <trkpt lat="59.1415490" lon="9.6397030">
    <ele>4.1</ele>
    <time>2026-01-08T11:57:38Z</time>
   </trkpt>
   <trkpt lat="59.1415450" lon="9.6397220">
    <ele>4.1</ele>
    <time>2026-01-08T11:57:39Z</time>
   </trkpt>
   <trkpt lat="59.1415400" lon="9.6397400">
    <ele>4.1</ele>
    <time>2026-01-08T11:57:40Z</time>
   </trkpt>
   <trkpt lat="59.1415360" lon="9.6397450">
    <ele>4.1</ele>
    <time>2026-01-08T11:57:41Z</time>
   </trkpt>
   <trkpt lat="59.1415320" lon="9.6397560">
    <ele>4.1</ele>
    <time>2026-01-08T11:57:42Z</time>
   </trkpt>
   <trkpt lat="59.1415310" lon="9.6397670">
    <ele>4.1</ele>
    <time>2026-01-08T11:57:43Z</time>
   </trkpt>
   <trkpt lat="59.1415320" lon="9.6397700">
    <ele>4.1</ele>
    <time>2026-01-08T11:57:44Z</time>
   </trkpt>
   <trkpt lat="59.1415320" lon="9.6397700">
    <ele>4.1</ele>
    <time>2026-01-08T11:57:45Z</time>
   </trkpt>
   <trkpt lat="59.1415300" lon="9.6397750">
    <ele>4.1</ele>
    <time>2026-01-08T11:57:46Z</time>
   </trkpt>
   <trkpt lat="59.1415300" lon="9.6397750">
    <ele>4.1</ele>
    <time>2026-01-08T11:57:47Z</time>
   </trkpt>
   <trkpt lat="59.1415300" lon="9.6397750">
    <ele>4.1</ele>
    <time>2026-01-08T11:57:48Z</time>
   </trkpt>
   <trkpt lat="59.1415300" lon="9.6397750">
    <ele>4.1</ele>
    <time>2026-01-08T11:57:49Z</time>
   </trkpt>
   <trkpt lat="59.1415300" lon="9.6397750">
    <ele>4.1</ele>
    <time>2026-01-08T11:57:50Z</time>
   </trkpt>
   <trkpt lat="59.1415300" lon="9.6397750">
    <ele>4.1</ele>
    <time>2026-01-08T11:57:51Z</time>
   </trkpt>
   <trkpt lat="59.1415310" lon="9.6398020">
    <ele>4.1</ele>
    <time>2026-01-08T11:57:52Z</time>
   </trkpt>
   <trkpt lat="59.1415320" lon="9.6397950">
    <ele>4.1</ele>
    <time>2026-01-08T11:57:53Z</time>
   </trkpt>
   <trkpt lat="59.1415330" lon="9.6397960">
    <ele>4.1</ele>
    <time>2026-01-08T11:57:54Z</time>
   </trkpt>
   <trkpt lat="59.1415350" lon="9.6397870">
    <ele>4.1</ele>
    <time>2026-01-08T11:57:55Z</time>
   </trkpt>
   <trkpt lat="59.1415360" lon="9.6397940">
    <ele>4.1</ele>
    <time>2026-01-08T11:57:56Z</time>
   </trkpt>
   <trkpt lat="59.1415360" lon="9.6397880">
    <ele>4.1</ele>
    <time>2026-01-08T11:57:57Z</time>
   </trkpt>
   <trkpt lat="59.1415350" lon="9.6397880">
    <ele>4.1</ele>
    <time>2026-01-08T11:57:58Z</time>
   </trkpt>
   <trkpt lat="59.1415340" lon="9.6397800">
    <ele>4.1</ele>
    <time>2026-01-08T11:57:59Z</time>
   </trkpt>
   <trkpt lat="59.1415340" lon="9.6397800">
    <ele>4.1</ele>
    <time>2026-01-08T11:58:00Z</time>
   </trkpt>
   <trkpt lat="59.1415320" lon="9.6397750">
    <ele>4.1</ele>
    <time>2026-01-08T11:58:01Z</time>
   </trkpt>
   <trkpt lat="59.1415310" lon="9.6397710">
    <ele>4.1</ele>
    <time>2026-01-08T11:58:02Z</time>
   </trkpt>
   <trkpt lat="59.1415310" lon="9.6397710">
    <ele>4.1</ele>
    <time>2026-01-08T11:58:03Z</time>
   </trkpt>
   <trkpt lat="59.1415270" lon="9.6397670">
    <ele>4.1</ele>
    <time>2026-01-08T11:58:04Z</time>
   </trkpt>
   <trkpt lat="59.1415290" lon="9.6397690">
    <ele>4.1</ele>
    <time>2026-01-08T11:58:05Z</time>
   </trkpt>
   <trkpt lat="59.1415280" lon="9.6397630">
    <ele>4.1</ele>
    <time>2026-01-08T11:58:06Z</time>
   </trkpt>
   <trkpt lat="59.1415250" lon="9.6397620">
    <ele>4.1</ele>
    <time>2026-01-08T11:58:07Z</time>
   </trkpt>
   <trkpt lat="59.1415250" lon="9.6397650">
    <ele>4.1</ele>
    <time>2026-01-08T11:58:08Z</time>
   </trkpt>
   <trkpt lat="59.1415250" lon="9.6397690">
    <ele>4.1</ele>
    <time>2026-01-08T11:58:09Z</time>
   </trkpt>
   <trkpt lat="59.1415260" lon="9.6397670">
    <ele>4.1</ele>
    <time>2026-01-08T11:58:10Z</time>
   </trkpt>
   <trkpt lat="59.1415260" lon="9.6397630">
    <ele>4.1</ele>
    <time>2026-01-08T11:58:11Z</time>
   </trkpt>
   <trkpt lat="59.1415230" lon="9.6397620">
    <ele>4.1</ele>
    <time>2026-01-08T11:58:12Z</time>
   </trkpt>
   <trkpt lat="59.1415260" lon="9.6397740">
    <ele>4.1</ele>
    <time>2026-01-08T11:58:13Z</time>
   </trkpt>
   <trkpt lat="59.1415270" lon="9.6397660">
    <ele>4.1</ele>
    <time>2026-01-08T11:58:14Z</time>
   </trkpt>
   <trkpt lat="59.1415300" lon="9.6397610">
    <ele>4.1</ele>
    <time>2026-01-08T11:58:15Z</time>
   </trkpt>
   <trkpt lat="59.1415280" lon="9.6397660">
    <ele>4.1</ele>
    <time>2026-01-08T11:58:16Z</time>
   </trkpt>
   <trkpt lat="59.1415240" lon="9.6397670">
    <ele>4.1</ele>
    <time>2026-01-08T11:58:17Z</time>
   </trkpt>
   <trkpt lat="59.1415230" lon="9.6397750">
    <ele>4.1</ele>
    <time>2026-01-08T11:58:18Z</time>
   </trkpt>
   <trkpt lat="59.1415250" lon="9.6397710">
    <ele>4.1</ele>
    <time>2026-01-08T11:58:19Z</time>
   </trkpt>
   <trkpt lat="59.1415240" lon="9.6397810">
    <ele>4.1</ele>
    <time>2026-01-08T11:58:20Z</time>
   </trkpt>
   <trkpt lat="59.1415280" lon="9.6397900">
    <ele>4.1</ele>
    <time>2026-01-08T11:58:21Z</time>
   </trkpt>
   <trkpt lat="59.1415300" lon="9.6397910">
    <ele>4.1</ele>
    <time>2026-01-08T11:58:22Z</time>
   </trkpt>
   <trkpt lat="59.1415300" lon="9.6397910">
    <ele>4.1</ele>
    <time>2026-01-08T11:58:23Z</time>
   </trkpt>
   <trkpt lat="59.1415250" lon="9.6397780">
    <ele>4.1</ele>
    <time>2026-01-08T11:58:24Z</time>
   </trkpt>
   <trkpt lat="59.1415260" lon="9.6397770">
    <ele>4.1</ele>
    <time>2026-01-08T11:58:25Z</time>
   </trkpt>
   <trkpt lat="59.1415260" lon="9.6397770">
    <ele>4.1</ele>
    <time>2026-01-08T11:58:26Z</time>
   </trkpt>
   <trkpt lat="59.1415160" lon="9.6397910">
    <ele>4.1</ele>
    <time>2026-01-08T11:58:27Z</time>
   </trkpt>
   <trkpt lat="59.1415190" lon="9.6398020">
    <ele>4.1</ele>
    <time>2026-01-08T11:58:28Z</time>
   </trkpt>
   <trkpt lat="59.1415210" lon="9.6398060">
    <ele>4.2</ele>
    <time>2026-01-08T11:58:29Z</time>
   </trkpt>
   <trkpt lat="59.1415220" lon="9.6398190">
    <ele>4.2</ele>
    <time>2026-01-08T11:58:30Z</time>
   </trkpt>
   <trkpt lat="59.1415260" lon="9.6398290">
    <ele>4.2</ele>
    <time>2026-01-08T11:58:31Z</time>
   </trkpt>
   <trkpt lat="59.1415330" lon="9.6398250">
    <ele>4.2</ele>
    <time>2026-01-08T11:58:32Z</time>
   </trkpt>
   <trkpt lat="59.1415270" lon="9.6398630">
    <ele>4.2</ele>
    <time>2026-01-08T11:58:33Z</time>
   </trkpt>
   <trkpt lat="59.1415310" lon="9.6398780">
    <ele>4.2</ele>
    <time>2026-01-08T11:58:34Z</time>
   </trkpt>
   <trkpt lat="59.1415300" lon="9.6399040">
    <ele>4.2</ele>
    <time>2026-01-08T11:58:35Z</time>
   </trkpt>
   <trkpt lat="59.1415280" lon="9.6399160">
    <ele>4.3</ele>
    <time>2026-01-08T11:58:36Z</time>
   </trkpt>
   <trkpt lat="59.1415280" lon="9.6399430">
    <ele>4.3</ele>
    <time>2026-01-08T11:58:37Z</time>
   </trkpt>
   <trkpt lat="59.1415270" lon="9.6399490">
    <ele>4.3</ele>
    <time>2026-01-08T11:58:38Z</time>
   </trkpt>
   <trkpt lat="59.1415270" lon="9.6399690">
    <ele>4.3</ele>
    <time>2026-01-08T11:58:39Z</time>
   </trkpt>
   <trkpt lat="59.1415260" lon="9.6399750">
    <ele>4.3</ele>
    <time>2026-01-08T11:58:40Z</time>
   </trkpt>
   <trkpt lat="59.1415270" lon="9.6399790">
    <ele>4.3</ele>
    <time>2026-01-08T11:58:41Z</time>
   </trkpt>
   <trkpt lat="59.1415270" lon="9.6399820">
    <ele>4.3</ele>
    <time>2026-01-08T11:58:42Z</time>
   </trkpt>
   <trkpt lat="59.1415280" lon="9.6399850">
    <ele>4.3</ele>
    <time>2026-01-08T11:58:43Z</time>
   </trkpt>
   <trkpt lat="59.1415290" lon="9.6399890">
    <ele>4.3</ele>
    <time>2026-01-08T11:58:44Z</time>
   </trkpt>
   <trkpt lat="59.1415300" lon="9.6399920">
    <ele>4.3</ele>
    <time>2026-01-08T11:58:45Z</time>
   </trkpt>
   <trkpt lat="59.1415310" lon="9.6399960">
    <ele>4.3</ele>
    <time>2026-01-08T11:58:46Z</time>
   </trkpt>
   <trkpt lat="59.1415310" lon="9.6399990">
    <ele>4.3</ele>
    <time>2026-01-08T11:58:47Z</time>
   </trkpt>
   <trkpt lat="59.1415320" lon="9.6400020">
    <ele>4.3</ele>
    <time>2026-01-08T11:58:48Z</time>
   </trkpt>
   <trkpt lat="59.1415330" lon="9.6400060">
    <ele>4.3</ele>
    <time>2026-01-08T11:58:49Z</time>
   </trkpt>
   <trkpt lat="59.1415340" lon="9.6400090">
    <ele>4.3</ele>
    <time>2026-01-08T11:58:50Z</time>
   </trkpt>
   <trkpt lat="59.1415340" lon="9.6400120">
    <ele>4.3</ele>
    <time>2026-01-08T11:58:51Z</time>
   </trkpt>
   <trkpt lat="59.1415350" lon="9.6400160">
    <ele>4.3</ele>
    <time>2026-01-08T11:58:52Z</time>
   </trkpt>
   <trkpt lat="59.1415360" lon="9.6400190">
    <ele>4.3</ele>
    <time>2026-01-08T11:58:53Z</time>
   </trkpt>
   <trkpt lat="59.1415370" lon="9.6400230">
    <ele>4.3</ele>
    <time>2026-01-08T11:58:54Z</time>
   </trkpt>
   <trkpt lat="59.1415380" lon="9.6400260">
    <ele>4.3</ele>
    <time>2026-01-08T11:58:55Z</time>
   </trkpt>
   <trkpt lat="59.1415380" lon="9.6400290">
    <ele>4.3</ele>
    <time>2026-01-08T11:58:56Z</time>
   </trkpt>
   <trkpt lat="59.1415390" lon="9.6400330">
    <ele>4.3</ele>
    <time>2026-01-08T11:58:57Z</time>
   </trkpt>
   <trkpt lat="59.1415400" lon="9.6400360">
    <ele>4.4</ele>
    <time>2026-01-08T11:58:58Z</time>
   </trkpt>
   <trkpt lat="59.1415330" lon="9.6400710">
    <ele>4.4</ele>
    <time>2026-01-08T11:58:59Z</time>
   </trkpt>
   <trkpt lat="59.1415230" lon="9.6400820">
    <ele>4.4</ele>
    <time>2026-01-08T11:59:00Z</time>
   </trkpt>
   <trkpt lat="59.1415130" lon="9.6400940">
    <ele>4.4</ele>
    <time>2026-01-08T11:59:01Z</time>
   </trkpt>
   <trkpt lat="59.1414830" lon="9.6401310">
    <ele>4.4</ele>
    <time>2026-01-08T11:59:02Z</time>
   </trkpt>
   <trkpt lat="59.1414490" lon="9.6401550">
    <ele>4.4</ele>
    <time>2026-01-08T11:59:03Z</time>
   </trkpt>
   <trkpt lat="59.1414150" lon="9.6401920">
    <ele>4.4</ele>
    <time>2026-01-08T11:59:04Z</time>
   </trkpt>
   <trkpt lat="59.1414030" lon="9.6402030">
    <ele>4.4</ele>
    <time>2026-01-08T11:59:05Z</time>
   </trkpt>
   <trkpt lat="59.1413770" lon="9.6402300">
    <ele>4.4</ele>
    <time>2026-01-08T11:59:06Z</time>
   </trkpt>
   <trkpt lat="59.1413550" lon="9.6402800">
    <ele>4.5</ele>
    <time>2026-01-08T11:59:07Z</time>
   </trkpt>
   <trkpt lat="59.1413440" lon="9.6402960">
    <ele>4.5</ele>
    <time>2026-01-08T11:59:08Z</time>
   </trkpt>
   <trkpt lat="59.1413300" lon="9.6403500">
    <ele>4.5</ele>
    <time>2026-01-08T11:59:09Z</time>
   </trkpt>
   <trkpt lat="59.1413180" lon="9.6403530">
    <ele>4.5</ele>
    <time>2026-01-08T11:59:10Z</time>
   </trkpt>
   <trkpt lat="59.1413050" lon="9.6403780">
    <ele>4.5</ele>
    <time>2026-01-08T11:59:11Z</time>
   </trkpt>
   <trkpt lat="59.1413010" lon="9.6403910">
    <ele>4.5</ele>
    <time>2026-01-08T11:59:12Z</time>
   </trkpt>
   <trkpt lat="59.1413190" lon="9.6403610">
    <ele>4.5</ele>
    <time>2026-01-08T11:59:13Z</time>
   </trkpt>
   <trkpt lat="59.1413230" lon="9.6403370">
    <ele>4.5</ele>
    <time>2026-01-08T11:59:14Z</time>
   </trkpt>
   <trkpt lat="59.1413210" lon="9.6403430">
    <ele>4.5</ele>
    <time>2026-01-08T11:59:15Z</time>
   </trkpt>
   <trkpt lat="59.1413210" lon="9.6403310">
    <ele>4.5</ele>
    <time>2026-01-08T11:59:16Z</time>
   </trkpt>
   <trkpt lat="59.1413140" lon="9.6403260">
    <ele>4.5</ele>
    <time>2026-01-08T11:59:17Z</time>
   </trkpt>
   <trkpt lat="59.1413050" lon="9.6403360">
    <ele>4.5</ele>
    <time>2026-01-08T11:59:18Z</time>
   </trkpt>
   <trkpt lat="59.1412990" lon="9.6403380">
    <ele>4.5</ele>
    <time>2026-01-08T11:59:19Z</time>
   </trkpt>
   <trkpt lat="59.1412920" lon="9.6403360">
    <ele>4.5</ele>
    <time>2026-01-08T11:59:20Z</time>
   </trkpt>
   <trkpt lat="59.1412880" lon="9.6403390">
    <ele>4.5</ele>
    <time>2026-01-08T11:59:21Z</time>
   </trkpt>
   <trkpt lat="59.1412850" lon="9.6403410">
    <ele>4.5</ele>
    <time>2026-01-08T11:59:22Z</time>
   </trkpt>
   <trkpt lat="59.1412830" lon="9.6403430">
    <ele>4.5</ele>
    <time>2026-01-08T11:59:23Z</time>
   </trkpt>
   <trkpt lat="59.1412800" lon="9.6403450">
    <ele>4.5</ele>
    <time>2026-01-08T11:59:24Z</time>
   </trkpt>
   <trkpt lat="59.1412780" lon="9.6403470">
    <ele>4.5</ele>
    <time>2026-01-08T11:59:25Z</time>
   </trkpt>
   <trkpt lat="59.1412760" lon="9.6403490">
    <ele>4.5</ele>
    <time>2026-01-08T11:59:26Z</time>
   </trkpt>
   <trkpt lat="59.1412730" lon="9.6403510">
    <ele>4.5</ele>
    <time>2026-01-08T11:59:27Z</time>
   </trkpt>
   <trkpt lat="59.1412710" lon="9.6403540">
    <ele>4.5</ele>
    <time>2026-01-08T11:59:28Z</time>
   </trkpt>
   <trkpt lat="59.1412680" lon="9.6403560">
    <ele>4.5</ele>
    <time>2026-01-08T11:59:29Z</time>
   </trkpt>
   <trkpt lat="59.1412660" lon="9.6403580">
    <ele>4.5</ele>
    <time>2026-01-08T11:59:30Z</time>
   </trkpt>
   <trkpt lat="59.1412640" lon="9.6403600">
    <ele>4.5</ele>
    <time>2026-01-08T11:59:31Z</time>
   </trkpt>
   <trkpt lat="59.1412610" lon="9.6403620">
    <ele>4.5</ele>
    <time>2026-01-08T11:59:32Z</time>
   </trkpt>
   <trkpt lat="59.1412590" lon="9.6403640">
    <ele>4.5</ele>
    <time>2026-01-08T11:59:33Z</time>
   </trkpt>
   <trkpt lat="59.1412560" lon="9.6403660">
    <ele>4.5</ele>
    <time>2026-01-08T11:59:34Z</time>
   </trkpt>
   <trkpt lat="59.1412540" lon="9.6403680">
    <ele>4.5</ele>
    <time>2026-01-08T11:59:35Z</time>
   </trkpt>
   <trkpt lat="59.1412430" lon="9.6403810">
    <ele>4.5</ele>
    <time>2026-01-08T11:59:36Z</time>
   </trkpt>
   <trkpt lat="59.1412400" lon="9.6403930">
    <ele>4.5</ele>
    <time>2026-01-08T11:59:37Z</time>
   </trkpt>
   <trkpt lat="59.1412270" lon="9.6403880">
    <ele>4.5</ele>
    <time>2026-01-08T11:59:38Z</time>
   </trkpt>
   <trkpt lat="59.1412000" lon="9.6404240">
    <ele>4.5</ele>
    <time>2026-01-08T11:59:39Z</time>
   </trkpt>
   <trkpt lat="59.1411940" lon="9.6404310">
    <ele>4.5</ele>
    <time>2026-01-08T11:59:40Z</time>
   </trkpt>
   <trkpt lat="59.1411690" lon="9.6404520">
    <ele>4.5</ele>
    <time>2026-01-08T11:59:41Z</time>
   </trkpt>
   <trkpt lat="59.1411580" lon="9.6404620">
    <ele>4.5</ele>
    <time>2026-01-08T11:59:42Z</time>
   </trkpt>
   <trkpt lat="59.1411500" lon="9.6404790">
    <ele>4.5</ele>
    <time>2026-01-08T11:59:43Z</time>
   </trkpt>
   <trkpt lat="59.1411350" lon="9.6404920">
    <ele>4.5</ele>
    <time>2026-01-08T11:59:44Z</time>
   </trkpt>
   <trkpt lat="59.1411150" lon="9.6405140">
    <ele>4.6</ele>
    <time>2026-01-08T11:59:45Z</time>
   </trkpt>
   <trkpt lat="59.1411030" lon="9.6405240">
    <ele>4.6</ele>
    <time>2026-01-08T11:59:46Z</time>
   </trkpt>
   <trkpt lat="59.1410920" lon="9.6405340">
    <ele>4.6</ele>
    <time>2026-01-08T11:59:47Z</time>
   </trkpt>
   <trkpt lat="59.1410740" lon="9.6405480">
    <ele>4.6</ele>
    <time>2026-01-08T11:59:48Z</time>
   </trkpt>
   <trkpt lat="59.1410680" lon="9.6405600">
    <ele>4.6</ele>
    <time>2026-01-08T11:59:49Z</time>
   </trkpt>
   <trkpt lat="59.1410490" lon="9.6405790">
    <ele>4.6</ele>
    <time>2026-01-08T11:59:50Z</time>
   </trkpt>
   <trkpt lat="59.1410390" lon="9.6405880">
    <ele>4.6</ele>
    <time>2026-01-08T11:59:51Z</time>
   </trkpt>
   <trkpt lat="59.1410240" lon="9.6406050">
    <ele>4.6</ele>
    <time>2026-01-08T11:59:52Z</time>
   </trkpt>
   <trkpt lat="59.1410100" lon="9.6406160">
    <ele>4.6</ele>
    <time>2026-01-08T11:59:53Z</time>
   </trkpt>
   <trkpt lat="59.1410000" lon="9.6406270">
    <ele>4.6</ele>
    <time>2026-01-08T11:59:54Z</time>
   </trkpt>
   <trkpt lat="59.1409940" lon="9.6406410">
    <ele>4.6</ele>
    <time>2026-01-08T11:59:55Z</time>
   </trkpt>
   <trkpt lat="59.1409850" lon="9.6406470">
    <ele>4.6</ele>
    <time>2026-01-08T11:59:56Z</time>
   </trkpt>
   <trkpt lat="59.1409720" lon="9.6406580">
    <ele>4.7</ele>
    <time>2026-01-08T11:59:57Z</time>
   </trkpt>
   <trkpt lat="59.1409600" lon="9.6406680">
    <ele>4.7</ele>
    <time>2026-01-08T11:59:58Z</time>
   </trkpt>
   <trkpt lat="59.1409460" lon="9.6406720">
    <ele>4.7</ele>
    <time>2026-01-08T11:59:59Z</time>
   </trkpt>
   <trkpt lat="59.1409330" lon="9.6406820">
    <ele>4.7</ele>
    <time>2026-01-08T12:00:00Z</time>
   </trkpt>
   <trkpt lat="59.1409260" lon="9.6406890">
    <ele>4.7</ele>
    <time>2026-01-08T12:00:01Z</time>
   </trkpt>
   <trkpt lat="59.1409290" lon="9.6406820">
    <ele>4.7</ele>
    <time>2026-01-08T12:00:02Z</time>
   </trkpt>
   <trkpt lat="59.1409310" lon="9.6406800">
    <ele>4.7</ele>
    <time>2026-01-08T12:00:03Z</time>
   </trkpt>
   <trkpt lat="59.1409330" lon="9.6406870">
    <ele>4.7</ele>
    <time>2026-01-08T12:00:04Z</time>
   </trkpt>
   <trkpt lat="59.1409290" lon="9.6406900">
    <ele>4.7</ele>
    <time>2026-01-08T12:00:05Z</time>
   </trkpt>
   <trkpt lat="59.1409270" lon="9.6406930">
    <ele>4.7</ele>
    <time>2026-01-08T12:00:06Z</time>
   </trkpt>
   <trkpt lat="59.1409270" lon="9.6406930">
    <ele>4.7</ele>
    <time>2026-01-08T12:00:07Z</time>
   </trkpt>
   <trkpt lat="59.1409180" lon="9.6406790">
    <ele>4.8</ele>
    <time>2026-01-08T12:00:08Z</time>
   </trkpt>
   <trkpt lat="59.1409210" lon="9.6407010">
    <ele>4.8</ele>
    <time>2026-01-08T12:00:09Z</time>
   </trkpt>
   <trkpt lat="59.1409210" lon="9.6407040">
    <ele>4.8</ele>
    <time>2026-01-08T12:00:10Z</time>
   </trkpt>
   <trkpt lat="59.1409180" lon="9.6406950">
    <ele>4.8</ele>
    <time>2026-01-08T12:00:11Z</time>
   </trkpt>
   <trkpt lat="59.1409100" lon="9.6406860">
    <ele>4.8</ele>
    <time>2026-01-08T12:00:12Z</time>
   </trkpt>
   <trkpt lat="59.1409110" lon="9.6406950">
    <ele>4.8</ele>
    <time>2026-01-08T12:00:13Z</time>
   </trkpt>
   <trkpt lat="59.1409050" lon="9.6407090">
    <ele>4.8</ele>
    <time>2026-01-08T12:00:14Z</time>
   </trkpt>
   <trkpt lat="59.1409090" lon="9.6407180">
    <ele>4.8</ele>
    <time>2026-01-08T12:00:15Z</time>
   </trkpt>
   <trkpt lat="59.1409150" lon="9.6407520">
    <ele>4.9</ele>
    <time>2026-01-08T12:00:16Z</time>
   </trkpt>
   <trkpt lat="59.1409170" lon="9.6407480">
    <ele>4.9</ele>
    <time>2026-01-08T12:00:17Z</time>
   </trkpt>
   <trkpt lat="59.1409170" lon="9.6407480">
    <ele>4.9</ele>
    <time>2026-01-08T12:00:18Z</time>
   </trkpt>
   <trkpt lat="59.1409170" lon="9.6407480">
    <ele>4.9</ele>
    <time>2026-01-08T12:00:19Z</time>
   </trkpt>
   <trkpt lat="59.1409170" lon="9.6407480">
    <ele>4.9</ele>
    <time>2026-01-08T12:00:20Z</time>
   </trkpt>
   <trkpt lat="59.1409190" lon="9.6407300">
    <ele>4.9</ele>
    <time>2026-01-08T12:00:21Z</time>
   </trkpt>
   <trkpt lat="59.1409190" lon="9.6407300">
    <ele>4.9</ele>
    <time>2026-01-08T12:00:22Z</time>
   </trkpt>
   <trkpt lat="59.1409150" lon="9.6407280">
    <ele>4.9</ele>
    <time>2026-01-08T12:00:23Z</time>
   </trkpt>
   <trkpt lat="59.1409030" lon="9.6407310">
    <ele>4.9</ele>
    <time>2026-01-08T12:00:24Z</time>
   </trkpt>
   <trkpt lat="59.1408890" lon="9.6407390">
    <ele>5.0</ele>
    <time>2026-01-08T12:00:25Z</time>
   </trkpt>
   <trkpt lat="59.1408850" lon="9.6407450">
    <ele>5.0</ele>
    <time>2026-01-08T12:00:26Z</time>
   </trkpt>
   <trkpt lat="59.1408680" lon="9.6407620">
    <ele>5.0</ele>
    <time>2026-01-08T12:00:27Z</time>
   </trkpt>
   <trkpt lat="59.1408530" lon="9.6407700">
    <ele>5.1</ele>
    <time>2026-01-08T12:00:28Z</time>
   </trkpt>
   <trkpt lat="59.1408320" lon="9.6407870">
    <ele>5.1</ele>
    <time>2026-01-08T12:00:29Z</time>
   </trkpt>
   <trkpt lat="59.1408220" lon="9.6407880">
    <ele>5.1</ele>
    <time>2026-01-08T12:00:30Z</time>
   </trkpt>
   <trkpt lat="59.1408060" lon="9.6407980">
    <ele>5.2</ele>
    <time>2026-01-08T12:00:31Z</time>
   </trkpt>
   <trkpt lat="59.1408000" lon="9.6408040">
    <ele>5.2</ele>
    <time>2026-01-08T12:00:32Z</time>
   </trkpt>
   <trkpt lat="59.1407930" lon="9.6408090">
    <ele>5.2</ele>
    <time>2026-01-08T12:00:33Z</time>
   </trkpt>
   <trkpt lat="59.1407860" lon="9.6408140">
    <ele>5.3</ele>
    <time>2026-01-08T12:00:34Z</time>
   </trkpt>
   <trkpt lat="59.1407590" lon="9.6408420">
    <ele>5.4</ele>
    <time>2026-01-08T12:00:35Z</time>
   </trkpt>
   <trkpt lat="59.1407540" lon="9.6408480">
    <ele>5.4</ele>
    <time>2026-01-08T12:00:36Z</time>
   </trkpt>
   <trkpt lat="59.1407340" lon="9.6408710">
    <ele>5.5</ele>
    <time>2026-01-08T12:00:37Z</time>
   </trkpt>
   <trkpt lat="59.1407260" lon="9.6408770">
    <ele>5.5</ele>
    <time>2026-01-08T12:00:38Z</time>
   </trkpt>
   <trkpt lat="59.1407170" lon="9.6408820">
    <ele>5.5</ele>
    <time>2026-01-08T12:00:39Z</time>
   </trkpt>
   <trkpt lat="59.1407030" lon="9.6409050">
    <ele>5.6</ele>
    <time>2026-01-08T12:00:40Z</time>
   </trkpt>
   <trkpt lat="59.1406950" lon="9.6409150">
    <ele>5.6</ele>
    <time>2026-01-08T12:00:41Z</time>
   </trkpt>
   <trkpt lat="59.1406790" lon="9.6409320">
    <ele>5.7</ele>
    <time>2026-01-08T12:00:42Z</time>
   </trkpt>
   <trkpt lat="59.1406640" lon="9.6409440">
    <ele>5.8</ele>
    <time>2026-01-08T12:00:43Z</time>
   </trkpt>
   <trkpt lat="59.1406510" lon="9.6409500">
    <ele>5.8</ele>
    <time>2026-01-08T12:00:44Z</time>
   </trkpt>
   <trkpt lat="59.1406430" lon="9.6409590">
    <ele>5.9</ele>
    <time>2026-01-08T12:00:45Z</time>
   </trkpt>
   <trkpt lat="59.1406320" lon="9.6409690">
    <ele>5.9</ele>
    <time>2026-01-08T12:00:46Z</time>
   </trkpt>
   <trkpt lat="59.1406140" lon="9.6409840">
    <ele>6.0</ele>
    <time>2026-01-08T12:00:47Z</time>
   </trkpt>
   <trkpt lat="59.1406060" lon="9.6409920">
    <ele>6.0</ele>
    <time>2026-01-08T12:00:48Z</time>
   </trkpt>
   <trkpt lat="59.1405980" lon="9.6410000">
    <ele>6.1</ele>
    <time>2026-01-08T12:00:49Z</time>
   </trkpt>
   <trkpt lat="59.1405910" lon="9.6410100">
    <ele>6.1</ele>
    <time>2026-01-08T12:00:50Z</time>
   </trkpt>
   <trkpt lat="59.1405740" lon="9.6410200">
    <ele>6.2</ele>
    <time>2026-01-08T12:00:51Z</time>
   </trkpt>
   <trkpt lat="59.1405660" lon="9.6410230">
    <ele>6.2</ele>
    <time>2026-01-08T12:00:52Z</time>
   </trkpt>
   <trkpt lat="59.1405500" lon="9.6410350">
    <ele>6.3</ele>
    <time>2026-01-08T12:00:53Z</time>
   </trkpt>
   <trkpt lat="59.1405370" lon="9.6410490">
    <ele>6.4</ele>
    <time>2026-01-08T12:00:54Z</time>
   </trkpt>
   <trkpt lat="59.1405240" lon="9.6410630">
    <ele>6.4</ele>
    <time>2026-01-08T12:00:55Z</time>
   </trkpt>
   <trkpt lat="59.1405170" lon="9.6410680">
    <ele>6.5</ele>
    <time>2026-01-08T12:00:56Z</time>
   </trkpt>
   <trkpt lat="59.1405100" lon="9.6410720">
    <ele>6.5</ele>
    <time>2026-01-08T12:00:57Z</time>
   </trkpt>
   <trkpt lat="59.1404970" lon="9.6410860">
    <ele>6.6</ele>
    <time>2026-01-08T12:00:58Z</time>
   </trkpt>
   <trkpt lat="59.1404830" lon="9.6410950">
    <ele>6.7</ele>
    <time>2026-01-08T12:00:59Z</time>
   </trkpt>
   <trkpt lat="59.1404680" lon="9.6411150">
    <ele>6.7</ele>
    <time>2026-01-08T12:01:00Z</time>
   </trkpt>
   <trkpt lat="59.1404600" lon="9.6411260">
    <ele>6.8</ele>
    <time>2026-01-08T12:01:01Z</time>
   </trkpt>
   <trkpt lat="59.1404520" lon="9.6411360">
    <ele>6.9</ele>
    <time>2026-01-08T12:01:02Z</time>
   </trkpt>
   <trkpt lat="59.1404340" lon="9.6411490">
    <ele>7.0</ele>
    <time>2026-01-08T12:01:03Z</time>
   </trkpt>
   <trkpt lat="59.1404220" lon="9.6411590">
    <ele>7.0</ele>
    <time>2026-01-08T12:01:04Z</time>
   </trkpt>
   <trkpt lat="59.1404130" lon="9.6411710">
    <ele>7.1</ele>
    <time>2026-01-08T12:01:05Z</time>
   </trkpt>
   <trkpt lat="59.1403970" lon="9.6411850">
    <ele>7.2</ele>
    <time>2026-01-08T12:01:06Z</time>
   </trkpt>
   <trkpt lat="59.1403740" lon="9.6412050">
    <ele>7.3</ele>
    <time>2026-01-08T12:01:07Z</time>
   </trkpt>
   <trkpt lat="59.1403650" lon="9.6412130">
    <ele>7.4</ele>
    <time>2026-01-08T12:01:08Z</time>
   </trkpt>
   <trkpt lat="59.1403510" lon="9.6412300">
    <ele>7.5</ele>
    <time>2026-01-08T12:01:09Z</time>
   </trkpt>
   <trkpt lat="59.1403390" lon="9.6412420">
    <ele>7.5</ele>
    <time>2026-01-08T12:01:10Z</time>
   </trkpt>
   <trkpt lat="59.1403210" lon="9.6412560">
    <ele>7.6</ele>
    <time>2026-01-08T12:01:11Z</time>
   </trkpt>
   <trkpt lat="59.1403130" lon="9.6412610">
    <ele>7.7</ele>
    <time>2026-01-08T12:01:12Z</time>
   </trkpt>
   <trkpt lat="59.1402970" lon="9.6412730">
    <ele>7.8</ele>
    <time>2026-01-08T12:01:13Z</time>
   </trkpt>
   <trkpt lat="59.1402900" lon="9.6412780">
    <ele>7.8</ele>
    <time>2026-01-08T12:01:14Z</time>
   </trkpt>
   <trkpt lat="59.1402830" lon="9.6413000">
    <ele>7.9</ele>
    <time>2026-01-08T12:01:15Z</time>
   </trkpt>
   <trkpt lat="59.1402740" lon="9.6413190">
    <ele>7.9</ele>
    <time>2026-01-08T12:01:16Z</time>
   </trkpt>
   <trkpt lat="59.1402540" lon="9.6413270">
    <ele>8.1</ele>
    <time>2026-01-08T12:01:17Z</time>
   </trkpt>
   <trkpt lat="59.1402420" lon="9.6413340">
    <ele>8.1</ele>
    <time>2026-01-08T12:01:18Z</time>
   </trkpt>
   <trkpt lat="59.1402260" lon="9.6413470">
    <ele>8.2</ele>
    <time>2026-01-08T12:01:19Z</time>
   </trkpt>
   <trkpt lat="59.1402190" lon="9.6413680">
    <ele>8.2</ele>
    <time>2026-01-08T12:01:20Z</time>
   </trkpt>
   <trkpt lat="59.1402010" lon="9.6413840">
    <ele>8.3</ele>
    <time>2026-01-08T12:01:21Z</time>
   </trkpt>
   <trkpt lat="59.1401830" lon="9.6414040">
    <ele>8.4</ele>
    <time>2026-01-08T12:01:22Z</time>
   </trkpt>
   <trkpt lat="59.1401740" lon="9.6414110">
    <ele>8.5</ele>
    <time>2026-01-08T12:01:23Z</time>
   </trkpt>
   <trkpt lat="59.1401640" lon="9.6414190">
    <ele>8.5</ele>
    <time>2026-01-08T12:01:24Z</time>
   </trkpt>
   <trkpt lat="59.1401360" lon="9.6414460">
    <ele>8.6</ele>
    <time>2026-01-08T12:01:25Z</time>
   </trkpt>
   <trkpt lat="59.1401270" lon="9.6414560">
    <ele>8.7</ele>
    <time>2026-01-08T12:01:26Z</time>
   </trkpt>
   <trkpt lat="59.1401200" lon="9.6414600">
    <ele>8.7</ele>
    <time>2026-01-08T12:01:27Z</time>
   </trkpt>
   <trkpt lat="59.1401050" lon="9.6414690">
    <ele>8.7</ele>
    <time>2026-01-08T12:01:28Z</time>
   </trkpt>
   <trkpt lat="59.1401000" lon="9.6414820">
    <ele>8.8</ele>
    <time>2026-01-08T12:01:29Z</time>
   </trkpt>
   <trkpt lat="59.1400870" lon="9.6414930">
    <ele>8.8</ele>
    <time>2026-01-08T12:01:30Z</time>
   </trkpt>
   <trkpt lat="59.1400810" lon="9.6415100">
    <ele>8.8</ele>
    <time>2026-01-08T12:01:31Z</time>
   </trkpt>
   <trkpt lat="59.1400700" lon="9.6415090">
    <ele>8.8</ele>
    <time>2026-01-08T12:01:32Z</time>
   </trkpt>
   <trkpt lat="59.1400440" lon="9.6415260">
    <ele>8.9</ele>
    <time>2026-01-08T12:01:33Z</time>
   </trkpt>
   <trkpt lat="59.1400350" lon="9.6415320">
    <ele>8.9</ele>
    <time>2026-01-08T12:01:34Z</time>
   </trkpt>
   <trkpt lat="59.1400210" lon="9.6415420">
    <ele>8.9</ele>
    <time>2026-01-08T12:01:35Z</time>
   </trkpt>
   <trkpt lat="59.1400030" lon="9.6415540">
    <ele>9.0</ele>
    <time>2026-01-08T12:01:36Z</time>
   </trkpt>
   <trkpt lat="59.1399950" lon="9.6415690">
    <ele>9.0</ele>
    <time>2026-01-08T12:01:37Z</time>
   </trkpt>
   <trkpt lat="59.1399770" lon="9.6415940">
    <ele>9.0</ele>
    <time>2026-01-08T12:01:38Z</time>
   </trkpt>
   <trkpt lat="59.1399590" lon="9.6416060">
    <ele>9.0</ele>
    <time>2026-01-08T12:01:39Z</time>
   </trkpt>
   <trkpt lat="59.1399500" lon="9.6416130">
    <ele>9.0</ele>
    <time>2026-01-08T12:01:40Z</time>
   </trkpt>
   <trkpt lat="59.1399400" lon="9.6416210">
    <ele>9.0</ele>
    <time>2026-01-08T12:01:41Z</time>
   </trkpt>
   <trkpt lat="59.1399210" lon="9.6416390">
    <ele>9.0</ele>
    <time>2026-01-08T12:01:42Z</time>
   </trkpt>
   <trkpt lat="59.1399120" lon="9.6416460">
    <ele>9.0</ele>
    <time>2026-01-08T12:01:43Z</time>
   </trkpt>
   <trkpt lat="59.1399040" lon="9.6416540">
    <ele>9.0</ele>
    <time>2026-01-08T12:01:44Z</time>
   </trkpt>
   <trkpt lat="59.1398930" lon="9.6416690">
    <ele>9.0</ele>
    <time>2026-01-08T12:01:45Z</time>
   </trkpt>
   <trkpt lat="59.1398730" lon="9.6416810">
    <ele>8.9</ele>
    <time>2026-01-08T12:01:46Z</time>
   </trkpt>
   <trkpt lat="59.1398640" lon="9.6416920">
    <ele>8.9</ele>
    <time>2026-01-08T12:01:47Z</time>
   </trkpt>
   <trkpt lat="59.1398470" lon="9.6417050">
    <ele>8.9</ele>
    <time>2026-01-08T12:01:48Z</time>
   </trkpt>
   <trkpt lat="59.1398380" lon="9.6417180">
    <ele>8.9</ele>
    <time>2026-01-08T12:01:49Z</time>
   </trkpt>
   <trkpt lat="59.1398200" lon="9.6417380">
    <ele>8.9</ele>
    <time>2026-01-08T12:01:50Z</time>
   </trkpt>
   <trkpt lat="59.1398120" lon="9.6417390">
    <ele>8.8</ele>
    <time>2026-01-08T12:01:51Z</time>
   </trkpt>
   <trkpt lat="59.1397900" lon="9.6417560">
    <ele>8.8</ele>
    <time>2026-01-08T12:01:52Z</time>
   </trkpt>
   <trkpt lat="59.1397810" lon="9.6417640">
    <ele>8.8</ele>
    <time>2026-01-08T12:01:53Z</time>
   </trkpt>
   <trkpt lat="59.1397610" lon="9.6417760">
    <ele>8.7</ele>
    <time>2026-01-08T12:01:54Z</time>
   </trkpt>
   <trkpt lat="59.1397390" lon="9.6417950">
    <ele>8.7</ele>
    <time>2026-01-08T12:01:55Z</time>
   </trkpt>
   <trkpt lat="59.1397260" lon="9.6418040">
    <ele>8.6</ele>
    <time>2026-01-08T12:01:56Z</time>
   </trkpt>
   <trkpt lat="59.1397150" lon="9.6418180">
    <ele>8.6</ele>
    <time>2026-01-08T12:01:57Z</time>
   </trkpt>
   <trkpt lat="59.1397080" lon="9.6418260">
    <ele>8.6</ele>
    <time>2026-01-08T12:01:58Z</time>
   </trkpt>
   <trkpt lat="59.1397000" lon="9.6418340">
    <ele>8.5</ele>
    <time>2026-01-08T12:01:59Z</time>
   </trkpt>
   <trkpt lat="59.1396920" lon="9.6418420">
    <ele>8.5</ele>
    <time>2026-01-08T12:02:00Z</time>
   </trkpt>
   <trkpt lat="59.1396700" lon="9.6418650">
    <ele>8.4</ele>
    <time>2026-01-08T12:02:01Z</time>
   </trkpt>
   <trkpt lat="59.1396590" lon="9.6418750">
    <ele>8.4</ele>
    <time>2026-01-08T12:02:02Z</time>
   </trkpt>
   <trkpt lat="59.1396490" lon="9.6418850">
    <ele>8.4</ele>
    <time>2026-01-08T12:02:03Z</time>
   </trkpt>
   <trkpt lat="59.1396490" lon="9.6418840">
    <ele>8.4</ele>
    <time>2026-01-08T12:02:04Z</time>
   </trkpt>
   <trkpt lat="59.1396310" lon="9.6419040">
    <ele>8.3</ele>
    <time>2026-01-08T12:02:05Z</time>
   </trkpt>
   <trkpt lat="59.1396200" lon="9.6419170">
    <ele>8.2</ele>
    <time>2026-01-08T12:02:06Z</time>
   </trkpt>
   <trkpt lat="59.1395980" lon="9.6419370">
    <ele>8.2</ele>
    <time>2026-01-08T12:02:07Z</time>
   </trkpt>
   <trkpt lat="59.1395880" lon="9.6419440">
    <ele>8.1</ele>
    <time>2026-01-08T12:02:08Z</time>
   </trkpt>
   <trkpt lat="59.1395790" lon="9.6419510">
    <ele>8.1</ele>
    <time>2026-01-08T12:02:09Z</time>
   </trkpt>
   <trkpt lat="59.1395630" lon="9.6419710">
    <ele>8.0</ele>
    <time>2026-01-08T12:02:10Z</time>
   </trkpt>
   <trkpt lat="59.1395550" lon="9.6419790">
    <ele>8.0</ele>
    <time>2026-01-08T12:02:11Z</time>
   </trkpt>
   <trkpt lat="59.1395460" lon="9.6419870">
    <ele>7.9</ele>
    <time>2026-01-08T12:02:12Z</time>
   </trkpt>
   <trkpt lat="59.1395230" lon="9.6420070">
    <ele>7.8</ele>
    <time>2026-01-08T12:02:13Z</time>
   </trkpt>
   <trkpt lat="59.1395130" lon="9.6420150">
    <ele>7.8</ele>
    <time>2026-01-08T12:02:14Z</time>
   </trkpt>
   <trkpt lat="59.1395040" lon="9.6420230">
    <ele>7.8</ele>
    <time>2026-01-08T12:02:15Z</time>
   </trkpt>
   <trkpt lat="59.1394940" lon="9.6420330">
    <ele>7.7</ele>
    <time>2026-01-08T12:02:16Z</time>
   </trkpt>
   <trkpt lat="59.1394780" lon="9.6420440">
    <ele>7.6</ele>
    <time>2026-01-08T12:02:17Z</time>
   </trkpt>
   <trkpt lat="59.1394690" lon="9.6420540">
    <ele>7.6</ele>
    <time>2026-01-08T12:02:18Z</time>
   </trkpt>
   <trkpt lat="59.1394540" lon="9.6420670">
    <ele>7.5</ele>
    <time>2026-01-08T12:02:19Z</time>
   </trkpt>
   <trkpt lat="59.1394360" lon="9.6420890">
    <ele>7.4</ele>
    <time>2026-01-08T12:02:20Z</time>
   </trkpt>
   <trkpt lat="59.1394290" lon="9.6420980">
    <ele>7.4</ele>
    <time>2026-01-08T12:02:21Z</time>
   </trkpt>
   <trkpt lat="59.1394210" lon="9.6421060">
    <ele>7.4</ele>
    <time>2026-01-08T12:02:22Z</time>
   </trkpt>
   <trkpt lat="59.1393930" lon="9.6421300">
    <ele>7.2</ele>
    <time>2026-01-08T12:02:23Z</time>
   </trkpt>
   <trkpt lat="59.1393830" lon="9.6421480">
    <ele>7.2</ele>
    <time>2026-01-08T12:02:24Z</time>
   </trkpt>
   <trkpt lat="59.1393670" lon="9.6421670">
    <ele>7.1</ele>
    <time>2026-01-08T12:02:25Z</time>
   </trkpt>
   <trkpt lat="59.1393560" lon="9.6421860">
    <ele>7.0</ele>
    <time>2026-01-08T12:02:26Z</time>
   </trkpt>
   <trkpt lat="59.1393390" lon="9.6422000">
    <ele>7.0</ele>
    <time>2026-01-08T12:02:27Z</time>
   </trkpt>
   <trkpt lat="59.1393190" lon="9.6422120">
    <ele>6.9</ele>
    <time>2026-01-08T12:02:28Z</time>
   </trkpt>
   <trkpt lat="59.1393100" lon="9.6422220">
    <ele>6.8</ele>
    <time>2026-01-08T12:02:29Z</time>
   </trkpt>
   <trkpt lat="59.1393000" lon="9.6422330">
    <ele>6.8</ele>
    <time>2026-01-08T12:02:30Z</time>
   </trkpt>
   <trkpt lat="59.1392890" lon="9.6422540">
    <ele>6.7</ele>
    <time>2026-01-08T12:02:31Z</time>
   </trkpt>
   <trkpt lat="59.1392750" lon="9.6422720">
    <ele>6.6</ele>
    <time>2026-01-08T12:02:32Z</time>
   </trkpt>
   <trkpt lat="59.1392630" lon="9.6422890">
    <ele>6.6</ele>
    <time>2026-01-08T12:02:33Z</time>
   </trkpt>
   <trkpt lat="59.1392490" lon="9.6422960">
    <ele>6.5</ele>
    <time>2026-01-08T12:02:34Z</time>
   </trkpt>
   <trkpt lat="59.1392320" lon="9.6423000">
    <ele>6.4</ele>
    <time>2026-01-08T12:02:35Z</time>
   </trkpt>
   <trkpt lat="59.1392170" lon="9.6423200">
    <ele>6.3</ele>
    <time>2026-01-08T12:02:36Z</time>
   </trkpt>
   <trkpt lat="59.1392050" lon="9.6423350">
    <ele>6.3</ele>
    <time>2026-01-08T12:02:37Z</time>
   </trkpt>
   <trkpt lat="59.1391910" lon="9.6423480">
    <ele>6.2</ele>
    <time>2026-01-08T12:02:38Z</time>
   </trkpt>
   <trkpt lat="59.1391790" lon="9.6423630">
    <ele>6.2</ele>
    <time>2026-01-08T12:02:39Z</time>
   </trkpt>
   <trkpt lat="59.1391650" lon="9.6423740">
    <ele>6.1</ele>
    <time>2026-01-08T12:02:40Z</time>
   </trkpt>
   <trkpt lat="59.1391520" lon="9.6423900">
    <ele>6.0</ele>
    <time>2026-01-08T12:02:41Z</time>
   </trkpt>
   <trkpt lat="59.1391390" lon="9.6424030">
    <ele>6.0</ele>
    <time>2026-01-08T12:02:42Z</time>
   </trkpt>
   <trkpt lat="59.1391240" lon="9.6424090">
    <ele>5.9</ele>
    <time>2026-01-08T12:02:43Z</time>
   </trkpt>
   <trkpt lat="59.1391110" lon="9.6424140">
    <ele>5.8</ele>
    <time>2026-01-08T12:02:44Z</time>
   </trkpt>
   <trkpt lat="59.1390960" lon="9.6424230">
    <ele>5.8</ele>
    <time>2026-01-08T12:02:45Z</time>
   </trkpt>
   <trkpt lat="59.1390830" lon="9.6424310">
    <ele>5.7</ele>
    <time>2026-01-08T12:02:46Z</time>
   </trkpt>
   <trkpt lat="59.1390730" lon="9.6424490">
    <ele>5.7</ele>
    <time>2026-01-08T12:02:47Z</time>
   </trkpt>
   <trkpt lat="59.1390640" lon="9.6424710">
    <ele>5.6</ele>
    <time>2026-01-08T12:02:48Z</time>
   </trkpt>
   <trkpt lat="59.1390520" lon="9.6424820">
    <ele>5.6</ele>
    <time>2026-01-08T12:02:49Z</time>
   </trkpt>
   <trkpt lat="59.1390370" lon="9.6424940">
    <ele>5.5</ele>
    <time>2026-01-08T12:02:50Z</time>
   </trkpt>
   <trkpt lat="59.1390240" lon="9.6425020">
    <ele>5.4</ele>
    <time>2026-01-08T12:02:51Z</time>
   </trkpt>
   <trkpt lat="59.1390100" lon="9.6425120">
    <ele>5.4</ele>
    <time>2026-01-08T12:02:52Z</time>
   </trkpt>
   <trkpt lat="59.1390000" lon="9.6425180">
    <ele>5.3</ele>
    <time>2026-01-08T12:02:53Z</time>
   </trkpt>
   <trkpt lat="59.1389900" lon="9.6425290">
    <ele>5.3</ele>
    <time>2026-01-08T12:02:54Z</time>
   </trkpt>
   <trkpt lat="59.1389820" lon="9.6425470">
    <ele>5.2</ele>
    <time>2026-01-08T12:02:55Z</time>
   </trkpt>
   <trkpt lat="59.1389700" lon="9.6425580">
    <ele>5.2</ele>
    <time>2026-01-08T12:02:56Z</time>
   </trkpt>
   <trkpt lat="59.1389520" lon="9.6425680">
    <ele>5.1</ele>
    <time>2026-01-08T12:02:57Z</time>
   </trkpt>
   <trkpt lat="59.1389420" lon="9.6425710">
    <ele>5.1</ele>
    <time>2026-01-08T12:02:58Z</time>
   </trkpt>
   <trkpt lat="59.1389230" lon="9.6425930">
    <ele>5.0</ele>
    <time>2026-01-08T12:02:59Z</time>
   </trkpt>
   <trkpt lat="59.1389030" lon="9.6426110">
    <ele>4.9</ele>
    <time>2026-01-08T12:03:00Z</time>
   </trkpt>
   <trkpt lat="59.1388960" lon="9.6426220">
    <ele>4.9</ele>
    <time>2026-01-08T12:03:01Z</time>
   </trkpt>
   <trkpt lat="59.1388880" lon="9.6426340">
    <ele>4.9</ele>
    <time>2026-01-08T12:03:02Z</time>
   </trkpt>
   <trkpt lat="59.1388800" lon="9.6426450">
    <ele>4.8</ele>
    <time>2026-01-08T12:03:03Z</time>
   </trkpt>
   <trkpt lat="59.1388570" lon="9.6426650">
    <ele>4.8</ele>
    <time>2026-01-08T12:03:04Z</time>
   </trkpt>
   <trkpt lat="59.1388470" lon="9.6426730">
    <ele>4.8</ele>
    <time>2026-01-08T12:03:05Z</time>
   </trkpt>
   <trkpt lat="59.1388360" lon="9.6426810">
    <ele>4.7</ele>
    <time>2026-01-08T12:03:06Z</time>
   </trkpt>
   <trkpt lat="59.1388250" lon="9.6426890">
    <ele>4.7</ele>
    <time>2026-01-08T12:03:07Z</time>
   </trkpt>
   <trkpt lat="59.1388090" lon="9.6427010">
    <ele>4.6</ele>
    <time>2026-01-08T12:03:08Z</time>
   </trkpt>
   <trkpt lat="59.1388020" lon="9.6427120">
    <ele>4.6</ele>
    <time>2026-01-08T12:03:09Z</time>
   </trkpt>
   <trkpt lat="59.1387840" lon="9.6427190">
    <ele>4.6</ele>
    <time>2026-01-08T12:03:10Z</time>
   </trkpt>
   <trkpt lat="59.1387730" lon="9.6427280">
    <ele>4.5</ele>
    <time>2026-01-08T12:03:11Z</time>
   </trkpt>
   <trkpt lat="59.1387580" lon="9.6427380">
    <ele>4.5</ele>
    <time>2026-01-08T12:03:12Z</time>
   </trkpt>
   <trkpt lat="59.1387470" lon="9.6427480">
    <ele>4.5</ele>
    <time>2026-01-08T12:03:13Z</time>
   </trkpt>
   <trkpt lat="59.1387310" lon="9.6427650">
    <ele>4.4</ele>
    <time>2026-01-08T12:03:15Z</time>
   </trkpt>
   <trkpt lat="59.1387180" lon="9.6427780">
    <ele>4.4</ele>
    <time>2026-01-08T12:03:16Z</time>
   </trkpt>
   <trkpt lat="59.1387040" lon="9.6427970">
    <ele>4.3</ele>
    <time>2026-01-08T12:03:17Z</time>
   </trkpt>
   <trkpt lat="59.1386910" lon="9.6428080">
    <ele>4.3</ele>
    <time>2026-01-08T12:03:18Z</time>
   </trkpt>
   <trkpt lat="59.1386730" lon="9.6428100">
    <ele>4.2</ele>
    <time>2026-01-08T12:03:19Z</time>
   </trkpt>
   <trkpt lat="59.1386520" lon="9.6428330">
    <ele>4.2</ele>
    <time>2026-01-08T12:03:20Z</time>
   </trkpt>
   <trkpt lat="59.1386440" lon="9.6428410">
    <ele>4.2</ele>
    <time>2026-01-08T12:03:21Z</time>
   </trkpt>
   <trkpt lat="59.1386350" lon="9.6428480">
    <ele>4.1</ele>
    <time>2026-01-08T12:03:22Z</time>
   </trkpt>
   <trkpt lat="59.1386180" lon="9.6428700">
    <ele>4.1</ele>
    <time>2026-01-08T12:03:23Z</time>
   </trkpt>
   <trkpt lat="59.1386100" lon="9.6428850">
    <ele>4.0</ele>
    <time>2026-01-08T12:03:24Z</time>
   </trkpt>
   <trkpt lat="59.1385950" lon="9.6429050">
    <ele>4.0</ele>
    <time>2026-01-08T12:03:25Z</time>
   </trkpt>
   <trkpt lat="59.1385850" lon="9.6429160">
    <ele>4.0</ele>
    <time>2026-01-08T12:03:26Z</time>
   </trkpt>
   <trkpt lat="59.1385710" lon="9.6429400">
    <ele>3.9</ele>
    <time>2026-01-08T12:03:27Z</time>
   </trkpt>
   <trkpt lat="59.1385630" lon="9.6429490">
    <ele>3.9</ele>
    <time>2026-01-08T12:03:28Z</time>
   </trkpt>
   <trkpt lat="59.1385560" lon="9.6429590">
    <ele>3.8</ele>
    <time>2026-01-08T12:03:29Z</time>
   </trkpt>
   <trkpt lat="59.1385580" lon="9.6429670">
    <ele>3.8</ele>
    <time>2026-01-08T12:03:30Z</time>
   </trkpt>
   <trkpt lat="59.1385520" lon="9.6429730">
    <ele>3.8</ele>
    <time>2026-01-08T12:03:31Z</time>
   </trkpt>
   <trkpt lat="59.1385440" lon="9.6429770">
    <ele>3.8</ele>
    <time>2026-01-08T12:03:32Z</time>
   </trkpt>
   <trkpt lat="59.1385390" lon="9.6429760">
    <ele>3.8</ele>
    <time>2026-01-08T12:03:33Z</time>
   </trkpt>
   <trkpt lat="59.1385390" lon="9.6429690">
    <ele>3.7</ele>
    <time>2026-01-08T12:03:34Z</time>
   </trkpt>
   <trkpt lat="59.1385410" lon="9.6429670">
    <ele>3.7</ele>
    <time>2026-01-08T12:03:35Z</time>
   </trkpt>
   <trkpt lat="59.1385310" lon="9.6429890">
    <ele>3.7</ele>
    <time>2026-01-08T12:03:36Z</time>
   </trkpt>
   <trkpt lat="59.1385120" lon="9.6429980">
    <ele>3.6</ele>
    <time>2026-01-08T12:03:37Z</time>
   </trkpt>
   <trkpt lat="59.1385030" lon="9.6430080">
    <ele>3.6</ele>
    <time>2026-01-08T12:03:38Z</time>
   </trkpt>
   <trkpt lat="59.1384910" lon="9.6430330">
    <ele>3.5</ele>
    <time>2026-01-08T12:03:39Z</time>
   </trkpt>
   <trkpt lat="59.1384860" lon="9.6430450">
    <ele>3.5</ele>
    <time>2026-01-08T12:03:40Z</time>
   </trkpt>
   <trkpt lat="59.1384810" lon="9.6430560">
    <ele>3.4</ele>
    <time>2026-01-08T12:03:41Z</time>
   </trkpt>
   <trkpt lat="59.1384760" lon="9.6430680">
    <ele>3.4</ele>
    <time>2026-01-08T12:03:42Z</time>
   </trkpt>
   <trkpt lat="59.1384730" lon="9.6431160">
    <ele>3.2</ele>
    <time>2026-01-08T12:03:43Z</time>
   </trkpt>
   <trkpt lat="59.1384720" lon="9.6431160">
    <ele>3.2</ele>
    <time>2026-01-08T12:03:44Z</time>
   </trkpt>
   <trkpt lat="59.1384790" lon="9.6431090">
    <ele>3.2</ele>
    <time>2026-01-08T12:03:45Z</time>
   </trkpt>
   <trkpt lat="59.1384790" lon="9.6431130">
    <ele>3.2</ele>
    <time>2026-01-08T12:03:46Z</time>
   </trkpt>
   <trkpt lat="59.1384770" lon="9.6431120">
    <ele>3.2</ele>
    <time>2026-01-08T12:03:47Z</time>
   </trkpt>
   <trkpt lat="59.1384760" lon="9.6431130">
    <ele>3.2</ele>
    <time>2026-01-08T12:03:48Z</time>
   </trkpt>
   <trkpt lat="59.1384750" lon="9.6431170">
    <ele>3.2</ele>
    <time>2026-01-08T12:03:49Z</time>
   </trkpt>
   <trkpt lat="59.1384750" lon="9.6431160">
    <ele>3.2</ele>
    <time>2026-01-08T12:03:50Z</time>
   </trkpt>
   <trkpt lat="59.1384750" lon="9.6431160">
    <ele>3.2</ele>
    <time>2026-01-08T12:03:51Z</time>
   </trkpt>
   <trkpt lat="59.1384730" lon="9.6431090">
    <ele>3.2</ele>
    <time>2026-01-08T12:03:52Z</time>
   </trkpt>
   <trkpt lat="59.1384720" lon="9.6431070">
    <ele>3.2</ele>
    <time>2026-01-08T12:03:53Z</time>
   </trkpt>
   <trkpt lat="59.1384720" lon="9.6431070">
    <ele>3.2</ele>
    <time>2026-01-08T12:03:54Z</time>
   </trkpt>
   <trkpt lat="59.1384750" lon="9.6431120">
    <ele>3.2</ele>
    <time>2026-01-08T12:03:55Z</time>
   </trkpt>
   <trkpt lat="59.1384760" lon="9.6431180">
    <ele>3.2</ele>
    <time>2026-01-08T12:03:56Z</time>
   </trkpt>
   <trkpt lat="59.1384750" lon="9.6431120">
    <ele>3.2</ele>
    <time>2026-01-08T12:03:57Z</time>
   </trkpt>
   <trkpt lat="59.1384750" lon="9.6431120">
    <ele>3.2</ele>
    <time>2026-01-08T12:03:58Z</time>
   </trkpt>
   <trkpt lat="59.1384750" lon="9.6431120">
    <ele>3.2</ele>
    <time>2026-01-08T12:03:59Z</time>
   </trkpt>
   <trkpt lat="59.1384750" lon="9.6431120">
    <ele>3.2</ele>
    <time>2026-01-08T12:04:00Z</time>
   </trkpt>
   <trkpt lat="59.1384750" lon="9.6431120">
    <ele>3.2</ele>
    <time>2026-01-08T12:04:01Z</time>
   </trkpt>
   <trkpt lat="59.1384750" lon="9.6431120">
    <ele>3.2</ele>
    <time>2026-01-08T12:04:02Z</time>
   </trkpt>
   <trkpt lat="59.1384910" lon="9.6431220">
    <ele>3.1</ele>
    <time>2026-01-08T12:04:03Z</time>
   </trkpt>
   <trkpt lat="59.1385010" lon="9.6431340">
    <ele>3.1</ele>
    <time>2026-01-08T12:04:04Z</time>
   </trkpt>
   <trkpt lat="59.1385080" lon="9.6431330">
    <ele>3.1</ele>
    <time>2026-01-08T12:04:05Z</time>
   </trkpt>
   <trkpt lat="59.1385130" lon="9.6431470">
    <ele>3.1</ele>
    <time>2026-01-08T12:04:06Z</time>
   </trkpt>
   <trkpt lat="59.1385210" lon="9.6431530">
    <ele>3.1</ele>
    <time>2026-01-08T12:04:07Z</time>
   </trkpt>
   <trkpt lat="59.1385280" lon="9.6431620">
    <ele>3.1</ele>
    <time>2026-01-08T12:04:08Z</time>
   </trkpt>
   <trkpt lat="59.1385350" lon="9.6431740">
    <ele>3.0</ele>
    <time>2026-01-08T12:04:09Z</time>
   </trkpt>
   <trkpt lat="59.1385310" lon="9.6431690">
    <ele>3.0</ele>
    <time>2026-01-08T12:04:10Z</time>
   </trkpt>
   <trkpt lat="59.1385320" lon="9.6431750">
    <ele>3.0</ele>
    <time>2026-01-08T12:04:11Z</time>
   </trkpt>
   <trkpt lat="59.1385500" lon="9.6431630">
    <ele>3.0</ele>
    <time>2026-01-08T12:04:12Z</time>
   </trkpt>
   <trkpt lat="59.1385620" lon="9.6431570">
    <ele>3.0</ele>
    <time>2026-01-08T12:04:13Z</time>
   </trkpt>
   <trkpt lat="59.1385690" lon="9.6431570">
    <ele>3.0</ele>
    <time>2026-01-08T12:04:14Z</time>
   </trkpt>
   <trkpt lat="59.1385690" lon="9.6431600">
    <ele>2.9</ele>
    <time>2026-01-08T12:04:15Z</time>
   </trkpt>
   <trkpt lat="59.1385670" lon="9.6431640">
    <ele>2.9</ele>
    <time>2026-01-08T12:04:16Z</time>
   </trkpt>
   <trkpt lat="59.1385640" lon="9.6431640">
    <ele>2.9</ele>
    <time>2026-01-08T12:04:17Z</time>
   </trkpt>
   <trkpt lat="59.1385610" lon="9.6431680">
    <ele>2.9</ele>
    <time>2026-01-08T12:04:18Z</time>
   </trkpt>
   <trkpt lat="59.1385610" lon="9.6431680">
    <ele>2.9</ele>
    <time>2026-01-08T12:04:19Z</time>
   </trkpt>
   <trkpt lat="59.1385610" lon="9.6431680">
    <ele>2.9</ele>
    <time>2026-01-08T12:04:20Z</time>
   </trkpt>
   <trkpt lat="59.1385600" lon="9.6431840">
    <ele>2.9</ele>
    <time>2026-01-08T12:04:21Z</time>
   </trkpt>
   <trkpt lat="59.1385600" lon="9.6431840">
    <ele>2.9</ele>
    <time>2026-01-08T12:04:22Z</time>
   </trkpt>
   <trkpt lat="59.1385600" lon="9.6431840">
    <ele>2.9</ele>
    <time>2026-01-08T12:04:23Z</time>
   </trkpt>
   <trkpt lat="59.1385600" lon="9.6432070">
    <ele>2.9</ele>
    <time>2026-01-08T12:04:24Z</time>
   </trkpt>
   <trkpt lat="59.1385590" lon="9.6432070">
    <ele>2.9</ele>
    <time>2026-01-08T12:04:25Z</time>
   </trkpt>
   <trkpt lat="59.1385580" lon="9.6432160">
    <ele>2.9</ele>
    <time>2026-01-08T12:04:26Z</time>
   </trkpt>
   <trkpt lat="59.1385580" lon="9.6432160">
    <ele>2.9</ele>
    <time>2026-01-08T12:04:27Z</time>
   </trkpt>
   <trkpt lat="59.1385580" lon="9.6432160">
    <ele>2.9</ele>
    <time>2026-01-08T12:04:28Z</time>
   </trkpt>
   <trkpt lat="59.1385590" lon="9.6432300">
    <ele>2.9</ele>
    <time>2026-01-08T12:04:29Z</time>
   </trkpt>
   <trkpt lat="59.1385600" lon="9.6432390">
    <ele>2.9</ele>
    <time>2026-01-08T12:04:30Z</time>
   </trkpt>
   <trkpt lat="59.1385600" lon="9.6432330">
    <ele>2.9</ele>
    <time>2026-01-08T12:04:31Z</time>
   </trkpt>
   <trkpt lat="59.1385580" lon="9.6432260">
    <ele>2.9</ele>
    <time>2026-01-08T12:04:32Z</time>
   </trkpt>
   <trkpt lat="59.1385630" lon="9.6432230">
    <ele>2.9</ele>
    <time>2026-01-08T12:04:33Z</time>
   </trkpt>
   <trkpt lat="59.1385580" lon="9.6432210">
    <ele>2.9</ele>
    <time>2026-01-08T12:04:34Z</time>
   </trkpt>
   <trkpt lat="59.1385570" lon="9.6432130">
    <ele>2.9</ele>
    <time>2026-01-08T12:04:35Z</time>
   </trkpt>
   <trkpt lat="59.1385560" lon="9.6432120">
    <ele>2.9</ele>
    <time>2026-01-08T12:04:36Z</time>
   </trkpt>
   <trkpt lat="59.1385560" lon="9.6432120">
    <ele>2.9</ele>
    <time>2026-01-08T12:04:37Z</time>
   </trkpt>
   <trkpt lat="59.1385560" lon="9.6432120">
    <ele>2.9</ele>
    <time>2026-01-08T12:04:38Z</time>
   </trkpt>
   <trkpt lat="59.1385750" lon="9.6432050">
    <ele>2.9</ele>
    <time>2026-01-08T12:04:39Z</time>
   </trkpt>
   <trkpt lat="59.1385800" lon="9.6431770">
    <ele>2.8</ele>
    <time>2026-01-08T12:04:40Z</time>
   </trkpt>
   <trkpt lat="59.1385950" lon="9.6431650">
    <ele>2.8</ele>
    <time>2026-01-08T12:04:41Z</time>
   </trkpt>
   <trkpt lat="59.1385920" lon="9.6431590">
    <ele>2.8</ele>
    <time>2026-01-08T12:04:42Z</time>
   </trkpt>
   <trkpt lat="59.1386070" lon="9.6431410">
    <ele>2.8</ele>
    <time>2026-01-08T12:04:43Z</time>
   </trkpt>
   <trkpt lat="59.1386310" lon="9.6431180">
    <ele>2.8</ele>
    <time>2026-01-08T12:04:44Z</time>
   </trkpt>
   <trkpt lat="59.1386370" lon="9.6431080">
    <ele>2.8</ele>
    <time>2026-01-08T12:04:45Z</time>
   </trkpt>
   <trkpt lat="59.1386430" lon="9.6430990">
    <ele>2.7</ele>
    <time>2026-01-08T12:04:46Z</time>
   </trkpt>
   <trkpt lat="59.1386580" lon="9.6430990">
    <ele>2.7</ele>
    <time>2026-01-08T12:04:47Z</time>
   </trkpt>
   <trkpt lat="59.1386780" lon="9.6430880">
    <ele>2.6</ele>
    <time>2026-01-08T12:04:48Z</time>
   </trkpt>
   <trkpt lat="59.1386970" lon="9.6430820">
    <ele>2.5</ele>
    <time>2026-01-08T12:04:49Z</time>
   </trkpt>
   <trkpt lat="59.1387100" lon="9.6430870">
    <ele>2.4</ele>
    <time>2026-01-08T12:04:50Z</time>
   </trkpt>
   <trkpt lat="59.1387270" lon="9.6430860">
    <ele>2.3</ele>
    <time>2026-01-08T12:04:51Z</time>
   </trkpt>
   <trkpt lat="59.1387390" lon="9.6430910">
    <ele>2.3</ele>
    <time>2026-01-08T12:04:52Z</time>
   </trkpt>
   <trkpt lat="59.1387510" lon="9.6430970">
    <ele>2.2</ele>
    <time>2026-01-08T12:04:53Z</time>
   </trkpt>
   <trkpt lat="59.1387680" lon="9.6431050">
    <ele>2.2</ele>
    <time>2026-01-08T12:04:54Z</time>
   </trkpt>
   <trkpt lat="59.1387830" lon="9.6431220">
    <ele>2.1</ele>
    <time>2026-01-08T12:04:55Z</time>
   </trkpt>
   <trkpt lat="59.1387950" lon="9.6431430">
    <ele>2.1</ele>
    <time>2026-01-08T12:04:56Z</time>
   </trkpt>
   <trkpt lat="59.1388070" lon="9.6431600">
    <ele>2.1</ele>
    <time>2026-01-08T12:04:57Z</time>
   </trkpt>
   <trkpt lat="59.1388140" lon="9.6431940">
    <ele>2.1</ele>
    <time>2026-01-08T12:04:58Z</time>
   </trkpt>
   <trkpt lat="59.1388210" lon="9.6432110">
    <ele>2.1</ele>
    <time>2026-01-08T12:04:59Z</time>
   </trkpt>
   <trkpt lat="59.1388280" lon="9.6432270">
    <ele>2.1</ele>
    <time>2026-01-08T12:05:00Z</time>
   </trkpt>
   <trkpt lat="59.1388380" lon="9.6432550">
    <ele>2.1</ele>
    <time>2026-01-08T12:05:01Z</time>
   </trkpt>
   <trkpt lat="59.1388420" lon="9.6432730">
    <ele>2.1</ele>
    <time>2026-01-08T12:05:02Z</time>
   </trkpt>
   <trkpt lat="59.1388590" lon="9.6433070">
    <ele>2.1</ele>
    <time>2026-01-08T12:05:03Z</time>
   </trkpt>
   <trkpt lat="59.1388670" lon="9.6433270">
    <ele>2.1</ele>
    <time>2026-01-08T12:05:04Z</time>
   </trkpt>
   <trkpt lat="59.1388750" lon="9.6433460">
    <ele>2.1</ele>
    <time>2026-01-08T12:05:05Z</time>
   </trkpt>
   <trkpt lat="59.1388830" lon="9.6433820">
    <ele>2.1</ele>
    <time>2026-01-08T12:05:06Z</time>
   </trkpt>
   <trkpt lat="59.1388890" lon="9.6433930">
    <ele>2.2</ele>
    <time>2026-01-08T12:05:07Z</time>
   </trkpt>
   <trkpt lat="59.1388960" lon="9.6434050">
    <ele>2.2</ele>
    <time>2026-01-08T12:05:08Z</time>
   </trkpt>
   <trkpt lat="59.1389000" lon="9.6434260">
    <ele>2.2</ele>
    <time>2026-01-08T12:05:09Z</time>
   </trkpt>
   <trkpt lat="59.1389070" lon="9.6434480">
    <ele>2.2</ele>
    <time>2026-01-08T12:05:10Z</time>
   </trkpt>
   <trkpt lat="59.1389140" lon="9.6434690">
    <ele>2.2</ele>
    <time>2026-01-08T12:05:11Z</time>
   </trkpt>
   <trkpt lat="59.1389270" lon="9.6434960">
    <ele>2.2</ele>
    <time>2026-01-08T12:05:12Z</time>
   </trkpt>
   <trkpt lat="59.1389320" lon="9.6435190">
    <ele>2.2</ele>
    <time>2026-01-08T12:05:13Z</time>
   </trkpt>
   <trkpt lat="59.1389440" lon="9.6435480">
    <ele>2.2</ele>
    <time>2026-01-08T12:05:14Z</time>
   </trkpt>
   <trkpt lat="59.1389480" lon="9.6435660">
    <ele>2.2</ele>
    <time>2026-01-08T12:05:15Z</time>
   </trkpt>
   <trkpt lat="59.1389530" lon="9.6435850">
    <ele>2.2</ele>
    <time>2026-01-08T12:05:16Z</time>
   </trkpt>
   <trkpt lat="59.1389610" lon="9.6436120">
    <ele>2.2</ele>
    <time>2026-01-08T12:05:17Z</time>
   </trkpt>
   <trkpt lat="59.1389720" lon="9.6436220">
    <ele>2.2</ele>
    <time>2026-01-08T12:05:18Z</time>
   </trkpt>
   <trkpt lat="59.1389840" lon="9.6436310">
    <ele>2.2</ele>
    <time>2026-01-08T12:05:19Z</time>
   </trkpt>
   <trkpt lat="59.1389860" lon="9.6436690">
    <ele>2.2</ele>
    <time>2026-01-08T12:05:21Z</time>
   </trkpt>
   <trkpt lat="59.1389890" lon="9.6436980">
    <ele>2.2</ele>
    <time>2026-01-08T12:05:22Z</time>
   </trkpt>
   <trkpt lat="59.1389930" lon="9.6437230">
    <ele>2.2</ele>
    <time>2026-01-08T12:05:23Z</time>
   </trkpt>
   <trkpt lat="59.1390030" lon="9.6437550">
    <ele>2.2</ele>
    <time>2026-01-08T12:05:24Z</time>
   </trkpt>
   <trkpt lat="59.1390110" lon="9.6437710">
    <ele>2.2</ele>
    <time>2026-01-08T12:05:25Z</time>
   </trkpt>
   <trkpt lat="59.1390200" lon="9.6437820">
    <ele>2.2</ele>
    <time>2026-01-08T12:05:26Z</time>
   </trkpt>
   <trkpt lat="59.1390260" lon="9.6438080">
    <ele>2.2</ele>
    <time>2026-01-08T12:05:27Z</time>
   </trkpt>
   <trkpt lat="59.1390390" lon="9.6438570">
    <ele>2.2</ele>
    <time>2026-01-08T12:05:28Z</time>
   </trkpt>
   <trkpt lat="59.1390420" lon="9.6438760">
    <ele>2.2</ele>
    <time>2026-01-08T12:05:29Z</time>
   </trkpt>
   <trkpt lat="59.1390440" lon="9.6438990">
    <ele>2.2</ele>
    <time>2026-01-08T12:05:30Z</time>
   </trkpt>
   <trkpt lat="59.1390470" lon="9.6439300">
    <ele>2.2</ele>
    <time>2026-01-08T12:05:31Z</time>
   </trkpt>
   <trkpt lat="59.1390570" lon="9.6439700">
    <ele>2.2</ele>
    <time>2026-01-08T12:05:32Z</time>
   </trkpt>
   <trkpt lat="59.1390610" lon="9.6439840">
    <ele>2.2</ele>
    <time>2026-01-08T12:05:33Z</time>
   </trkpt>
   <trkpt lat="59.1390660" lon="9.6439980">
    <ele>2.2</ele>
    <time>2026-01-08T12:05:34Z</time>
   </trkpt>
   <trkpt lat="59.1390730" lon="9.6440340">
    <ele>2.2</ele>
    <time>2026-01-08T12:05:35Z</time>
   </trkpt>
   <trkpt lat="59.1390800" lon="9.6440620">
    <ele>2.2</ele>
    <time>2026-01-08T12:05:36Z</time>
   </trkpt>
   <trkpt lat="59.1390910" lon="9.6440810">
    <ele>2.2</ele>
    <time>2026-01-08T12:05:37Z</time>
   </trkpt>
   <trkpt lat="59.1391020" lon="9.6441130">
    <ele>2.2</ele>
    <time>2026-01-08T12:05:38Z</time>
   </trkpt>
   <trkpt lat="59.1391060" lon="9.6441390">
    <ele>2.3</ele>
    <time>2026-01-08T12:05:39Z</time>
   </trkpt>
   <trkpt lat="59.1391260" lon="9.6441780">
    <ele>2.3</ele>
    <time>2026-01-08T12:05:40Z</time>
   </trkpt>
   <trkpt lat="59.1391370" lon="9.6442080">
    <ele>2.3</ele>
    <time>2026-01-08T12:05:41Z</time>
   </trkpt>
   <trkpt lat="59.1391470" lon="9.6442460">
    <ele>2.3</ele>
    <time>2026-01-08T12:05:42Z</time>
   </trkpt>
   <trkpt lat="59.1391540" lon="9.6442660">
    <ele>2.3</ele>
    <time>2026-01-08T12:05:43Z</time>
   </trkpt>
   <trkpt lat="59.1391730" lon="9.6442930">
    <ele>2.3</ele>
    <time>2026-01-08T12:05:44Z</time>
   </trkpt>
   <trkpt lat="59.1391760" lon="9.6443150">
    <ele>2.3</ele>
    <time>2026-01-08T12:05:45Z</time>
   </trkpt>
   <trkpt lat="59.1391800" lon="9.6443380">
    <ele>2.3</ele>
    <time>2026-01-08T12:05:46Z</time>
   </trkpt>
   <trkpt lat="59.1391820" lon="9.6443600">
    <ele>2.3</ele>
    <time>2026-01-08T12:05:47Z</time>
   </trkpt>
   <trkpt lat="59.1391970" lon="9.6443900">
    <ele>2.3</ele>
    <time>2026-01-08T12:05:48Z</time>
   </trkpt>
   <trkpt lat="59.1392030" lon="9.6444330">
    <ele>2.3</ele>
    <time>2026-01-08T12:05:49Z</time>
   </trkpt>
   <trkpt lat="59.1392090" lon="9.6444520">
    <ele>2.3</ele>
    <time>2026-01-08T12:05:50Z</time>
   </trkpt>
   <trkpt lat="59.1392160" lon="9.6444710">
    <ele>2.3</ele>
    <time>2026-01-08T12:05:51Z</time>
   </trkpt>
   <trkpt lat="59.1392200" lon="9.6444950">
    <ele>2.3</ele>
    <time>2026-01-08T12:05:52Z</time>
   </trkpt>
   <trkpt lat="59.1392330" lon="9.6445260">
    <ele>2.4</ele>
    <time>2026-01-08T12:05:53Z</time>
   </trkpt>
   <trkpt lat="59.1392430" lon="9.6445480">
    <ele>2.4</ele>
    <time>2026-01-08T12:05:54Z</time>
   </trkpt>
   <trkpt lat="59.1392480" lon="9.6445820">
    <ele>2.4</ele>
    <time>2026-01-08T12:05:55Z</time>
   </trkpt>
   <trkpt lat="59.1392600" lon="9.6446150">
    <ele>2.4</ele>
    <time>2026-01-08T12:05:56Z</time>
   </trkpt>
   <trkpt lat="59.1392700" lon="9.6446370">
    <ele>2.4</ele>
    <time>2026-01-08T12:05:57Z</time>
   </trkpt>
   <trkpt lat="59.1392770" lon="9.6446660">
    <ele>2.3</ele>
    <time>2026-01-08T12:05:58Z</time>
   </trkpt>
   <trkpt lat="59.1392820" lon="9.6446930">
    <ele>2.3</ele>
    <time>2026-01-08T12:05:59Z</time>
   </trkpt>
   <trkpt lat="59.1392880" lon="9.6447260">
    <ele>2.3</ele>
    <time>2026-01-08T12:06:00Z</time>
   </trkpt>
   <trkpt lat="59.1392940" lon="9.6447450">
    <ele>2.3</ele>
    <time>2026-01-08T12:06:01Z</time>
   </trkpt>
   <trkpt lat="59.1393040" lon="9.6447670">
    <ele>2.3</ele>
    <time>2026-01-08T12:06:02Z</time>
   </trkpt>
   <trkpt lat="59.1393150" lon="9.6447970">
    <ele>2.3</ele>
    <time>2026-01-08T12:06:03Z</time>
   </trkpt>
   <trkpt lat="59.1393200" lon="9.6448370">
    <ele>2.3</ele>
    <time>2026-01-08T12:06:04Z</time>
   </trkpt>
   <trkpt lat="59.1393230" lon="9.6448560">
    <ele>2.3</ele>
    <time>2026-01-08T12:06:05Z</time>
   </trkpt>
   <trkpt lat="59.1393270" lon="9.6448760">
    <ele>2.3</ele>
    <time>2026-01-08T12:06:06Z</time>
   </trkpt>
   <trkpt lat="59.1393410" lon="9.6448930">
    <ele>2.3</ele>
    <time>2026-01-08T12:06:07Z</time>
   </trkpt>
   <trkpt lat="59.1393470" lon="9.6449210">
    <ele>2.3</ele>
    <time>2026-01-08T12:06:08Z</time>
   </trkpt>
   <trkpt lat="59.1393640" lon="9.6449430">
    <ele>2.3</ele>
    <time>2026-01-08T12:06:09Z</time>
   </trkpt>
   <trkpt lat="59.1393620" lon="9.6449650">
    <ele>2.3</ele>
    <time>2026-01-08T12:06:10Z</time>
   </trkpt>
   <trkpt lat="59.1393690" lon="9.6450020">
    <ele>2.3</ele>
    <time>2026-01-08T12:06:11Z</time>
   </trkpt>
   <trkpt lat="59.1393740" lon="9.6450180">
    <ele>2.2</ele>
    <time>2026-01-08T12:06:12Z</time>
   </trkpt>
   <trkpt lat="59.1393790" lon="9.6450330">
    <ele>2.2</ele>
    <time>2026-01-08T12:06:13Z</time>
   </trkpt>
   <trkpt lat="59.1393880" lon="9.6450650">
    <ele>2.2</ele>
    <time>2026-01-08T12:06:14Z</time>
   </trkpt>
   <trkpt lat="59.1393910" lon="9.6450860">
    <ele>2.2</ele>
    <time>2026-01-08T12:06:15Z</time>
   </trkpt>
   <trkpt lat="59.1394050" lon="9.6451230">
    <ele>2.2</ele>
    <time>2026-01-08T12:06:16Z</time>
   </trkpt>
   <trkpt lat="59.1394090" lon="9.6451360">
    <ele>2.2</ele>
    <time>2026-01-08T12:06:17Z</time>
   </trkpt>
   <trkpt lat="59.1394130" lon="9.6451480">
    <ele>2.2</ele>
    <time>2026-01-08T12:06:18Z</time>
   </trkpt>
   <trkpt lat="59.1394230" lon="9.6451850">
    <ele>2.2</ele>
    <time>2026-01-08T12:06:19Z</time>
   </trkpt>
   <trkpt lat="59.1394310" lon="9.6451980">
    <ele>2.2</ele>
    <time>2026-01-08T12:06:20Z</time>
   </trkpt>
   <trkpt lat="59.1394430" lon="9.6452270">
    <ele>2.2</ele>
    <time>2026-01-08T12:06:21Z</time>
   </trkpt>
   <trkpt lat="59.1394490" lon="9.6452420">
    <ele>2.2</ele>
    <time>2026-01-08T12:06:22Z</time>
   </trkpt>
   <trkpt lat="59.1394550" lon="9.6452680">
    <ele>2.1</ele>
    <time>2026-01-08T12:06:23Z</time>
   </trkpt>
   <trkpt lat="59.1394630" lon="9.6452940">
    <ele>2.1</ele>
    <time>2026-01-08T12:06:24Z</time>
   </trkpt>
   <trkpt lat="59.1394660" lon="9.6453210">
    <ele>2.1</ele>
    <time>2026-01-08T12:06:25Z</time>
   </trkpt>
   <trkpt lat="59.1394780" lon="9.6453480">
    <ele>2.1</ele>
    <time>2026-01-08T12:06:26Z</time>
   </trkpt>
   <trkpt lat="59.1394800" lon="9.6453810">
    <ele>2.2</ele>
    <time>2026-01-08T12:06:27Z</time>
   </trkpt>
   <trkpt lat="59.1394870" lon="9.6454110">
    <ele>2.2</ele>
    <time>2026-01-08T12:06:28Z</time>
   </trkpt>
   <trkpt lat="59.1394950" lon="9.6454250">
    <ele>2.2</ele>
    <time>2026-01-08T12:06:29Z</time>
   </trkpt>
   <trkpt lat="59.1395010" lon="9.6454520">
    <ele>2.2</ele>
    <time>2026-01-08T12:06:30Z</time>
   </trkpt>
   <trkpt lat="59.1395060" lon="9.6454700">
    <ele>2.2</ele>
    <time>2026-01-08T12:06:31Z</time>
   </trkpt>
   <trkpt lat="59.1395140" lon="9.6454950">
    <ele>2.2</ele>
    <time>2026-01-08T12:06:32Z</time>
   </trkpt>
   <trkpt lat="59.1395220" lon="9.6455300">
    <ele>2.2</ele>
    <time>2026-01-08T12:06:33Z</time>
   </trkpt>
   <trkpt lat="59.1395300" lon="9.6455440">
    <ele>2.2</ele>
    <time>2026-01-08T12:06:34Z</time>
   </trkpt>
   <trkpt lat="59.1395380" lon="9.6455830">
    <ele>2.3</ele>
    <time>2026-01-08T12:06:35Z</time>
   </trkpt>
   <trkpt lat="59.1395430" lon="9.6455980">
    <ele>2.3</ele>
    <time>2026-01-08T12:06:36Z</time>
   </trkpt>
   <trkpt lat="59.1395550" lon="9.6456370">
    <ele>2.3</ele>
    <time>2026-01-08T12:06:37Z</time>
   </trkpt>
   <trkpt lat="59.1395590" lon="9.6456460">
    <ele>2.3</ele>
    <time>2026-01-08T12:06:38Z</time>
   </trkpt>
   <trkpt lat="59.1395660" lon="9.6456770">
    <ele>2.3</ele>
    <time>2026-01-08T12:06:39Z</time>
   </trkpt>
   <trkpt lat="59.1395760" lon="9.6456930">
    <ele>2.4</ele>
    <time>2026-01-08T12:06:40Z</time>
   </trkpt>
   <trkpt lat="59.1395830" lon="9.6457390">
    <ele>2.4</ele>
    <time>2026-01-08T12:06:41Z</time>
   </trkpt>
   <trkpt lat="59.1395870" lon="9.6457590">
    <ele>2.4</ele>
    <time>2026-01-08T12:06:42Z</time>
   </trkpt>
   <trkpt lat="59.1395840" lon="9.6457690">
    <ele>2.4</ele>
    <time>2026-01-08T12:06:43Z</time>
   </trkpt>
   <trkpt lat="59.1395850" lon="9.6457830">
    <ele>2.4</ele>
    <time>2026-01-08T12:06:44Z</time>
   </trkpt>
   <trkpt lat="59.1395950" lon="9.6457980">
    <ele>2.4</ele>
    <time>2026-01-08T12:06:45Z</time>
   </trkpt>
   <trkpt lat="59.1396050" lon="9.6458210">
    <ele>2.4</ele>
    <time>2026-01-08T12:06:46Z</time>
   </trkpt>
   <trkpt lat="59.1396150" lon="9.6458410">
    <ele>2.4</ele>
    <time>2026-01-08T12:06:47Z</time>
   </trkpt>
   <trkpt lat="59.1396120" lon="9.6458640">
    <ele>2.5</ele>
    <time>2026-01-08T12:06:48Z</time>
   </trkpt>
   <trkpt lat="59.1396150" lon="9.6458890">
    <ele>2.5</ele>
    <time>2026-01-08T12:06:49Z</time>
   </trkpt>
   <trkpt lat="59.1396190" lon="9.6459280">
    <ele>2.5</ele>
    <time>2026-01-08T12:06:50Z</time>
   </trkpt>
   <trkpt lat="59.1396230" lon="9.6459420">
    <ele>2.5</ele>
    <time>2026-01-08T12:06:51Z</time>
   </trkpt>
   <trkpt lat="59.1396270" lon="9.6459560">
    <ele>2.5</ele>
    <time>2026-01-08T12:06:52Z</time>
   </trkpt>
   <trkpt lat="59.1396340" lon="9.6459820">
    <ele>2.5</ele>
    <time>2026-01-08T12:06:53Z</time>
   </trkpt>
   <trkpt lat="59.1396420" lon="9.6460070">
    <ele>2.5</ele>
    <time>2026-01-08T12:06:54Z</time>
   </trkpt>
   <trkpt lat="59.1396480" lon="9.6460290">
    <ele>2.5</ele>
    <time>2026-01-08T12:06:55Z</time>
   </trkpt>
   <trkpt lat="59.1396550" lon="9.6460590">
    <ele>2.5</ele>
    <time>2026-01-08T12:06:56Z</time>
   </trkpt>
   <trkpt lat="59.1396570" lon="9.6460780">
    <ele>2.5</ele>
    <time>2026-01-08T12:06:57Z</time>
   </trkpt>
   <trkpt lat="59.1396650" lon="9.6461110">
    <ele>2.5</ele>
    <time>2026-01-08T12:06:58Z</time>
   </trkpt>
   <trkpt lat="59.1396670" lon="9.6461250">
    <ele>2.5</ele>
    <time>2026-01-08T12:06:59Z</time>
   </trkpt>
   <trkpt lat="59.1396730" lon="9.6461450">
    <ele>2.5</ele>
    <time>2026-01-08T12:07:00Z</time>
   </trkpt>
   <trkpt lat="59.1396770" lon="9.6461640">
    <ele>2.5</ele>
    <time>2026-01-08T12:07:01Z</time>
   </trkpt>
   <trkpt lat="59.1396830" lon="9.6461930">
    <ele>2.5</ele>
    <time>2026-01-08T12:07:02Z</time>
   </trkpt>
   <trkpt lat="59.1396930" lon="9.6462270">
    <ele>2.5</ele>
    <time>2026-01-08T12:07:03Z</time>
   </trkpt>
   <trkpt lat="59.1397010" lon="9.6462700">
    <ele>2.5</ele>
    <time>2026-01-08T12:07:04Z</time>
   </trkpt>
   <trkpt lat="59.1397030" lon="9.6462830">
    <ele>2.4</ele>
    <time>2026-01-08T12:07:05Z</time>
   </trkpt>
   <trkpt lat="59.1397040" lon="9.6462950">
    <ele>2.4</ele>
    <time>2026-01-08T12:07:06Z</time>
   </trkpt>
   <trkpt lat="59.1397060" lon="9.6463150">
    <ele>2.4</ele>
    <time>2026-01-08T12:07:07Z</time>
   </trkpt>
   <trkpt lat="59.1397130" lon="9.6463310">
    <ele>2.4</ele>
    <time>2026-01-08T12:07:08Z</time>
   </trkpt>
   <trkpt lat="59.1397100" lon="9.6463560">
    <ele>2.4</ele>
    <time>2026-01-08T12:07:09Z</time>
   </trkpt>
   <trkpt lat="59.1397160" lon="9.6463980">
    <ele>2.3</ele>
    <time>2026-01-08T12:07:10Z</time>
   </trkpt>
   <trkpt lat="59.1397200" lon="9.6464180">
    <ele>2.3</ele>
    <time>2026-01-08T12:07:11Z</time>
   </trkpt>
   <trkpt lat="59.1397250" lon="9.6464390">
    <ele>2.3</ele>
    <time>2026-01-08T12:07:12Z</time>
   </trkpt>
   <trkpt lat="59.1397200" lon="9.6464690">
    <ele>2.3</ele>
    <time>2026-01-08T12:07:13Z</time>
   </trkpt>
   <trkpt lat="59.1397230" lon="9.6465030">
    <ele>2.3</ele>
    <time>2026-01-08T12:07:14Z</time>
   </trkpt>
   <trkpt lat="59.1397290" lon="9.6465380">
    <ele>2.3</ele>
    <time>2026-01-08T12:07:15Z</time>
   </trkpt>
   <trkpt lat="59.1397310" lon="9.6465600">
    <ele>2.3</ele>
    <time>2026-01-08T12:07:16Z</time>
   </trkpt>
   <trkpt lat="59.1397380" lon="9.6465890">
    <ele>2.2</ele>
    <time>2026-01-08T12:07:17Z</time>
   </trkpt>
   <trkpt lat="59.1397410" lon="9.6466060">
    <ele>2.2</ele>
    <time>2026-01-08T12:07:18Z</time>
   </trkpt>
   <trkpt lat="59.1397430" lon="9.6466260">
    <ele>2.2</ele>
    <time>2026-01-08T12:07:19Z</time>
   </trkpt>
   <trkpt lat="59.1397480" lon="9.6466490">
    <ele>2.2</ele>
    <time>2026-01-08T12:07:20Z</time>
   </trkpt>
   <trkpt lat="59.1397490" lon="9.6466720">
    <ele>2.2</ele>
    <time>2026-01-08T12:07:21Z</time>
   </trkpt>
   <trkpt lat="59.1397470" lon="9.6466940">
    <ele>2.2</ele>
    <time>2026-01-08T12:07:22Z</time>
   </trkpt>
   <trkpt lat="59.1397560" lon="9.6467210">
    <ele>2.2</ele>
    <time>2026-01-08T12:07:23Z</time>
   </trkpt>
   <trkpt lat="59.1397620" lon="9.6467510">
    <ele>2.2</ele>
    <time>2026-01-08T12:07:24Z</time>
   </trkpt>
   <trkpt lat="59.1397690" lon="9.6467890">
    <ele>2.2</ele>
    <time>2026-01-08T12:07:25Z</time>
   </trkpt>
   <trkpt lat="59.1397690" lon="9.6468050">
    <ele>2.2</ele>
    <time>2026-01-08T12:07:26Z</time>
   </trkpt>
   <trkpt lat="59.1397750" lon="9.6468410">
    <ele>2.3</ele>
    <time>2026-01-08T12:07:28Z</time>
   </trkpt>
   <trkpt lat="59.1397700" lon="9.6468640">
    <ele>2.3</ele>
    <time>2026-01-08T12:07:29Z</time>
   </trkpt>
   <trkpt lat="59.1397770" lon="9.6469230">
    <ele>2.3</ele>
    <time>2026-01-08T12:07:31Z</time>
   </trkpt>
   <trkpt lat="59.1397780" lon="9.6469590">
    <ele>2.3</ele>
    <time>2026-01-08T12:07:32Z</time>
   </trkpt>
   <trkpt lat="59.1397690" lon="9.6470050">
    <ele>2.3</ele>
    <time>2026-01-08T12:07:34Z</time>
   </trkpt>
   <trkpt lat="59.1397710" lon="9.6470410">
    <ele>2.3</ele>
    <time>2026-01-08T12:07:35Z</time>
   </trkpt>
   <trkpt lat="59.1397740" lon="9.6470990">
    <ele>2.4</ele>
    <time>2026-01-08T12:07:37Z</time>
   </trkpt>
   <trkpt lat="59.1397730" lon="9.6471310">
    <ele>2.4</ele>
    <time>2026-01-08T12:07:38Z</time>
   </trkpt>
   <trkpt lat="59.1397710" lon="9.6471960">
    <ele>2.4</ele>
    <time>2026-01-08T12:07:40Z</time>
   </trkpt>
   <trkpt lat="59.1397680" lon="9.6472330">
    <ele>2.4</ele>
    <time>2026-01-08T12:07:41Z</time>
   </trkpt>
   <trkpt lat="59.1397720" lon="9.6472600">
    <ele>2.5</ele>
    <time>2026-01-08T12:07:42Z</time>
   </trkpt>
   <trkpt lat="59.1397770" lon="9.6472980">
    <ele>2.5</ele>
    <time>2026-01-08T12:07:43Z</time>
   </trkpt>
   <trkpt lat="59.1397720" lon="9.6473470">
    <ele>2.5</ele>
    <time>2026-01-08T12:07:44Z</time>
   </trkpt>
   <trkpt lat="59.1397620" lon="9.6473650">
    <ele>2.6</ele>
    <time>2026-01-08T12:07:45Z</time>
   </trkpt>
   <trkpt lat="59.1397570" lon="9.6473960">
    <ele>2.6</ele>
    <time>2026-01-08T12:07:46Z</time>
   </trkpt>
   <trkpt lat="59.1397520" lon="9.6474210">
    <ele>2.6</ele>
    <time>2026-01-08T12:07:47Z</time>
   </trkpt>
   <trkpt lat="59.1397400" lon="9.6474290">
    <ele>2.6</ele>
    <time>2026-01-08T12:07:48Z</time>
   </trkpt>
   <trkpt lat="59.1397350" lon="9.6474780">
    <ele>2.7</ele>
    <time>2026-01-08T12:07:49Z</time>
   </trkpt>
   <trkpt lat="59.1397540" lon="9.6474970">
    <ele>2.7</ele>
    <time>2026-01-08T12:07:50Z</time>
   </trkpt>
   <trkpt lat="59.1397580" lon="9.6475300">
    <ele>2.8</ele>
    <time>2026-01-08T12:07:51Z</time>
   </trkpt>
   <trkpt lat="59.1397590" lon="9.6475780">
    <ele>2.8</ele>
    <time>2026-01-08T12:07:52Z</time>
   </trkpt>
   <trkpt lat="59.1397600" lon="9.6476010">
    <ele>2.8</ele>
    <time>2026-01-08T12:07:53Z</time>
   </trkpt>
   <trkpt lat="59.1397580" lon="9.6476110">
    <ele>2.8</ele>
    <time>2026-01-08T12:07:54Z</time>
   </trkpt>
   <trkpt lat="59.1397630" lon="9.6476280">
    <ele>2.8</ele>
    <time>2026-01-08T12:07:55Z</time>
   </trkpt>
   <trkpt lat="59.1397730" lon="9.6476640">
    <ele>2.9</ele>
    <time>2026-01-08T12:07:56Z</time>
   </trkpt>
   <trkpt lat="59.1397600" lon="9.6476690">
    <ele>2.9</ele>
    <time>2026-01-08T12:07:57Z</time>
   </trkpt>
   <trkpt lat="59.1397490" lon="9.6476980">
    <ele>2.9</ele>
    <time>2026-01-08T12:07:58Z</time>
   </trkpt>
   <trkpt lat="59.1397420" lon="9.6477060">
    <ele>2.9</ele>
    <time>2026-01-08T12:07:59Z</time>
   </trkpt>
   <trkpt lat="59.1397330" lon="9.6477300">
    <ele>2.9</ele>
    <time>2026-01-08T12:08:00Z</time>
   </trkpt>
   <trkpt lat="59.1397310" lon="9.6477550">
    <ele>2.9</ele>
    <time>2026-01-08T12:08:01Z</time>
   </trkpt>
   <trkpt lat="59.1397260" lon="9.6477930">
    <ele>2.9</ele>
    <time>2026-01-08T12:08:02Z</time>
   </trkpt>
   <trkpt lat="59.1397240" lon="9.6478080">
    <ele>2.9</ele>
    <time>2026-01-08T12:08:03Z</time>
   </trkpt>
   <trkpt lat="59.1397220" lon="9.6478510">
    <ele>2.9</ele>
    <time>2026-01-08T12:08:04Z</time>
   </trkpt>
   <trkpt lat="59.1397190" lon="9.6478660">
    <ele>2.9</ele>
    <time>2026-01-08T12:08:05Z</time>
   </trkpt>
   <trkpt lat="59.1397170" lon="9.6478820">
    <ele>2.9</ele>
    <time>2026-01-08T12:08:06Z</time>
   </trkpt>
   <trkpt lat="59.1397090" lon="9.6479240">
    <ele>2.9</ele>
    <time>2026-01-08T12:08:07Z</time>
   </trkpt>
   <trkpt lat="59.1397040" lon="9.6479340">
    <ele>2.9</ele>
    <time>2026-01-08T12:08:08Z</time>
   </trkpt>
   <trkpt lat="59.1396990" lon="9.6479440">
    <ele>3.0</ele>
    <time>2026-01-08T12:08:09Z</time>
   </trkpt>
   <trkpt lat="59.1396960" lon="9.6479720">
    <ele>3.0</ele>
    <time>2026-01-08T12:08:10Z</time>
   </trkpt>
   <trkpt lat="59.1396940" lon="9.6479940">
    <ele>3.0</ele>
    <time>2026-01-08T12:08:11Z</time>
   </trkpt>
   <trkpt lat="59.1396860" lon="9.6479970">
    <ele>3.0</ele>
    <time>2026-01-08T12:08:12Z</time>
   </trkpt>
   <trkpt lat="59.1396800" lon="9.6480640">
    <ele>3.0</ele>
    <time>2026-01-08T12:08:13Z</time>
   </trkpt>
   <trkpt lat="59.1396800" lon="9.6480860">
    <ele>3.0</ele>
    <time>2026-01-08T12:08:14Z</time>
   </trkpt>
   <trkpt lat="59.1396740" lon="9.6481160">
    <ele>3.0</ele>
    <time>2026-01-08T12:08:15Z</time>
   </trkpt>
   <trkpt lat="59.1396700" lon="9.6481500">
    <ele>3.0</ele>
    <time>2026-01-08T12:08:16Z</time>
   </trkpt>
   <trkpt lat="59.1396720" lon="9.6482170">
    <ele>3.0</ele>
    <time>2026-01-08T12:08:17Z</time>
   </trkpt>
   <trkpt lat="59.1396690" lon="9.6482390">
    <ele>3.0</ele>
    <time>2026-01-08T12:08:18Z</time>
   </trkpt>
   <trkpt lat="59.1396650" lon="9.6482830">
    <ele>3.0</ele>
    <time>2026-01-08T12:08:19Z</time>
   </trkpt>
   <trkpt lat="59.1396620" lon="9.6482980">
    <ele>3.0</ele>
    <time>2026-01-08T12:08:20Z</time>
   </trkpt>
   <trkpt lat="59.1396530" lon="9.6483330">
    <ele>3.0</ele>
    <time>2026-01-08T12:08:21Z</time>
   </trkpt>
   <trkpt lat="59.1396420" lon="9.6483530">
    <ele>3.0</ele>
    <time>2026-01-08T12:08:22Z</time>
   </trkpt>
   <trkpt lat="59.1396280" lon="9.6483840">
    <ele>3.0</ele>
    <time>2026-01-08T12:08:23Z</time>
   </trkpt>
   <trkpt lat="59.1396220" lon="9.6483990">
    <ele>3.0</ele>
    <time>2026-01-08T12:08:24Z</time>
   </trkpt>
   <trkpt lat="59.1396160" lon="9.6484130">
    <ele>3.0</ele>
    <time>2026-01-08T12:08:25Z</time>
   </trkpt>
   <trkpt lat="59.1396020" lon="9.6484300">
    <ele>3.0</ele>
    <time>2026-01-08T12:08:26Z</time>
   </trkpt>
   <trkpt lat="59.1395970" lon="9.6484560">
    <ele>3.0</ele>
    <time>2026-01-08T12:08:27Z</time>
   </trkpt>
   <trkpt lat="59.1396090" lon="9.6484600">
    <ele>3.0</ele>
    <time>2026-01-08T12:08:28Z</time>
   </trkpt>
   <trkpt lat="59.1396120" lon="9.6485150">
    <ele>3.0</ele>
    <time>2026-01-08T12:08:29Z</time>
   </trkpt>
   <trkpt lat="59.1396100" lon="9.6485570">
    <ele>3.0</ele>
    <time>2026-01-08T12:08:30Z</time>
   </trkpt>
   <trkpt lat="59.1395990" lon="9.6485650">
    <ele>3.0</ele>
    <time>2026-01-08T12:08:31Z</time>
   </trkpt>
   <trkpt lat="59.1396030" lon="9.6485950">
    <ele>3.0</ele>
    <time>2026-01-08T12:08:32Z</time>
   </trkpt>
   <trkpt lat="59.1396020" lon="9.6486200">
    <ele>3.0</ele>
    <time>2026-01-08T12:08:33Z</time>
   </trkpt>
   <trkpt lat="59.1396020" lon="9.6486450">
    <ele>3.0</ele>
    <time>2026-01-08T12:08:34Z</time>
   </trkpt>
   <trkpt lat="59.1395960" lon="9.6486860">
    <ele>3.0</ele>
    <time>2026-01-08T12:08:35Z</time>
   </trkpt>
   <trkpt lat="59.1395940" lon="9.6487030">
    <ele>3.0</ele>
    <time>2026-01-08T12:08:36Z</time>
   </trkpt>
   <trkpt lat="59.1395930" lon="9.6487210">
    <ele>3.0</ele>
    <time>2026-01-08T12:08:37Z</time>
   </trkpt>
   <trkpt lat="59.1395870" lon="9.6487580">
    <ele>3.0</ele>
    <time>2026-01-08T12:08:38Z</time>
   </trkpt>
   <trkpt lat="59.1395850" lon="9.6487740">
    <ele>2.9</ele>
    <time>2026-01-08T12:08:39Z</time>
   </trkpt>
   <trkpt lat="59.1395800" lon="9.6488300">
    <ele>2.9</ele>
    <time>2026-01-08T12:08:40Z</time>
   </trkpt>
   <trkpt lat="59.1395780" lon="9.6488560">
    <ele>2.9</ele>
    <time>2026-01-08T12:08:41Z</time>
   </trkpt>
   <trkpt lat="59.1395780" lon="9.6488650">
    <ele>2.9</ele>
    <time>2026-01-08T12:08:42Z</time>
   </trkpt>
   <trkpt lat="59.1395760" lon="9.6489010">
    <ele>2.9</ele>
    <time>2026-01-08T12:08:43Z</time>
   </trkpt>
   <trkpt lat="59.1395750" lon="9.6489270">
    <ele>2.9</ele>
    <time>2026-01-08T12:08:44Z</time>
   </trkpt>
   <trkpt lat="59.1395700" lon="9.6489560">
    <ele>2.9</ele>
    <time>2026-01-08T12:08:45Z</time>
   </trkpt>
   <trkpt lat="59.1395670" lon="9.6489640">
    <ele>2.9</ele>
    <time>2026-01-08T12:08:46Z</time>
   </trkpt>
   <trkpt lat="59.1395670" lon="9.6489950">
    <ele>2.9</ele>
    <time>2026-01-08T12:08:47Z</time>
   </trkpt>
   <trkpt lat="59.1395640" lon="9.6490230">
    <ele>2.9</ele>
    <time>2026-01-08T12:08:48Z</time>
   </trkpt>
   <trkpt lat="59.1395620" lon="9.6490560">
    <ele>2.9</ele>
    <time>2026-01-08T12:08:49Z</time>
   </trkpt>
   <trkpt lat="59.1395570" lon="9.6490950">
    <ele>2.9</ele>
    <time>2026-01-08T12:08:50Z</time>
   </trkpt>
   <trkpt lat="59.1395580" lon="9.6491110">
    <ele>2.9</ele>
    <time>2026-01-08T12:08:51Z</time>
   </trkpt>
   <trkpt lat="59.1395500" lon="9.6491570">
    <ele>2.8</ele>
    <time>2026-01-08T12:08:52Z</time>
   </trkpt>
   <trkpt lat="59.1395450" lon="9.6491750">
    <ele>2.8</ele>
    <time>2026-01-08T12:08:53Z</time>
   </trkpt>
   <trkpt lat="59.1395410" lon="9.6491990">
    <ele>2.8</ele>
    <time>2026-01-08T12:08:54Z</time>
   </trkpt>
   <trkpt lat="59.1395360" lon="9.6492260">
    <ele>2.8</ele>
    <time>2026-01-08T12:08:55Z</time>
   </trkpt>
   <trkpt lat="59.1395400" lon="9.6492700">
    <ele>2.7</ele>
    <time>2026-01-08T12:08:56Z</time>
   </trkpt>
   <trkpt lat="59.1395390" lon="9.6492870">
    <ele>2.7</ele>
    <time>2026-01-08T12:08:57Z</time>
   </trkpt>
   <trkpt lat="59.1395380" lon="9.6493050">
    <ele>2.7</ele>
    <time>2026-01-08T12:08:58Z</time>
   </trkpt>
   <trkpt lat="59.1395390" lon="9.6493400">
    <ele>2.6</ele>
    <time>2026-01-08T12:08:59Z</time>
   </trkpt>
   <trkpt lat="59.1395400" lon="9.6493590">
    <ele>2.6</ele>
    <time>2026-01-08T12:09:00Z</time>
   </trkpt>
   <trkpt lat="59.1395360" lon="9.6493920">
    <ele>2.5</ele>
    <time>2026-01-08T12:09:01Z</time>
   </trkpt>
   <trkpt lat="59.1395380" lon="9.6494120">
    <ele>2.5</ele>
    <time>2026-01-08T12:09:02Z</time>
   </trkpt>
   <trkpt lat="59.1395410" lon="9.6494430">
    <ele>2.4</ele>
    <time>2026-01-08T12:09:03Z</time>
   </trkpt>
   <trkpt lat="59.1395390" lon="9.6494650">
    <ele>2.4</ele>
    <time>2026-01-08T12:09:04Z</time>
   </trkpt>
   <trkpt lat="59.1395410" lon="9.6494880">
    <ele>2.4</ele>
    <time>2026-01-08T12:09:05Z</time>
   </trkpt>
   <trkpt lat="59.1395400" lon="9.6495180">
    <ele>2.3</ele>
    <time>2026-01-08T12:09:06Z</time>
   </trkpt>
   <trkpt lat="59.1395310" lon="9.6495610">
    <ele>2.3</ele>
    <time>2026-01-08T12:09:07Z</time>
   </trkpt>
   <trkpt lat="59.1395280" lon="9.6495740">
    <ele>2.2</ele>
    <time>2026-01-08T12:09:08Z</time>
   </trkpt>
   <trkpt lat="59.1395250" lon="9.6495870">
    <ele>2.2</ele>
    <time>2026-01-08T12:09:09Z</time>
   </trkpt>
   <trkpt lat="59.1395270" lon="9.6496080">
    <ele>2.2</ele>
    <time>2026-01-08T12:09:10Z</time>
   </trkpt>
   <trkpt lat="59.1395230" lon="9.6496450">
    <ele>2.2</ele>
    <time>2026-01-08T12:09:11Z</time>
   </trkpt>
   <trkpt lat="59.1395210" lon="9.6496820">
    <ele>2.1</ele>
    <time>2026-01-08T12:09:12Z</time>
   </trkpt>
   <trkpt lat="59.1395220" lon="9.6496990">
    <ele>2.1</ele>
    <time>2026-01-08T12:09:13Z</time>
   </trkpt>
   <trkpt lat="59.1395170" lon="9.6497370">
    <ele>2.1</ele>
    <time>2026-01-08T12:09:14Z</time>
   </trkpt>
   <trkpt lat="59.1395170" lon="9.6497620">
    <ele>2.1</ele>
    <time>2026-01-08T12:09:15Z</time>
   </trkpt>
   <trkpt lat="59.1395160" lon="9.6497900">
    <ele>2.1</ele>
    <time>2026-01-08T12:09:16Z</time>
   </trkpt>
   <trkpt lat="59.1395190" lon="9.6498260">
    <ele>2.0</ele>
    <time>2026-01-08T12:09:17Z</time>
   </trkpt>
   <trkpt lat="59.1395210" lon="9.6498480">
    <ele>2.0</ele>
    <time>2026-01-08T12:09:18Z</time>
   </trkpt>
   <trkpt lat="59.1395220" lon="9.6498790">
    <ele>2.0</ele>
    <time>2026-01-08T12:09:19Z</time>
   </trkpt>
   <trkpt lat="59.1395210" lon="9.6499130">
    <ele>2.0</ele>
    <time>2026-01-08T12:09:20Z</time>
   </trkpt>
   <trkpt lat="59.1395210" lon="9.6499370">
    <ele>2.0</ele>
    <time>2026-01-08T12:09:21Z</time>
   </trkpt>
   <trkpt lat="59.1395200" lon="9.6499620">
    <ele>2.0</ele>
    <time>2026-01-08T12:09:22Z</time>
   </trkpt>
   <trkpt lat="59.1395250" lon="9.6499950">
    <ele>2.0</ele>
    <time>2026-01-08T12:09:23Z</time>
   </trkpt>
   <trkpt lat="59.1395270" lon="9.6500410">
    <ele>2.0</ele>
    <time>2026-01-08T12:09:24Z</time>
   </trkpt>
   <trkpt lat="59.1395300" lon="9.6500560">
    <ele>2.0</ele>
    <time>2026-01-08T12:09:25Z</time>
   </trkpt>
   <trkpt lat="59.1395320" lon="9.6500720">
    <ele>2.0</ele>
    <time>2026-01-08T12:09:26Z</time>
   </trkpt>
   <trkpt lat="59.1395300" lon="9.6501010">
    <ele>2.0</ele>
    <time>2026-01-08T12:09:27Z</time>
   </trkpt>
   <trkpt lat="59.1395300" lon="9.6501250">
    <ele>2.0</ele>
    <time>2026-01-08T12:09:28Z</time>
   </trkpt>
   <trkpt lat="59.1395340" lon="9.6501660">
    <ele>2.0</ele>
    <time>2026-01-08T12:09:29Z</time>
   </trkpt>
   <trkpt lat="59.1395340" lon="9.6501820">
    <ele>2.0</ele>
    <time>2026-01-08T12:09:30Z</time>
   </trkpt>
   <trkpt lat="59.1395340" lon="9.6501970">
    <ele>2.0</ele>
    <time>2026-01-08T12:09:31Z</time>
   </trkpt>
   <trkpt lat="59.1395370" lon="9.6502220">
    <ele>2.0</ele>
    <time>2026-01-08T12:09:32Z</time>
   </trkpt>
   <trkpt lat="59.1395420" lon="9.6502530">
    <ele>2.0</ele>
    <time>2026-01-08T12:09:33Z</time>
   </trkpt>
   <trkpt lat="59.1395380" lon="9.6502940">
    <ele>1.9</ele>
    <time>2026-01-08T12:09:34Z</time>
   </trkpt>
   <trkpt lat="59.1395410" lon="9.6503070">
    <ele>1.9</ele>
    <time>2026-01-08T12:09:35Z</time>
   </trkpt>
   <trkpt lat="59.1395490" lon="9.6503360">
    <ele>1.9</ele>
    <time>2026-01-08T12:09:36Z</time>
   </trkpt>
   <trkpt lat="59.1395560" lon="9.6503660">
    <ele>1.9</ele>
    <time>2026-01-08T12:09:37Z</time>
   </trkpt>
   <trkpt lat="59.1395700" lon="9.6504150">
    <ele>2.0</ele>
    <time>2026-01-08T12:09:38Z</time>
   </trkpt>
   <trkpt lat="59.1395750" lon="9.6504290">
    <ele>2.0</ele>
    <time>2026-01-08T12:09:39Z</time>
   </trkpt>
   <trkpt lat="59.1395780" lon="9.6504620">
    <ele>2.0</ele>
    <time>2026-01-08T12:09:40Z</time>
   </trkpt>
   <trkpt lat="59.1395750" lon="9.6504670">
    <ele>2.0</ele>
    <time>2026-01-08T12:09:41Z</time>
   </trkpt>
   <trkpt lat="59.1395740" lon="9.6504850">
    <ele>2.0</ele>
    <time>2026-01-08T12:09:42Z</time>
   </trkpt>
   <trkpt lat="59.1395820" lon="9.6505110">
    <ele>2.0</ele>
    <time>2026-01-08T12:09:43Z</time>
   </trkpt>
   <trkpt lat="59.1395960" lon="9.6505320">
    <ele>2.1</ele>
    <time>2026-01-08T12:09:44Z</time>
   </trkpt>
   <trkpt lat="59.1395990" lon="9.6505580">
    <ele>2.1</ele>
    <time>2026-01-08T12:09:45Z</time>
   </trkpt>
   <trkpt lat="59.1396060" lon="9.6505740">
    <ele>2.1</ele>
    <time>2026-01-08T12:09:46Z</time>
   </trkpt>
   <trkpt lat="59.1396010" lon="9.6505980">
    <ele>2.1</ele>
    <time>2026-01-08T12:09:47Z</time>
   </trkpt>
   <trkpt lat="59.1396070" lon="9.6506240">
    <ele>2.1</ele>
    <time>2026-01-08T12:09:48Z</time>
   </trkpt>
   <trkpt lat="59.1396130" lon="9.6506530">
    <ele>2.1</ele>
    <time>2026-01-08T12:09:49Z</time>
   </trkpt>
   <trkpt lat="59.1396180" lon="9.6506820">
    <ele>2.1</ele>
    <time>2026-01-08T12:09:50Z</time>
   </trkpt>
   <trkpt lat="59.1396250" lon="9.6507070">
    <ele>2.1</ele>
    <time>2026-01-08T12:09:51Z</time>
   </trkpt>
   <trkpt lat="59.1396260" lon="9.6507320">
    <ele>2.1</ele>
    <time>2026-01-08T12:09:52Z</time>
   </trkpt>
   <trkpt lat="59.1396330" lon="9.6507640">
    <ele>2.1</ele>
    <time>2026-01-08T12:09:53Z</time>
   </trkpt>
   <trkpt lat="59.1396410" lon="9.6508120">
    <ele>2.1</ele>
    <time>2026-01-08T12:09:54Z</time>
   </trkpt>
   <trkpt lat="59.1396440" lon="9.6508250">
    <ele>2.1</ele>
    <time>2026-01-08T12:09:55Z</time>
   </trkpt>
   <trkpt lat="59.1396470" lon="9.6508380">
    <ele>2.1</ele>
    <time>2026-01-08T12:09:56Z</time>
   </trkpt>
   <trkpt lat="59.1396530" lon="9.6508670">
    <ele>2.1</ele>
    <time>2026-01-08T12:09:57Z</time>
   </trkpt>
   <trkpt lat="59.1396510" lon="9.6509000">
    <ele>2.1</ele>
    <time>2026-01-08T12:09:58Z</time>
   </trkpt>
   <trkpt lat="59.1396540" lon="9.6509280">
    <ele>2.1</ele>
    <time>2026-01-08T12:09:59Z</time>
   </trkpt>
   <trkpt lat="59.1396510" lon="9.6509550">
    <ele>2.1</ele>
    <time>2026-01-08T12:10:00Z</time>
   </trkpt>
   <trkpt lat="59.1396590" lon="9.6510050">
    <ele>2.1</ele>
    <time>2026-01-08T12:10:01Z</time>
   </trkpt>
   <trkpt lat="59.1396610" lon="9.6510240">
    <ele>2.1</ele>
    <time>2026-01-08T12:10:02Z</time>
   </trkpt>
   <trkpt lat="59.1396630" lon="9.6510450">
    <ele>2.1</ele>
    <time>2026-01-08T12:10:03Z</time>
   </trkpt>
   <trkpt lat="59.1396660" lon="9.6510810">
    <ele>2.1</ele>
    <time>2026-01-08T12:10:04Z</time>
   </trkpt>
   <trkpt lat="59.1396730" lon="9.6511110">
    <ele>2.1</ele>
    <time>2026-01-08T12:10:05Z</time>
   </trkpt>
   <trkpt lat="59.1396710" lon="9.6511450">
    <ele>2.1</ele>
    <time>2026-01-08T12:10:06Z</time>
   </trkpt>
   <trkpt lat="59.1396710" lon="9.6511760">
    <ele>2.1</ele>
    <time>2026-01-08T12:10:07Z</time>
   </trkpt>
   <trkpt lat="59.1396680" lon="9.6512070">
    <ele>2.1</ele>
    <time>2026-01-08T12:10:08Z</time>
   </trkpt>
   <trkpt lat="59.1396690" lon="9.6512290">
    <ele>2.1</ele>
    <time>2026-01-08T12:10:09Z</time>
   </trkpt>
   <trkpt lat="59.1396670" lon="9.6512600">
    <ele>2.1</ele>
    <time>2026-01-08T12:10:10Z</time>
   </trkpt>
   <trkpt lat="59.1396680" lon="9.6512760">
    <ele>2.1</ele>
    <time>2026-01-08T12:10:11Z</time>
   </trkpt>
   <trkpt lat="59.1396670" lon="9.6512970">
    <ele>2.2</ele>
    <time>2026-01-08T12:10:12Z</time>
   </trkpt>
   <trkpt lat="59.1396720" lon="9.6513180">
    <ele>2.2</ele>
    <time>2026-01-08T12:10:13Z</time>
   </trkpt>
   <trkpt lat="59.1396690" lon="9.6513470">
    <ele>2.2</ele>
    <time>2026-01-08T12:10:14Z</time>
   </trkpt>
   <trkpt lat="59.1396620" lon="9.6513830">
    <ele>2.2</ele>
    <time>2026-01-08T12:10:15Z</time>
   </trkpt>
   <trkpt lat="59.1396530" lon="9.6514040">
    <ele>2.2</ele>
    <time>2026-01-08T12:10:16Z</time>
   </trkpt>
   <trkpt lat="59.1396510" lon="9.6514250">
    <ele>2.2</ele>
    <time>2026-01-08T12:10:17Z</time>
   </trkpt>
   <trkpt lat="59.1396550" lon="9.6514480">
    <ele>2.2</ele>
    <time>2026-01-08T12:10:18Z</time>
   </trkpt>
   <trkpt lat="59.1396560" lon="9.6514780">
    <ele>2.2</ele>
    <time>2026-01-08T12:10:19Z</time>
   </trkpt>
   <trkpt lat="59.1396520" lon="9.6515050">
    <ele>2.2</ele>
    <time>2026-01-08T12:10:20Z</time>
   </trkpt>
   <trkpt lat="59.1396470" lon="9.6515370">
    <ele>2.2</ele>
    <time>2026-01-08T12:10:21Z</time>
   </trkpt>
   <trkpt lat="59.1396450" lon="9.6515710">
    <ele>2.2</ele>
    <time>2026-01-08T12:10:22Z</time>
   </trkpt>
   <trkpt lat="59.1396460" lon="9.6516100">
    <ele>2.3</ele>
    <time>2026-01-08T12:10:23Z</time>
   </trkpt>
   <trkpt lat="59.1396470" lon="9.6516240">
    <ele>2.3</ele>
    <time>2026-01-08T12:10:24Z</time>
   </trkpt>
   <trkpt lat="59.1396490" lon="9.6516370">
    <ele>2.3</ele>
    <time>2026-01-08T12:10:25Z</time>
   </trkpt>
   <trkpt lat="59.1396500" lon="9.6516510">
    <ele>2.3</ele>
    <time>2026-01-08T12:10:26Z</time>
   </trkpt>
   <trkpt lat="59.1396490" lon="9.6516770">
    <ele>2.3</ele>
    <time>2026-01-08T12:10:27Z</time>
   </trkpt>
   <trkpt lat="59.1396480" lon="9.6516870">
    <ele>2.3</ele>
    <time>2026-01-08T12:10:28Z</time>
   </trkpt>
   <trkpt lat="59.1396540" lon="9.6517070">
    <ele>2.3</ele>
    <time>2026-01-08T12:10:29Z</time>
   </trkpt>
   <trkpt lat="59.1396580" lon="9.6517290">
    <ele>2.3</ele>
    <time>2026-01-08T12:10:30Z</time>
   </trkpt>
   <trkpt lat="59.1396700" lon="9.6517540">
    <ele>2.3</ele>
    <time>2026-01-08T12:10:31Z</time>
   </trkpt>
   <trkpt lat="59.1396810" lon="9.6517720">
    <ele>2.3</ele>
    <time>2026-01-08T12:10:32Z</time>
   </trkpt>
   <trkpt lat="59.1396910" lon="9.6517900">
    <ele>2.3</ele>
    <time>2026-01-08T12:10:33Z</time>
   </trkpt>
   <trkpt lat="59.1396760" lon="9.6517800">
    <ele>2.3</ele>
    <time>2026-01-08T12:10:34Z</time>
   </trkpt>
   <trkpt lat="59.1396790" lon="9.6518070">
    <ele>2.3</ele>
    <time>2026-01-08T12:10:35Z</time>
   </trkpt>
   <trkpt lat="59.1396780" lon="9.6518300">
    <ele>2.3</ele>
    <time>2026-01-08T12:10:36Z</time>
   </trkpt>
   <trkpt lat="59.1396920" lon="9.6518470">
    <ele>2.4</ele>
    <time>2026-01-08T12:10:37Z</time>
   </trkpt>
   <trkpt lat="59.1397090" lon="9.6518570">
    <ele>2.4</ele>
    <time>2026-01-08T12:10:38Z</time>
   </trkpt>
   <trkpt lat="59.1397120" lon="9.6518680">
    <ele>2.4</ele>
    <time>2026-01-08T12:10:39Z</time>
   </trkpt>
   <trkpt lat="59.1397140" lon="9.6518790">
    <ele>2.4</ele>
    <time>2026-01-08T12:10:40Z</time>
   </trkpt>
   <trkpt lat="59.1397170" lon="9.6518900">
    <ele>2.4</ele>
    <time>2026-01-08T12:10:41Z</time>
   </trkpt>
   <trkpt lat="59.1397200" lon="9.6519010">
    <ele>2.4</ele>
    <time>2026-01-08T12:10:42Z</time>
   </trkpt>
   <trkpt lat="59.1397540" lon="9.6519400">
    <ele>2.4</ele>
    <time>2026-01-08T12:10:43Z</time>
   </trkpt>
   <trkpt lat="59.1397630" lon="9.6519470">
    <ele>2.4</ele>
    <time>2026-01-08T12:10:44Z</time>
   </trkpt>
   <trkpt lat="59.1397990" lon="9.6519650">
    <ele>2.4</ele>
    <time>2026-01-08T12:10:45Z</time>
   </trkpt>
   <trkpt lat="59.1398110" lon="9.6519730">
    <ele>2.4</ele>
    <time>2026-01-08T12:10:46Z</time>
   </trkpt>
   <trkpt lat="59.1398420" lon="9.6519720">
    <ele>2.4</ele>
    <time>2026-01-08T12:10:47Z</time>
   </trkpt>
   <trkpt lat="59.1398520" lon="9.6519670">
    <ele>2.4</ele>
    <time>2026-01-08T12:10:48Z</time>
   </trkpt>
   <trkpt lat="59.1398720" lon="9.6519770">
    <ele>2.5</ele>
    <time>2026-01-08T12:10:49Z</time>
   </trkpt>
   <trkpt lat="59.1398840" lon="9.6519760">
    <ele>2.5</ele>
    <time>2026-01-08T12:10:50Z</time>
   </trkpt>
   <trkpt lat="59.1399130" lon="9.6519950">
    <ele>2.5</ele>
    <time>2026-01-08T12:10:51Z</time>
   </trkpt>
   <trkpt lat="59.1399230" lon="9.6520020">
    <ele>2.5</ele>
    <time>2026-01-08T12:10:52Z</time>
   </trkpt>
   <trkpt lat="59.1399370" lon="9.6520330">
    <ele>2.5</ele>
    <time>2026-01-08T12:10:53Z</time>
   </trkpt>
   <trkpt lat="59.1399430" lon="9.6520510">
    <ele>2.5</ele>
    <time>2026-01-08T12:10:54Z</time>
   </trkpt>
   <trkpt lat="59.1399490" lon="9.6520680">
    <ele>2.5</ele>
    <time>2026-01-08T12:10:55Z</time>
   </trkpt>
   <trkpt lat="59.1399620" lon="9.6520980">
    <ele>2.5</ele>
    <time>2026-01-08T12:10:56Z</time>
   </trkpt>
   <trkpt lat="59.1399670" lon="9.6521090">
    <ele>2.5</ele>
    <time>2026-01-08T12:10:57Z</time>
   </trkpt>
   <trkpt lat="59.1399730" lon="9.6521210">
    <ele>2.5</ele>
    <time>2026-01-08T12:10:58Z</time>
   </trkpt>
   <trkpt lat="59.1399750" lon="9.6521400">
    <ele>2.5</ele>
    <time>2026-01-08T12:10:59Z</time>
   </trkpt>
   <trkpt lat="59.1399870" lon="9.6521730">
    <ele>2.4</ele>
    <time>2026-01-08T12:11:00Z</time>
   </trkpt>
   <trkpt lat="59.1399980" lon="9.6521930">
    <ele>2.4</ele>
    <time>2026-01-08T12:11:01Z</time>
   </trkpt>
   <trkpt lat="59.1400100" lon="9.6522190">
    <ele>2.4</ele>
    <time>2026-01-08T12:11:02Z</time>
   </trkpt>
   <trkpt lat="59.1400210" lon="9.6522440">
    <ele>2.4</ele>
    <time>2026-01-08T12:11:03Z</time>
   </trkpt>
   <trkpt lat="59.1400290" lon="9.6522640">
    <ele>2.4</ele>
    <time>2026-01-08T12:11:04Z</time>
   </trkpt>
   <trkpt lat="59.1400310" lon="9.6522970">
    <ele>2.4</ele>
    <time>2026-01-08T12:11:05Z</time>
   </trkpt>
   <trkpt lat="59.1400370" lon="9.6523150">
    <ele>2.4</ele>
    <time>2026-01-08T12:11:06Z</time>
   </trkpt>
   <trkpt lat="59.1400440" lon="9.6523470">
    <ele>2.4</ele>
    <time>2026-01-08T12:11:07Z</time>
   </trkpt>
   <trkpt lat="59.1400510" lon="9.6523600">
    <ele>2.4</ele>
    <time>2026-01-08T12:11:08Z</time>
   </trkpt>
   <trkpt lat="59.1400700" lon="9.6523830">
    <ele>2.4</ele>
    <time>2026-01-08T12:11:09Z</time>
   </trkpt>
   <trkpt lat="59.1400800" lon="9.6523950">
    <ele>2.4</ele>
    <time>2026-01-08T12:11:10Z</time>
   </trkpt>
   <trkpt lat="59.1400900" lon="9.6524220">
    <ele>2.4</ele>
    <time>2026-01-08T12:11:11Z</time>
   </trkpt>
   <trkpt lat="59.1400920" lon="9.6524480">
    <ele>2.4</ele>
    <time>2026-01-08T12:11:12Z</time>
   </trkpt>
   <trkpt lat="59.1401060" lon="9.6524740">
    <ele>2.4</ele>
    <time>2026-01-08T12:11:13Z</time>
   </trkpt>
   <trkpt lat="59.1401160" lon="9.6524920">
    <ele>2.4</ele>
    <time>2026-01-08T12:11:14Z</time>
   </trkpt>
   <trkpt lat="59.1401300" lon="9.6525200">
    <ele>2.4</ele>
    <time>2026-01-08T12:11:15Z</time>
   </trkpt>
   <trkpt lat="59.1401430" lon="9.6525340">
    <ele>2.4</ele>
    <time>2026-01-08T12:11:16Z</time>
   </trkpt>
   <trkpt lat="59.1401610" lon="9.6525570">
    <ele>2.4</ele>
    <time>2026-01-08T12:11:17Z</time>
   </trkpt>
   <trkpt lat="59.1401720" lon="9.6525650">
    <ele>2.4</ele>
    <time>2026-01-08T12:11:18Z</time>
   </trkpt>
   <trkpt lat="59.1401910" lon="9.6525820">
    <ele>2.4</ele>
    <time>2026-01-08T12:11:19Z</time>
   </trkpt>
   <trkpt lat="59.1401990" lon="9.6525910">
    <ele>2.4</ele>
    <time>2026-01-08T12:11:20Z</time>
   </trkpt>
   <trkpt lat="59.1402060" lon="9.6525990">
    <ele>2.4</ele>
    <time>2026-01-08T12:11:21Z</time>
   </trkpt>
   <trkpt lat="59.1402230" lon="9.6526250">
    <ele>2.4</ele>
    <time>2026-01-08T12:11:22Z</time>
   </trkpt>
   <trkpt lat="59.1402320" lon="9.6526340">
    <ele>2.4</ele>
    <time>2026-01-08T12:11:23Z</time>
   </trkpt>
   <trkpt lat="59.1402400" lon="9.6526430">
    <ele>2.4</ele>
    <time>2026-01-08T12:11:24Z</time>
   </trkpt>
   <trkpt lat="59.1402590" lon="9.6526610">
    <ele>2.4</ele>
    <time>2026-01-08T12:11:25Z</time>
   </trkpt>
   <trkpt lat="59.1402610" lon="9.6526780">
    <ele>2.4</ele>
    <time>2026-01-08T12:11:26Z</time>
   </trkpt>
   <trkpt lat="59.1402750" lon="9.6526940">
    <ele>2.4</ele>
    <time>2026-01-08T12:11:27Z</time>
   </trkpt>
   <trkpt lat="59.1402730" lon="9.6527130">
    <ele>2.4</ele>
    <time>2026-01-08T12:11:28Z</time>
   </trkpt>
   <trkpt lat="59.1402670" lon="9.6527000">
    <ele>2.4</ele>
    <time>2026-01-08T12:11:29Z</time>
   </trkpt>
   <trkpt lat="59.1402650" lon="9.6527140">
    <ele>2.4</ele>
    <time>2026-01-08T12:11:30Z</time>
   </trkpt>
   <trkpt lat="59.1402620" lon="9.6527150">
    <ele>2.4</ele>
    <time>2026-01-08T12:11:31Z</time>
   </trkpt>
   <trkpt lat="59.1402620" lon="9.6527170">
    <ele>2.4</ele>
    <time>2026-01-08T12:11:32Z</time>
   </trkpt>
   <trkpt lat="59.1402640" lon="9.6527240">
    <ele>2.4</ele>
    <time>2026-01-08T12:11:33Z</time>
   </trkpt>
   <trkpt lat="59.1402640" lon="9.6527230">
    <ele>2.4</ele>
    <time>2026-01-08T12:11:34Z</time>
   </trkpt>
   <trkpt lat="59.1402640" lon="9.6527230">
    <ele>2.4</ele>
    <time>2026-01-08T12:11:35Z</time>
   </trkpt>
   <trkpt lat="59.1402650" lon="9.6527340">
    <ele>2.4</ele>
    <time>2026-01-08T12:11:36Z</time>
   </trkpt>
   <trkpt lat="59.1402650" lon="9.6527340">
    <ele>2.4</ele>
    <time>2026-01-08T12:11:37Z</time>
   </trkpt>
   <trkpt lat="59.1402650" lon="9.6527340">
    <ele>2.4</ele>
    <time>2026-01-08T12:11:38Z</time>
   </trkpt>
   <trkpt lat="59.1402650" lon="9.6527340">
    <ele>2.4</ele>
    <time>2026-01-08T12:11:39Z</time>
   </trkpt>
   <trkpt lat="59.1402650" lon="9.6527340">
    <ele>2.4</ele>
    <time>2026-01-08T12:11:40Z</time>
   </trkpt>
   <trkpt lat="59.1402650" lon="9.6527340">
    <ele>2.4</ele>
    <time>2026-01-08T12:11:41Z</time>
   </trkpt>
   <trkpt lat="59.1402630" lon="9.6527420">
    <ele>2.4</ele>
    <time>2026-01-08T12:11:42Z</time>
   </trkpt>
   <trkpt lat="59.1402630" lon="9.6527460">
    <ele>2.4</ele>
    <time>2026-01-08T12:11:43Z</time>
   </trkpt>
   <trkpt lat="59.1402630" lon="9.6527490">
    <ele>2.4</ele>
    <time>2026-01-08T12:11:44Z</time>
   </trkpt>
   <trkpt lat="59.1402640" lon="9.6527500">
    <ele>2.4</ele>
    <time>2026-01-08T12:11:45Z</time>
   </trkpt>
   <trkpt lat="59.1402640" lon="9.6527490">
    <ele>2.4</ele>
    <time>2026-01-08T12:11:46Z</time>
   </trkpt>
   <trkpt lat="59.1402640" lon="9.6527490">
    <ele>2.4</ele>
    <time>2026-01-08T12:11:47Z</time>
   </trkpt>
   <trkpt lat="59.1402640" lon="9.6527490">
    <ele>2.4</ele>
    <time>2026-01-08T12:11:48Z</time>
   </trkpt>
   <trkpt lat="59.1402640" lon="9.6527490">
    <ele>2.4</ele>
    <time>2026-01-08T12:11:49Z</time>
   </trkpt>
   <trkpt lat="59.1402640" lon="9.6527490">
    <ele>2.4</ele>
    <time>2026-01-08T12:11:50Z</time>
   </trkpt>
   <trkpt lat="59.1402510" lon="9.6527350">
    <ele>2.4</ele>
    <time>2026-01-08T12:11:51Z</time>
   </trkpt>
   <trkpt lat="59.1402510" lon="9.6527350">
    <ele>2.4</ele>
    <time>2026-01-08T12:11:52Z</time>
   </trkpt>
   <trkpt lat="59.1402510" lon="9.6527350">
    <ele>2.4</ele>
    <time>2026-01-08T12:11:53Z</time>
   </trkpt>
   <trkpt lat="59.1402510" lon="9.6527350">
    <ele>2.4</ele>
    <time>2026-01-08T12:11:54Z</time>
   </trkpt>
   <trkpt lat="59.1402370" lon="9.6527440">
    <ele>2.4</ele>
    <time>2026-01-08T12:11:55Z</time>
   </trkpt>
   <trkpt lat="59.1402380" lon="9.6527400">
    <ele>2.4</ele>
    <time>2026-01-08T12:11:56Z</time>
   </trkpt>
   <trkpt lat="59.1402380" lon="9.6527400">
    <ele>2.4</ele>
    <time>2026-01-08T12:11:57Z</time>
   </trkpt>
   <trkpt lat="59.1402330" lon="9.6527400">
    <ele>2.4</ele>
    <time>2026-01-08T12:11:58Z</time>
   </trkpt>
   <trkpt lat="59.1402420" lon="9.6527420">
    <ele>2.4</ele>
    <time>2026-01-08T12:11:59Z</time>
   </trkpt>
   <trkpt lat="59.1402490" lon="9.6527400">
    <ele>2.4</ele>
    <time>2026-01-08T12:12:00Z</time>
   </trkpt>
   <trkpt lat="59.1402500" lon="9.6527400">
    <ele>2.4</ele>
    <time>2026-01-08T12:12:01Z</time>
   </trkpt>
   <trkpt lat="59.1402560" lon="9.6527360">
    <ele>2.4</ele>
    <time>2026-01-08T12:12:02Z</time>
   </trkpt>
   <trkpt lat="59.1402590" lon="9.6527250">
    <ele>2.4</ele>
    <time>2026-01-08T12:12:03Z</time>
   </trkpt>
   <trkpt lat="59.1402660" lon="9.6527330">
    <ele>2.4</ele>
    <time>2026-01-08T12:12:04Z</time>
   </trkpt>
   <trkpt lat="59.1402810" lon="9.6527550">
    <ele>2.4</ele>
    <time>2026-01-08T12:12:05Z</time>
   </trkpt>
   <trkpt lat="59.1402890" lon="9.6527650">
    <ele>2.4</ele>
    <time>2026-01-08T12:12:06Z</time>
   </trkpt>
   <trkpt lat="59.1402970" lon="9.6527750">
    <ele>2.4</ele>
    <time>2026-01-08T12:12:07Z</time>
   </trkpt>
   <trkpt lat="59.1403070" lon="9.6527920">
    <ele>2.4</ele>
    <time>2026-01-08T12:12:08Z</time>
   </trkpt>
   <trkpt lat="59.1403190" lon="9.6528020">
    <ele>2.4</ele>
    <time>2026-01-08T12:12:09Z</time>
   </trkpt>
   <trkpt lat="59.1403300" lon="9.6528120">
    <ele>2.4</ele>
    <time>2026-01-08T12:12:10Z</time>
   </trkpt>
   <trkpt lat="59.1403420" lon="9.6528290">
    <ele>2.4</ele>
    <time>2026-01-08T12:12:11Z</time>
   </trkpt>
   <trkpt lat="59.1403470" lon="9.6528390">
    <ele>2.4</ele>
    <time>2026-01-08T12:12:12Z</time>
   </trkpt>
   <trkpt lat="59.1403570" lon="9.6528480">
    <ele>2.4</ele>
    <time>2026-01-08T12:12:13Z</time>
   </trkpt>
   <trkpt lat="59.1403700" lon="9.6528700">
    <ele>2.4</ele>
    <time>2026-01-08T12:12:14Z</time>
   </trkpt>
   <trkpt lat="59.1403770" lon="9.6528830">
    <ele>2.4</ele>
    <time>2026-01-08T12:12:15Z</time>
   </trkpt>
   <trkpt lat="59.1403850" lon="9.6528950">
    <ele>2.4</ele>
    <time>2026-01-08T12:12:16Z</time>
   </trkpt>
   <trkpt lat="59.1404000" lon="9.6529000">
    <ele>2.4</ele>
    <time>2026-01-08T12:12:17Z</time>
   </trkpt>
   <trkpt lat="59.1404100" lon="9.6529210">
    <ele>2.4</ele>
    <time>2026-01-08T12:12:18Z</time>
   </trkpt>
   <trkpt lat="59.1404230" lon="9.6529380">
    <ele>2.4</ele>
    <time>2026-01-08T12:12:19Z</time>
   </trkpt>
   <trkpt lat="59.1404330" lon="9.6529580">
    <ele>2.4</ele>
    <time>2026-01-08T12:12:20Z</time>
   </trkpt>
   <trkpt lat="59.1404500" lon="9.6529860">
    <ele>2.4</ele>
    <time>2026-01-08T12:12:21Z</time>
   </trkpt>
   <trkpt lat="59.1404590" lon="9.6530000">
    <ele>2.4</ele>
    <time>2026-01-08T12:12:22Z</time>
   </trkpt>
   <trkpt lat="59.1404670" lon="9.6530150">
    <ele>2.4</ele>
    <time>2026-01-08T12:12:23Z</time>
   </trkpt>
   <trkpt lat="59.1404800" lon="9.6530420">
    <ele>2.4</ele>
    <time>2026-01-08T12:12:24Z</time>
   </trkpt>
   <trkpt lat="59.1404870" lon="9.6530550">
    <ele>2.4</ele>
    <time>2026-01-08T12:12:25Z</time>
   </trkpt>
   <trkpt lat="59.1404950" lon="9.6530690">
    <ele>2.4</ele>
    <time>2026-01-08T12:12:26Z</time>
   </trkpt>
   <trkpt lat="59.1405040" lon="9.6530730">
    <ele>2.4</ele>
    <time>2026-01-08T12:12:27Z</time>
   </trkpt>
   <trkpt lat="59.1405230" lon="9.6530880">
    <ele>2.4</ele>
    <time>2026-01-08T12:12:28Z</time>
   </trkpt>
   <trkpt lat="59.1405250" lon="9.6531080">
    <ele>2.4</ele>
    <time>2026-01-08T12:12:29Z</time>
   </trkpt>
   <trkpt lat="59.1405380" lon="9.6531380">
    <ele>2.4</ele>
    <time>2026-01-08T12:12:30Z</time>
   </trkpt>
   <trkpt lat="59.1405570" lon="9.6531650">
    <ele>2.4</ele>
    <time>2026-01-08T12:12:31Z</time>
   </trkpt>
   <trkpt lat="59.1405640" lon="9.6531750">
    <ele>2.4</ele>
    <time>2026-01-08T12:12:32Z</time>
   </trkpt>
   <trkpt lat="59.1405720" lon="9.6531860">
    <ele>2.4</ele>
    <time>2026-01-08T12:12:33Z</time>
   </trkpt>
   <trkpt lat="59.1405930" lon="9.6532210">
    <ele>2.4</ele>
    <time>2026-01-08T12:12:34Z</time>
   </trkpt>
   <trkpt lat="59.1406010" lon="9.6532250">
    <ele>2.4</ele>
    <time>2026-01-08T12:12:35Z</time>
   </trkpt>
   <trkpt lat="59.1406210" lon="9.6532460">
    <ele>2.4</ele>
    <time>2026-01-08T12:12:36Z</time>
   </trkpt>
   <trkpt lat="59.1406320" lon="9.6532770">
    <ele>2.4</ele>
    <time>2026-01-08T12:12:37Z</time>
   </trkpt>
   <trkpt lat="59.1406380" lon="9.6532900">
    <ele>2.4</ele>
    <time>2026-01-08T12:12:38Z</time>
   </trkpt>
   <trkpt lat="59.1406440" lon="9.6533040">
    <ele>2.4</ele>
    <time>2026-01-08T12:12:39Z</time>
   </trkpt>
   <trkpt lat="59.1406570" lon="9.6533290">
    <ele>2.5</ele>
    <time>2026-01-08T12:12:40Z</time>
   </trkpt>
   <trkpt lat="59.1406660" lon="9.6533370">
    <ele>2.5</ele>
    <time>2026-01-08T12:12:41Z</time>
   </trkpt>
   <trkpt lat="59.1406810" lon="9.6533500">
    <ele>2.5</ele>
    <time>2026-01-08T12:12:42Z</time>
   </trkpt>
   <trkpt lat="59.1406900" lon="9.6533640">
    <ele>2.5</ele>
    <time>2026-01-08T12:12:43Z</time>
   </trkpt>
   <trkpt lat="59.1407110" lon="9.6533920">
    <ele>2.5</ele>
    <time>2026-01-08T12:12:44Z</time>
   </trkpt>
   <trkpt lat="59.1407150" lon="9.6534030">
    <ele>2.5</ele>
    <time>2026-01-08T12:12:45Z</time>
   </trkpt>
   <trkpt lat="59.1407190" lon="9.6534130">
    <ele>2.5</ele>
    <time>2026-01-08T12:12:46Z</time>
   </trkpt>
   <trkpt lat="59.1407300" lon="9.6534320">
    <ele>2.5</ele>
    <time>2026-01-08T12:12:47Z</time>
   </trkpt>
   <trkpt lat="59.1407410" lon="9.6534460">
    <ele>2.5</ele>
    <time>2026-01-08T12:12:48Z</time>
   </trkpt>
   <trkpt lat="59.1407580" lon="9.6534700">
    <ele>2.5</ele>
    <time>2026-01-08T12:12:49Z</time>
   </trkpt>
   <trkpt lat="59.1407650" lon="9.6534760">
    <ele>2.5</ele>
    <time>2026-01-08T12:12:50Z</time>
   </trkpt>
   <trkpt lat="59.1407720" lon="9.6534890">
    <ele>2.5</ele>
    <time>2026-01-08T12:12:51Z</time>
   </trkpt>
   <trkpt lat="59.1407680" lon="9.6534800">
    <ele>2.5</ele>
    <time>2026-01-08T12:12:52Z</time>
   </trkpt>
   <trkpt lat="59.1407690" lon="9.6534660">
    <ele>2.5</ele>
    <time>2026-01-08T12:12:53Z</time>
   </trkpt>
   <trkpt lat="59.1407700" lon="9.6534750">
    <ele>2.5</ele>
    <time>2026-01-08T12:12:54Z</time>
   </trkpt>
   <trkpt lat="59.1407710" lon="9.6534680">
    <ele>2.5</ele>
    <time>2026-01-08T12:12:55Z</time>
   </trkpt>
   <trkpt lat="59.1407710" lon="9.6534680">
    <ele>2.5</ele>
    <time>2026-01-08T12:12:56Z</time>
   </trkpt>
   <trkpt lat="59.1407710" lon="9.6534550">
    <ele>2.5</ele>
    <time>2026-01-08T12:12:57Z</time>
   </trkpt>
   <trkpt lat="59.1407740" lon="9.6534440">
    <ele>2.5</ele>
    <time>2026-01-08T12:12:58Z</time>
   </trkpt>
   <trkpt lat="59.1407750" lon="9.6534540">
    <ele>2.5</ele>
    <time>2026-01-08T12:12:59Z</time>
   </trkpt>
   <trkpt lat="59.1407770" lon="9.6534610">
    <ele>2.5</ele>
    <time>2026-01-08T12:13:00Z</time>
   </trkpt>
   <trkpt lat="59.1407760" lon="9.6534620">
    <ele>2.5</ele>
    <time>2026-01-08T12:13:01Z</time>
   </trkpt>
   <trkpt lat="59.1407760" lon="9.6534620">
    <ele>2.5</ele>
    <time>2026-01-08T12:13:02Z</time>
   </trkpt>
   <trkpt lat="59.1407760" lon="9.6534620">
    <ele>2.5</ele>
    <time>2026-01-08T12:13:03Z</time>
   </trkpt>
   <trkpt lat="59.1407760" lon="9.6534620">
    <ele>2.5</ele>
    <time>2026-01-08T12:13:04Z</time>
   </trkpt>
   <trkpt lat="59.1407760" lon="9.6534620">
    <ele>2.5</ele>
    <time>2026-01-08T12:13:05Z</time>
   </trkpt>
   <trkpt lat="59.1407760" lon="9.6534620">
    <ele>2.5</ele>
    <time>2026-01-08T12:13:06Z</time>
   </trkpt>
   <trkpt lat="59.1407760" lon="9.6534620">
    <ele>2.5</ele>
    <time>2026-01-08T12:13:07Z</time>
   </trkpt>
   <trkpt lat="59.1407630" lon="9.6534630">
    <ele>2.5</ele>
    <time>2026-01-08T12:13:08Z</time>
   </trkpt>
   <trkpt lat="59.1407640" lon="9.6534630">
    <ele>2.5</ele>
    <time>2026-01-08T12:13:09Z</time>
   </trkpt>
   <trkpt lat="59.1407650" lon="9.6534590">
    <ele>2.5</ele>
    <time>2026-01-08T12:13:10Z</time>
   </trkpt>
   <trkpt lat="59.1407650" lon="9.6534590">
    <ele>2.5</ele>
    <time>2026-01-08T12:13:11Z</time>
   </trkpt>
   <trkpt lat="59.1407650" lon="9.6534590">
    <ele>2.5</ele>
    <time>2026-01-08T12:13:12Z</time>
   </trkpt>
   <trkpt lat="59.1407650" lon="9.6534590">
    <ele>2.5</ele>
    <time>2026-01-08T12:13:13Z</time>
   </trkpt>
   <trkpt lat="59.1407650" lon="9.6534590">
    <ele>2.5</ele>
    <time>2026-01-08T12:13:14Z</time>
   </trkpt>
   <trkpt lat="59.1407650" lon="9.6534590">
    <ele>2.5</ele>
    <time>2026-01-08T12:13:15Z</time>
   </trkpt>
   <trkpt lat="59.1407680" lon="9.6534580">
    <ele>2.5</ele>
    <time>2026-01-08T12:13:16Z</time>
   </trkpt>
   <trkpt lat="59.1407680" lon="9.6534490">
    <ele>2.5</ele>
    <time>2026-01-08T12:13:17Z</time>
   </trkpt>
   <trkpt lat="59.1407680" lon="9.6534360">
    <ele>2.5</ele>
    <time>2026-01-08T12:13:18Z</time>
   </trkpt>
   <trkpt lat="59.1407680" lon="9.6534360">
    <ele>2.5</ele>
    <time>2026-01-08T12:13:19Z</time>
   </trkpt>
   <trkpt lat="59.1407680" lon="9.6534360">
    <ele>2.5</ele>
    <time>2026-01-08T12:13:20Z</time>
   </trkpt>
   <trkpt lat="59.1407680" lon="9.6534360">
    <ele>2.5</ele>
    <time>2026-01-08T12:13:21Z</time>
   </trkpt>
   <trkpt lat="59.1407680" lon="9.6534360">
    <ele>2.5</ele>
    <time>2026-01-08T12:13:22Z</time>
   </trkpt>
   <trkpt lat="59.1407680" lon="9.6534360">
    <ele>2.5</ele>
    <time>2026-01-08T12:13:23Z</time>
   </trkpt>
   <trkpt lat="59.1407680" lon="9.6534360">
    <ele>2.5</ele>
    <time>2026-01-08T12:13:24Z</time>
   </trkpt>
   <trkpt lat="59.1407680" lon="9.6534360">
    <ele>2.5</ele>
    <time>2026-01-08T12:13:25Z</time>
   </trkpt>
   <trkpt lat="59.1407680" lon="9.6534360">
    <ele>2.5</ele>
    <time>2026-01-08T12:13:26Z</time>
   </trkpt>
   <trkpt lat="59.1407680" lon="9.6534360">
    <ele>2.5</ele>
    <time>2026-01-08T12:13:27Z</time>
   </trkpt>
   <trkpt lat="59.1407680" lon="9.6534360">
    <ele>2.5</ele>
    <time>2026-01-08T12:13:28Z</time>
   </trkpt>
   <trkpt lat="59.1407680" lon="9.6534360">
    <ele>2.5</ele>
    <time>2026-01-08T12:13:29Z</time>
   </trkpt>
   <trkpt lat="59.1407680" lon="9.6534360">
    <ele>2.5</ele>
    <time>2026-01-08T12:13:30Z</time>
   </trkpt>
   <trkpt lat="59.1407680" lon="9.6534360">
    <ele>2.5</ele>
    <time>2026-01-08T12:13:31Z</time>
   </trkpt>
   <trkpt lat="59.1407680" lon="9.6534360">
    <ele>2.5</ele>
    <time>2026-01-08T12:13:32Z</time>
   </trkpt>
   <trkpt lat="59.1407680" lon="9.6534360">
    <ele>2.5</ele>
    <time>2026-01-08T12:13:33Z</time>
   </trkpt>
   <trkpt lat="59.1407680" lon="9.6534360">
    <ele>2.5</ele>
    <time>2026-01-08T12:13:34Z</time>
   </trkpt>
   <trkpt lat="59.1407670" lon="9.6534250">
    <ele>2.5</ele>
    <time>2026-01-08T12:13:35Z</time>
   </trkpt>
   <trkpt lat="59.1407680" lon="9.6534290">
    <ele>2.5</ele>
    <time>2026-01-08T12:13:36Z</time>
   </trkpt>
   <trkpt lat="59.1407690" lon="9.6534260">
    <ele>2.5</ele>
    <time>2026-01-08T12:13:37Z</time>
   </trkpt>
   <trkpt lat="59.1407670" lon="9.6534380">
    <ele>2.5</ele>
    <time>2026-01-08T12:13:38Z</time>
   </trkpt>
   <trkpt lat="59.1407650" lon="9.6534470">
    <ele>2.5</ele>
    <time>2026-01-08T12:13:39Z</time>
   </trkpt>
   <trkpt lat="59.1407650" lon="9.6534470">
    <ele>2.5</ele>
    <time>2026-01-08T12:13:40Z</time>
   </trkpt>
   <trkpt lat="59.1407670" lon="9.6534450">
    <ele>2.5</ele>
    <time>2026-01-08T12:13:41Z</time>
   </trkpt>
   <trkpt lat="59.1407670" lon="9.6534440">
    <ele>2.5</ele>
    <time>2026-01-08T12:13:42Z</time>
   </trkpt>
   <trkpt lat="59.1407680" lon="9.6534600">
    <ele>2.5</ele>
    <time>2026-01-08T12:13:43Z</time>
   </trkpt>
   <trkpt lat="59.1407700" lon="9.6534560">
    <ele>2.5</ele>
    <time>2026-01-08T12:13:44Z</time>
   </trkpt>
   <trkpt lat="59.1407730" lon="9.6534540">
    <ele>2.5</ele>
    <time>2026-01-08T12:13:45Z</time>
   </trkpt>
   <trkpt lat="59.1407860" lon="9.6534410">
    <ele>2.5</ele>
    <time>2026-01-08T12:13:46Z</time>
   </trkpt>
   <trkpt lat="59.1407860" lon="9.6534470">
    <ele>2.5</ele>
    <time>2026-01-08T12:13:47Z</time>
   </trkpt>
   <trkpt lat="59.1407870" lon="9.6534490">
    <ele>2.5</ele>
    <time>2026-01-08T12:13:48Z</time>
   </trkpt>
   <trkpt lat="59.1407880" lon="9.6534500">
    <ele>2.5</ele>
    <time>2026-01-08T12:13:49Z</time>
   </trkpt>
   <trkpt lat="59.1407890" lon="9.6534510">
    <ele>2.5</ele>
    <time>2026-01-08T12:13:50Z</time>
   </trkpt>
   <trkpt lat="59.1407900" lon="9.6534520">
    <ele>2.5</ele>
    <time>2026-01-08T12:13:51Z</time>
   </trkpt>
   <trkpt lat="59.1407910" lon="9.6534540">
    <ele>2.5</ele>
    <time>2026-01-08T12:13:52Z</time>
   </trkpt>
   <trkpt lat="59.1407920" lon="9.6534550">
    <ele>2.5</ele>
    <time>2026-01-08T12:13:53Z</time>
   </trkpt>
   <trkpt lat="59.1407940" lon="9.6534560">
    <ele>2.5</ele>
    <time>2026-01-08T12:13:54Z</time>
   </trkpt>
   <trkpt lat="59.1407950" lon="9.6534570">
    <ele>2.5</ele>
    <time>2026-01-08T12:13:55Z</time>
   </trkpt>
   <trkpt lat="59.1407960" lon="9.6534590">
    <ele>2.5</ele>
    <time>2026-01-08T12:13:56Z</time>
   </trkpt>
   <trkpt lat="59.1407970" lon="9.6534600">
    <ele>2.5</ele>
    <time>2026-01-08T12:13:57Z</time>
   </trkpt>
   <trkpt lat="59.1407980" lon="9.6534610">
    <ele>2.5</ele>
    <time>2026-01-08T12:13:58Z</time>
   </trkpt>
   <trkpt lat="59.1407990" lon="9.6534620">
    <ele>2.5</ele>
    <time>2026-01-08T12:13:59Z</time>
   </trkpt>
   <trkpt lat="59.1408000" lon="9.6534640">
    <ele>2.5</ele>
    <time>2026-01-08T12:14:00Z</time>
   </trkpt>
   <trkpt lat="59.1408010" lon="9.6534650">
    <ele>2.5</ele>
    <time>2026-01-08T12:14:01Z</time>
   </trkpt>
   <trkpt lat="59.1408020" lon="9.6534660">
    <ele>2.5</ele>
    <time>2026-01-08T12:14:02Z</time>
   </trkpt>
   <trkpt lat="59.1408030" lon="9.6534670">
    <ele>2.5</ele>
    <time>2026-01-08T12:14:03Z</time>
   </trkpt>
   <trkpt lat="59.1408040" lon="9.6534690">
    <ele>2.5</ele>
    <time>2026-01-08T12:14:04Z</time>
   </trkpt>
   <trkpt lat="59.1408050" lon="9.6534700">
    <ele>2.5</ele>
    <time>2026-01-08T12:14:05Z</time>
   </trkpt>
   <trkpt lat="59.1408060" lon="9.6534710">
    <ele>2.5</ele>
    <time>2026-01-08T12:14:06Z</time>
   </trkpt>
   <trkpt lat="59.1408070" lon="9.6534720">
    <ele>2.5</ele>
    <time>2026-01-08T12:14:07Z</time>
   </trkpt>
   <trkpt lat="59.1408080" lon="9.6534740">
    <ele>2.5</ele>
    <time>2026-01-08T12:14:08Z</time>
   </trkpt>
   <trkpt lat="59.1408090" lon="9.6534750">
    <ele>2.5</ele>
    <time>2026-01-08T12:14:09Z</time>
   </trkpt>
   <trkpt lat="59.1408110" lon="9.6534760">
    <ele>2.5</ele>
    <time>2026-01-08T12:14:10Z</time>
   </trkpt>
   <trkpt lat="59.1408120" lon="9.6534770">
    <ele>2.5</ele>
    <time>2026-01-08T12:14:11Z</time>
   </trkpt>
   <trkpt lat="59.1408130" lon="9.6534790">
    <ele>2.5</ele>
    <time>2026-01-08T12:14:12Z</time>
   </trkpt>
   <trkpt lat="59.1408140" lon="9.6534800">
    <ele>2.5</ele>
    <time>2026-01-08T12:14:13Z</time>
   </trkpt>
   <trkpt lat="59.1408150" lon="9.6534810">
    <ele>2.5</ele>
    <time>2026-01-08T12:14:14Z</time>
   </trkpt>
   <trkpt lat="59.1408160" lon="9.6534820">
    <ele>2.5</ele>
    <time>2026-01-08T12:14:15Z</time>
   </trkpt>
   <trkpt lat="59.1408170" lon="9.6534840">
    <ele>2.5</ele>
    <time>2026-01-08T12:14:16Z</time>
   </trkpt>
   <trkpt lat="59.1408180" lon="9.6534850">
    <ele>2.5</ele>
    <time>2026-01-08T12:14:17Z</time>
   </trkpt>
   <trkpt lat="59.1408360" lon="9.6535210">
    <ele>2.5</ele>
    <time>2026-01-08T12:14:18Z</time>
   </trkpt>
   <trkpt lat="59.1408440" lon="9.6535370">
    <ele>2.5</ele>
    <time>2026-01-08T12:14:19Z</time>
   </trkpt>
   <trkpt lat="59.1408680" lon="9.6535770">
    <ele>2.5</ele>
    <time>2026-01-08T12:14:20Z</time>
   </trkpt>
   <trkpt lat="59.1408700" lon="9.6535890">
    <ele>2.5</ele>
    <time>2026-01-08T12:14:21Z</time>
   </trkpt>
   <trkpt lat="59.1408880" lon="9.6536030">
    <ele>2.5</ele>
    <time>2026-01-08T12:14:22Z</time>
   </trkpt>
   <trkpt lat="59.1408990" lon="9.6536290">
    <ele>2.5</ele>
    <time>2026-01-08T12:14:23Z</time>
   </trkpt>
   <trkpt lat="59.1409060" lon="9.6536500">
    <ele>2.5</ele>
    <time>2026-01-08T12:14:24Z</time>
   </trkpt>
   <trkpt lat="59.1409130" lon="9.6536590">
    <ele>2.5</ele>
    <time>2026-01-08T12:14:25Z</time>
   </trkpt>
   <trkpt lat="59.1409210" lon="9.6536810">
    <ele>2.4</ele>
    <time>2026-01-08T12:14:26Z</time>
   </trkpt>
   <trkpt lat="59.1409370" lon="9.6537030">
    <ele>2.4</ele>
    <time>2026-01-08T12:14:27Z</time>
   </trkpt>
   <trkpt lat="59.1409440" lon="9.6537140">
    <ele>2.4</ele>
    <time>2026-01-08T12:14:28Z</time>
   </trkpt>
   <trkpt lat="59.1409570" lon="9.6537370">
    <ele>2.4</ele>
    <time>2026-01-08T12:14:29Z</time>
   </trkpt>
   <trkpt lat="59.1409680" lon="9.6537450">
    <ele>2.4</ele>
    <time>2026-01-08T12:14:30Z</time>
   </trkpt>
   <trkpt lat="59.1409860" lon="9.6537750">
    <ele>2.4</ele>
    <time>2026-01-08T12:14:31Z</time>
   </trkpt>
   <trkpt lat="59.1409950" lon="9.6537860">
    <ele>2.4</ele>
    <time>2026-01-08T12:14:32Z</time>
   </trkpt>
   <trkpt lat="59.1410030" lon="9.6537960">
    <ele>2.4</ele>
    <time>2026-01-08T12:14:33Z</time>
   </trkpt>
   <trkpt lat="59.1410220" lon="9.6538200">
    <ele>2.4</ele>
    <time>2026-01-08T12:14:34Z</time>
   </trkpt>
   <trkpt lat="59.1410300" lon="9.6538320">
    <ele>2.4</ele>
    <time>2026-01-08T12:14:35Z</time>
   </trkpt>
   <trkpt lat="59.1410390" lon="9.6538450">
    <ele>2.4</ele>
    <time>2026-01-08T12:14:36Z</time>
   </trkpt>
   <trkpt lat="59.1410490" lon="9.6538560">
    <ele>2.4</ele>
    <time>2026-01-08T12:14:37Z</time>
   </trkpt>
   <trkpt lat="59.1410630" lon="9.6538710">
    <ele>2.4</ele>
    <time>2026-01-08T12:14:38Z</time>
   </trkpt>
   <trkpt lat="59.1410760" lon="9.6538820">
    <ele>2.4</ele>
    <time>2026-01-08T12:14:39Z</time>
   </trkpt>
   <trkpt lat="59.1410890" lon="9.6538940">
    <ele>2.4</ele>
    <time>2026-01-08T12:14:40Z</time>
   </trkpt>
   <trkpt lat="59.1411020" lon="9.6539060">
    <ele>2.4</ele>
    <time>2026-01-08T12:14:41Z</time>
   </trkpt>
   <trkpt lat="59.1411140" lon="9.6539200">
    <ele>2.4</ele>
    <time>2026-01-08T12:14:42Z</time>
   </trkpt>
   <trkpt lat="59.1411260" lon="9.6539400">
    <ele>2.4</ele>
    <time>2026-01-08T12:14:43Z</time>
   </trkpt>
   <trkpt lat="59.1411410" lon="9.6539550">
    <ele>2.5</ele>
    <time>2026-01-08T12:14:44Z</time>
   </trkpt>
   <trkpt lat="59.1411530" lon="9.6539720">
    <ele>2.5</ele>
    <time>2026-01-08T12:14:45Z</time>
   </trkpt>
   <trkpt lat="59.1411680" lon="9.6539840">
    <ele>2.5</ele>
    <time>2026-01-08T12:14:46Z</time>
   </trkpt>
   <trkpt lat="59.1411820" lon="9.6539930">
    <ele>2.5</ele>
    <time>2026-01-08T12:14:47Z</time>
   </trkpt>
   <trkpt lat="59.1411950" lon="9.6540080">
    <ele>2.5</ele>
    <time>2026-01-08T12:14:48Z</time>
   </trkpt>
   <trkpt lat="59.1412080" lon="9.6540230">
    <ele>2.5</ele>
    <time>2026-01-08T12:14:49Z</time>
   </trkpt>
   <trkpt lat="59.1412200" lon="9.6540380">
    <ele>2.5</ele>
    <time>2026-01-08T12:14:50Z</time>
   </trkpt>
   <trkpt lat="59.1412330" lon="9.6540570">
    <ele>2.5</ele>
    <time>2026-01-08T12:14:51Z</time>
   </trkpt>
   <trkpt lat="59.1412460" lon="9.6540710">
    <ele>2.5</ele>
    <time>2026-01-08T12:14:52Z</time>
   </trkpt>
   <trkpt lat="59.1412610" lon="9.6540790">
    <ele>2.5</ele>
    <time>2026-01-08T12:14:53Z</time>
   </trkpt>
   <trkpt lat="59.1412730" lon="9.6540950">
    <ele>2.5</ele>
    <time>2026-01-08T12:14:54Z</time>
   </trkpt>
   <trkpt lat="59.1412900" lon="9.6540980">
    <ele>2.6</ele>
    <time>2026-01-08T12:14:55Z</time>
   </trkpt>
   <trkpt lat="59.1413020" lon="9.6541150">
    <ele>2.6</ele>
    <time>2026-01-08T12:14:56Z</time>
   </trkpt>
   <trkpt lat="59.1413150" lon="9.6541270">
    <ele>2.6</ele>
    <time>2026-01-08T12:14:57Z</time>
   </trkpt>
   <trkpt lat="59.1413280" lon="9.6541450">
    <ele>2.6</ele>
    <time>2026-01-08T12:14:58Z</time>
   </trkpt>
   <trkpt lat="59.1413410" lon="9.6541570">
    <ele>2.6</ele>
    <time>2026-01-08T12:14:59Z</time>
   </trkpt>
   <trkpt lat="59.1413530" lon="9.6541720">
    <ele>2.6</ele>
    <time>2026-01-08T12:15:00Z</time>
   </trkpt>
   <trkpt lat="59.1413690" lon="9.6541740">
    <ele>2.6</ele>
    <time>2026-01-08T12:15:01Z</time>
   </trkpt>
   <trkpt lat="59.1413820" lon="9.6541800">
    <ele>2.6</ele>
    <time>2026-01-08T12:15:02Z</time>
   </trkpt>
   <trkpt lat="59.1413950" lon="9.6541980">
    <ele>2.6</ele>
    <time>2026-01-08T12:15:03Z</time>
   </trkpt>
   <trkpt lat="59.1414100" lon="9.6542080">
    <ele>2.6</ele>
    <time>2026-01-08T12:15:04Z</time>
   </trkpt>
   <trkpt lat="59.1414220" lon="9.6542230">
    <ele>2.6</ele>
    <time>2026-01-08T12:15:05Z</time>
   </trkpt>
   <trkpt lat="59.1414380" lon="9.6542320">
    <ele>2.6</ele>
    <time>2026-01-08T12:15:06Z</time>
   </trkpt>
   <trkpt lat="59.1414530" lon="9.6542390">
    <ele>2.6</ele>
    <time>2026-01-08T12:15:07Z</time>
   </trkpt>
   <trkpt lat="59.1414660" lon="9.6542480">
    <ele>2.6</ele>
    <time>2026-01-08T12:15:08Z</time>
   </trkpt>
   <trkpt lat="59.1414790" lon="9.6542620">
    <ele>2.6</ele>
    <time>2026-01-08T12:15:09Z</time>
   </trkpt>
   <trkpt lat="59.1414930" lon="9.6542710">
    <ele>2.7</ele>
    <time>2026-01-08T12:15:10Z</time>
   </trkpt>
   <trkpt lat="59.1415070" lon="9.6542760">
    <ele>2.7</ele>
    <time>2026-01-08T12:15:11Z</time>
   </trkpt>
   <trkpt lat="59.1415210" lon="9.6542870">
    <ele>2.7</ele>
    <time>2026-01-08T12:15:12Z</time>
   </trkpt>
   <trkpt lat="59.1415340" lon="9.6542970">
    <ele>2.7</ele>
    <time>2026-01-08T12:15:13Z</time>
   </trkpt>
   <trkpt lat="59.1415490" lon="9.6543070">
    <ele>2.7</ele>
    <time>2026-01-08T12:15:14Z</time>
   </trkpt>
   <trkpt lat="59.1415620" lon="9.6543230">
    <ele>2.7</ele>
    <time>2026-01-08T12:15:15Z</time>
   </trkpt>
   <trkpt lat="59.1415760" lon="9.6543300">
    <ele>2.7</ele>
    <time>2026-01-08T12:15:16Z</time>
   </trkpt>
   <trkpt lat="59.1415890" lon="9.6543400">
    <ele>2.7</ele>
    <time>2026-01-08T12:15:17Z</time>
   </trkpt>
   <trkpt lat="59.1416030" lon="9.6543520">
    <ele>2.7</ele>
    <time>2026-01-08T12:15:18Z</time>
   </trkpt>
   <trkpt lat="59.1416160" lon="9.6543630">
    <ele>2.7</ele>
    <time>2026-01-08T12:15:19Z</time>
   </trkpt>
   <trkpt lat="59.1416290" lon="9.6543770">
    <ele>2.7</ele>
    <time>2026-01-08T12:15:20Z</time>
   </trkpt>
   <trkpt lat="59.1416410" lon="9.6543920">
    <ele>2.7</ele>
    <time>2026-01-08T12:15:21Z</time>
   </trkpt>
   <trkpt lat="59.1416500" lon="9.6544160">
    <ele>2.7</ele>
    <time>2026-01-08T12:15:22Z</time>
   </trkpt>
   <trkpt lat="59.1416650" lon="9.6544250">
    <ele>2.7</ele>
    <time>2026-01-08T12:15:23Z</time>
   </trkpt>
   <trkpt lat="59.1416810" lon="9.6544280">
    <ele>2.7</ele>
    <time>2026-01-08T12:15:24Z</time>
   </trkpt>
   <trkpt lat="59.1416960" lon="9.6544300">
    <ele>2.7</ele>
    <time>2026-01-08T12:15:25Z</time>
   </trkpt>
   <trkpt lat="59.1417090" lon="9.6544400">
    <ele>2.7</ele>
    <time>2026-01-08T12:15:26Z</time>
   </trkpt>
   <trkpt lat="59.1417230" lon="9.6544520">
    <ele>2.7</ele>
    <time>2026-01-08T12:15:27Z</time>
   </trkpt>
   <trkpt lat="59.1417360" lon="9.6544660">
    <ele>2.7</ele>
    <time>2026-01-08T12:15:28Z</time>
   </trkpt>
   <trkpt lat="59.1417490" lon="9.6544810">
    <ele>2.7</ele>
    <time>2026-01-08T12:15:29Z</time>
   </trkpt>
   <trkpt lat="59.1417630" lon="9.6544890">
    <ele>2.7</ele>
    <time>2026-01-08T12:15:30Z</time>
   </trkpt>
   <trkpt lat="59.1417770" lon="9.6544950">
    <ele>2.7</ele>
    <time>2026-01-08T12:15:31Z</time>
   </trkpt>
   <trkpt lat="59.1417900" lon="9.6545050">
    <ele>2.7</ele>
    <time>2026-01-08T12:15:32Z</time>
   </trkpt>
   <trkpt lat="59.1418040" lon="9.6545140">
    <ele>2.7</ele>
    <time>2026-01-08T12:15:33Z</time>
   </trkpt>
   <trkpt lat="59.1418190" lon="9.6545230">
    <ele>2.7</ele>
    <time>2026-01-08T12:15:34Z</time>
   </trkpt>
   <trkpt lat="59.1418310" lon="9.6545340">
    <ele>2.7</ele>
    <time>2026-01-08T12:15:35Z</time>
   </trkpt>
   <trkpt lat="59.1418460" lon="9.6545410">
    <ele>2.7</ele>
    <time>2026-01-08T12:15:36Z</time>
   </trkpt>
   <trkpt lat="59.1418580" lon="9.6545550">
    <ele>2.7</ele>
    <time>2026-01-08T12:15:37Z</time>
   </trkpt>
   <trkpt lat="59.1418690" lon="9.6545720">
    <ele>2.7</ele>
    <time>2026-01-08T12:15:38Z</time>
   </trkpt>
   <trkpt lat="59.1418830" lon="9.6545790">
    <ele>2.7</ele>
    <time>2026-01-08T12:15:39Z</time>
   </trkpt>
   <trkpt lat="59.1418960" lon="9.6545840">
    <ele>2.8</ele>
    <time>2026-01-08T12:15:40Z</time>
   </trkpt>
   <trkpt lat="59.1419090" lon="9.6546020">
    <ele>2.8</ele>
    <time>2026-01-08T12:15:41Z</time>
   </trkpt>
   <trkpt lat="59.1419230" lon="9.6546080">
    <ele>2.8</ele>
    <time>2026-01-08T12:15:42Z</time>
   </trkpt>
   <trkpt lat="59.1419380" lon="9.6546170">
    <ele>2.8</ele>
    <time>2026-01-08T12:15:43Z</time>
   </trkpt>
   <trkpt lat="59.1419510" lon="9.6546280">
    <ele>2.8</ele>
    <time>2026-01-08T12:15:44Z</time>
   </trkpt>
   <trkpt lat="59.1419640" lon="9.6546400">
    <ele>2.8</ele>
    <time>2026-01-08T12:15:45Z</time>
   </trkpt>
   <trkpt lat="59.1419770" lon="9.6546500">
    <ele>2.8</ele>
    <time>2026-01-08T12:15:46Z</time>
   </trkpt>
   <trkpt lat="59.1419900" lon="9.6546640">
    <ele>2.8</ele>
    <time>2026-01-08T12:15:47Z</time>
   </trkpt>
   <trkpt lat="59.1420040" lon="9.6546720">
    <ele>2.8</ele>
    <time>2026-01-08T12:15:48Z</time>
   </trkpt>
   <trkpt lat="59.1420170" lon="9.6546790">
    <ele>2.8</ele>
    <time>2026-01-08T12:15:49Z</time>
   </trkpt>
   <trkpt lat="59.1420290" lon="9.6546930">
    <ele>2.8</ele>
    <time>2026-01-08T12:15:50Z</time>
   </trkpt>
   <trkpt lat="59.1420430" lon="9.6547010">
    <ele>2.8</ele>
    <time>2026-01-08T12:15:51Z</time>
   </trkpt>
   <trkpt lat="59.1420560" lon="9.6547060">
    <ele>2.8</ele>
    <time>2026-01-08T12:15:52Z</time>
   </trkpt>
   <trkpt lat="59.1420700" lon="9.6547150">
    <ele>2.8</ele>
    <time>2026-01-08T12:15:53Z</time>
   </trkpt>
   <trkpt lat="59.1420970" lon="9.6547290">
    <ele>2.8</ele>
    <time>2026-01-08T12:15:55Z</time>
   </trkpt>
   <trkpt lat="59.1421090" lon="9.6547410">
    <ele>2.8</ele>
    <time>2026-01-08T12:15:57Z</time>
   </trkpt>
   <trkpt lat="59.1421370" lon="9.6547590">
    <ele>2.8</ele>
    <time>2026-01-08T12:15:58Z</time>
   </trkpt>
   <trkpt lat="59.1421500" lon="9.6547710">
    <ele>2.8</ele>
    <time>2026-01-08T12:16:00Z</time>
   </trkpt>
   <trkpt lat="59.1421650" lon="9.6547780">
    <ele>2.8</ele>
    <time>2026-01-08T12:16:01Z</time>
   </trkpt>
   <trkpt lat="59.1421780" lon="9.6547920">
    <ele>2.8</ele>
    <time>2026-01-08T12:16:02Z</time>
   </trkpt>
   <trkpt lat="59.1421890" lon="9.6548100">
    <ele>2.8</ele>
    <time>2026-01-08T12:16:03Z</time>
   </trkpt>
   <trkpt lat="59.1422060" lon="9.6548140">
    <ele>2.8</ele>
    <time>2026-01-08T12:16:04Z</time>
   </trkpt>
   <trkpt lat="59.1422360" lon="9.6548330">
    <ele>2.8</ele>
    <time>2026-01-08T12:16:05Z</time>
   </trkpt>
   <trkpt lat="59.1422450" lon="9.6548570">
    <ele>2.8</ele>
    <time>2026-01-08T12:16:06Z</time>
   </trkpt>
   <trkpt lat="59.1422590" lon="9.6548710">
    <ele>2.8</ele>
    <time>2026-01-08T12:16:07Z</time>
   </trkpt>
   <trkpt lat="59.1422730" lon="9.6548820">
    <ele>2.8</ele>
    <time>2026-01-08T12:16:08Z</time>
   </trkpt>
   <trkpt lat="59.1422850" lon="9.6548930">
    <ele>2.8</ele>
    <time>2026-01-08T12:16:09Z</time>
   </trkpt>
   <trkpt lat="59.1422970" lon="9.6549050">
    <ele>2.8</ele>
    <time>2026-01-08T12:16:10Z</time>
   </trkpt>
   <trkpt lat="59.1423100" lon="9.6549140">
    <ele>2.8</ele>
    <time>2026-01-08T12:16:11Z</time>
   </trkpt>
   <trkpt lat="59.1423170" lon="9.6549350">
    <ele>2.8</ele>
    <time>2026-01-08T12:16:12Z</time>
   </trkpt>
   <trkpt lat="59.1423320" lon="9.6549300">
    <ele>2.8</ele>
    <time>2026-01-08T12:16:13Z</time>
   </trkpt>
   <trkpt lat="59.1423430" lon="9.6549410">
    <ele>2.8</ele>
    <time>2026-01-08T12:16:14Z</time>
   </trkpt>
   <trkpt lat="59.1423530" lon="9.6549530">
    <ele>2.8</ele>
    <time>2026-01-08T12:16:15Z</time>
   </trkpt>
   <trkpt lat="59.1423620" lon="9.6549660">
    <ele>2.8</ele>
    <time>2026-01-08T12:16:16Z</time>
   </trkpt>
   <trkpt lat="59.1423700" lon="9.6549790">
    <ele>2.8</ele>
    <time>2026-01-08T12:16:17Z</time>
   </trkpt>
   <trkpt lat="59.1423620" lon="9.6549790">
    <ele>2.8</ele>
    <time>2026-01-08T12:16:18Z</time>
   </trkpt>
   <trkpt lat="59.1423550" lon="9.6549840">
    <ele>2.8</ele>
    <time>2026-01-08T12:16:19Z</time>
   </trkpt>
   <trkpt lat="59.1423560" lon="9.6549850">
    <ele>2.8</ele>
    <time>2026-01-08T12:16:20Z</time>
   </trkpt>
   <trkpt lat="59.1423560" lon="9.6549870">
    <ele>2.8</ele>
    <time>2026-01-08T12:16:21Z</time>
   </trkpt>
   <trkpt lat="59.1423660" lon="9.6549950">
    <ele>2.8</ele>
    <time>2026-01-08T12:16:22Z</time>
   </trkpt>
   <trkpt lat="59.1423660" lon="9.6550090">
    <ele>2.8</ele>
    <time>2026-01-08T12:16:23Z</time>
   </trkpt>
   <trkpt lat="59.1423710" lon="9.6550200">
    <ele>2.8</ele>
    <time>2026-01-08T12:16:24Z</time>
   </trkpt>
   <trkpt lat="59.1424020" lon="9.6550380">
    <ele>2.8</ele>
    <time>2026-01-08T12:16:25Z</time>
   </trkpt>
   <trkpt lat="59.1424130" lon="9.6550460">
    <ele>2.8</ele>
    <time>2026-01-08T12:16:26Z</time>
   </trkpt>
   <trkpt lat="59.1424240" lon="9.6550570">
    <ele>2.8</ele>
    <time>2026-01-08T12:16:27Z</time>
   </trkpt>
   <trkpt lat="59.1424290" lon="9.6550750">
    <ele>2.8</ele>
    <time>2026-01-08T12:16:28Z</time>
   </trkpt>
   <trkpt lat="59.1424390" lon="9.6550840">
    <ele>2.7</ele>
    <time>2026-01-08T12:16:29Z</time>
   </trkpt>
   <trkpt lat="59.1424540" lon="9.6551000">
    <ele>2.7</ele>
    <time>2026-01-08T12:16:30Z</time>
   </trkpt>
   <trkpt lat="59.1424560" lon="9.6551290">
    <ele>2.7</ele>
    <time>2026-01-08T12:16:31Z</time>
   </trkpt>
   <trkpt lat="59.1424770" lon="9.6551410">
    <ele>2.7</ele>
    <time>2026-01-08T12:16:32Z</time>
   </trkpt>
   <trkpt lat="59.1424850" lon="9.6551470">
    <ele>2.7</ele>
    <time>2026-01-08T12:16:33Z</time>
   </trkpt>
   <trkpt lat="59.1424930" lon="9.6551520">
    <ele>2.7</ele>
    <time>2026-01-08T12:16:34Z</time>
   </trkpt>
   <trkpt lat="59.1425050" lon="9.6551510">
    <ele>2.7</ele>
    <time>2026-01-08T12:16:35Z</time>
   </trkpt>
   <trkpt lat="59.1425130" lon="9.6551600">
    <ele>2.7</ele>
    <time>2026-01-08T12:16:36Z</time>
   </trkpt>
   <trkpt lat="59.1425190" lon="9.6551710">
    <ele>2.7</ele>
    <time>2026-01-08T12:16:37Z</time>
   </trkpt>
   <trkpt lat="59.1425330" lon="9.6551860">
    <ele>2.7</ele>
    <time>2026-01-08T12:16:38Z</time>
   </trkpt>
   <trkpt lat="59.1425410" lon="9.6551970">
    <ele>2.7</ele>
    <time>2026-01-08T12:16:39Z</time>
   </trkpt>
   <trkpt lat="59.1425480" lon="9.6552010">
    <ele>2.7</ele>
    <time>2026-01-08T12:16:40Z</time>
   </trkpt>
   <trkpt lat="59.1425550" lon="9.6552140">
    <ele>2.7</ele>
    <time>2026-01-08T12:16:41Z</time>
   </trkpt>
   <trkpt lat="59.1425570" lon="9.6552180">
    <ele>2.7</ele>
    <time>2026-01-08T12:16:42Z</time>
   </trkpt>
   <trkpt lat="59.1425580" lon="9.6552210">
    <ele>2.7</ele>
    <time>2026-01-08T12:16:43Z</time>
   </trkpt>
   <trkpt lat="59.1425600" lon="9.6552250">
    <ele>2.7</ele>
    <time>2026-01-08T12:16:44Z</time>
   </trkpt>
   <trkpt lat="59.1425620" lon="9.6552290">
    <ele>2.7</ele>
    <time>2026-01-08T12:16:45Z</time>
   </trkpt>
   <trkpt lat="59.1425640" lon="9.6552330">
    <ele>2.7</ele>
    <time>2026-01-08T12:16:46Z</time>
   </trkpt>
   <trkpt lat="59.1425660" lon="9.6552370">
    <ele>2.7</ele>
    <time>2026-01-08T12:16:47Z</time>
   </trkpt>
   <trkpt lat="59.1425680" lon="9.6552410">
    <ele>2.7</ele>
    <time>2026-01-08T12:16:48Z</time>
   </trkpt>
   <trkpt lat="59.1425690" lon="9.6552440">
    <ele>2.7</ele>
    <time>2026-01-08T12:16:49Z</time>
   </trkpt>
   <trkpt lat="59.1425710" lon="9.6552480">
    <ele>2.7</ele>
    <time>2026-01-08T12:16:50Z</time>
   </trkpt>
   <trkpt lat="59.1425730" lon="9.6552520">
    <ele>2.7</ele>
    <time>2026-01-08T12:16:51Z</time>
   </trkpt>
   <trkpt lat="59.1425850" lon="9.6552700">
    <ele>2.7</ele>
    <time>2026-01-08T12:16:52Z</time>
   </trkpt>
   <trkpt lat="59.1425880" lon="9.6552950">
    <ele>2.7</ele>
    <time>2026-01-08T12:16:53Z</time>
   </trkpt>
   <trkpt lat="59.1425860" lon="9.6553100">
    <ele>2.7</ele>
    <time>2026-01-08T12:16:54Z</time>
   </trkpt>
   <trkpt lat="59.1425870" lon="9.6553290">
    <ele>2.7</ele>
    <time>2026-01-08T12:16:55Z</time>
   </trkpt>
   <trkpt lat="59.1425860" lon="9.6553540">
    <ele>2.8</ele>
    <time>2026-01-08T12:16:56Z</time>
   </trkpt>
   <trkpt lat="59.1425860" lon="9.6553740">
    <ele>2.8</ele>
    <time>2026-01-08T12:16:57Z</time>
   </trkpt>
   <trkpt lat="59.1425840" lon="9.6553960">
    <ele>2.8</ele>
    <time>2026-01-08T12:16:58Z</time>
   </trkpt>
   <trkpt lat="59.1425860" lon="9.6554170">
    <ele>2.8</ele>
    <time>2026-01-08T12:16:59Z</time>
   </trkpt>
   <trkpt lat="59.1425860" lon="9.6554520">
    <ele>2.8</ele>
    <time>2026-01-08T12:17:00Z</time>
   </trkpt>
   <trkpt lat="59.1425880" lon="9.6554700">
    <ele>2.9</ele>
    <time>2026-01-08T12:17:01Z</time>
   </trkpt>
   <trkpt lat="59.1425910" lon="9.6554870">
    <ele>2.9</ele>
    <time>2026-01-08T12:17:02Z</time>
   </trkpt>
   <trkpt lat="59.1425880" lon="9.6555050">
    <ele>2.9</ele>
    <time>2026-01-08T12:17:03Z</time>
   </trkpt>
   <trkpt lat="59.1425900" lon="9.6555280">
    <ele>2.9</ele>
    <time>2026-01-08T12:17:04Z</time>
   </trkpt>
   <trkpt lat="59.1425910" lon="9.6555350">
    <ele>2.9</ele>
    <time>2026-01-08T12:17:05Z</time>
   </trkpt>
   <trkpt lat="59.1425890" lon="9.6555420">
    <ele>2.9</ele>
    <time>2026-01-08T12:17:06Z</time>
   </trkpt>
   <trkpt lat="59.1425890" lon="9.6555640">
    <ele>3.0</ele>
    <time>2026-01-08T12:17:07Z</time>
   </trkpt>
   <trkpt lat="59.1425900" lon="9.6555830">
    <ele>3.0</ele>
    <time>2026-01-08T12:17:08Z</time>
   </trkpt>
   <trkpt lat="59.1425890" lon="9.6556010">
    <ele>3.0</ele>
    <time>2026-01-08T12:17:09Z</time>
   </trkpt>
   <trkpt lat="59.1425840" lon="9.6556060">
    <ele>3.0</ele>
    <time>2026-01-08T12:17:10Z</time>
   </trkpt>
   <trkpt lat="59.1425840" lon="9.6556020">
    <ele>3.0</ele>
    <time>2026-01-08T12:17:11Z</time>
   </trkpt>
   <trkpt lat="59.1425830" lon="9.6555960">
    <ele>3.0</ele>
    <time>2026-01-08T12:17:12Z</time>
   </trkpt>
   <trkpt lat="59.1425830" lon="9.6555960">
    <ele>3.0</ele>
    <time>2026-01-08T12:17:13Z</time>
   </trkpt>
   <trkpt lat="59.1425830" lon="9.6555960">
    <ele>3.0</ele>
    <time>2026-01-08T12:17:14Z</time>
   </trkpt>
   <trkpt lat="59.1425830" lon="9.6555960">
    <ele>3.0</ele>
    <time>2026-01-08T12:17:15Z</time>
   </trkpt>
   <trkpt lat="59.1425770" lon="9.6555940">
    <ele>3.1</ele>
    <time>2026-01-08T12:17:16Z</time>
   </trkpt>
   <trkpt lat="59.1425830" lon="9.6556130">
    <ele>3.1</ele>
    <time>2026-01-08T12:17:17Z</time>
   </trkpt>
   <trkpt lat="59.1425820" lon="9.6556250">
    <ele>3.1</ele>
    <time>2026-01-08T12:17:18Z</time>
   </trkpt>
   <trkpt lat="59.1425770" lon="9.6556380">
    <ele>3.2</ele>
    <time>2026-01-08T12:17:19Z</time>
   </trkpt>
   <trkpt lat="59.1425800" lon="9.6556380">
    <ele>3.2</ele>
    <time>2026-01-08T12:17:20Z</time>
   </trkpt>
   <trkpt lat="59.1425830" lon="9.6556370">
    <ele>3.2</ele>
    <time>2026-01-08T12:17:21Z</time>
   </trkpt>
   <trkpt lat="59.1425820" lon="9.6556480">
    <ele>3.2</ele>
    <time>2026-01-08T12:17:22Z</time>
   </trkpt>
   <trkpt lat="59.1425870" lon="9.6556610">
    <ele>3.2</ele>
    <time>2026-01-08T12:17:23Z</time>
   </trkpt>
   <trkpt lat="59.1425890" lon="9.6556750">
    <ele>3.2</ele>
    <time>2026-01-08T12:17:24Z</time>
   </trkpt>
   <trkpt lat="59.1425930" lon="9.6556690">
    <ele>3.3</ele>
    <time>2026-01-08T12:17:25Z</time>
   </trkpt>
   <trkpt lat="59.1425950" lon="9.6556770">
    <ele>3.3</ele>
    <time>2026-01-08T12:17:26Z</time>
   </trkpt>
   <trkpt lat="59.1425910" lon="9.6556860">
    <ele>3.3</ele>
    <time>2026-01-08T12:17:27Z</time>
   </trkpt>
   <trkpt lat="59.1425960" lon="9.6556990">
    <ele>3.3</ele>
    <time>2026-01-08T12:17:28Z</time>
   </trkpt>
   <trkpt lat="59.1425840" lon="9.6557220">
    <ele>3.4</ele>
    <time>2026-01-08T12:17:29Z</time>
   </trkpt>
   <trkpt lat="59.1425640" lon="9.6557210">
    <ele>3.5</ele>
    <time>2026-01-08T12:17:30Z</time>
   </trkpt>
   <trkpt lat="59.1425590" lon="9.6557300">
    <ele>3.5</ele>
    <time>2026-01-08T12:17:31Z</time>
   </trkpt>
   <trkpt lat="59.1425530" lon="9.6557390">
    <ele>3.5</ele>
    <time>2026-01-08T12:17:32Z</time>
   </trkpt>
   <trkpt lat="59.1425470" lon="9.6557480">
    <ele>3.6</ele>
    <time>2026-01-08T12:17:33Z</time>
   </trkpt>
   <trkpt lat="59.1425370" lon="9.6557570">
    <ele>3.6</ele>
    <time>2026-01-08T12:17:34Z</time>
   </trkpt>
   <trkpt lat="59.1425290" lon="9.6557760">
    <ele>3.7</ele>
    <time>2026-01-08T12:17:35Z</time>
   </trkpt>
   <trkpt lat="59.1425430" lon="9.6558010">
    <ele>3.8</ele>
    <time>2026-01-08T12:17:36Z</time>
   </trkpt>
   <trkpt lat="59.1425160" lon="9.6558380">
    <ele>3.9</ele>
    <time>2026-01-08T12:17:37Z</time>
   </trkpt>
   <trkpt lat="59.1425010" lon="9.6558560">
    <ele>4.0</ele>
    <time>2026-01-08T12:17:38Z</time>
   </trkpt>
   <trkpt lat="59.1424980" lon="9.6558660">
    <ele>4.0</ele>
    <time>2026-01-08T12:17:39Z</time>
   </trkpt>
   <trkpt lat="59.1424800" lon="9.6558970">
    <ele>4.1</ele>
    <time>2026-01-08T12:17:40Z</time>
   </trkpt>
   <trkpt lat="59.1424680" lon="9.6559210">
    <ele>4.2</ele>
    <time>2026-01-08T12:17:41Z</time>
   </trkpt>
   <trkpt lat="59.1424660" lon="9.6559300">
    <ele>4.3</ele>
    <time>2026-01-08T12:17:42Z</time>
   </trkpt>
   <trkpt lat="59.1424640" lon="9.6559400">
    <ele>4.3</ele>
    <time>2026-01-08T12:17:43Z</time>
   </trkpt>
   <trkpt lat="59.1424620" lon="9.6559490">
    <ele>4.3</ele>
    <time>2026-01-08T12:17:44Z</time>
   </trkpt>
   <trkpt lat="59.1424600" lon="9.6559580">
    <ele>4.3</ele>
    <time>2026-01-08T12:17:45Z</time>
   </trkpt>
   <trkpt lat="59.1424610" lon="9.6559550">
    <ele>4.3</ele>
    <time>2026-01-08T12:17:46Z</time>
   </trkpt>
   <trkpt lat="59.1424570" lon="9.6559750">
    <ele>4.4</ele>
    <time>2026-01-08T12:17:47Z</time>
   </trkpt>
   <trkpt lat="59.1424530" lon="9.6559680">
    <ele>4.4</ele>
    <time>2026-01-08T12:17:48Z</time>
   </trkpt>
   <trkpt lat="59.1424480" lon="9.6559640">
    <ele>4.4</ele>
    <time>2026-01-08T12:17:49Z</time>
   </trkpt>
   <trkpt lat="59.1424520" lon="9.6559690">
    <ele>4.4</ele>
    <time>2026-01-08T12:17:50Z</time>
   </trkpt>
   <trkpt lat="59.1424520" lon="9.6559690">
    <ele>4.4</ele>
    <time>2026-01-08T12:17:51Z</time>
   </trkpt>
   <trkpt lat="59.1424460" lon="9.6559870">
    <ele>4.4</ele>
    <time>2026-01-08T12:17:52Z</time>
   </trkpt>
   <trkpt lat="59.1424420" lon="9.6559870">
    <ele>4.4</ele>
    <time>2026-01-08T12:17:53Z</time>
   </trkpt>
   <trkpt lat="59.1424370" lon="9.6559910">
    <ele>4.4</ele>
    <time>2026-01-08T12:17:54Z</time>
   </trkpt>
   <trkpt lat="59.1424480" lon="9.6559520">
    <ele>4.4</ele>
    <time>2026-01-08T12:17:55Z</time>
   </trkpt>
   <trkpt lat="59.1424320" lon="9.6559490">
    <ele>4.4</ele>
    <time>2026-01-08T12:17:57Z</time>
   </trkpt>
   <trkpt lat="59.1424190" lon="9.6559480">
    <ele>4.4</ele>
    <time>2026-01-08T12:17:58Z</time>
   </trkpt>
   <trkpt lat="59.1424120" lon="9.6559270">
    <ele>4.4</ele>
    <time>2026-01-08T12:17:59Z</time>
   </trkpt>
   <trkpt lat="59.1423980" lon="9.6559040">
    <ele>4.5</ele>
    <time>2026-01-08T12:18:00Z</time>
   </trkpt>
   <trkpt lat="59.1423800" lon="9.6558460">
    <ele>4.5</ele>
    <time>2026-01-08T12:18:01Z</time>
   </trkpt>
   <trkpt lat="59.1423680" lon="9.6558280">
    <ele>4.5</ele>
    <time>2026-01-08T12:18:02Z</time>
   </trkpt>
   <trkpt lat="59.1423470" lon="9.6558150">
    <ele>4.5</ele>
    <time>2026-01-08T12:18:03Z</time>
   </trkpt>
   <trkpt lat="59.1423240" lon="9.6558020">
    <ele>4.5</ele>
    <time>2026-01-08T12:18:04Z</time>
   </trkpt>
   <trkpt lat="59.1423150" lon="9.6557980">
    <ele>4.5</ele>
    <time>2026-01-08T12:18:05Z</time>
   </trkpt>
   <trkpt lat="59.1423060" lon="9.6557940">
    <ele>4.6</ele>
    <time>2026-01-08T12:18:06Z</time>
   </trkpt>
   <trkpt lat="59.1422760" lon="9.6557760">
    <ele>4.6</ele>
    <time>2026-01-08T12:18:07Z</time>
   </trkpt>
   <trkpt lat="59.1422600" lon="9.6557610">
    <ele>4.6</ele>
    <time>2026-01-08T12:18:08Z</time>
   </trkpt>
   <trkpt lat="59.1422280" lon="9.6557330">
    <ele>4.6</ele>
    <time>2026-01-08T12:18:09Z</time>
   </trkpt>
   <trkpt lat="59.1422140" lon="9.6557380">
    <ele>4.7</ele>
    <time>2026-01-08T12:18:10Z</time>
   </trkpt>
   <trkpt lat="59.1422100" lon="9.6557530">
    <ele>4.7</ele>
    <time>2026-01-08T12:18:11Z</time>
   </trkpt>
   <trkpt lat="59.1422070" lon="9.6557430">
    <ele>4.7</ele>
    <time>2026-01-08T12:18:12Z</time>
   </trkpt>
   <trkpt lat="59.1421990" lon="9.6557370">
    <ele>4.7</ele>
    <time>2026-01-08T12:18:13Z</time>
   </trkpt>
   <trkpt lat="59.1421770" lon="9.6556900">
    <ele>4.7</ele>
    <time>2026-01-08T12:18:14Z</time>
   </trkpt>
   <trkpt lat="59.1421600" lon="9.6556480">
    <ele>4.8</ele>
    <time>2026-01-08T12:18:15Z</time>
   </trkpt>
   <trkpt lat="59.1421410" lon="9.6556240">
    <ele>4.8</ele>
    <time>2026-01-08T12:18:16Z</time>
   </trkpt>
   <trkpt lat="59.1421600" lon="9.6556090">
    <ele>4.8</ele>
    <time>2026-01-08T12:18:17Z</time>
   </trkpt>
   <trkpt lat="59.1421510" lon="9.6555980">
    <ele>4.9</ele>
    <time>2026-01-08T12:18:18Z</time>
   </trkpt>
   <trkpt lat="59.1421430" lon="9.6555940">
    <ele>4.9</ele>
    <time>2026-01-08T12:18:19Z</time>
   </trkpt>
   <trkpt lat="59.1421300" lon="9.6555860">
    <ele>4.9</ele>
    <time>2026-01-08T12:18:20Z</time>
   </trkpt>
   <trkpt lat="59.1421180" lon="9.6555780">
    <ele>4.9</ele>
    <time>2026-01-08T12:18:21Z</time>
   </trkpt>
   <trkpt lat="59.1421050" lon="9.6555700">
    <ele>4.9</ele>
    <time>2026-01-08T12:18:22Z</time>
   </trkpt>
   <trkpt lat="59.1421040" lon="9.6555500">
    <ele>5.0</ele>
    <time>2026-01-08T12:18:23Z</time>
   </trkpt>
   <trkpt lat="59.1420860" lon="9.6555650">
    <ele>5.0</ele>
    <time>2026-01-08T12:18:24Z</time>
   </trkpt>
   <trkpt lat="59.1420750" lon="9.6555730">
    <ele>5.0</ele>
    <time>2026-01-08T12:18:25Z</time>
   </trkpt>
   <trkpt lat="59.1420600" lon="9.6555610">
    <ele>5.0</ele>
    <time>2026-01-08T12:18:26Z</time>
   </trkpt>
   <trkpt lat="59.1420510" lon="9.6555480">
    <ele>5.1</ele>
    <time>2026-01-08T12:18:27Z</time>
   </trkpt>
   <trkpt lat="59.1420220" lon="9.6555370">
    <ele>5.1</ele>
    <time>2026-01-08T12:18:28Z</time>
   </trkpt>
   <trkpt lat="59.1420040" lon="9.6555180">
    <ele>5.1</ele>
    <time>2026-01-08T12:18:29Z</time>
   </trkpt>
   <trkpt lat="59.1419950" lon="9.6555110">
    <ele>5.2</ele>
    <time>2026-01-08T12:18:30Z</time>
   </trkpt>
   <trkpt lat="59.1419850" lon="9.6555050">
    <ele>5.2</ele>
    <time>2026-01-08T12:18:31Z</time>
   </trkpt>
   <trkpt lat="59.1419860" lon="9.6554430">
    <ele>5.2</ele>
    <time>2026-01-08T12:18:32Z</time>
   </trkpt>
   <trkpt lat="59.1419770" lon="9.6554190">
    <ele>5.2</ele>
    <time>2026-01-08T12:18:33Z</time>
   </trkpt>
   <trkpt lat="59.1419710" lon="9.6554110">
    <ele>5.2</ele>
    <time>2026-01-08T12:18:34Z</time>
   </trkpt>
   <trkpt lat="59.1419640" lon="9.6554070">
    <ele>5.3</ele>
    <time>2026-01-08T12:18:35Z</time>
   </trkpt>
   <trkpt lat="59.1419540" lon="9.6554020">
    <ele>5.3</ele>
    <time>2026-01-08T12:18:36Z</time>
   </trkpt>
   <trkpt lat="59.1419370" lon="9.6553860">
    <ele>5.3</ele>
    <time>2026-01-08T12:18:37Z</time>
   </trkpt>
   <trkpt lat="59.1419060" lon="9.6553900">
    <ele>5.3</ele>
    <time>2026-01-08T12:18:38Z</time>
   </trkpt>
   <trkpt lat="59.1418900" lon="9.6553900">
    <ele>5.3</ele>
    <time>2026-01-08T12:18:39Z</time>
   </trkpt>
   <trkpt lat="59.1418860" lon="9.6553920">
    <ele>5.3</ele>
    <time>2026-01-08T12:18:40Z</time>
   </trkpt>
   <trkpt lat="59.1418800" lon="9.6553770">
    <ele>5.4</ele>
    <time>2026-01-08T12:18:41Z</time>
   </trkpt>
   <trkpt lat="59.1418630" lon="9.6553610">
    <ele>5.4</ele>
    <time>2026-01-08T12:18:42Z</time>
   </trkpt>
   <trkpt lat="59.1418350" lon="9.6553460">
    <ele>5.4</ele>
    <time>2026-01-08T12:18:43Z</time>
   </trkpt>
   <trkpt lat="59.1418240" lon="9.6553450">
    <ele>5.4</ele>
    <time>2026-01-08T12:18:44Z</time>
   </trkpt>
   <trkpt lat="59.1417980" lon="9.6553260">
    <ele>5.4</ele>
    <time>2026-01-08T12:18:45Z</time>
   </trkpt>
   <trkpt lat="59.1417840" lon="9.6553200">
    <ele>5.4</ele>
    <time>2026-01-08T12:18:46Z</time>
   </trkpt>
   <trkpt lat="59.1417640" lon="9.6553140">
    <ele>5.5</ele>
    <time>2026-01-08T12:18:47Z</time>
   </trkpt>
   <trkpt lat="59.1417540" lon="9.6553080">
    <ele>5.5</ele>
    <time>2026-01-08T12:18:48Z</time>
   </trkpt>
   <trkpt lat="59.1417370" lon="9.6553040">
    <ele>5.5</ele>
    <time>2026-01-08T12:18:49Z</time>
   </trkpt>
   <trkpt lat="59.1417300" lon="9.6553140">
    <ele>5.5</ele>
    <time>2026-01-08T12:18:50Z</time>
   </trkpt>
   <trkpt lat="59.1417150" lon="9.6553100">
    <ele>5.5</ele>
    <time>2026-01-08T12:18:51Z</time>
   </trkpt>
   <trkpt lat="59.1417010" lon="9.6553050">
    <ele>5.5</ele>
    <time>2026-01-08T12:18:52Z</time>
   </trkpt>
   <trkpt lat="59.1416860" lon="9.6553010">
    <ele>5.5</ele>
    <time>2026-01-08T12:18:53Z</time>
   </trkpt>
   <trkpt lat="59.1416990" lon="9.6552790">
    <ele>5.5</ele>
    <time>2026-01-08T12:18:54Z</time>
   </trkpt>
   <trkpt lat="59.1416920" lon="9.6552640">
    <ele>5.5</ele>
    <time>2026-01-08T12:18:55Z</time>
   </trkpt>
   <trkpt lat="59.1416890" lon="9.6552630">
    <ele>5.5</ele>
    <time>2026-01-08T12:18:56Z</time>
   </trkpt>
   <trkpt lat="59.1416780" lon="9.6552550">
    <ele>5.5</ele>
    <time>2026-01-08T12:18:57Z</time>
   </trkpt>
   <trkpt lat="59.1416560" lon="9.6552770">
    <ele>5.5</ele>
    <time>2026-01-08T12:18:58Z</time>
   </trkpt>
   <trkpt lat="59.1416460" lon="9.6552950">
    <ele>5.5</ele>
    <time>2026-01-08T12:18:59Z</time>
   </trkpt>
   <trkpt lat="59.1416480" lon="9.6552970">
    <ele>5.5</ele>
    <time>2026-01-08T12:19:00Z</time>
   </trkpt>
   <trkpt lat="59.1416350" lon="9.6552960">
    <ele>5.5</ele>
    <time>2026-01-08T12:19:01Z</time>
   </trkpt>
   <trkpt lat="59.1416230" lon="9.6552780">
    <ele>5.5</ele>
    <time>2026-01-08T12:19:02Z</time>
   </trkpt>
   <trkpt lat="59.1416100" lon="9.6552710">
    <ele>5.6</ele>
    <time>2026-01-08T12:19:03Z</time>
   </trkpt>
   <trkpt lat="59.1416150" lon="9.6552690">
    <ele>5.6</ele>
    <time>2026-01-08T12:19:04Z</time>
   </trkpt>
   <trkpt lat="59.1416170" lon="9.6552650">
    <ele>5.6</ele>
    <time>2026-01-08T12:19:05Z</time>
   </trkpt>
   <trkpt lat="59.1416000" lon="9.6552520">
    <ele>5.6</ele>
    <time>2026-01-08T12:19:06Z</time>
   </trkpt>
   <trkpt lat="59.1415880" lon="9.6552740">
    <ele>5.6</ele>
    <time>2026-01-08T12:19:07Z</time>
   </trkpt>
   <trkpt lat="59.1415570" lon="9.6552600">
    <ele>5.6</ele>
    <time>2026-01-08T12:19:08Z</time>
   </trkpt>
   <trkpt lat="59.1415360" lon="9.6552450">
    <ele>5.6</ele>
    <time>2026-01-08T12:19:09Z</time>
   </trkpt>
   <trkpt lat="59.1415310" lon="9.6552360">
    <ele>5.6</ele>
    <time>2026-01-08T12:19:10Z</time>
   </trkpt>
   <trkpt lat="59.1415250" lon="9.6552270">
    <ele>5.6</ele>
    <time>2026-01-08T12:19:11Z</time>
   </trkpt>
   <trkpt lat="59.1415010" lon="9.6552020">
    <ele>5.6</ele>
    <time>2026-01-08T12:19:12Z</time>
   </trkpt>
   <trkpt lat="59.1414900" lon="9.6551940">
    <ele>5.6</ele>
    <time>2026-01-08T12:19:13Z</time>
   </trkpt>
   <trkpt lat="59.1414860" lon="9.6551590">
    <ele>5.6</ele>
    <time>2026-01-08T12:19:14Z</time>
   </trkpt>
   <trkpt lat="59.1414770" lon="9.6551440">
    <ele>5.6</ele>
    <time>2026-01-08T12:19:15Z</time>
   </trkpt>
   <trkpt lat="59.1414670" lon="9.6551300">
    <ele>5.6</ele>
    <time>2026-01-08T12:19:16Z</time>
   </trkpt>
   <trkpt lat="59.1414510" lon="9.6551080">
    <ele>5.6</ele>
    <time>2026-01-08T12:19:17Z</time>
   </trkpt>
   <trkpt lat="59.1414480" lon="9.6551010">
    <ele>5.6</ele>
    <time>2026-01-08T12:19:18Z</time>
   </trkpt>
   <trkpt lat="59.1414370" lon="9.6550930">
    <ele>5.6</ele>
    <time>2026-01-08T12:19:19Z</time>
   </trkpt>
   <trkpt lat="59.1414160" lon="9.6550770">
    <ele>5.6</ele>
    <time>2026-01-08T12:19:20Z</time>
   </trkpt>
   <trkpt lat="59.1414090" lon="9.6550650">
    <ele>5.6</ele>
    <time>2026-01-08T12:19:21Z</time>
   </trkpt>
   <trkpt lat="59.1414030" lon="9.6550540">
    <ele>5.6</ele>
    <time>2026-01-08T12:19:22Z</time>
   </trkpt>
   <trkpt lat="59.1413860" lon="9.6550260">
    <ele>5.6</ele>
    <time>2026-01-08T12:19:23Z</time>
   </trkpt>
   <trkpt lat="59.1413750" lon="9.6550150">
    <ele>5.6</ele>
    <time>2026-01-08T12:19:24Z</time>
   </trkpt>
   <trkpt lat="59.1413640" lon="9.6550050">
    <ele>5.6</ele>
    <time>2026-01-08T12:19:25Z</time>
   </trkpt>
   <trkpt lat="59.1413510" lon="9.6549790">
    <ele>5.6</ele>
    <time>2026-01-08T12:19:26Z</time>
   </trkpt>
   <trkpt lat="59.1413410" lon="9.6549700">
    <ele>5.6</ele>
    <time>2026-01-08T12:19:27Z</time>
   </trkpt>
   <trkpt lat="59.1413320" lon="9.6549610">
    <ele>5.6</ele>
    <time>2026-01-08T12:19:28Z</time>
   </trkpt>
   <trkpt lat="59.1413150" lon="9.6549410">
    <ele>5.6</ele>
    <time>2026-01-08T12:19:29Z</time>
   </trkpt>
   <trkpt lat="59.1413050" lon="9.6549310">
    <ele>5.6</ele>
    <time>2026-01-08T12:19:30Z</time>
   </trkpt>
   <trkpt lat="59.1412950" lon="9.6549210">
    <ele>5.6</ele>
    <time>2026-01-08T12:19:31Z</time>
   </trkpt>
   <trkpt lat="59.1412830" lon="9.6549170">
    <ele>5.6</ele>
    <time>2026-01-08T12:19:32Z</time>
   </trkpt>
   <trkpt lat="59.1412720" lon="9.6548990">
    <ele>5.6</ele>
    <time>2026-01-08T12:19:33Z</time>
   </trkpt>
   <trkpt lat="59.1412650" lon="9.6548880">
    <ele>5.6</ele>
    <time>2026-01-08T12:19:34Z</time>
   </trkpt>
   <trkpt lat="59.1412530" lon="9.6548790">
    <ele>5.6</ele>
    <time>2026-01-08T12:19:35Z</time>
   </trkpt>
   <trkpt lat="59.1412410" lon="9.6548690">
    <ele>5.6</ele>
    <time>2026-01-08T12:19:36Z</time>
   </trkpt>
   <trkpt lat="59.1412320" lon="9.6548660">
    <ele>5.6</ele>
    <time>2026-01-08T12:19:37Z</time>
   </trkpt>
   <trkpt lat="59.1412100" lon="9.6548430">
    <ele>5.6</ele>
    <time>2026-01-08T12:19:38Z</time>
   </trkpt>
   <trkpt lat="59.1412000" lon="9.6548350">
    <ele>5.6</ele>
    <time>2026-01-08T12:19:39Z</time>
   </trkpt>
   <trkpt lat="59.1411830" lon="9.6548160">
    <ele>5.6</ele>
    <time>2026-01-08T12:19:40Z</time>
   </trkpt>
   <trkpt lat="59.1411720" lon="9.6548040">
    <ele>5.6</ele>
    <time>2026-01-08T12:19:41Z</time>
   </trkpt>
   <trkpt lat="59.1411650" lon="9.6547860">
    <ele>5.6</ele>
    <time>2026-01-08T12:19:42Z</time>
   </trkpt>
   <trkpt lat="59.1411510" lon="9.6547730">
    <ele>5.6</ele>
    <time>2026-01-08T12:19:43Z</time>
   </trkpt>
   <trkpt lat="59.1411450" lon="9.6547600">
    <ele>5.6</ele>
    <time>2026-01-08T12:19:44Z</time>
   </trkpt>
   <trkpt lat="59.1411500" lon="9.6547610">
    <ele>5.6</ele>
    <time>2026-01-08T12:19:45Z</time>
   </trkpt>
   <trkpt lat="59.1411520" lon="9.6547630">
    <ele>5.6</ele>
    <time>2026-01-08T12:19:46Z</time>
   </trkpt>
   <trkpt lat="59.1411490" lon="9.6547500">
    <ele>5.6</ele>
    <time>2026-01-08T12:19:47Z</time>
   </trkpt>
   <trkpt lat="59.1411520" lon="9.6547600">
    <ele>5.6</ele>
    <time>2026-01-08T12:19:48Z</time>
   </trkpt>
   <trkpt lat="59.1411520" lon="9.6547620">
    <ele>5.6</ele>
    <time>2026-01-08T12:19:49Z</time>
   </trkpt>
   <trkpt lat="59.1411590" lon="9.6547600">
    <ele>5.6</ele>
    <time>2026-01-08T12:19:50Z</time>
   </trkpt>
   <trkpt lat="59.1411640" lon="9.6547520">
    <ele>5.6</ele>
    <time>2026-01-08T12:19:51Z</time>
   </trkpt>
   <trkpt lat="59.1411630" lon="9.6547410">
    <ele>5.6</ele>
    <time>2026-01-08T12:19:52Z</time>
   </trkpt>
   <trkpt lat="59.1411560" lon="9.6547470">
    <ele>5.6</ele>
    <time>2026-01-08T12:19:53Z</time>
   </trkpt>
   <trkpt lat="59.1411440" lon="9.6547470">
    <ele>5.6</ele>
    <time>2026-01-08T12:19:54Z</time>
   </trkpt>
   <trkpt lat="59.1411250" lon="9.6547450">
    <ele>5.6</ele>
    <time>2026-01-08T12:19:55Z</time>
   </trkpt>
   <trkpt lat="59.1411070" lon="9.6547390">
    <ele>5.6</ele>
    <time>2026-01-08T12:19:56Z</time>
   </trkpt>
   <trkpt lat="59.1411200" lon="9.6547510">
    <ele>5.6</ele>
    <time>2026-01-08T12:19:57Z</time>
   </trkpt>
   <trkpt lat="59.1411110" lon="9.6547260">
    <ele>5.6</ele>
    <time>2026-01-08T12:19:58Z</time>
   </trkpt>
   <trkpt lat="59.1410990" lon="9.6547170">
    <ele>5.6</ele>
    <time>2026-01-08T12:19:59Z</time>
   </trkpt>
   <trkpt lat="59.1410800" lon="9.6547050">
    <ele>5.6</ele>
    <time>2026-01-08T12:20:00Z</time>
   </trkpt>
   <trkpt lat="59.1410790" lon="9.6546880">
    <ele>5.6</ele>
    <time>2026-01-08T12:20:01Z</time>
   </trkpt>
   <trkpt lat="59.1410640" lon="9.6546820">
    <ele>5.6</ele>
    <time>2026-01-08T12:20:03Z</time>
   </trkpt>
   <trkpt lat="59.1410400" lon="9.6546700">
    <ele>5.6</ele>
    <time>2026-01-08T12:20:04Z</time>
   </trkpt>
   <trkpt lat="59.1410280" lon="9.6546660">
    <ele>5.6</ele>
    <time>2026-01-08T12:20:05Z</time>
   </trkpt>
   <trkpt lat="59.1410160" lon="9.6546630">
    <ele>5.6</ele>
    <time>2026-01-08T12:20:06Z</time>
   </trkpt>
   <trkpt lat="59.1410040" lon="9.6546590">
    <ele>5.6</ele>
    <time>2026-01-08T12:20:07Z</time>
   </trkpt>
   <trkpt lat="59.1409840" lon="9.6546450">
    <ele>5.6</ele>
    <time>2026-01-08T12:20:08Z</time>
   </trkpt>
   <trkpt lat="59.1409720" lon="9.6546260">
    <ele>5.6</ele>
    <time>2026-01-08T12:20:09Z</time>
   </trkpt>
   <trkpt lat="59.1409380" lon="9.6546140">
    <ele>5.6</ele>
    <time>2026-01-08T12:20:10Z</time>
   </trkpt>
   <trkpt lat="59.1409200" lon="9.6546040">
    <ele>5.6</ele>
    <time>2026-01-08T12:20:11Z</time>
   </trkpt>
   <trkpt lat="59.1409220" lon="9.6546160">
    <ele>5.6</ele>
    <time>2026-01-08T12:20:12Z</time>
   </trkpt>
   <trkpt lat="59.1409080" lon="9.6546020">
    <ele>5.6</ele>
    <time>2026-01-08T12:20:13Z</time>
   </trkpt>
   <trkpt lat="59.1408940" lon="9.6545900">
    <ele>5.6</ele>
    <time>2026-01-08T12:20:14Z</time>
   </trkpt>
   <trkpt lat="59.1408790" lon="9.6545810">
    <ele>5.6</ele>
    <time>2026-01-08T12:20:15Z</time>
   </trkpt>
   <trkpt lat="59.1408620" lon="9.6545750">
    <ele>5.6</ele>
    <time>2026-01-08T12:20:16Z</time>
   </trkpt>
   <trkpt lat="59.1408350" lon="9.6545600">
    <ele>5.6</ele>
    <time>2026-01-08T12:20:17Z</time>
   </trkpt>
   <trkpt lat="59.1408270" lon="9.6545550">
    <ele>5.6</ele>
    <time>2026-01-08T12:20:18Z</time>
   </trkpt>
   <trkpt lat="59.1408000" lon="9.6545400">
    <ele>5.5</ele>
    <time>2026-01-08T12:20:19Z</time>
   </trkpt>
   <trkpt lat="59.1407880" lon="9.6545300">
    <ele>5.5</ele>
    <time>2026-01-08T12:20:20Z</time>
   </trkpt>
   <trkpt lat="59.1407760" lon="9.6545210">
    <ele>5.5</ele>
    <time>2026-01-08T12:20:21Z</time>
   </trkpt>
   <trkpt lat="59.1407600" lon="9.6545130">
    <ele>5.5</ele>
    <time>2026-01-08T12:20:22Z</time>
   </trkpt>
   <trkpt lat="59.1407460" lon="9.6545130">
    <ele>5.5</ele>
    <time>2026-01-08T12:20:23Z</time>
   </trkpt>
   <trkpt lat="59.1407320" lon="9.6545120">
    <ele>5.5</ele>
    <time>2026-01-08T12:20:24Z</time>
   </trkpt>
   <trkpt lat="59.1406930" lon="9.6544990">
    <ele>5.5</ele>
    <time>2026-01-08T12:20:25Z</time>
   </trkpt>
   <trkpt lat="59.1406760" lon="9.6544940">
    <ele>5.5</ele>
    <time>2026-01-08T12:20:26Z</time>
   </trkpt>
   <trkpt lat="59.1406640" lon="9.6544870">
    <ele>5.5</ele>
    <time>2026-01-08T12:20:27Z</time>
   </trkpt>
   <trkpt lat="59.1406560" lon="9.6544800">
    <ele>5.5</ele>
    <time>2026-01-08T12:20:28Z</time>
   </trkpt>
   <trkpt lat="59.1406420" lon="9.6544570">
    <ele>5.5</ele>
    <time>2026-01-08T12:20:29Z</time>
   </trkpt>
   <trkpt lat="59.1406250" lon="9.6544570">
    <ele>5.5</ele>
    <time>2026-01-08T12:20:30Z</time>
   </trkpt>
   <trkpt lat="59.1406120" lon="9.6544520">
    <ele>5.5</ele>
    <time>2026-01-08T12:20:31Z</time>
   </trkpt>
   <trkpt lat="59.1405950" lon="9.6544670">
    <ele>5.5</ele>
    <time>2026-01-08T12:20:32Z</time>
   </trkpt>
   <trkpt lat="59.1405620" lon="9.6544690">
    <ele>5.5</ele>
    <time>2026-01-08T12:20:33Z</time>
   </trkpt>
   <trkpt lat="59.1405530" lon="9.6544740">
    <ele>5.5</ele>
    <time>2026-01-08T12:20:34Z</time>
   </trkpt>
   <trkpt lat="59.1405230" lon="9.6544730">
    <ele>5.4</ele>
    <time>2026-01-08T12:20:35Z</time>
   </trkpt>
   <trkpt lat="59.1404960" lon="9.6544780">
    <ele>5.4</ele>
    <time>2026-01-08T12:20:36Z</time>
   </trkpt>
   <trkpt lat="59.1404820" lon="9.6544700">
    <ele>5.4</ele>
    <time>2026-01-08T12:20:37Z</time>
   </trkpt>
   <trkpt lat="59.1404490" lon="9.6544500">
    <ele>5.4</ele>
    <time>2026-01-08T12:20:38Z</time>
   </trkpt>
   <trkpt lat="59.1404400" lon="9.6544420">
    <ele>5.4</ele>
    <time>2026-01-08T12:20:39Z</time>
   </trkpt>
   <trkpt lat="59.1404170" lon="9.6544010">
    <ele>5.4</ele>
    <time>2026-01-08T12:20:40Z</time>
   </trkpt>
   <trkpt lat="59.1404090" lon="9.6543920">
    <ele>5.4</ele>
    <time>2026-01-08T12:20:41Z</time>
   </trkpt>
   <trkpt lat="59.1403870" lon="9.6543790">
    <ele>5.4</ele>
    <time>2026-01-08T12:20:42Z</time>
   </trkpt>
   <trkpt lat="59.1403770" lon="9.6543720">
    <ele>5.4</ele>
    <time>2026-01-08T12:20:43Z</time>
   </trkpt>
   <trkpt lat="59.1403550" lon="9.6543750">
    <ele>5.4</ele>
    <time>2026-01-08T12:20:44Z</time>
   </trkpt>
   <trkpt lat="59.1403420" lon="9.6543680">
    <ele>5.4</ele>
    <time>2026-01-08T12:20:45Z</time>
   </trkpt>
   <trkpt lat="59.1403300" lon="9.6543580">
    <ele>5.4</ele>
    <time>2026-01-08T12:20:46Z</time>
   </trkpt>
   <trkpt lat="59.1403130" lon="9.6543570">
    <ele>5.3</ele>
    <time>2026-01-08T12:20:47Z</time>
   </trkpt>
   <trkpt lat="59.1403010" lon="9.6543460">
    <ele>5.3</ele>
    <time>2026-01-08T12:20:48Z</time>
   </trkpt>
   <trkpt lat="59.1403060" lon="9.6543550">
    <ele>5.3</ele>
    <time>2026-01-08T12:20:49Z</time>
   </trkpt>
   <trkpt lat="59.1402830" lon="9.6543280">
    <ele>5.3</ele>
    <time>2026-01-08T12:20:50Z</time>
   </trkpt>
   <trkpt lat="59.1402590" lon="9.6542980">
    <ele>5.3</ele>
    <time>2026-01-08T12:20:51Z</time>
   </trkpt>
   <trkpt lat="59.1402530" lon="9.6542750">
    <ele>5.3</ele>
    <time>2026-01-08T12:20:52Z</time>
   </trkpt>
   <trkpt lat="59.1402450" lon="9.6542420">
    <ele>5.3</ele>
    <time>2026-01-08T12:20:53Z</time>
   </trkpt>
   <trkpt lat="59.1402390" lon="9.6542250">
    <ele>5.3</ele>
    <time>2026-01-08T12:20:54Z</time>
   </trkpt>
   <trkpt lat="59.1402320" lon="9.6542090">
    <ele>5.3</ele>
    <time>2026-01-08T12:20:55Z</time>
   </trkpt>
   <trkpt lat="59.1402140" lon="9.6541540">
    <ele>5.2</ele>
    <time>2026-01-08T12:20:56Z</time>
   </trkpt>
   <trkpt lat="59.1402100" lon="9.6541400">
    <ele>5.2</ele>
    <time>2026-01-08T12:20:57Z</time>
   </trkpt>
   <trkpt lat="59.1401990" lon="9.6541250">
    <ele>5.2</ele>
    <time>2026-01-08T12:20:58Z</time>
   </trkpt>
   <trkpt lat="59.1401990" lon="9.6541150">
    <ele>5.2</ele>
    <time>2026-01-08T12:20:59Z</time>
   </trkpt>
   <trkpt lat="59.1401930" lon="9.6540980">
    <ele>5.2</ele>
    <time>2026-01-08T12:21:00Z</time>
   </trkpt>
   <trkpt lat="59.1401860" lon="9.6540780">
    <ele>5.2</ele>
    <time>2026-01-08T12:21:01Z</time>
   </trkpt>
   <trkpt lat="59.1401860" lon="9.6540610">
    <ele>5.2</ele>
    <time>2026-01-08T12:21:02Z</time>
   </trkpt>
   <trkpt lat="59.1401750" lon="9.6540380">
    <ele>5.2</ele>
    <time>2026-01-08T12:21:03Z</time>
   </trkpt>
   <trkpt lat="59.1401650" lon="9.6540200">
    <ele>5.1</ele>
    <time>2026-01-08T12:21:04Z</time>
   </trkpt>
   <trkpt lat="59.1401600" lon="9.6540030">
    <ele>5.1</ele>
    <time>2026-01-08T12:21:05Z</time>
   </trkpt>
   <trkpt lat="59.1401550" lon="9.6539870">
    <ele>5.1</ele>
    <time>2026-01-08T12:21:06Z</time>
   </trkpt>
   <trkpt lat="59.1401500" lon="9.6539700">
    <ele>5.1</ele>
    <time>2026-01-08T12:21:07Z</time>
   </trkpt>
   <trkpt lat="59.1401180" lon="9.6539440">
    <ele>5.1</ele>
    <time>2026-01-08T12:21:08Z</time>
   </trkpt>
   <trkpt lat="59.1401090" lon="9.6539350">
    <ele>5.1</ele>
    <time>2026-01-08T12:21:09Z</time>
   </trkpt>
   <trkpt lat="59.1400890" lon="9.6538810">
    <ele>5.0</ele>
    <time>2026-01-08T12:21:10Z</time>
   </trkpt>
   <trkpt lat="59.1400850" lon="9.6538670">
    <ele>5.0</ele>
    <time>2026-01-08T12:21:11Z</time>
   </trkpt>
   <trkpt lat="59.1400730" lon="9.6538420">
    <ele>5.0</ele>
    <time>2026-01-08T12:21:12Z</time>
   </trkpt>
   <trkpt lat="59.1400600" lon="9.6538280">
    <ele>5.0</ele>
    <time>2026-01-08T12:21:13Z</time>
   </trkpt>
   <trkpt lat="59.1400400" lon="9.6537990">
    <ele>5.0</ele>
    <time>2026-01-08T12:21:14Z</time>
   </trkpt>
   <trkpt lat="59.1400280" lon="9.6537800">
    <ele>4.9</ele>
    <time>2026-01-08T12:21:15Z</time>
   </trkpt>
   <trkpt lat="59.1400170" lon="9.6537710">
    <ele>4.9</ele>
    <time>2026-01-08T12:21:16Z</time>
   </trkpt>
   <trkpt lat="59.1400050" lon="9.6537730">
    <ele>4.9</ele>
    <time>2026-01-08T12:21:17Z</time>
   </trkpt>
   <trkpt lat="59.1399930" lon="9.6537620">
    <ele>4.9</ele>
    <time>2026-01-08T12:21:18Z</time>
   </trkpt>
   <trkpt lat="59.1399600" lon="9.6537450">
    <ele>4.9</ele>
    <time>2026-01-08T12:21:19Z</time>
   </trkpt>
   <trkpt lat="59.1399420" lon="9.6537360">
    <ele>4.9</ele>
    <time>2026-01-08T12:21:20Z</time>
   </trkpt>
   <trkpt lat="59.1399200" lon="9.6537290">
    <ele>4.8</ele>
    <time>2026-01-08T12:21:21Z</time>
   </trkpt>
   <trkpt lat="59.1399120" lon="9.6537250">
    <ele>4.8</ele>
    <time>2026-01-08T12:21:22Z</time>
   </trkpt>
   <trkpt lat="59.1399050" lon="9.6537220">
    <ele>4.8</ele>
    <time>2026-01-08T12:21:23Z</time>
   </trkpt>
   <trkpt lat="59.1398940" lon="9.6537080">
    <ele>4.8</ele>
    <time>2026-01-08T12:21:24Z</time>
   </trkpt>
   <trkpt lat="59.1398760" lon="9.6536840">
    <ele>4.8</ele>
    <time>2026-01-08T12:21:25Z</time>
   </trkpt>
   <trkpt lat="59.1398580" lon="9.6536600">
    <ele>4.8</ele>
    <time>2026-01-08T12:21:26Z</time>
   </trkpt>
   <trkpt lat="59.1398450" lon="9.6536440">
    <ele>4.8</ele>
    <time>2026-01-08T12:21:27Z</time>
   </trkpt>
   <trkpt lat="59.1398330" lon="9.6536290">
    <ele>4.8</ele>
    <time>2026-01-08T12:21:28Z</time>
   </trkpt>
   <trkpt lat="59.1398240" lon="9.6536100">
    <ele>4.7</ele>
    <time>2026-01-08T12:21:29Z</time>
   </trkpt>
   <trkpt lat="59.1398110" lon="9.6535940">
    <ele>4.7</ele>
    <time>2026-01-08T12:21:30Z</time>
   </trkpt>
   <trkpt lat="59.1397970" lon="9.6535720">
    <ele>4.7</ele>
    <time>2026-01-08T12:21:31Z</time>
   </trkpt>
   <trkpt lat="59.1397890" lon="9.6535570">
    <ele>4.7</ele>
    <time>2026-01-08T12:21:32Z</time>
   </trkpt>
   <trkpt lat="59.1397680" lon="9.6535150">
    <ele>4.7</ele>
    <time>2026-01-08T12:21:33Z</time>
   </trkpt>
   <trkpt lat="59.1397620" lon="9.6535050">
    <ele>4.7</ele>
    <time>2026-01-08T12:21:34Z</time>
   </trkpt>
   <trkpt lat="59.1397490" lon="9.6534790">
    <ele>4.7</ele>
    <time>2026-01-08T12:21:35Z</time>
   </trkpt>
   <trkpt lat="59.1397400" lon="9.6534680">
    <ele>4.6</ele>
    <time>2026-01-08T12:21:36Z</time>
   </trkpt>
   <trkpt lat="59.1397300" lon="9.6534470">
    <ele>4.6</ele>
    <time>2026-01-08T12:21:37Z</time>
   </trkpt>
   <trkpt lat="59.1397280" lon="9.6534070">
    <ele>4.6</ele>
    <time>2026-01-08T12:21:38Z</time>
   </trkpt>
   <trkpt lat="59.1397270" lon="9.6533540">
    <ele>4.6</ele>
    <time>2026-01-08T12:21:39Z</time>
   </trkpt>
   <trkpt lat="59.1397270" lon="9.6533350">
    <ele>4.6</ele>
    <time>2026-01-08T12:21:40Z</time>
   </trkpt>
   <trkpt lat="59.1397260" lon="9.6533220">
    <ele>4.6</ele>
    <time>2026-01-08T12:21:41Z</time>
   </trkpt>
   <trkpt lat="59.1397140" lon="9.6532860">
    <ele>4.6</ele>
    <time>2026-01-08T12:21:42Z</time>
   </trkpt>
   <trkpt lat="59.1397010" lon="9.6532260">
    <ele>4.6</ele>
    <time>2026-01-08T12:21:43Z</time>
   </trkpt>
   <trkpt lat="59.1396880" lon="9.6531940">
    <ele>4.6</ele>
    <time>2026-01-08T12:21:44Z</time>
   </trkpt>
   <trkpt lat="59.1396800" lon="9.6531810">
    <ele>4.6</ele>
    <time>2026-01-08T12:21:45Z</time>
   </trkpt>
   <trkpt lat="59.1396730" lon="9.6531680">
    <ele>4.6</ele>
    <time>2026-01-08T12:21:46Z</time>
   </trkpt>
   <trkpt lat="59.1396680" lon="9.6531340">
    <ele>4.6</ele>
    <time>2026-01-08T12:21:47Z</time>
   </trkpt>
   <trkpt lat="59.1396640" lon="9.6531180">
    <ele>4.6</ele>
    <time>2026-01-08T12:21:48Z</time>
   </trkpt>
   <trkpt lat="59.1396590" lon="9.6531010">
    <ele>4.6</ele>
    <time>2026-01-08T12:21:49Z</time>
   </trkpt>
   <trkpt lat="59.1396540" lon="9.6530850">
    <ele>4.6</ele>
    <time>2026-01-08T12:21:50Z</time>
   </trkpt>
   <trkpt lat="59.1396450" lon="9.6530270">
    <ele>4.5</ele>
    <time>2026-01-08T12:21:51Z</time>
   </trkpt>
   <trkpt lat="59.1396410" lon="9.6529980">
    <ele>4.5</ele>
    <time>2026-01-08T12:21:52Z</time>
   </trkpt>
   <trkpt lat="59.1396380" lon="9.6529890">
    <ele>4.5</ele>
    <time>2026-01-08T12:21:53Z</time>
   </trkpt>
   <trkpt lat="59.1396340" lon="9.6529700">
    <ele>4.5</ele>
    <time>2026-01-08T12:21:54Z</time>
   </trkpt>
   <trkpt lat="59.1396200" lon="9.6529410">
    <ele>4.5</ele>
    <time>2026-01-08T12:21:55Z</time>
   </trkpt>
   <trkpt lat="59.1396150" lon="9.6529140">
    <ele>4.5</ele>
    <time>2026-01-08T12:21:56Z</time>
   </trkpt>
   <trkpt lat="59.1396070" lon="9.6529000">
    <ele>4.5</ele>
    <time>2026-01-08T12:21:57Z</time>
   </trkpt>
   <trkpt lat="59.1396010" lon="9.6528880">
    <ele>4.5</ele>
    <time>2026-01-08T12:21:58Z</time>
   </trkpt>
   <trkpt lat="59.1395960" lon="9.6528560">
    <ele>4.5</ele>
    <time>2026-01-08T12:21:59Z</time>
   </trkpt>
   <trkpt lat="59.1395920" lon="9.6528370">
    <ele>4.5</ele>
    <time>2026-01-08T12:22:00Z</time>
   </trkpt>
   <trkpt lat="59.1395880" lon="9.6528180">
    <ele>4.5</ele>
    <time>2026-01-08T12:22:01Z</time>
   </trkpt>
   <trkpt lat="59.1395720" lon="9.6527950">
    <ele>4.5</ele>
    <time>2026-01-08T12:22:02Z</time>
   </trkpt>
   <trkpt lat="59.1395650" lon="9.6527830">
    <ele>4.5</ele>
    <time>2026-01-08T12:22:03Z</time>
   </trkpt>
   <trkpt lat="59.1395570" lon="9.6527720">
    <ele>4.5</ele>
    <time>2026-01-08T12:22:04Z</time>
   </trkpt>
   <trkpt lat="59.1395420" lon="9.6527240">
    <ele>4.5</ele>
    <time>2026-01-08T12:22:05Z</time>
   </trkpt>
   <trkpt lat="59.1395360" lon="9.6527090">
    <ele>4.5</ele>
    <time>2026-01-08T12:22:06Z</time>
   </trkpt>
   <trkpt lat="59.1395230" lon="9.6526860">
    <ele>4.5</ele>
    <time>2026-01-08T12:22:07Z</time>
   </trkpt>
   <trkpt lat="59.1395170" lon="9.6526630">
    <ele>4.5</ele>
    <time>2026-01-08T12:22:08Z</time>
   </trkpt>
   <trkpt lat="59.1395090" lon="9.6526380">
    <ele>4.5</ele>
    <time>2026-01-08T12:22:09Z</time>
   </trkpt>
   <trkpt lat="59.1394950" lon="9.6526070">
    <ele>4.5</ele>
    <time>2026-01-08T12:22:10Z</time>
   </trkpt>
   <trkpt lat="59.1394910" lon="9.6525940">
    <ele>4.5</ele>
    <time>2026-01-08T12:22:11Z</time>
   </trkpt>
   <trkpt lat="59.1394860" lon="9.6525810">
    <ele>4.5</ele>
    <time>2026-01-08T12:22:12Z</time>
   </trkpt>
   <trkpt lat="59.1394800" lon="9.6525670">
    <ele>4.5</ele>
    <time>2026-01-08T12:22:13Z</time>
   </trkpt>
   <trkpt lat="59.1394740" lon="9.6525650">
    <ele>4.4</ele>
    <time>2026-01-08T12:22:14Z</time>
   </trkpt>
   <trkpt lat="59.1394700" lon="9.6525490">
    <ele>4.4</ele>
    <time>2026-01-08T12:22:15Z</time>
   </trkpt>
   <trkpt lat="59.1394640" lon="9.6525270">
    <ele>4.4</ele>
    <time>2026-01-08T12:22:16Z</time>
   </trkpt>
   <trkpt lat="59.1394560" lon="9.6525120">
    <ele>4.4</ele>
    <time>2026-01-08T12:22:17Z</time>
   </trkpt>
   <trkpt lat="59.1394460" lon="9.6524760">
    <ele>4.4</ele>
    <time>2026-01-08T12:22:18Z</time>
   </trkpt>
   <trkpt lat="59.1394470" lon="9.6524430">
    <ele>4.4</ele>
    <time>2026-01-08T12:22:19Z</time>
   </trkpt>
   <trkpt lat="59.1394500" lon="9.6524100">
    <ele>4.4</ele>
    <time>2026-01-08T12:22:20Z</time>
   </trkpt>
   <trkpt lat="59.1394570" lon="9.6523820">
    <ele>4.4</ele>
    <time>2026-01-08T12:22:21Z</time>
   </trkpt>
   <trkpt lat="59.1394490" lon="9.6523500">
    <ele>4.4</ele>
    <time>2026-01-08T12:22:22Z</time>
   </trkpt>
   <trkpt lat="59.1394310" lon="9.6523080">
    <ele>4.4</ele>
    <time>2026-01-08T12:22:23Z</time>
   </trkpt>
   <trkpt lat="59.1394260" lon="9.6522870">
    <ele>4.4</ele>
    <time>2026-01-08T12:22:24Z</time>
   </trkpt>
   <trkpt lat="59.1394310" lon="9.6522550">
    <ele>4.3</ele>
    <time>2026-01-08T12:22:25Z</time>
   </trkpt>
   <trkpt lat="59.1394210" lon="9.6522200">
    <ele>4.3</ele>
    <time>2026-01-08T12:22:26Z</time>
   </trkpt>
   <trkpt lat="59.1394180" lon="9.6522020">
    <ele>4.3</ele>
    <time>2026-01-08T12:22:27Z</time>
   </trkpt>
   <trkpt lat="59.1394160" lon="9.6521560">
    <ele>4.3</ele>
    <time>2026-01-08T12:22:28Z</time>
   </trkpt>
   <trkpt lat="59.1394030" lon="9.6521380">
    <ele>4.3</ele>
    <time>2026-01-08T12:22:29Z</time>
   </trkpt>
   <trkpt lat="59.1393910" lon="9.6521270">
    <ele>4.3</ele>
    <time>2026-01-08T12:22:30Z</time>
   </trkpt>
   <trkpt lat="59.1393790" lon="9.6521160">
    <ele>4.3</ele>
    <time>2026-01-08T12:22:31Z</time>
   </trkpt>
   <trkpt lat="59.1393690" lon="9.6521050">
    <ele>4.3</ele>
    <time>2026-01-08T12:22:32Z</time>
   </trkpt>
   <trkpt lat="59.1393680" lon="9.6520760">
    <ele>4.3</ele>
    <time>2026-01-08T12:22:33Z</time>
   </trkpt>
   <trkpt lat="59.1393670" lon="9.6520540">
    <ele>4.3</ele>
    <time>2026-01-08T12:22:34Z</time>
   </trkpt>
   <trkpt lat="59.1393490" lon="9.6520100">
    <ele>4.3</ele>
    <time>2026-01-08T12:22:35Z</time>
   </trkpt>
   <trkpt lat="59.1393430" lon="9.6519910">
    <ele>4.2</ele>
    <time>2026-01-08T12:22:36Z</time>
   </trkpt>
   <trkpt lat="59.1393180" lon="9.6519680">
    <ele>4.2</ele>
    <time>2026-01-08T12:22:37Z</time>
   </trkpt>
   <trkpt lat="59.1392980" lon="9.6519470">
    <ele>4.2</ele>
    <time>2026-01-08T12:22:38Z</time>
   </trkpt>
   <trkpt lat="59.1392870" lon="9.6519270">
    <ele>4.2</ele>
    <time>2026-01-08T12:22:39Z</time>
   </trkpt>
   <trkpt lat="59.1392770" lon="9.6519070">
    <ele>4.2</ele>
    <time>2026-01-08T12:22:40Z</time>
   </trkpt>
   <trkpt lat="59.1392820" lon="9.6518940">
    <ele>4.2</ele>
    <time>2026-01-08T12:22:41Z</time>
   </trkpt>
   <trkpt lat="59.1392760" lon="9.6518700">
    <ele>4.2</ele>
    <time>2026-01-08T12:22:42Z</time>
   </trkpt>
   <trkpt lat="59.1392680" lon="9.6518520">
    <ele>4.2</ele>
    <time>2026-01-08T12:22:43Z</time>
   </trkpt>
   <trkpt lat="59.1392160" lon="9.6518750">
    <ele>4.2</ele>
    <time>2026-01-08T12:22:44Z</time>
   </trkpt>
   <trkpt lat="59.1392180" lon="9.6518390">
    <ele>4.2</ele>
    <time>2026-01-08T12:22:45Z</time>
   </trkpt>
   <trkpt lat="59.1392170" lon="9.6518260">
    <ele>4.2</ele>
    <time>2026-01-08T12:22:46Z</time>
   </trkpt>
   <trkpt lat="59.1392160" lon="9.6518140">
    <ele>4.2</ele>
    <time>2026-01-08T12:22:47Z</time>
   </trkpt>
   <trkpt lat="59.1392150" lon="9.6518020">
    <ele>4.2</ele>
    <time>2026-01-08T12:22:48Z</time>
   </trkpt>
   <trkpt lat="59.1392180" lon="9.6517510">
    <ele>4.2</ele>
    <time>2026-01-08T12:22:49Z</time>
   </trkpt>
   <trkpt lat="59.1392150" lon="9.6517300">
    <ele>4.2</ele>
    <time>2026-01-08T12:22:50Z</time>
   </trkpt>
   <trkpt lat="59.1391990" lon="9.6517100">
    <ele>4.2</ele>
    <time>2026-01-08T12:22:51Z</time>
   </trkpt>
   <trkpt lat="59.1391920" lon="9.6516990">
    <ele>4.2</ele>
    <time>2026-01-08T12:22:52Z</time>
   </trkpt>
   <trkpt lat="59.1391850" lon="9.6516890">
    <ele>4.2</ele>
    <time>2026-01-08T12:22:53Z</time>
   </trkpt>
   <trkpt lat="59.1391760" lon="9.6516460">
    <ele>4.2</ele>
    <time>2026-01-08T12:22:54Z</time>
   </trkpt>
   <trkpt lat="59.1391730" lon="9.6516170">
    <ele>4.2</ele>
    <time>2026-01-08T12:22:55Z</time>
   </trkpt>
   <trkpt lat="59.1391710" lon="9.6515880">
    <ele>4.2</ele>
    <time>2026-01-08T12:22:56Z</time>
   </trkpt>
   <trkpt lat="59.1391710" lon="9.6515260">
    <ele>4.2</ele>
    <time>2026-01-08T12:22:57Z</time>
   </trkpt>
   <trkpt lat="59.1391690" lon="9.6515120">
    <ele>4.2</ele>
    <time>2026-01-08T12:22:58Z</time>
   </trkpt>
   <trkpt lat="59.1391560" lon="9.6514570">
    <ele>4.2</ele>
    <time>2026-01-08T12:22:59Z</time>
   </trkpt>
   <trkpt lat="59.1391510" lon="9.6514420">
    <ele>4.2</ele>
    <time>2026-01-08T12:23:00Z</time>
   </trkpt>
   <trkpt lat="59.1391330" lon="9.6514200">
    <ele>4.2</ele>
    <time>2026-01-08T12:23:01Z</time>
   </trkpt>
   <trkpt lat="59.1391290" lon="9.6514020">
    <ele>4.2</ele>
    <time>2026-01-08T12:23:02Z</time>
   </trkpt>
   <trkpt lat="59.1391150" lon="9.6513530">
    <ele>4.2</ele>
    <time>2026-01-08T12:23:03Z</time>
   </trkpt>
   <trkpt lat="59.1391080" lon="9.6513390">
    <ele>4.2</ele>
    <time>2026-01-08T12:23:04Z</time>
   </trkpt>
   <trkpt lat="59.1390960" lon="9.6513250">
    <ele>4.2</ele>
    <time>2026-01-08T12:23:05Z</time>
   </trkpt>
   <trkpt lat="59.1390830" lon="9.6513050">
    <ele>4.2</ele>
    <time>2026-01-08T12:23:06Z</time>
   </trkpt>
   <trkpt lat="59.1390690" lon="9.6512700">
    <ele>4.2</ele>
    <time>2026-01-08T12:23:07Z</time>
   </trkpt>
   <trkpt lat="59.1390670" lon="9.6512580">
    <ele>4.2</ele>
    <time>2026-01-08T12:23:08Z</time>
   </trkpt>
   <trkpt lat="59.1390560" lon="9.6511960">
    <ele>4.2</ele>
    <time>2026-01-08T12:23:09Z</time>
   </trkpt>
   <trkpt lat="59.1390530" lon="9.6511800">
    <ele>4.2</ele>
    <time>2026-01-08T12:23:10Z</time>
   </trkpt>
   <trkpt lat="59.1390390" lon="9.6511560">
    <ele>4.2</ele>
    <time>2026-01-08T12:23:11Z</time>
   </trkpt>
   <trkpt lat="59.1390410" lon="9.6511290">
    <ele>4.2</ele>
    <time>2026-01-08T12:23:12Z</time>
   </trkpt>
   <trkpt lat="59.1390370" lon="9.6510910">
    <ele>4.2</ele>
    <time>2026-01-08T12:23:13Z</time>
   </trkpt>
   <trkpt lat="59.1390370" lon="9.6510760">
    <ele>4.2</ele>
    <time>2026-01-08T12:23:14Z</time>
   </trkpt>
   <trkpt lat="59.1390360" lon="9.6510620">
    <ele>4.2</ele>
    <time>2026-01-08T12:23:15Z</time>
   </trkpt>
   <trkpt lat="59.1390350" lon="9.6510470">
    <ele>4.2</ele>
    <time>2026-01-08T12:23:16Z</time>
   </trkpt>
   <trkpt lat="59.1390350" lon="9.6510170">
    <ele>4.2</ele>
    <time>2026-01-08T12:23:17Z</time>
   </trkpt>
   <trkpt lat="59.1390280" lon="9.6510030">
    <ele>4.2</ele>
    <time>2026-01-08T12:23:18Z</time>
   </trkpt>
   <trkpt lat="59.1390340" lon="9.6509780">
    <ele>4.2</ele>
    <time>2026-01-08T12:23:19Z</time>
   </trkpt>
   <trkpt lat="59.1390320" lon="9.6509660">
    <ele>4.2</ele>
    <time>2026-01-08T12:23:20Z</time>
   </trkpt>
   <trkpt lat="59.1390340" lon="9.6509330">
    <ele>4.2</ele>
    <time>2026-01-08T12:23:21Z</time>
   </trkpt>
   <trkpt lat="59.1390320" lon="9.6509280">
    <ele>4.2</ele>
    <time>2026-01-08T12:23:22Z</time>
   </trkpt>
   <trkpt lat="59.1390200" lon="9.6509250">
    <ele>4.2</ele>
    <time>2026-01-08T12:23:23Z</time>
   </trkpt>
   <trkpt lat="59.1390190" lon="9.6508620">
    <ele>4.2</ele>
    <time>2026-01-08T12:23:24Z</time>
   </trkpt>
   <trkpt lat="59.1390200" lon="9.6508420">
    <ele>4.2</ele>
    <time>2026-01-08T12:23:25Z</time>
   </trkpt>
   <trkpt lat="59.1390210" lon="9.6507680">
    <ele>4.2</ele>
    <time>2026-01-08T12:23:26Z</time>
   </trkpt>
   <trkpt lat="59.1390180" lon="9.6507680">
    <ele>4.2</ele>
    <time>2026-01-08T12:23:27Z</time>
   </trkpt>
   <trkpt lat="59.1390170" lon="9.6507520">
    <ele>4.2</ele>
    <time>2026-01-08T12:23:28Z</time>
   </trkpt>
   <trkpt lat="59.1390140" lon="9.6507420">
    <ele>4.2</ele>
    <time>2026-01-08T12:23:29Z</time>
   </trkpt>
   <trkpt lat="59.1390100" lon="9.6507380">
    <ele>4.2</ele>
    <time>2026-01-08T12:23:30Z</time>
   </trkpt>
   <trkpt lat="59.1390090" lon="9.6507120">
    <ele>4.3</ele>
    <time>2026-01-08T12:23:31Z</time>
   </trkpt>
   <trkpt lat="59.1390040" lon="9.6506750">
    <ele>4.3</ele>
    <time>2026-01-08T12:23:32Z</time>
   </trkpt>
   <trkpt lat="59.1390000" lon="9.6506590">
    <ele>4.3</ele>
    <time>2026-01-08T12:23:33Z</time>
   </trkpt>
   <trkpt lat="59.1389950" lon="9.6506440">
    <ele>4.3</ele>
    <time>2026-01-08T12:23:34Z</time>
   </trkpt>
   <trkpt lat="59.1389970" lon="9.6506200">
    <ele>4.3</ele>
    <time>2026-01-08T12:23:35Z</time>
   </trkpt>
   <trkpt lat="59.1390010" lon="9.6505870">
    <ele>4.3</ele>
    <time>2026-01-08T12:23:36Z</time>
   </trkpt>
   <trkpt lat="59.1389920" lon="9.6505300">
    <ele>4.3</ele>
    <time>2026-01-08T12:23:37Z</time>
   </trkpt>
   <trkpt lat="59.1389900" lon="9.6505170">
    <ele>4.3</ele>
    <time>2026-01-08T12:23:38Z</time>
   </trkpt>
   <trkpt lat="59.1389850" lon="9.6504830">
    <ele>4.3</ele>
    <time>2026-01-08T12:23:39Z</time>
   </trkpt>
   <trkpt lat="59.1389830" lon="9.6504640">
    <ele>4.3</ele>
    <time>2026-01-08T12:23:40Z</time>
   </trkpt>
   <trkpt lat="59.1389790" lon="9.6504410">
    <ele>4.3</ele>
    <time>2026-01-08T12:23:41Z</time>
   </trkpt>
   <trkpt lat="59.1389760" lon="9.6504040">
    <ele>4.3</ele>
    <time>2026-01-08T12:23:42Z</time>
   </trkpt>
   <trkpt lat="59.1389770" lon="9.6504000">
    <ele>4.3</ele>
    <time>2026-01-08T12:23:43Z</time>
   </trkpt>
   <trkpt lat="59.1389720" lon="9.6503660">
    <ele>4.3</ele>
    <time>2026-01-08T12:23:44Z</time>
   </trkpt>
   <trkpt lat="59.1389620" lon="9.6503500">
    <ele>4.3</ele>
    <time>2026-01-08T12:23:45Z</time>
   </trkpt>
   <trkpt lat="59.1389560" lon="9.6502930">
    <ele>4.3</ele>
    <time>2026-01-08T12:23:46Z</time>
   </trkpt>
   <trkpt lat="59.1389550" lon="9.6502780">
    <ele>4.3</ele>
    <time>2026-01-08T12:23:47Z</time>
   </trkpt>
   <trkpt lat="59.1389420" lon="9.6502370">
    <ele>4.4</ele>
    <time>2026-01-08T12:23:48Z</time>
   </trkpt>
   <trkpt lat="59.1389360" lon="9.6502170">
    <ele>4.4</ele>
    <time>2026-01-08T12:23:49Z</time>
   </trkpt>
   <trkpt lat="59.1389270" lon="9.6501700">
    <ele>4.4</ele>
    <time>2026-01-08T12:23:50Z</time>
   </trkpt>
   <trkpt lat="59.1389240" lon="9.6501480">
    <ele>4.4</ele>
    <time>2026-01-08T12:23:51Z</time>
   </trkpt>
   <trkpt lat="59.1389130" lon="9.6501070">
    <ele>4.4</ele>
    <time>2026-01-08T12:23:52Z</time>
   </trkpt>
   <trkpt lat="59.1389080" lon="9.6500990">
    <ele>4.4</ele>
    <time>2026-01-08T12:23:53Z</time>
   </trkpt>
   <trkpt lat="59.1389040" lon="9.6500920">
    <ele>4.4</ele>
    <time>2026-01-08T12:23:54Z</time>
   </trkpt>
   <trkpt lat="59.1388990" lon="9.6500840">
    <ele>4.4</ele>
    <time>2026-01-08T12:23:55Z</time>
   </trkpt>
   <trkpt lat="59.1388860" lon="9.6500460">
    <ele>4.4</ele>
    <time>2026-01-08T12:23:56Z</time>
   </trkpt>
   <trkpt lat="59.1388810" lon="9.6500420">
    <ele>4.4</ele>
    <time>2026-01-08T12:23:57Z</time>
   </trkpt>
   <trkpt lat="59.1388650" lon="9.6499810">
    <ele>4.4</ele>
    <time>2026-01-08T12:23:58Z</time>
   </trkpt>
   <trkpt lat="59.1388580" lon="9.6499640">
    <ele>4.4</ele>
    <time>2026-01-08T12:23:59Z</time>
   </trkpt>
   <trkpt lat="59.1388500" lon="9.6499120">
    <ele>4.4</ele>
    <time>2026-01-08T12:24:00Z</time>
   </trkpt>
   <trkpt lat="59.1388270" lon="9.6498740">
    <ele>4.5</ele>
    <time>2026-01-08T12:24:01Z</time>
   </trkpt>
   <trkpt lat="59.1388190" lon="9.6498590">
    <ele>4.5</ele>
    <time>2026-01-08T12:24:02Z</time>
   </trkpt>
   <trkpt lat="59.1387920" lon="9.6498050">
    <ele>4.5</ele>
    <time>2026-01-08T12:24:03Z</time>
   </trkpt>
   <trkpt lat="59.1387870" lon="9.6497790">
    <ele>4.5</ele>
    <time>2026-01-08T12:24:04Z</time>
   </trkpt>
   <trkpt lat="59.1387830" lon="9.6497370">
    <ele>4.5</ele>
    <time>2026-01-08T12:24:05Z</time>
   </trkpt>
   <trkpt lat="59.1387730" lon="9.6497110">
    <ele>4.5</ele>
    <time>2026-01-08T12:24:06Z</time>
   </trkpt>
   <trkpt lat="59.1387690" lon="9.6496740">
    <ele>4.5</ele>
    <time>2026-01-08T12:24:07Z</time>
   </trkpt>
   <trkpt lat="59.1387670" lon="9.6496470">
    <ele>4.5</ele>
    <time>2026-01-08T12:24:08Z</time>
   </trkpt>
   <trkpt lat="59.1387670" lon="9.6496320">
    <ele>4.5</ele>
    <time>2026-01-08T12:24:09Z</time>
   </trkpt>
   <trkpt lat="59.1387660" lon="9.6496170">
    <ele>4.5</ele>
    <time>2026-01-08T12:24:10Z</time>
   </trkpt>
   <trkpt lat="59.1387660" lon="9.6496020">
    <ele>4.5</ele>
    <time>2026-01-08T12:24:11Z</time>
   </trkpt>
   <trkpt lat="59.1387620" lon="9.6495830">
    <ele>4.5</ele>
    <time>2026-01-08T12:24:12Z</time>
   </trkpt>
   <trkpt lat="59.1387600" lon="9.6495420">
    <ele>4.5</ele>
    <time>2026-01-08T12:24:13Z</time>
   </trkpt>
   <trkpt lat="59.1387580" lon="9.6495120">
    <ele>4.5</ele>
    <time>2026-01-08T12:24:14Z</time>
   </trkpt>
   <trkpt lat="59.1387570" lon="9.6494880">
    <ele>4.5</ele>
    <time>2026-01-08T12:24:15Z</time>
   </trkpt>
   <trkpt lat="59.1387500" lon="9.6494480">
    <ele>4.5</ele>
    <time>2026-01-08T12:24:16Z</time>
   </trkpt>
   <trkpt lat="59.1387520" lon="9.6494330">
    <ele>4.5</ele>
    <time>2026-01-08T12:24:17Z</time>
   </trkpt>
   <trkpt lat="59.1387600" lon="9.6493970">
    <ele>4.5</ele>
    <time>2026-01-08T12:24:18Z</time>
   </trkpt>
   <trkpt lat="59.1387630" lon="9.6493870">
    <ele>4.5</ele>
    <time>2026-01-08T12:24:19Z</time>
   </trkpt>
   <trkpt lat="59.1387650" lon="9.6493770">
    <ele>4.5</ele>
    <time>2026-01-08T12:24:20Z</time>
   </trkpt>
   <trkpt lat="59.1387680" lon="9.6493670">
    <ele>4.5</ele>
    <time>2026-01-08T12:24:21Z</time>
   </trkpt>
   <trkpt lat="59.1387540" lon="9.6493120">
    <ele>4.4</ele>
    <time>2026-01-08T12:24:22Z</time>
   </trkpt>
   <trkpt lat="59.1387570" lon="9.6492660">
    <ele>4.4</ele>
    <time>2026-01-08T12:24:23Z</time>
   </trkpt>
   <trkpt lat="59.1387590" lon="9.6492470">
    <ele>4.4</ele>
    <time>2026-01-08T12:24:24Z</time>
   </trkpt>
   <trkpt lat="59.1387620" lon="9.6492270">
    <ele>4.4</ele>
    <time>2026-01-08T12:24:25Z</time>
   </trkpt>
   <trkpt lat="59.1387680" lon="9.6492030">
    <ele>4.4</ele>
    <time>2026-01-08T12:24:26Z</time>
   </trkpt>
   <trkpt lat="59.1387630" lon="9.6491960">
    <ele>4.4</ele>
    <time>2026-01-08T12:24:27Z</time>
   </trkpt>
   <trkpt lat="59.1387610" lon="9.6491870">
    <ele>4.4</ele>
    <time>2026-01-08T12:24:28Z</time>
   </trkpt>
   <trkpt lat="59.1387600" lon="9.6491640">
    <ele>4.4</ele>
    <time>2026-01-08T12:24:29Z</time>
   </trkpt>
   <trkpt lat="59.1387640" lon="9.6491000">
    <ele>4.3</ele>
    <time>2026-01-08T12:24:30Z</time>
   </trkpt>
   <trkpt lat="59.1387630" lon="9.6490860">
    <ele>4.3</ele>
    <time>2026-01-08T12:24:31Z</time>
   </trkpt>
   <trkpt lat="59.1387570" lon="9.6490680">
    <ele>4.3</ele>
    <time>2026-01-08T12:24:32Z</time>
   </trkpt>
   <trkpt lat="59.1387560" lon="9.6490460">
    <ele>4.3</ele>
    <time>2026-01-08T12:24:33Z</time>
   </trkpt>
   <trkpt lat="59.1387510" lon="9.6490190">
    <ele>4.3</ele>
    <time>2026-01-08T12:24:34Z</time>
   </trkpt>
   <trkpt lat="59.1387510" lon="9.6489790">
    <ele>4.2</ele>
    <time>2026-01-08T12:24:35Z</time>
   </trkpt>
   <trkpt lat="59.1387440" lon="9.6489550">
    <ele>4.2</ele>
    <time>2026-01-08T12:24:36Z</time>
   </trkpt>
   <trkpt lat="59.1387530" lon="9.6489130">
    <ele>4.2</ele>
    <time>2026-01-08T12:24:37Z</time>
   </trkpt>
   <trkpt lat="59.1387570" lon="9.6488960">
    <ele>4.2</ele>
    <time>2026-01-08T12:24:38Z</time>
   </trkpt>
   <trkpt lat="59.1387610" lon="9.6488800">
    <ele>4.2</ele>
    <time>2026-01-08T12:24:39Z</time>
   </trkpt>
   <trkpt lat="59.1387650" lon="9.6488460">
    <ele>4.1</ele>
    <time>2026-01-08T12:24:40Z</time>
   </trkpt>
   <trkpt lat="59.1387640" lon="9.6488360">
    <ele>4.1</ele>
    <time>2026-01-08T12:24:41Z</time>
   </trkpt>
   <trkpt lat="59.1387610" lon="9.6488190">
    <ele>4.1</ele>
    <time>2026-01-08T12:24:42Z</time>
   </trkpt>
   <trkpt lat="59.1387720" lon="9.6487690">
    <ele>4.1</ele>
    <time>2026-01-08T12:24:43Z</time>
   </trkpt>
   <trkpt lat="59.1387760" lon="9.6487390">
    <ele>4.0</ele>
    <time>2026-01-08T12:24:44Z</time>
   </trkpt>
   <trkpt lat="59.1387740" lon="9.6487140">
    <ele>4.0</ele>
    <time>2026-01-08T12:24:45Z</time>
   </trkpt>
   <trkpt lat="59.1387700" lon="9.6486980">
    <ele>4.0</ele>
    <time>2026-01-08T12:24:46Z</time>
   </trkpt>
   <trkpt lat="59.1387830" lon="9.6486670">
    <ele>4.0</ele>
    <time>2026-01-08T12:24:47Z</time>
   </trkpt>
   <trkpt lat="59.1387860" lon="9.6486470">
    <ele>3.9</ele>
    <time>2026-01-08T12:24:48Z</time>
   </trkpt>
   <trkpt lat="59.1387990" lon="9.6486030">
    <ele>3.9</ele>
    <time>2026-01-08T12:24:49Z</time>
   </trkpt>
   <trkpt lat="59.1388020" lon="9.6485860">
    <ele>3.9</ele>
    <time>2026-01-08T12:24:50Z</time>
   </trkpt>
   <trkpt lat="59.1388050" lon="9.6485690">
    <ele>3.9</ele>
    <time>2026-01-08T12:24:51Z</time>
   </trkpt>
   <trkpt lat="59.1388100" lon="9.6485490">
    <ele>3.9</ele>
    <time>2026-01-08T12:24:52Z</time>
   </trkpt>
   <trkpt lat="59.1388210" lon="9.6485210">
    <ele>3.8</ele>
    <time>2026-01-08T12:24:53Z</time>
   </trkpt>
   <trkpt lat="59.1388240" lon="9.6484940">
    <ele>3.8</ele>
    <time>2026-01-08T12:24:54Z</time>
   </trkpt>
   <trkpt lat="59.1388280" lon="9.6484560">
    <ele>3.8</ele>
    <time>2026-01-08T12:24:55Z</time>
   </trkpt>
   <trkpt lat="59.1388300" lon="9.6484220">
    <ele>3.8</ele>
    <time>2026-01-08T12:24:56Z</time>
   </trkpt>
   <trkpt lat="59.1388370" lon="9.6484060">
    <ele>3.8</ele>
    <time>2026-01-08T12:24:57Z</time>
   </trkpt>
   <trkpt lat="59.1388430" lon="9.6483680">
    <ele>3.7</ele>
    <time>2026-01-08T12:24:58Z</time>
   </trkpt>
   <trkpt lat="59.1388420" lon="9.6483540">
    <ele>3.7</ele>
    <time>2026-01-08T12:24:59Z</time>
   </trkpt>
   <trkpt lat="59.1388420" lon="9.6483410">
    <ele>3.7</ele>
    <time>2026-01-08T12:25:00Z</time>
   </trkpt>
   <trkpt lat="59.1388410" lon="9.6483280">
    <ele>3.7</ele>
    <time>2026-01-08T12:25:01Z</time>
   </trkpt>
   <trkpt lat="59.1388470" lon="9.6482960">
    <ele>3.7</ele>
    <time>2026-01-08T12:25:02Z</time>
   </trkpt>
   <trkpt lat="59.1388490" lon="9.6482700">
    <ele>3.7</ele>
    <time>2026-01-08T12:25:03Z</time>
   </trkpt>
   <trkpt lat="59.1388660" lon="9.6482420">
    <ele>3.7</ele>
    <time>2026-01-08T12:25:04Z</time>
   </trkpt>
   <trkpt lat="59.1388680" lon="9.6482330">
    <ele>3.7</ele>
    <time>2026-01-08T12:25:05Z</time>
   </trkpt>
   <trkpt lat="59.1388550" lon="9.6482030">
    <ele>3.6</ele>
    <time>2026-01-08T12:25:06Z</time>
   </trkpt>
   <trkpt lat="59.1388630" lon="9.6481720">
    <ele>3.6</ele>
    <time>2026-01-08T12:25:07Z</time>
   </trkpt>
   <trkpt lat="59.1388540" lon="9.6481470">
    <ele>3.6</ele>
    <time>2026-01-08T12:25:08Z</time>
   </trkpt>
   <trkpt lat="59.1388430" lon="9.6481100">
    <ele>3.6</ele>
    <time>2026-01-08T12:25:09Z</time>
   </trkpt>
   <trkpt lat="59.1388510" lon="9.6480850">
    <ele>3.6</ele>
    <time>2026-01-08T12:25:10Z</time>
   </trkpt>
   <trkpt lat="59.1388440" lon="9.6480290">
    <ele>3.5</ele>
    <time>2026-01-08T12:25:11Z</time>
   </trkpt>
   <trkpt lat="59.1388380" lon="9.6479780">
    <ele>3.5</ele>
    <time>2026-01-08T12:25:12Z</time>
   </trkpt>
   <trkpt lat="59.1388350" lon="9.6479590">
    <ele>3.5</ele>
    <time>2026-01-08T12:25:13Z</time>
   </trkpt>
   <trkpt lat="59.1388360" lon="9.6479210">
    <ele>3.5</ele>
    <time>2026-01-08T12:25:14Z</time>
   </trkpt>
   <trkpt lat="59.1388340" lon="9.6479010">
    <ele>3.5</ele>
    <time>2026-01-08T12:25:15Z</time>
   </trkpt>
   <trkpt lat="59.1388340" lon="9.6478710">
    <ele>3.4</ele>
    <time>2026-01-08T12:25:16Z</time>
   </trkpt>
   <trkpt lat="59.1388320" lon="9.6478360">
    <ele>3.4</ele>
    <time>2026-01-08T12:25:17Z</time>
   </trkpt>
   <trkpt lat="59.1388260" lon="9.6478220">
    <ele>3.4</ele>
    <time>2026-01-08T12:25:18Z</time>
   </trkpt>
   <trkpt lat="59.1388200" lon="9.6478090">
    <ele>3.4</ele>
    <time>2026-01-08T12:25:19Z</time>
   </trkpt>
   <trkpt lat="59.1388270" lon="9.6477690">
    <ele>3.4</ele>
    <time>2026-01-08T12:25:20Z</time>
   </trkpt>
   <trkpt lat="59.1388160" lon="9.6477080">
    <ele>3.4</ele>
    <time>2026-01-08T12:25:21Z</time>
   </trkpt>
   <trkpt lat="59.1388150" lon="9.6476930">
    <ele>3.4</ele>
    <time>2026-01-08T12:25:22Z</time>
   </trkpt>
   <trkpt lat="59.1388170" lon="9.6476420">
    <ele>3.4</ele>
    <time>2026-01-08T12:25:23Z</time>
   </trkpt>
   <trkpt lat="59.1388140" lon="9.6476210">
    <ele>3.4</ele>
    <time>2026-01-08T12:25:24Z</time>
   </trkpt>
   <trkpt lat="59.1388100" lon="9.6476000">
    <ele>3.3</ele>
    <time>2026-01-08T12:25:25Z</time>
   </trkpt>
   <trkpt lat="59.1388130" lon="9.6475460">
    <ele>3.3</ele>
    <time>2026-01-08T12:25:26Z</time>
   </trkpt>
   <trkpt lat="59.1388200" lon="9.6475220">
    <ele>3.3</ele>
    <time>2026-01-08T12:25:27Z</time>
   </trkpt>
   <trkpt lat="59.1388230" lon="9.6474970">
    <ele>3.3</ele>
    <time>2026-01-08T12:25:28Z</time>
   </trkpt>
   <trkpt lat="59.1388330" lon="9.6474600">
    <ele>3.3</ele>
    <time>2026-01-08T12:25:29Z</time>
   </trkpt>
   <trkpt lat="59.1388390" lon="9.6474340">
    <ele>3.4</ele>
    <time>2026-01-08T12:25:30Z</time>
   </trkpt>
   <trkpt lat="59.1388510" lon="9.6474110">
    <ele>3.4</ele>
    <time>2026-01-08T12:25:31Z</time>
   </trkpt>
   <trkpt lat="59.1388530" lon="9.6473940">
    <ele>3.4</ele>
    <time>2026-01-08T12:25:32Z</time>
   </trkpt>
   <trkpt lat="59.1388600" lon="9.6473720">
    <ele>3.4</ele>
    <time>2026-01-08T12:25:33Z</time>
   </trkpt>
   <trkpt lat="59.1388590" lon="9.6473540">
    <ele>3.4</ele>
    <time>2026-01-08T12:25:34Z</time>
   </trkpt>
   <trkpt lat="59.1388740" lon="9.6472980">
    <ele>3.4</ele>
    <time>2026-01-08T12:25:35Z</time>
   </trkpt>
   <trkpt lat="59.1388750" lon="9.6472700">
    <ele>3.4</ele>
    <time>2026-01-08T12:25:36Z</time>
   </trkpt>
   <trkpt lat="59.1388760" lon="9.6472520">
    <ele>3.4</ele>
    <time>2026-01-08T12:25:37Z</time>
   </trkpt>
   <trkpt lat="59.1388760" lon="9.6472350">
    <ele>3.4</ele>
    <time>2026-01-08T12:25:38Z</time>
   </trkpt>
   <trkpt lat="59.1388770" lon="9.6472170">
    <ele>3.4</ele>
    <time>2026-01-08T12:25:39Z</time>
   </trkpt>
   <trkpt lat="59.1388840" lon="9.6471830">
    <ele>3.4</ele>
    <time>2026-01-08T12:25:40Z</time>
   </trkpt>
   <trkpt lat="59.1388860" lon="9.6471570">
    <ele>3.4</ele>
    <time>2026-01-08T12:25:41Z</time>
   </trkpt>
   <trkpt lat="59.1388770" lon="9.6471020">
    <ele>3.4</ele>
    <time>2026-01-08T12:25:42Z</time>
   </trkpt>
   <trkpt lat="59.1388710" lon="9.6470880">
    <ele>3.4</ele>
    <time>2026-01-08T12:25:43Z</time>
   </trkpt>
   <trkpt lat="59.1388660" lon="9.6470590">
    <ele>3.4</ele>
    <time>2026-01-08T12:25:44Z</time>
   </trkpt>
   <trkpt lat="59.1388620" lon="9.6470390">
    <ele>3.4</ele>
    <time>2026-01-08T12:25:45Z</time>
   </trkpt>
   <trkpt lat="59.1388580" lon="9.6470270">
    <ele>3.4</ele>
    <time>2026-01-08T12:25:46Z</time>
   </trkpt>
   <trkpt lat="59.1388710" lon="9.6470630">
    <ele>3.4</ele>
    <time>2026-01-08T12:25:47Z</time>
   </trkpt>
   <trkpt lat="59.1388750" lon="9.6470770">
    <ele>3.4</ele>
    <time>2026-01-08T12:25:48Z</time>
   </trkpt>
   <trkpt lat="59.1388780" lon="9.6470910">
    <ele>3.4</ele>
    <time>2026-01-08T12:25:49Z</time>
   </trkpt>
   <trkpt lat="59.1388820" lon="9.6471050">
    <ele>3.4</ele>
    <time>2026-01-08T12:25:50Z</time>
   </trkpt>
   <trkpt lat="59.1388860" lon="9.6471180">
    <ele>3.4</ele>
    <time>2026-01-08T12:25:51Z</time>
   </trkpt>
   <trkpt lat="59.1388900" lon="9.6471320">
    <ele>3.4</ele>
    <time>2026-01-08T12:25:52Z</time>
   </trkpt>
   <trkpt lat="59.1388930" lon="9.6471460">
    <ele>3.4</ele>
    <time>2026-01-08T12:25:53Z</time>
   </trkpt>
   <trkpt lat="59.1388970" lon="9.6471600">
    <ele>3.4</ele>
    <time>2026-01-08T12:25:54Z</time>
   </trkpt>
   <trkpt lat="59.1389010" lon="9.6471740">
    <ele>3.4</ele>
    <time>2026-01-08T12:25:55Z</time>
   </trkpt>
   <trkpt lat="59.1389010" lon="9.6471740">
    <ele>3.4</ele>
    <time>2026-01-08T12:25:56Z</time>
   </trkpt>
   <trkpt lat="59.1389010" lon="9.6471740">
    <ele>3.4</ele>
    <time>2026-01-08T12:25:57Z</time>
   </trkpt>
   <trkpt lat="59.1389040" lon="9.6471620">
    <ele>3.4</ele>
    <time>2026-01-08T12:25:58Z</time>
   </trkpt>
   <trkpt lat="59.1389050" lon="9.6471660">
    <ele>3.4</ele>
    <time>2026-01-08T12:25:59Z</time>
   </trkpt>
   <trkpt lat="59.1389050" lon="9.6471660">
    <ele>3.4</ele>
    <time>2026-01-08T12:26:00Z</time>
   </trkpt>
   <trkpt lat="59.1389050" lon="9.6471660">
    <ele>3.4</ele>
    <time>2026-01-08T12:26:01Z</time>
   </trkpt>
   <trkpt lat="59.1389240" lon="9.6471900">
    <ele>3.4</ele>
    <time>2026-01-08T12:26:02Z</time>
   </trkpt>
   <trkpt lat="59.1389240" lon="9.6471920">
    <ele>3.4</ele>
    <time>2026-01-08T12:26:03Z</time>
   </trkpt>
   <trkpt lat="59.1389250" lon="9.6471900">
    <ele>3.4</ele>
    <time>2026-01-08T12:26:04Z</time>
   </trkpt>
   <trkpt lat="59.1389240" lon="9.6471900">
    <ele>3.4</ele>
    <time>2026-01-08T12:26:05Z</time>
   </trkpt>
   <trkpt lat="59.1389240" lon="9.6471900">
    <ele>3.4</ele>
    <time>2026-01-08T12:26:06Z</time>
   </trkpt>
   <trkpt lat="59.1389320" lon="9.6471710">
    <ele>3.4</ele>
    <time>2026-01-08T12:26:07Z</time>
   </trkpt>
   <trkpt lat="59.1389330" lon="9.6471710">
    <ele>3.4</ele>
    <time>2026-01-08T12:26:08Z</time>
   </trkpt>
   <trkpt lat="59.1389310" lon="9.6471570">
    <ele>3.4</ele>
    <time>2026-01-08T12:26:09Z</time>
   </trkpt>
   <trkpt lat="59.1389310" lon="9.6471570">
    <ele>3.4</ele>
    <time>2026-01-08T12:26:10Z</time>
   </trkpt>
   <trkpt lat="59.1389310" lon="9.6471570">
    <ele>3.4</ele>
    <time>2026-01-08T12:26:11Z</time>
   </trkpt>
   <trkpt lat="59.1389220" lon="9.6471240">
    <ele>3.4</ele>
    <time>2026-01-08T12:26:12Z</time>
   </trkpt>
   <trkpt lat="59.1389200" lon="9.6471220">
    <ele>3.4</ele>
    <time>2026-01-08T12:26:13Z</time>
   </trkpt>
   <trkpt lat="59.1389220" lon="9.6471210">
    <ele>3.4</ele>
    <time>2026-01-08T12:26:14Z</time>
   </trkpt>
   <trkpt lat="59.1389240" lon="9.6471200">
    <ele>3.4</ele>
    <time>2026-01-08T12:26:15Z</time>
   </trkpt>
   <trkpt lat="59.1389270" lon="9.6471190">
    <ele>3.4</ele>
    <time>2026-01-08T12:26:16Z</time>
   </trkpt>
   <trkpt lat="59.1389290" lon="9.6471180">
    <ele>3.4</ele>
    <time>2026-01-08T12:26:17Z</time>
   </trkpt>
   <trkpt lat="59.1389310" lon="9.6471180">
    <ele>3.4</ele>
    <time>2026-01-08T12:26:18Z</time>
   </trkpt>
   <trkpt lat="59.1389330" lon="9.6471170">
    <ele>3.4</ele>
    <time>2026-01-08T12:26:19Z</time>
   </trkpt>
   <trkpt lat="59.1389360" lon="9.6471160">
    <ele>3.4</ele>
    <time>2026-01-08T12:26:20Z</time>
   </trkpt>
   <trkpt lat="59.1389380" lon="9.6471150">
    <ele>3.4</ele>
    <time>2026-01-08T12:26:21Z</time>
   </trkpt>
   <trkpt lat="59.1389400" lon="9.6471140">
    <ele>3.4</ele>
    <time>2026-01-08T12:26:22Z</time>
   </trkpt>
   <trkpt lat="59.1389420" lon="9.6471130">
    <ele>3.4</ele>
    <time>2026-01-08T12:26:23Z</time>
   </trkpt>
   <trkpt lat="59.1389440" lon="9.6471120">
    <ele>3.4</ele>
    <time>2026-01-08T12:26:24Z</time>
   </trkpt>
   <trkpt lat="59.1389470" lon="9.6471110">
    <ele>3.4</ele>
    <time>2026-01-08T12:26:25Z</time>
   </trkpt>
   <trkpt lat="59.1389490" lon="9.6471100">
    <ele>3.4</ele>
    <time>2026-01-08T12:26:26Z</time>
   </trkpt>
   <trkpt lat="59.1389510" lon="9.6471100">
    <ele>3.4</ele>
    <time>2026-01-08T12:26:27Z</time>
   </trkpt>
   <trkpt lat="59.1389530" lon="9.6471090">
    <ele>3.4</ele>
    <time>2026-01-08T12:26:28Z</time>
   </trkpt>
   <trkpt lat="59.1389560" lon="9.6471080">
    <ele>3.4</ele>
    <time>2026-01-08T12:26:29Z</time>
   </trkpt>
   <trkpt lat="59.1389580" lon="9.6471070">
    <ele>3.4</ele>
    <time>2026-01-08T12:26:30Z</time>
   </trkpt>
   <trkpt lat="59.1389600" lon="9.6471060">
    <ele>3.4</ele>
    <time>2026-01-08T12:26:31Z</time>
   </trkpt>
   <trkpt lat="59.1389680" lon="9.6471070">
    <ele>3.4</ele>
    <time>2026-01-08T12:26:32Z</time>
   </trkpt>
   <trkpt lat="59.1389740" lon="9.6471080">
    <ele>3.4</ele>
    <time>2026-01-08T12:26:33Z</time>
   </trkpt>
   <trkpt lat="59.1389810" lon="9.6471080">
    <ele>3.4</ele>
    <time>2026-01-08T12:26:34Z</time>
   </trkpt>
   <trkpt lat="59.1389870" lon="9.6471080">
    <ele>3.4</ele>
    <time>2026-01-08T12:26:35Z</time>
   </trkpt>
   <trkpt lat="59.1389940" lon="9.6471080">
    <ele>3.4</ele>
    <time>2026-01-08T12:26:36Z</time>
   </trkpt>
   <trkpt lat="59.1390000" lon="9.6471090">
    <ele>3.4</ele>
    <time>2026-01-08T12:26:37Z</time>
   </trkpt>
   <trkpt lat="59.1390070" lon="9.6471090">
    <ele>3.4</ele>
    <time>2026-01-08T12:26:38Z</time>
   </trkpt>
   <trkpt lat="59.1389890" lon="9.6471090">
    <ele>3.4</ele>
    <time>2026-01-08T12:26:39Z</time>
   </trkpt>
   <trkpt lat="59.1389840" lon="9.6471080">
    <ele>3.4</ele>
    <time>2026-01-08T12:26:40Z</time>
   </trkpt>
   <trkpt lat="59.1389790" lon="9.6471080">
    <ele>3.4</ele>
    <time>2026-01-08T12:26:41Z</time>
   </trkpt>
   <trkpt lat="59.1389740" lon="9.6471070">
    <ele>3.4</ele>
    <time>2026-01-08T12:26:42Z</time>
   </trkpt>
   <trkpt lat="59.1389690" lon="9.6471070">
    <ele>3.5</ele>
    <time>2026-01-08T12:26:43Z</time>
   </trkpt>
   <trkpt lat="59.1389640" lon="9.6471060">
    <ele>3.5</ele>
    <time>2026-01-08T12:26:44Z</time>
   </trkpt>
   <trkpt lat="59.1389590" lon="9.6471060">
    <ele>3.5</ele>
    <time>2026-01-08T12:26:45Z</time>
   </trkpt>
   <trkpt lat="59.1389510" lon="9.6470850">
    <ele>3.5</ele>
    <time>2026-01-08T12:26:46Z</time>
   </trkpt>
   <trkpt lat="59.1389490" lon="9.6470470">
    <ele>3.5</ele>
    <time>2026-01-08T12:26:47Z</time>
   </trkpt>
   <trkpt lat="59.1389380" lon="9.6470090">
    <ele>3.5</ele>
    <time>2026-01-08T12:26:48Z</time>
   </trkpt>
   <trkpt lat="59.1389230" lon="9.6470010">
    <ele>3.5</ele>
    <time>2026-01-08T12:26:49Z</time>
   </trkpt>
   <trkpt lat="59.1389180" lon="9.6469420">
    <ele>3.5</ele>
    <time>2026-01-08T12:26:50Z</time>
   </trkpt>
   <trkpt lat="59.1389250" lon="9.6469130">
    <ele>3.5</ele>
    <time>2026-01-08T12:26:51Z</time>
   </trkpt>
   <trkpt lat="59.1389050" lon="9.6468770">
    <ele>3.5</ele>
    <time>2026-01-08T12:26:52Z</time>
   </trkpt>
   <trkpt lat="59.1388800" lon="9.6468200">
    <ele>3.5</ele>
    <time>2026-01-08T12:26:53Z</time>
   </trkpt>
   <trkpt lat="59.1388520" lon="9.6467730">
    <ele>3.5</ele>
    <time>2026-01-08T12:26:54Z</time>
   </trkpt>
   <trkpt lat="59.1388370" lon="9.6467490">
    <ele>3.5</ele>
    <time>2026-01-08T12:26:55Z</time>
   </trkpt>
   <trkpt lat="59.1388290" lon="9.6467440">
    <ele>3.6</ele>
    <time>2026-01-08T12:26:56Z</time>
   </trkpt>
   <trkpt lat="59.1388210" lon="9.6467210">
    <ele>3.6</ele>
    <time>2026-01-08T12:26:57Z</time>
   </trkpt>
   <trkpt lat="59.1388210" lon="9.6467210">
    <ele>3.6</ele>
    <time>2026-01-08T12:26:58Z</time>
   </trkpt>
   <trkpt lat="59.1388120" lon="9.6466990">
    <ele>3.6</ele>
    <time>2026-01-08T12:26:59Z</time>
   </trkpt>
   <trkpt lat="59.1388100" lon="9.6466700">
    <ele>3.6</ele>
    <time>2026-01-08T12:27:00Z</time>
   </trkpt>
   <trkpt lat="59.1388000" lon="9.6466550">
    <ele>3.6</ele>
    <time>2026-01-08T12:27:01Z</time>
   </trkpt>
   <trkpt lat="59.1387980" lon="9.6466390">
    <ele>3.6</ele>
    <time>2026-01-08T12:27:02Z</time>
   </trkpt>
   <trkpt lat="59.1387850" lon="9.6466000">
    <ele>3.6</ele>
    <time>2026-01-08T12:27:03Z</time>
   </trkpt>
   <trkpt lat="59.1387830" lon="9.6465880">
    <ele>3.6</ele>
    <time>2026-01-08T12:27:04Z</time>
   </trkpt>
   <trkpt lat="59.1387800" lon="9.6465760">
    <ele>3.6</ele>
    <time>2026-01-08T12:27:05Z</time>
   </trkpt>
   <trkpt lat="59.1387700" lon="9.6465460">
    <ele>3.6</ele>
    <time>2026-01-08T12:27:06Z</time>
   </trkpt>
   <trkpt lat="59.1387670" lon="9.6465500">
    <ele>3.6</ele>
    <time>2026-01-08T12:27:07Z</time>
   </trkpt>
   <trkpt lat="59.1387680" lon="9.6465250">
    <ele>3.6</ele>
    <time>2026-01-08T12:27:08Z</time>
   </trkpt>
   <trkpt lat="59.1387690" lon="9.6464780">
    <ele>3.7</ele>
    <time>2026-01-08T12:27:09Z</time>
   </trkpt>
   <trkpt lat="59.1387520" lon="9.6464720">
    <ele>3.7</ele>
    <time>2026-01-08T12:27:10Z</time>
   </trkpt>
   <trkpt lat="59.1387270" lon="9.6464190">
    <ele>3.7</ele>
    <time>2026-01-08T12:27:11Z</time>
   </trkpt>
   <trkpt lat="59.1387020" lon="9.6463900">
    <ele>3.7</ele>
    <time>2026-01-08T12:27:12Z</time>
   </trkpt>
   <trkpt lat="59.1386790" lon="9.6463670">
    <ele>3.7</ele>
    <time>2026-01-08T12:27:13Z</time>
   </trkpt>
   <trkpt lat="59.1386690" lon="9.6463500">
    <ele>3.7</ele>
    <time>2026-01-08T12:27:14Z</time>
   </trkpt>
   <trkpt lat="59.1386640" lon="9.6463470">
    <ele>3.7</ele>
    <time>2026-01-08T12:27:15Z</time>
   </trkpt>
   <trkpt lat="59.1386570" lon="9.6463380">
    <ele>3.7</ele>
    <time>2026-01-08T12:27:16Z</time>
   </trkpt>
   <trkpt lat="59.1386410" lon="9.6463050">
    <ele>3.8</ele>
    <time>2026-01-08T12:27:17Z</time>
   </trkpt>
   <trkpt lat="59.1386370" lon="9.6462670">
    <ele>3.8</ele>
    <time>2026-01-08T12:27:18Z</time>
   </trkpt>
   <trkpt lat="59.1386320" lon="9.6462500">
    <ele>3.8</ele>
    <time>2026-01-08T12:27:19Z</time>
   </trkpt>
   <trkpt lat="59.1386270" lon="9.6462340">
    <ele>3.8</ele>
    <time>2026-01-08T12:27:20Z</time>
   </trkpt>
   <trkpt lat="59.1386190" lon="9.6461930">
    <ele>3.8</ele>
    <time>2026-01-08T12:27:21Z</time>
   </trkpt>
   <trkpt lat="59.1386250" lon="9.6461720">
    <ele>3.8</ele>
    <time>2026-01-08T12:27:22Z</time>
   </trkpt>
   <trkpt lat="59.1386190" lon="9.6461550">
    <ele>3.8</ele>
    <time>2026-01-08T12:27:23Z</time>
   </trkpt>
   <trkpt lat="59.1386180" lon="9.6461140">
    <ele>3.8</ele>
    <time>2026-01-08T12:27:24Z</time>
   </trkpt>
   <trkpt lat="59.1386260" lon="9.6460830">
    <ele>3.8</ele>
    <time>2026-01-08T12:27:25Z</time>
   </trkpt>
   <trkpt lat="59.1386240" lon="9.6460630">
    <ele>3.8</ele>
    <time>2026-01-08T12:27:26Z</time>
   </trkpt>
   <trkpt lat="59.1386240" lon="9.6460070">
    <ele>3.8</ele>
    <time>2026-01-08T12:27:27Z</time>
   </trkpt>
   <trkpt lat="59.1386220" lon="9.6459860">
    <ele>3.8</ele>
    <time>2026-01-08T12:27:28Z</time>
   </trkpt>
   <trkpt lat="59.1386210" lon="9.6459490">
    <ele>3.8</ele>
    <time>2026-01-08T12:27:29Z</time>
   </trkpt>
   <trkpt lat="59.1386240" lon="9.6459270">
    <ele>3.8</ele>
    <time>2026-01-08T12:27:30Z</time>
   </trkpt>
   <trkpt lat="59.1386280" lon="9.6459050">
    <ele>3.8</ele>
    <time>2026-01-08T12:27:31Z</time>
   </trkpt>
   <trkpt lat="59.1386200" lon="9.6458730">
    <ele>3.8</ele>
    <time>2026-01-08T12:27:32Z</time>
   </trkpt>
   <trkpt lat="59.1386160" lon="9.6458540">
    <ele>3.8</ele>
    <time>2026-01-08T12:27:33Z</time>
   </trkpt>
   <trkpt lat="59.1386140" lon="9.6457890">
    <ele>3.8</ele>
    <time>2026-01-08T12:27:34Z</time>
   </trkpt>
   <trkpt lat="59.1386140" lon="9.6457760">
    <ele>3.8</ele>
    <time>2026-01-08T12:27:35Z</time>
   </trkpt>
   <trkpt lat="59.1386240" lon="9.6457600">
    <ele>3.8</ele>
    <time>2026-01-08T12:27:36Z</time>
   </trkpt>
   <trkpt lat="59.1386300" lon="9.6457410">
    <ele>3.8</ele>
    <time>2026-01-08T12:27:37Z</time>
   </trkpt>
   <trkpt lat="59.1386220" lon="9.6457200">
    <ele>3.8</ele>
    <time>2026-01-08T12:27:38Z</time>
   </trkpt>
   <trkpt lat="59.1386070" lon="9.6456990">
    <ele>3.9</ele>
    <time>2026-01-08T12:27:39Z</time>
   </trkpt>
   <trkpt lat="59.1386010" lon="9.6456800">
    <ele>3.9</ele>
    <time>2026-01-08T12:27:40Z</time>
   </trkpt>
   <trkpt lat="59.1385950" lon="9.6456620">
    <ele>3.9</ele>
    <time>2026-01-08T12:27:41Z</time>
   </trkpt>
   <trkpt lat="59.1385890" lon="9.6456280">
    <ele>3.9</ele>
    <time>2026-01-08T12:27:42Z</time>
   </trkpt>
   <trkpt lat="59.1385840" lon="9.6456090">
    <ele>3.9</ele>
    <time>2026-01-08T12:27:43Z</time>
   </trkpt>
   <trkpt lat="59.1385760" lon="9.6455720">
    <ele>3.9</ele>
    <time>2026-01-08T12:27:44Z</time>
   </trkpt>
   <trkpt lat="59.1385680" lon="9.6455570">
    <ele>3.9</ele>
    <time>2026-01-08T12:27:45Z</time>
   </trkpt>
   <trkpt lat="59.1385700" lon="9.6455440">
    <ele>3.9</ele>
    <time>2026-01-08T12:27:46Z</time>
   </trkpt>
   <trkpt lat="59.1385580" lon="9.6454980">
    <ele>3.9</ele>
    <time>2026-01-08T12:27:47Z</time>
   </trkpt>
   <trkpt lat="59.1385430" lon="9.6454440">
    <ele>3.9</ele>
    <time>2026-01-08T12:27:48Z</time>
   </trkpt>
   <trkpt lat="59.1385340" lon="9.6454190">
    <ele>3.9</ele>
    <time>2026-01-08T12:27:49Z</time>
   </trkpt>
   <trkpt lat="59.1385300" lon="9.6454030">
    <ele>3.9</ele>
    <time>2026-01-08T12:27:50Z</time>
   </trkpt>
   <trkpt lat="59.1385380" lon="9.6453880">
    <ele>3.9</ele>
    <time>2026-01-08T12:27:51Z</time>
   </trkpt>
   <trkpt lat="59.1385350" lon="9.6453900">
    <ele>3.9</ele>
    <time>2026-01-08T12:27:52Z</time>
   </trkpt>
   <trkpt lat="59.1385280" lon="9.6454100">
    <ele>3.9</ele>
    <time>2026-01-08T12:27:53Z</time>
   </trkpt>
   <trkpt lat="59.1385270" lon="9.6454140">
    <ele>3.9</ele>
    <time>2026-01-08T12:27:54Z</time>
   </trkpt>
   <trkpt lat="59.1385260" lon="9.6454040">
    <ele>3.9</ele>
    <time>2026-01-08T12:27:55Z</time>
   </trkpt>
   <trkpt lat="59.1385270" lon="9.6454050">
    <ele>3.9</ele>
    <time>2026-01-08T12:27:56Z</time>
   </trkpt>
   <trkpt lat="59.1385220" lon="9.6454100">
    <ele>3.9</ele>
    <time>2026-01-08T12:27:57Z</time>
   </trkpt>
   <trkpt lat="59.1385280" lon="9.6454110">
    <ele>3.9</ele>
    <time>2026-01-08T12:27:58Z</time>
   </trkpt>
   <trkpt lat="59.1385290" lon="9.6454120">
    <ele>3.9</ele>
    <time>2026-01-08T12:27:59Z</time>
   </trkpt>
   <trkpt lat="59.1385370" lon="9.6454090">
    <ele>3.9</ele>
    <time>2026-01-08T12:28:00Z</time>
   </trkpt>
   <trkpt lat="59.1385380" lon="9.6454050">
    <ele>3.9</ele>
    <time>2026-01-08T12:28:01Z</time>
   </trkpt>
   <trkpt lat="59.1385380" lon="9.6454050">
    <ele>3.9</ele>
    <time>2026-01-08T12:28:02Z</time>
   </trkpt>
   <trkpt lat="59.1385440" lon="9.6453920">
    <ele>3.9</ele>
    <time>2026-01-08T12:28:03Z</time>
   </trkpt>
   <trkpt lat="59.1385480" lon="9.6453970">
    <ele>3.9</ele>
    <time>2026-01-08T12:28:04Z</time>
   </trkpt>
   <trkpt lat="59.1385510" lon="9.6454090">
    <ele>3.9</ele>
    <time>2026-01-08T12:28:05Z</time>
   </trkpt>
   <trkpt lat="59.1385520" lon="9.6454100">
    <ele>3.9</ele>
    <time>2026-01-08T12:28:06Z</time>
   </trkpt>
   <trkpt lat="59.1385520" lon="9.6454100">
    <ele>3.9</ele>
    <time>2026-01-08T12:28:07Z</time>
   </trkpt>
   <trkpt lat="59.1385520" lon="9.6454100">
    <ele>3.9</ele>
    <time>2026-01-08T12:28:08Z</time>
   </trkpt>
   <trkpt lat="59.1385510" lon="9.6453850">
    <ele>3.9</ele>
    <time>2026-01-08T12:28:09Z</time>
   </trkpt>
   <trkpt lat="59.1385520" lon="9.6453920">
    <ele>3.9</ele>
    <time>2026-01-08T12:28:10Z</time>
   </trkpt>
   <trkpt lat="59.1385500" lon="9.6453810">
    <ele>3.9</ele>
    <time>2026-01-08T12:28:11Z</time>
   </trkpt>
   <trkpt lat="59.1385510" lon="9.6453830">
    <ele>3.9</ele>
    <time>2026-01-08T12:28:12Z</time>
   </trkpt>
   <trkpt lat="59.1385510" lon="9.6453850">
    <ele>3.9</ele>
    <time>2026-01-08T12:28:13Z</time>
   </trkpt>
   <trkpt lat="59.1385460" lon="9.6453960">
    <ele>3.9</ele>
    <time>2026-01-08T12:28:14Z</time>
   </trkpt>
   <trkpt lat="59.1385510" lon="9.6454110">
    <ele>3.8</ele>
    <time>2026-01-08T12:28:15Z</time>
   </trkpt>
   <trkpt lat="59.1385500" lon="9.6454090">
    <ele>3.8</ele>
    <time>2026-01-08T12:28:16Z</time>
   </trkpt>
   <trkpt lat="59.1385500" lon="9.6453970">
    <ele>3.8</ele>
    <time>2026-01-08T12:28:17Z</time>
   </trkpt>
   <trkpt lat="59.1385500" lon="9.6453970">
    <ele>3.8</ele>
    <time>2026-01-08T12:28:18Z</time>
   </trkpt>
   <trkpt lat="59.1385500" lon="9.6453970">
    <ele>3.8</ele>
    <time>2026-01-08T12:28:19Z</time>
   </trkpt>
   <trkpt lat="59.1385510" lon="9.6453870">
    <ele>3.8</ele>
    <time>2026-01-08T12:28:20Z</time>
   </trkpt>
   <trkpt lat="59.1385380" lon="9.6453720">
    <ele>3.8</ele>
    <time>2026-01-08T12:28:21Z</time>
   </trkpt>
   <trkpt lat="59.1385330" lon="9.6453700">
    <ele>3.8</ele>
    <time>2026-01-08T12:28:22Z</time>
   </trkpt>
   <trkpt lat="59.1385170" lon="9.6453610">
    <ele>3.8</ele>
    <time>2026-01-08T12:28:23Z</time>
   </trkpt>
   <trkpt lat="59.1385080" lon="9.6453320">
    <ele>3.8</ele>
    <time>2026-01-08T12:28:24Z</time>
   </trkpt>
   <trkpt lat="59.1385050" lon="9.6453110">
    <ele>3.8</ele>
    <time>2026-01-08T12:28:25Z</time>
   </trkpt>
   <trkpt lat="59.1384810" lon="9.6452780">
    <ele>3.8</ele>
    <time>2026-01-08T12:28:27Z</time>
   </trkpt>
   <trkpt lat="59.1384620" lon="9.6452670">
    <ele>3.8</ele>
    <time>2026-01-08T12:28:28Z</time>
   </trkpt>
   <trkpt lat="59.1384440" lon="9.6452550">
    <ele>3.8</ele>
    <time>2026-01-08T12:28:29Z</time>
   </trkpt>
   <trkpt lat="59.1384250" lon="9.6452270">
    <ele>3.8</ele>
    <time>2026-01-08T12:28:30Z</time>
   </trkpt>
   <trkpt lat="59.1384200" lon="9.6452210">
    <ele>3.8</ele>
    <time>2026-01-08T12:28:31Z</time>
   </trkpt>
   <trkpt lat="59.1384140" lon="9.6452160">
    <ele>3.8</ele>
    <time>2026-01-08T12:28:32Z</time>
   </trkpt>
   <trkpt lat="59.1384240" lon="9.6451810">
    <ele>3.8</ele>
    <time>2026-01-08T12:28:33Z</time>
   </trkpt>
   <trkpt lat="59.1384260" lon="9.6451690">
    <ele>3.8</ele>
    <time>2026-01-08T12:28:34Z</time>
   </trkpt>
   <trkpt lat="59.1384290" lon="9.6451560">
    <ele>3.8</ele>
    <time>2026-01-08T12:28:35Z</time>
   </trkpt>
   <trkpt lat="59.1384310" lon="9.6451440">
    <ele>3.8</ele>
    <time>2026-01-08T12:28:36Z</time>
   </trkpt>
   <trkpt lat="59.1384330" lon="9.6451310">
    <ele>3.8</ele>
    <time>2026-01-08T12:28:37Z</time>
   </trkpt>
   <trkpt lat="59.1384310" lon="9.6450820">
    <ele>3.7</ele>
    <time>2026-01-08T12:28:38Z</time>
   </trkpt>
   <trkpt lat="59.1384260" lon="9.6450630">
    <ele>3.7</ele>
    <time>2026-01-08T12:28:39Z</time>
   </trkpt>
   <trkpt lat="59.1384060" lon="9.6450850">
    <ele>3.7</ele>
    <time>2026-01-08T12:28:40Z</time>
   </trkpt>
   <trkpt lat="59.1383930" lon="9.6450580">
    <ele>3.7</ele>
    <time>2026-01-08T12:28:41Z</time>
   </trkpt>
   <trkpt lat="59.1383710" lon="9.6450370">
    <ele>3.7</ele>
    <time>2026-01-08T12:28:42Z</time>
   </trkpt>
   <trkpt lat="59.1383830" lon="9.6450370">
    <ele>3.7</ele>
    <time>2026-01-08T12:28:43Z</time>
   </trkpt>
   <trkpt lat="59.1383760" lon="9.6450540">
    <ele>3.7</ele>
    <time>2026-01-08T12:28:44Z</time>
   </trkpt>
   <trkpt lat="59.1383790" lon="9.6450530">
    <ele>3.7</ele>
    <time>2026-01-08T12:28:45Z</time>
   </trkpt>
   <trkpt lat="59.1383790" lon="9.6450530">
    <ele>3.7</ele>
    <time>2026-01-08T12:28:46Z</time>
   </trkpt>
   <trkpt lat="59.1383790" lon="9.6450530">
    <ele>3.7</ele>
    <time>2026-01-08T12:28:47Z</time>
   </trkpt>
   <trkpt lat="59.1383790" lon="9.6450530">
    <ele>3.7</ele>
    <time>2026-01-08T12:28:48Z</time>
   </trkpt>
   <trkpt lat="59.1383790" lon="9.6450530">
    <ele>3.7</ele>
    <time>2026-01-08T12:28:49Z</time>
   </trkpt>
   <trkpt lat="59.1383790" lon="9.6450530">
    <ele>3.7</ele>
    <time>2026-01-08T12:28:50Z</time>
   </trkpt>
   <trkpt lat="59.1383710" lon="9.6450680">
    <ele>3.7</ele>
    <time>2026-01-08T12:28:51Z</time>
   </trkpt>
   <trkpt lat="59.1383680" lon="9.6450540">
    <ele>3.7</ele>
    <time>2026-01-08T12:28:52Z</time>
   </trkpt>
   <trkpt lat="59.1383620" lon="9.6450590">
    <ele>3.7</ele>
    <time>2026-01-08T12:28:53Z</time>
   </trkpt>
   <trkpt lat="59.1383620" lon="9.6450580">
    <ele>3.7</ele>
    <time>2026-01-08T12:28:54Z</time>
   </trkpt>
   <trkpt lat="59.1383620" lon="9.6450580">
    <ele>3.7</ele>
    <time>2026-01-08T12:28:55Z</time>
   </trkpt>
   <trkpt lat="59.1383620" lon="9.6450580">
    <ele>3.7</ele>
    <time>2026-01-08T12:28:56Z</time>
   </trkpt>
   <trkpt lat="59.1383620" lon="9.6450580">
    <ele>3.7</ele>
    <time>2026-01-08T12:28:57Z</time>
   </trkpt>
   <trkpt lat="59.1383620" lon="9.6450580">
    <ele>3.7</ele>
    <time>2026-01-08T12:28:58Z</time>
   </trkpt>
   <trkpt lat="59.1383670" lon="9.6450380">
    <ele>3.7</ele>
    <time>2026-01-08T12:28:59Z</time>
   </trkpt>
   <trkpt lat="59.1383720" lon="9.6450230">
    <ele>3.7</ele>
    <time>2026-01-08T12:29:00Z</time>
   </trkpt>
   <trkpt lat="59.1383780" lon="9.6450230">
    <ele>3.7</ele>
    <time>2026-01-08T12:29:01Z</time>
   </trkpt>
   <trkpt lat="59.1383860" lon="9.6450240">
    <ele>3.7</ele>
    <time>2026-01-08T12:29:02Z</time>
   </trkpt>
   <trkpt lat="59.1383800" lon="9.6450330">
    <ele>3.7</ele>
    <time>2026-01-08T12:29:03Z</time>
   </trkpt>
   <trkpt lat="59.1383780" lon="9.6450390">
    <ele>3.7</ele>
    <time>2026-01-08T12:29:04Z</time>
   </trkpt>
   <trkpt lat="59.1383660" lon="9.6450280">
    <ele>3.6</ele>
    <time>2026-01-08T12:29:05Z</time>
   </trkpt>
   <trkpt lat="59.1383670" lon="9.6450270">
    <ele>3.6</ele>
    <time>2026-01-08T12:29:06Z</time>
   </trkpt>
   <trkpt lat="59.1383650" lon="9.6450230">
    <ele>3.6</ele>
    <time>2026-01-08T12:29:07Z</time>
   </trkpt>
   <trkpt lat="59.1383750" lon="9.6449980">
    <ele>3.6</ele>
    <time>2026-01-08T12:29:08Z</time>
   </trkpt>
   <trkpt lat="59.1383800" lon="9.6449920">
    <ele>3.6</ele>
    <time>2026-01-08T12:29:09Z</time>
   </trkpt>
   <trkpt lat="59.1383810" lon="9.6450060">
    <ele>3.6</ele>
    <time>2026-01-08T12:29:10Z</time>
   </trkpt>
   <trkpt lat="59.1383740" lon="9.6450160">
    <ele>3.6</ele>
    <time>2026-01-08T12:29:11Z</time>
   </trkpt>
   <trkpt lat="59.1383850" lon="9.6450250">
    <ele>3.6</ele>
    <time>2026-01-08T12:29:12Z</time>
   </trkpt>
   <trkpt lat="59.1383870" lon="9.6450240">
    <ele>3.6</ele>
    <time>2026-01-08T12:29:13Z</time>
   </trkpt>
   <trkpt lat="59.1383870" lon="9.6450240">
    <ele>3.6</ele>
    <time>2026-01-08T12:29:14Z</time>
   </trkpt>
   <trkpt lat="59.1383980" lon="9.6450280">
    <ele>3.6</ele>
    <time>2026-01-08T12:29:15Z</time>
   </trkpt>
   <trkpt lat="59.1384000" lon="9.6450310">
    <ele>3.6</ele>
    <time>2026-01-08T12:29:16Z</time>
   </trkpt>
   <trkpt lat="59.1384000" lon="9.6450310">
    <ele>3.6</ele>
    <time>2026-01-08T12:29:17Z</time>
   </trkpt>
   <trkpt lat="59.1384000" lon="9.6450310">
    <ele>3.6</ele>
    <time>2026-01-08T12:29:18Z</time>
   </trkpt>
   <trkpt lat="59.1384000" lon="9.6450310">
    <ele>3.6</ele>
    <time>2026-01-08T12:29:19Z</time>
   </trkpt>
   <trkpt lat="59.1384000" lon="9.6450310">
    <ele>3.6</ele>
    <time>2026-01-08T12:29:20Z</time>
   </trkpt>
   <trkpt lat="59.1383940" lon="9.6450390">
    <ele>3.6</ele>
    <time>2026-01-08T12:29:21Z</time>
   </trkpt>
   <trkpt lat="59.1383960" lon="9.6450290">
    <ele>3.6</ele>
    <time>2026-01-08T12:29:22Z</time>
   </trkpt>
   <trkpt lat="59.1383950" lon="9.6450180">
    <ele>3.6</ele>
    <time>2026-01-08T12:29:23Z</time>
   </trkpt>
   <trkpt lat="59.1383890" lon="9.6450040">
    <ele>3.6</ele>
    <time>2026-01-08T12:29:24Z</time>
   </trkpt>
   <trkpt lat="59.1383740" lon="9.6449850">
    <ele>3.6</ele>
    <time>2026-01-08T12:29:25Z</time>
   </trkpt>
   <trkpt lat="59.1383810" lon="9.6449660">
    <ele>3.6</ele>
    <time>2026-01-08T12:29:26Z</time>
   </trkpt>
   <trkpt lat="59.1383610" lon="9.6449180">
    <ele>3.6</ele>
    <time>2026-01-08T12:29:27Z</time>
   </trkpt>
   <trkpt lat="59.1383300" lon="9.6449300">
    <ele>3.5</ele>
    <time>2026-01-08T12:29:28Z</time>
   </trkpt>
   <trkpt lat="59.1383180" lon="9.6449270">
    <ele>3.5</ele>
    <time>2026-01-08T12:29:29Z</time>
   </trkpt>
   <trkpt lat="59.1383160" lon="9.6448980">
    <ele>3.5</ele>
    <time>2026-01-08T12:29:30Z</time>
   </trkpt>
   <trkpt lat="59.1383020" lon="9.6448680">
    <ele>3.5</ele>
    <time>2026-01-08T12:29:31Z</time>
   </trkpt>
   <trkpt lat="59.1383000" lon="9.6448290">
    <ele>3.5</ele>
    <time>2026-01-08T12:29:32Z</time>
   </trkpt>
   <trkpt lat="59.1382960" lon="9.6448070">
    <ele>3.5</ele>
    <time>2026-01-08T12:29:33Z</time>
   </trkpt>
   <trkpt lat="59.1382930" lon="9.6447840">
    <ele>3.5</ele>
    <time>2026-01-08T12:29:34Z</time>
   </trkpt>
   <trkpt lat="59.1382670" lon="9.6447710">
    <ele>3.5</ele>
    <time>2026-01-08T12:29:35Z</time>
   </trkpt>
   <trkpt lat="59.1382520" lon="9.6447300">
    <ele>3.5</ele>
    <time>2026-01-08T12:29:36Z</time>
   </trkpt>
   <trkpt lat="59.1382570" lon="9.6447220">
    <ele>3.5</ele>
    <time>2026-01-08T12:29:37Z</time>
   </trkpt>
   <trkpt lat="59.1382370" lon="9.6446850">
    <ele>3.4</ele>
    <time>2026-01-08T12:29:38Z</time>
   </trkpt>
   <trkpt lat="59.1382240" lon="9.6446730">
    <ele>3.4</ele>
    <time>2026-01-08T12:29:39Z</time>
   </trkpt>
   <trkpt lat="59.1382080" lon="9.6446360">
    <ele>3.4</ele>
    <time>2026-01-08T12:29:40Z</time>
   </trkpt>
   <trkpt lat="59.1382030" lon="9.6446260">
    <ele>3.4</ele>
    <time>2026-01-08T12:29:41Z</time>
   </trkpt>
   <trkpt lat="59.1381990" lon="9.6446170">
    <ele>3.4</ele>
    <time>2026-01-08T12:29:42Z</time>
   </trkpt>
   <trkpt lat="59.1381960" lon="9.6445970">
    <ele>3.4</ele>
    <time>2026-01-08T12:29:43Z</time>
   </trkpt>
   <trkpt lat="59.1381970" lon="9.6445670">
    <ele>3.4</ele>
    <time>2026-01-08T12:29:44Z</time>
   </trkpt>
   <trkpt lat="59.1381870" lon="9.6445530">
    <ele>3.4</ele>
    <time>2026-01-08T12:29:45Z</time>
   </trkpt>
   <trkpt lat="59.1381910" lon="9.6445290">
    <ele>3.4</ele>
    <time>2026-01-08T12:29:46Z</time>
   </trkpt>
   <trkpt lat="59.1381910" lon="9.6445290">
    <ele>3.4</ele>
    <time>2026-01-08T12:29:47Z</time>
   </trkpt>
   <trkpt lat="59.1381920" lon="9.6445280">
    <ele>3.4</ele>
    <time>2026-01-08T12:29:48Z</time>
   </trkpt>
   <trkpt lat="59.1381920" lon="9.6445280">
    <ele>3.4</ele>
    <time>2026-01-08T12:29:49Z</time>
   </trkpt>
   <trkpt lat="59.1381930" lon="9.6445270">
    <ele>3.4</ele>
    <time>2026-01-08T12:29:50Z</time>
   </trkpt>
   <trkpt lat="59.1381930" lon="9.6445260">
    <ele>3.4</ele>
    <time>2026-01-08T12:29:51Z</time>
   </trkpt>
   <trkpt lat="59.1381940" lon="9.6445260">
    <ele>3.4</ele>
    <time>2026-01-08T12:29:52Z</time>
   </trkpt>
   <trkpt lat="59.1381940" lon="9.6445250">
    <ele>3.4</ele>
    <time>2026-01-08T12:29:53Z</time>
   </trkpt>
   <trkpt lat="59.1381950" lon="9.6445240">
    <ele>3.4</ele>
    <time>2026-01-08T12:29:54Z</time>
   </trkpt>
   <trkpt lat="59.1381950" lon="9.6445240">
    <ele>3.4</ele>
    <time>2026-01-08T12:29:55Z</time>
   </trkpt>
   <trkpt lat="59.1381960" lon="9.6445230">
    <ele>3.4</ele>
    <time>2026-01-08T12:29:56Z</time>
   </trkpt>
   <trkpt lat="59.1381960" lon="9.6445230">
    <ele>3.4</ele>
    <time>2026-01-08T12:29:57Z</time>
   </trkpt>
   <trkpt lat="59.1381970" lon="9.6445220">
    <ele>3.4</ele>
    <time>2026-01-08T12:29:58Z</time>
   </trkpt>
   <trkpt lat="59.1381970" lon="9.6445210">
    <ele>3.4</ele>
    <time>2026-01-08T12:29:59Z</time>
   </trkpt>
   <trkpt lat="59.1381980" lon="9.6445210">
    <ele>3.4</ele>
    <time>2026-01-08T12:30:00Z</time>
   </trkpt>
   <trkpt lat="59.1381990" lon="9.6445200">
    <ele>3.4</ele>
    <time>2026-01-08T12:30:01Z</time>
   </trkpt>
   <trkpt lat="59.1381990" lon="9.6445190">
    <ele>3.4</ele>
    <time>2026-01-08T12:30:02Z</time>
   </trkpt>
   <trkpt lat="59.1382000" lon="9.6445190">
    <ele>3.4</ele>
    <time>2026-01-08T12:30:03Z</time>
   </trkpt>
   <trkpt lat="59.1382000" lon="9.6445180">
    <ele>3.4</ele>
    <time>2026-01-08T12:30:04Z</time>
   </trkpt>
   <trkpt lat="59.1382010" lon="9.6445180">
    <ele>3.4</ele>
    <time>2026-01-08T12:30:05Z</time>
   </trkpt>
   <trkpt lat="59.1382010" lon="9.6445170">
    <ele>3.4</ele>
    <time>2026-01-08T12:30:06Z</time>
   </trkpt>
   <trkpt lat="59.1382020" lon="9.6445160">
    <ele>3.4</ele>
    <time>2026-01-08T12:30:07Z</time>
   </trkpt>
   <trkpt lat="59.1382020" lon="9.6445160">
    <ele>3.4</ele>
    <time>2026-01-08T12:30:08Z</time>
   </trkpt>
   <trkpt lat="59.1382030" lon="9.6445150">
    <ele>3.4</ele>
    <time>2026-01-08T12:30:09Z</time>
   </trkpt>
   <trkpt lat="59.1382030" lon="9.6445150">
    <ele>3.4</ele>
    <time>2026-01-08T12:30:10Z</time>
   </trkpt>
   <trkpt lat="59.1382040" lon="9.6445140">
    <ele>3.4</ele>
    <time>2026-01-08T12:30:11Z</time>
   </trkpt>
   <trkpt lat="59.1382040" lon="9.6445130">
    <ele>3.4</ele>
    <time>2026-01-08T12:30:12Z</time>
   </trkpt>
   <trkpt lat="59.1382050" lon="9.6445130">
    <ele>3.4</ele>
    <time>2026-01-08T12:30:13Z</time>
   </trkpt>
   <trkpt lat="59.1382060" lon="9.6445120">
    <ele>3.4</ele>
    <time>2026-01-08T12:30:14Z</time>
   </trkpt>
   <trkpt lat="59.1382060" lon="9.6445110">
    <ele>3.4</ele>
    <time>2026-01-08T12:30:15Z</time>
   </trkpt>
   <trkpt lat="59.1382070" lon="9.6445110">
    <ele>3.4</ele>
    <time>2026-01-08T12:30:16Z</time>
   </trkpt>
   <trkpt lat="59.1382070" lon="9.6445100">
    <ele>3.4</ele>
    <time>2026-01-08T12:30:17Z</time>
   </trkpt>
   <trkpt lat="59.1382080" lon="9.6445100">
    <ele>3.4</ele>
    <time>2026-01-08T12:30:18Z</time>
   </trkpt>
   <trkpt lat="59.1382080" lon="9.6445090">
    <ele>3.4</ele>
    <time>2026-01-08T12:30:19Z</time>
   </trkpt>
   <trkpt lat="59.1382090" lon="9.6445080">
    <ele>3.4</ele>
    <time>2026-01-08T12:30:20Z</time>
   </trkpt>
   <trkpt lat="59.1382090" lon="9.6445080">
    <ele>3.4</ele>
    <time>2026-01-08T12:30:21Z</time>
   </trkpt>
   <trkpt lat="59.1382100" lon="9.6445070">
    <ele>3.4</ele>
    <time>2026-01-08T12:30:22Z</time>
   </trkpt>
   <trkpt lat="59.1382100" lon="9.6445060">
    <ele>3.4</ele>
    <time>2026-01-08T12:30:23Z</time>
   </trkpt>
   <trkpt lat="59.1382110" lon="9.6445060">
    <ele>3.4</ele>
    <time>2026-01-08T12:30:24Z</time>
   </trkpt>
   <trkpt lat="59.1382110" lon="9.6445050">
    <ele>3.4</ele>
    <time>2026-01-08T12:30:25Z</time>
   </trkpt>
   <trkpt lat="59.1382120" lon="9.6445050">
    <ele>3.4</ele>
    <time>2026-01-08T12:30:26Z</time>
   </trkpt>
   <trkpt lat="59.1382120" lon="9.6445040">
    <ele>3.4</ele>
    <time>2026-01-08T12:30:27Z</time>
   </trkpt>
   <trkpt lat="59.1382130" lon="9.6445030">
    <ele>3.4</ele>
    <time>2026-01-08T12:30:28Z</time>
   </trkpt>
   <trkpt lat="59.1382140" lon="9.6445030">
    <ele>3.4</ele>
    <time>2026-01-08T12:30:29Z</time>
   </trkpt>
   <trkpt lat="59.1382140" lon="9.6445020">
    <ele>3.4</ele>
    <time>2026-01-08T12:30:30Z</time>
   </trkpt>
   <trkpt lat="59.1382150" lon="9.6445010">
    <ele>3.4</ele>
    <time>2026-01-08T12:30:31Z</time>
   </trkpt>
   <trkpt lat="59.1382150" lon="9.6445010">
    <ele>3.4</ele>
    <time>2026-01-08T12:30:33Z</time>
   </trkpt>
   <trkpt lat="59.1382160" lon="9.6445000">
    <ele>3.4</ele>
    <time>2026-01-08T12:30:34Z</time>
   </trkpt>
   <trkpt lat="59.1382160" lon="9.6445000">
    <ele>3.4</ele>
    <time>2026-01-08T12:30:35Z</time>
   </trkpt>
   <trkpt lat="59.1382170" lon="9.6444990">
    <ele>3.4</ele>
    <time>2026-01-08T12:30:36Z</time>
   </trkpt>
   <trkpt lat="59.1382170" lon="9.6444980">
    <ele>3.4</ele>
    <time>2026-01-08T12:30:37Z</time>
   </trkpt>
   <trkpt lat="59.1382180" lon="9.6444980">
    <ele>3.4</ele>
    <time>2026-01-08T12:30:38Z</time>
   </trkpt>
   <trkpt lat="59.1382180" lon="9.6444970">
    <ele>3.4</ele>
    <time>2026-01-08T12:30:39Z</time>
   </trkpt>
   <trkpt lat="59.1382190" lon="9.6444970">
    <ele>3.4</ele>
    <time>2026-01-08T12:30:40Z</time>
   </trkpt>
   <trkpt lat="59.1382190" lon="9.6444960">
    <ele>3.4</ele>
    <time>2026-01-08T12:30:41Z</time>
   </trkpt>
   <trkpt lat="59.1382200" lon="9.6444950">
    <ele>3.4</ele>
    <time>2026-01-08T12:30:42Z</time>
   </trkpt>
   <trkpt lat="59.1382210" lon="9.6444950">
    <ele>3.4</ele>
    <time>2026-01-08T12:30:43Z</time>
   </trkpt>
   <trkpt lat="59.1382210" lon="9.6444940">
    <ele>3.4</ele>
    <time>2026-01-08T12:30:44Z</time>
   </trkpt>
   <trkpt lat="59.1382220" lon="9.6444930">
    <ele>3.4</ele>
    <time>2026-01-08T12:30:45Z</time>
   </trkpt>
   <trkpt lat="59.1382220" lon="9.6444930">
    <ele>3.4</ele>
    <time>2026-01-08T12:30:46Z</time>
   </trkpt>
   <trkpt lat="59.1382230" lon="9.6444920">
    <ele>3.4</ele>
    <time>2026-01-08T12:30:47Z</time>
   </trkpt>
   <trkpt lat="59.1382230" lon="9.6444920">
    <ele>3.4</ele>
    <time>2026-01-08T12:30:48Z</time>
   </trkpt>
   <trkpt lat="59.1382240" lon="9.6444910">
    <ele>3.4</ele>
    <time>2026-01-08T12:30:49Z</time>
   </trkpt>
   <trkpt lat="59.1382240" lon="9.6444900">
    <ele>3.4</ele>
    <time>2026-01-08T12:30:50Z</time>
   </trkpt>
   <trkpt lat="59.1382250" lon="9.6444900">
    <ele>3.4</ele>
    <time>2026-01-08T12:30:51Z</time>
   </trkpt>
   <trkpt lat="59.1382250" lon="9.6444890">
    <ele>3.4</ele>
    <time>2026-01-08T12:30:52Z</time>
   </trkpt>
   <trkpt lat="59.1382260" lon="9.6444880">
    <ele>3.4</ele>
    <time>2026-01-08T12:30:53Z</time>
   </trkpt>
   <trkpt lat="59.1382260" lon="9.6444880">
    <ele>3.4</ele>
    <time>2026-01-08T12:30:54Z</time>
   </trkpt>
   <trkpt lat="59.1382270" lon="9.6444870">
    <ele>3.4</ele>
    <time>2026-01-08T12:30:55Z</time>
   </trkpt>
   <trkpt lat="59.1382270" lon="9.6444870">
    <ele>3.4</ele>
    <time>2026-01-08T12:30:56Z</time>
   </trkpt>
   <trkpt lat="59.1382280" lon="9.6444860">
    <ele>3.4</ele>
    <time>2026-01-08T12:30:57Z</time>
   </trkpt>
   <trkpt lat="59.1382240" lon="9.6444790">
    <ele>3.4</ele>
    <time>2026-01-08T12:30:58Z</time>
   </trkpt>
   <trkpt lat="59.1382240" lon="9.6444290">
    <ele>3.3</ele>
    <time>2026-01-08T12:30:59Z</time>
   </trkpt>
   <trkpt lat="59.1382140" lon="9.6444050">
    <ele>3.3</ele>
    <time>2026-01-08T12:31:00Z</time>
   </trkpt>
   <trkpt lat="59.1382100" lon="9.6444000">
    <ele>3.3</ele>
    <time>2026-01-08T12:31:01Z</time>
   </trkpt>
   <trkpt lat="59.1382040" lon="9.6443780">
    <ele>3.3</ele>
    <time>2026-01-08T12:31:02Z</time>
   </trkpt>
   <trkpt lat="59.1382010" lon="9.6443500">
    <ele>3.3</ele>
    <time>2026-01-08T12:31:03Z</time>
   </trkpt>
   <trkpt lat="59.1381900" lon="9.6443150">
    <ele>3.3</ele>
    <time>2026-01-08T12:31:04Z</time>
   </trkpt>
   <trkpt lat="59.1381720" lon="9.6442680">
    <ele>3.3</ele>
    <time>2026-01-08T12:31:05Z</time>
   </trkpt>
   <trkpt lat="59.1381660" lon="9.6442570">
    <ele>3.3</ele>
    <time>2026-01-08T12:31:06Z</time>
   </trkpt>
   <trkpt lat="59.1381620" lon="9.6442440">
    <ele>3.3</ele>
    <time>2026-01-08T12:31:07Z</time>
   </trkpt>
   <trkpt lat="59.1381440" lon="9.6442250">
    <ele>3.3</ele>
    <time>2026-01-08T12:31:08Z</time>
   </trkpt>
   <trkpt lat="59.1381260" lon="9.6442050">
    <ele>3.3</ele>
    <time>2026-01-08T12:31:09Z</time>
   </trkpt>
   <trkpt lat="59.1381200" lon="9.6441920">
    <ele>3.3</ele>
    <time>2026-01-08T12:31:10Z</time>
   </trkpt>
   <trkpt lat="59.1381150" lon="9.6441790">
    <ele>3.3</ele>
    <time>2026-01-08T12:31:11Z</time>
   </trkpt>
   <trkpt lat="59.1381050" lon="9.6441650">
    <ele>3.3</ele>
    <time>2026-01-08T12:31:12Z</time>
   </trkpt>
   <trkpt lat="59.1380950" lon="9.6441440">
    <ele>3.2</ele>
    <time>2026-01-08T12:31:13Z</time>
   </trkpt>
   <trkpt lat="59.1380860" lon="9.6441300">
    <ele>3.2</ele>
    <time>2026-01-08T12:31:14Z</time>
   </trkpt>
   <trkpt lat="59.1380740" lon="9.6441170">
    <ele>3.2</ele>
    <time>2026-01-08T12:31:15Z</time>
   </trkpt>
   <trkpt lat="59.1380660" lon="9.6441030">
    <ele>3.2</ele>
    <time>2026-01-08T12:31:16Z</time>
   </trkpt>
   <trkpt lat="59.1380580" lon="9.6440850">
    <ele>3.2</ele>
    <time>2026-01-08T12:31:17Z</time>
   </trkpt>
   <trkpt lat="59.1380470" lon="9.6440680">
    <ele>3.2</ele>
    <time>2026-01-08T12:31:18Z</time>
   </trkpt>
   <trkpt lat="59.1380370" lon="9.6440580">
    <ele>3.2</ele>
    <time>2026-01-08T12:31:19Z</time>
   </trkpt>
   <trkpt lat="59.1380330" lon="9.6440310">
    <ele>3.2</ele>
    <time>2026-01-08T12:31:20Z</time>
   </trkpt>
   <trkpt lat="59.1380260" lon="9.6440090">
    <ele>3.2</ele>
    <time>2026-01-08T12:31:21Z</time>
   </trkpt>
   <trkpt lat="59.1380200" lon="9.6439890">
    <ele>3.2</ele>
    <time>2026-01-08T12:31:22Z</time>
   </trkpt>
   <trkpt lat="59.1380120" lon="9.6439660">
    <ele>3.2</ele>
    <time>2026-01-08T12:31:23Z</time>
   </trkpt>
   <trkpt lat="59.1380090" lon="9.6439470">
    <ele>3.2</ele>
    <time>2026-01-08T12:31:24Z</time>
   </trkpt>
   <trkpt lat="59.1380010" lon="9.6439110">
    <ele>3.2</ele>
    <time>2026-01-08T12:31:25Z</time>
   </trkpt>
   <trkpt lat="59.1379950" lon="9.6438940">
    <ele>3.2</ele>
    <time>2026-01-08T12:31:26Z</time>
   </trkpt>
   <trkpt lat="59.1379890" lon="9.6438780">
    <ele>3.2</ele>
    <time>2026-01-08T12:31:27Z</time>
   </trkpt>
   <trkpt lat="59.1379800" lon="9.6438560">
    <ele>3.2</ele>
    <time>2026-01-08T12:31:28Z</time>
   </trkpt>
   <trkpt lat="59.1379750" lon="9.6438340">
    <ele>3.2</ele>
    <time>2026-01-08T12:31:29Z</time>
   </trkpt>
   <trkpt lat="59.1379710" lon="9.6438230">
    <ele>3.2</ele>
    <time>2026-01-08T12:31:30Z</time>
   </trkpt>
   <trkpt lat="59.1379700" lon="9.6438210">
    <ele>3.2</ele>
    <time>2026-01-08T12:31:31Z</time>
   </trkpt>
   <trkpt lat="59.1379770" lon="9.6438200">
    <ele>3.2</ele>
    <time>2026-01-08T12:31:32Z</time>
   </trkpt>
   <trkpt lat="59.1379820" lon="9.6438200">
    <ele>3.2</ele>
    <time>2026-01-08T12:31:33Z</time>
   </trkpt>
   <trkpt lat="59.1379830" lon="9.6438190">
    <ele>3.2</ele>
    <time>2026-01-08T12:31:34Z</time>
   </trkpt>
   <trkpt lat="59.1379830" lon="9.6438190">
    <ele>3.2</ele>
    <time>2026-01-08T12:31:35Z</time>
   </trkpt>
   <trkpt lat="59.1379940" lon="9.6438160">
    <ele>3.2</ele>
    <time>2026-01-08T12:31:36Z</time>
   </trkpt>
   <trkpt lat="59.1379980" lon="9.6438070">
    <ele>3.2</ele>
    <time>2026-01-08T12:31:37Z</time>
   </trkpt>
   <trkpt lat="59.1380030" lon="9.6438080">
    <ele>3.2</ele>
    <time>2026-01-08T12:31:38Z</time>
   </trkpt>
   <trkpt lat="59.1380030" lon="9.6438080">
    <ele>3.2</ele>
    <time>2026-01-08T12:31:39Z</time>
   </trkpt>
   <trkpt lat="59.1380030" lon="9.6438080">
    <ele>3.2</ele>
    <time>2026-01-08T12:31:40Z</time>
   </trkpt>
   <trkpt lat="59.1380030" lon="9.6438080">
    <ele>3.2</ele>
    <time>2026-01-08T12:31:41Z</time>
   </trkpt>
   <trkpt lat="59.1380030" lon="9.6438080">
    <ele>3.2</ele>
    <time>2026-01-08T12:31:42Z</time>
   </trkpt>
  </trkseg>
 </trk>
</gpx>
